<?xml version='1.0' encoding='UTF-8'?><gpx version="1.1" creator="JPX - https://github.com/jenetics/jpx" xmlns="http://www.topografix.com/GPX/1/1"><trk><trkseg><trkpt lat="45.08227" lon="7.3339117"><ele>1008.9999999999999</ele><time>2026-04-04T05:12:49.501Z</time></trkpt><trkpt lat="45.082145" lon="7.333872"><ele>1009.0</ele><time>2026-04-04T05:13:21.526Z</time></trkpt><trkpt lat="45.0820771" lon="7.3339353"><ele>1009.0</ele><time>2026-04-04T05:13:26.521Z</time></trkpt><trkpt lat="45.0820438" lon="7.334028"><ele>1009.0</ele><time>2026-04-04T05:13:30.559Z</time></trkpt><trkpt lat="45.0819855" lon="7.334068"><ele>1008.9999999999999</ele><time>2026-04-04T05:13:37.572Z</time></trkpt><trkpt lat="45.0819112" lon="7.3340609"><ele>1009.0</ele><time>2026-04-04T05:13:41.503Z</time></trkpt><trkpt lat="45.0818454" lon="7.334078"><ele>1009.0</ele><time>2026-04-04T05:13:46.576Z</time></trkpt><trkpt lat="45.0817815" lon="7.3341002"><ele>1009.0</ele><time>2026-04-04T05:13:52.553Z</time></trkpt><trkpt lat="45.0817155" lon="7.3341139"><ele>1009.0</ele><time>2026-04-04T05:13:59.559Z</time></trkpt><trkpt lat="45.0816403" lon="7.3341367"><ele>1009.0</ele><time>2026-04-04T05:14:06.503Z</time></trkpt><trkpt lat="45.0815764" lon="7.3341553"><ele>1009.0</ele><time>2026-04-04T05:14:14.548Z</time></trkpt><trkpt lat="45.0815658" lon="7.3340648"><ele>1009.0</ele><time>2026-04-04T05:14:25.6Z</time></trkpt><trkpt lat="45.0815965" lon="7.3339806"><ele>1009.0</ele><time>2026-04-04T05:14:35.588Z</time></trkpt><trkpt lat="45.0816156" lon="7.3338911"><ele>1012.4285714285714</ele><time>2026-04-04T05:14:44.512Z</time></trkpt><trkpt lat="45.0816576" lon="7.333818"><ele>1015.8571428571429</ele><time>2026-04-04T05:14:53.545Z</time></trkpt><trkpt lat="45.0817201" lon="7.3337856"><ele>1019.2857142857143</ele><time>2026-04-04T05:14:58.539Z</time></trkpt><trkpt lat="45.081793" lon="7.3337465"><ele>1022.7142857142858</ele><time>2026-04-04T05:15:04.595Z</time></trkpt><trkpt lat="45.0818625" lon="7.3337354"><ele>1026.142857142857</ele><time>2026-04-04T05:15:10.545Z</time></trkpt><trkpt lat="45.081937" lon="7.3337116"><ele>1029.5714285714287</ele><time>2026-04-04T05:15:18.514Z</time></trkpt><trkpt lat="45.0819931" lon="7.3336708"><ele>1033.0</ele><time>2026-04-04T05:15:21.503Z</time></trkpt><trkpt lat="45.082049" lon="7.3336241"><ele>1033.0000000000002</ele><time>2026-04-04T05:15:25.595Z</time></trkpt><trkpt lat="45.0821064" lon="7.3335647"><ele>1033.0</ele><time>2026-04-04T05:15:31.583Z</time></trkpt><trkpt lat="45.0821613" lon="7.3334949"><ele>1033.0</ele><time>2026-04-04T05:15:36.576Z</time></trkpt><trkpt lat="45.0822019" lon="7.33342"><ele>1033.0</ele><time>2026-04-04T05:15:42.527Z</time></trkpt><trkpt lat="45.0822336" lon="7.3333369"><ele>1033.0</ele><time>2026-04-04T05:15:51.558Z</time></trkpt><trkpt lat="45.0822718" lon="7.3332651"><ele>1033.0000000000002</ele><time>2026-04-04T05:15:57.508Z</time></trkpt><trkpt lat="45.0823013" lon="7.33318"><ele>1033.0</ele><time>2026-04-04T05:16:03.563Z</time></trkpt><trkpt lat="45.0823195" lon="7.3330857"><ele>1034.857142857143</ele><time>2026-04-04T05:16:09.539Z</time></trkpt><trkpt lat="45.0823227" lon="7.3329893"><ele>1036.7142857142858</ele><time>2026-04-04T05:16:14.519Z</time></trkpt><trkpt lat="45.0823104" lon="7.3328883"><ele>1038.5714285714284</ele><time>2026-04-04T05:16:21.556Z</time></trkpt><trkpt lat="45.0823125" lon="7.3327879"><ele>1040.4285714285716</ele><time>2026-04-04T05:16:27.479Z</time></trkpt><trkpt lat="45.0823297" lon="7.3326967"><ele>1042.2857142857142</ele><time>2026-04-04T05:16:34.589Z</time></trkpt><trkpt lat="45.0823426" lon="7.3326067"><ele>1044.142857142857</ele><time>2026-04-04T05:16:42.558Z</time></trkpt><trkpt lat="45.0823202" lon="7.3325209"><ele>1046.0</ele><time>2026-04-04T05:16:47.552Z</time></trkpt><trkpt lat="45.0822866" lon="7.3324454"><ele>1045.9999999999998</ele><time>2026-04-04T05:16:52.546Z</time></trkpt><trkpt lat="45.0822375" lon="7.3323864"><ele>1046.0</ele><time>2026-04-04T05:16:58.558Z</time></trkpt><trkpt lat="45.082195" lon="7.3323139"><ele>1046.0</ele><time>2026-04-04T05:17:06.571Z</time></trkpt><trkpt lat="45.0821365" lon="7.3322763"><ele>1046.0</ele><time>2026-04-04T05:17:14.396Z</time></trkpt><trkpt lat="45.0820722" lon="7.3322659"><ele>1046.0</ele><time>2026-04-04T05:17:19.534Z</time></trkpt><trkpt lat="45.0820086" lon="7.3323049"><ele>1045.9999999999998</ele><time>2026-04-04T05:17:27.518Z</time></trkpt><trkpt lat="45.0819448" lon="7.3323438"><ele>1046.0</ele><time>2026-04-04T05:17:37.504Z</time></trkpt><trkpt lat="45.0819177" lon="7.3324378"><ele>1046.0</ele><time>2026-04-04T05:17:54.596Z</time></trkpt><trkpt lat="45.0818427" lon="7.3325273"><ele>1046.0</ele><time>2026-04-04T05:18:11.504Z</time></trkpt><trkpt lat="45.0817817" lon="7.3325669"><ele>1046.0</ele><time>2026-04-04T05:18:24.617Z</time></trkpt><trkpt lat="45.0817207" lon="7.3325922"><ele>1046.0</ele><time>2026-04-04T05:18:29.505Z</time></trkpt><trkpt lat="45.0816577" lon="7.3325732"><ele>1046.0</ele><time>2026-04-04T05:18:37.579Z</time></trkpt><trkpt lat="45.0815581" lon="7.3325606"><ele>1046.0</ele><time>2026-04-04T05:19:00.528Z</time></trkpt><trkpt lat="45.0815075" lon="7.3326224"><ele>1048.2857142857142</ele><time>2026-04-04T05:19:07.542Z</time></trkpt><trkpt lat="45.0814511" lon="7.3326669"><ele>1050.5714285714284</ele><time>2026-04-04T05:19:18.592Z</time></trkpt><trkpt lat="45.0813797" lon="7.3326318"><ele>1052.857142857143</ele><time>2026-04-04T05:19:28.579Z</time></trkpt><trkpt lat="45.081328" lon="7.3325542"><ele>1055.142857142857</ele><time>2026-04-04T05:19:36.548Z</time></trkpt><trkpt lat="45.0812787" lon="7.3324908"><ele>1057.4285714285716</ele><time>2026-04-04T05:19:47.598Z</time></trkpt><trkpt lat="45.0812179" lon="7.3324606"><ele>1059.7142857142858</ele><time>2026-04-04T05:19:54.576Z</time></trkpt><trkpt lat="45.0811729" lon="7.332366"><ele>1062.0</ele><time>2026-04-04T05:20:08.528Z</time></trkpt><trkpt lat="45.0811588" lon="7.3321615"><ele>1064.4285714285716</ele><time>2026-04-04T05:20:30.522Z</time></trkpt><trkpt lat="45.0811433" lon="7.3320684"><ele>1066.857142857143</ele><time>2026-04-04T05:20:38.505Z</time></trkpt><trkpt lat="45.0811047" lon="7.3319893"><ele>1069.2857142857142</ele><time>2026-04-04T05:20:46.564Z</time></trkpt><trkpt lat="45.0810476" lon="7.3319227"><ele>1071.7142857142858</ele><time>2026-04-04T05:20:51.559Z</time></trkpt><trkpt lat="45.0809882" lon="7.3318756"><ele>1074.142857142857</ele><time>2026-04-04T05:20:59.527Z</time></trkpt><trkpt lat="45.0809332" lon="7.3318133"><ele>1076.5714285714287</ele><time>2026-04-04T05:21:08.559Z</time></trkpt><trkpt lat="45.080872" lon="7.3317887"><ele>1079.0</ele><time>2026-04-04T05:21:16.527Z</time></trkpt><trkpt lat="45.0809044" lon="7.3316967"><ele>1079.0</ele><time>2026-04-04T05:21:35.546Z</time></trkpt><trkpt lat="45.0809526" lon="7.33163"><ele>1079.0</ele><time>2026-04-04T05:21:40.539Z</time></trkpt><trkpt lat="45.0810093" lon="7.3315698"><ele>1079.0</ele><time>2026-04-04T05:21:45.598Z</time></trkpt><trkpt lat="45.0810502" lon="7.3314992"><ele>1079.0</ele><time>2026-04-04T05:21:51.589Z</time></trkpt><trkpt lat="45.0810544" lon="7.3314102"><ele>1079.0</ele><time>2026-04-04T05:21:59.558Z</time></trkpt><trkpt lat="45.080939" lon="7.3314571"><ele>1079.0</ele><time>2026-04-04T05:22:16.557Z</time></trkpt><trkpt lat="45.0808668" lon="7.3314557"><ele>1079.0</ele><time>2026-04-04T05:22:23.57Z</time></trkpt><trkpt lat="45.0807915" lon="7.3314604"><ele>1079.0</ele><time>2026-04-04T05:22:30.582Z</time></trkpt><trkpt lat="45.0807263" lon="7.3314578"><ele>1079.0</ele><time>2026-04-04T05:22:36.532Z</time></trkpt><trkpt lat="45.080655" lon="7.331467"><ele>1079.0</ele><time>2026-04-04T05:22:41.526Z</time></trkpt><trkpt lat="45.0805873" lon="7.3314966"><ele>1079.0</ele><time>2026-04-04T05:22:45.563Z</time></trkpt><trkpt lat="45.0805188" lon="7.3315289"><ele>1079.0</ele><time>2026-04-04T05:22:51.539Z</time></trkpt><trkpt lat="45.0804579" lon="7.331581"><ele>1079.0</ele><time>2026-04-04T05:22:57.569Z</time></trkpt><trkpt lat="45.0803998" lon="7.3316338"><ele>1079.857142857143</ele><time>2026-04-04T05:23:02.562Z</time></trkpt><trkpt lat="45.0803421" lon="7.3316816"><ele>1080.7142857142858</ele><time>2026-04-04T05:23:07.34Z</time></trkpt><trkpt lat="45.0802637" lon="7.3317249"><ele>1081.5714285714284</ele><time>2026-04-04T05:23:15.521Z</time></trkpt><trkpt lat="45.0801919" lon="7.331748"><ele>1082.4285714285716</ele><time>2026-04-04T05:23:18.553Z</time></trkpt><trkpt lat="45.0801285" lon="7.3317578"><ele>1083.2857142857142</ele><time>2026-04-04T05:23:22.591Z</time></trkpt><trkpt lat="45.080127" lon="7.3316636"><ele>1084.142857142857</ele><time>2026-04-04T05:23:51.521Z</time></trkpt><trkpt lat="45.0801457" lon="7.3315741"><ele>1085.0</ele><time>2026-04-04T05:23:59.565Z</time></trkpt><trkpt lat="45.0801147" lon="7.3314901"><ele>1085.0</ele><time>2026-04-04T05:24:06.584Z</time></trkpt><trkpt lat="45.0800783" lon="7.3313987"><ele>1085.0</ele><time>2026-04-04T05:24:15.609Z</time></trkpt><trkpt lat="45.0800615" lon="7.3313047"><ele>1085.0</ele><time>2026-04-04T05:24:23.444Z</time></trkpt><trkpt lat="45.0800246" lon="7.3312217"><ele>1085.0</ele><time>2026-04-04T05:24:30.589Z</time></trkpt><trkpt lat="45.0799916" lon="7.3311389"><ele>1085.0</ele><time>2026-04-04T05:24:35.56Z</time></trkpt><trkpt lat="45.0799654" lon="7.3310499"><ele>1085.0</ele><time>2026-04-04T05:24:41.533Z</time></trkpt><trkpt lat="45.0799402" lon="7.3309631"><ele>1085.0</ele><time>2026-04-04T05:24:49.504Z</time></trkpt><trkpt lat="45.0799126" lon="7.330879"><ele>1087.142857142857</ele><time>2026-04-04T05:24:59.595Z</time></trkpt><trkpt lat="45.0798684" lon="7.3308143"><ele>1089.2857142857142</ele><time>2026-04-04T05:25:06.503Z</time></trkpt><trkpt lat="45.0798296" lon="7.3307316"><ele>1091.4285714285716</ele><time>2026-04-04T05:25:13.514Z</time></trkpt><trkpt lat="45.0797881" lon="7.3306523"><ele>1093.5714285714284</ele><time>2026-04-04T05:25:21.589Z</time></trkpt><trkpt lat="45.0797514" lon="7.3305782"><ele>1095.7142857142858</ele><time>2026-04-04T05:25:29.557Z</time></trkpt><trkpt lat="45.0797067" lon="7.3304989"><ele>1097.857142857143</ele><time>2026-04-04T05:25:38.588Z</time></trkpt><trkpt lat="45.0796578" lon="7.3304333"><ele>1100.0</ele><time>2026-04-04T05:25:47.514Z</time></trkpt><trkpt lat="45.079603" lon="7.3303723"><ele>1103.5714285714287</ele><time>2026-04-04T05:25:54.526Z</time></trkpt><trkpt lat="45.0796045" lon="7.3302752"><ele>1107.142857142857</ele><time>2026-04-04T05:26:05.5Z</time></trkpt><trkpt lat="45.0796599" lon="7.3302122"><ele>1110.7142857142858</ele><time>2026-04-04T05:26:17.423Z</time></trkpt><trkpt lat="45.0796892" lon="7.3301037"><ele>1114.2857142857142</ele><time>2026-04-04T05:26:50.519Z</time></trkpt><trkpt lat="45.0797343" lon="7.3300317"><ele>1117.857142857143</ele><time>2026-04-04T05:26:56.574Z</time></trkpt><trkpt lat="45.0797989" lon="7.3300036"><ele>1121.4285714285716</ele><time>2026-04-04T05:27:04.582Z</time></trkpt><trkpt lat="45.0798572" lon="7.3299558"><ele>1125.0</ele><time>2026-04-04T05:27:12.601Z</time></trkpt><trkpt lat="45.0799124" lon="7.3298824"><ele>1125.142857142857</ele><time>2026-04-04T05:27:19.525Z</time></trkpt><trkpt lat="45.0799566" lon="7.3298087"><ele>1125.2857142857144</ele><time>2026-04-04T05:27:26.537Z</time></trkpt><trkpt lat="45.0799682" lon="7.32971"><ele>1125.4285714285716</ele><time>2026-04-04T05:27:33.483Z</time></trkpt><trkpt lat="45.0799512" lon="7.3296195"><ele>1125.5714285714287</ele><time>2026-04-04T05:27:39.505Z</time></trkpt><trkpt lat="45.0799485" lon="7.3295223"><ele>1125.7142857142858</ele><time>2026-04-04T05:27:46.512Z</time></trkpt><trkpt lat="45.0799832" lon="7.3294343"><ele>1125.857142857143</ele><time>2026-04-04T05:27:52.698Z</time></trkpt><trkpt lat="45.0799984" lon="7.3293414"><ele>1126.0</ele><time>2026-04-04T05:28:01.593Z</time></trkpt><trkpt lat="45.0799841" lon="7.3292319"><ele>1126.0</ele><time>2026-04-04T05:28:06.587Z</time></trkpt><trkpt lat="45.0799705" lon="7.3291286"><ele>1126.0</ele><time>2026-04-04T05:28:11.506Z</time></trkpt><trkpt lat="45.0798998" lon="7.3290054"><ele>1126.0</ele><time>2026-04-04T05:28:30.503Z</time></trkpt><trkpt lat="45.0798351" lon="7.3290073"><ele>1126.0</ele><time>2026-04-04T05:28:34.504Z</time></trkpt><trkpt lat="45.0797574" lon="7.3290224"><ele>1126.0</ele><time>2026-04-04T05:28:40.588Z</time></trkpt><trkpt lat="45.0796953" lon="7.3290478"><ele>1126.0</ele><time>2026-04-04T05:28:50.576Z</time></trkpt><trkpt lat="45.0796192" lon="7.3290742"><ele>1128.2857142857142</ele><time>2026-04-04T05:28:57.588Z</time></trkpt><trkpt lat="45.0795644" lon="7.3291209"><ele>1130.5714285714287</ele><time>2026-04-04T05:29:04.469Z</time></trkpt><trkpt lat="45.0795086" lon="7.329079"><ele>1132.857142857143</ele><time>2026-04-04T05:29:13.524Z</time></trkpt><trkpt lat="45.0794883" lon="7.3289909"><ele>1135.142857142857</ele><time>2026-04-04T05:29:22.557Z</time></trkpt><trkpt lat="45.0795025" lon="7.3289001"><ele>1137.4285714285713</ele><time>2026-04-04T05:29:28.465Z</time></trkpt><trkpt lat="45.0794898" lon="7.3287963"><ele>1139.7142857142858</ele><time>2026-04-04T05:29:42.446Z</time></trkpt><trkpt lat="45.0794886" lon="7.328696"><ele>1142.0</ele><time>2026-04-04T05:29:48.348Z</time></trkpt><trkpt lat="45.0794642" lon="7.3286023"><ele>1144.0</ele><time>2026-04-04T05:29:53.543Z</time></trkpt><trkpt lat="45.079473" lon="7.3285086"><ele>1146.0</ele><time>2026-04-04T05:29:59.56Z</time></trkpt><trkpt lat="45.0794219" lon="7.3284531"><ele>1148.0</ele><time>2026-04-04T05:30:09.548Z</time></trkpt><trkpt lat="45.0794528" lon="7.3283719"><ele>1150.0</ele><time>2026-04-04T05:30:22.511Z</time></trkpt><trkpt lat="45.0794934" lon="7.3282983"><ele>1152.0</ele><time>2026-04-04T05:30:34.517Z</time></trkpt><trkpt lat="45.0795489" lon="7.3282256"><ele>1154.0</ele><time>2026-04-04T05:30:40.573Z</time></trkpt><trkpt lat="45.0795817" lon="7.3281414"><ele>1156.0</ele><time>2026-04-04T05:30:47.585Z</time></trkpt><trkpt lat="45.0796178" lon="7.3280562"><ele>1157.857142857143</ele><time>2026-04-04T05:30:55.465Z</time></trkpt><trkpt lat="45.0796586" lon="7.3279759"><ele>1159.7142857142858</ele><time>2026-04-04T05:31:03.524Z</time></trkpt><trkpt lat="45.0796855" lon="7.327886"><ele>1161.5714285714284</ele><time>2026-04-04T05:31:10.535Z</time></trkpt><trkpt lat="45.0796531" lon="7.3277958"><ele>1163.4285714285716</ele><time>2026-04-04T05:31:17.549Z</time></trkpt><trkpt lat="45.0795958" lon="7.3277517"><ele>1165.2857142857142</ele><time>2026-04-04T05:31:29.567Z</time></trkpt><trkpt lat="45.0795306" lon="7.3277766"><ele>1167.142857142857</ele><time>2026-04-04T05:31:38.586Z</time></trkpt><trkpt lat="45.0794709" lon="7.3278054"><ele>1169.0</ele><time>2026-04-04T05:31:43.909Z</time></trkpt><trkpt lat="45.0792932" lon="7.3278927"><ele>1169.0</ele><time>2026-04-04T05:31:52.583Z</time></trkpt><trkpt lat="45.0792305" lon="7.327921"><ele>1169.0</ele><time>2026-04-04T05:31:53.539Z</time></trkpt><trkpt lat="45.0791639" lon="7.3279288"><ele>1169.0</ele><time>2026-04-04T05:31:56.513Z</time></trkpt><trkpt lat="45.0791188" lon="7.328012"><ele>1169.0</ele><time>2026-04-04T05:32:17.552Z</time></trkpt><trkpt lat="45.0790744" lon="7.3281014"><ele>1169.0</ele><time>2026-04-04T05:32:21.589Z</time></trkpt><trkpt lat="45.0790204" lon="7.3281633"><ele>1169.0</ele><time>2026-04-04T05:32:26.546Z</time></trkpt><trkpt lat="45.0789572" lon="7.3281777"><ele>1169.0</ele><time>2026-04-04T05:32:31.577Z</time></trkpt><trkpt lat="45.078893" lon="7.328208"><ele>1168.0</ele><time>2026-04-04T05:32:37.527Z</time></trkpt><trkpt lat="45.0788568" lon="7.3282832"><ele>1167.0</ele><time>2026-04-04T05:32:47.503Z</time></trkpt><trkpt lat="45.0788208" lon="7.3283608"><ele>1166.0</ele><time>2026-04-04T05:32:58.564Z</time></trkpt><trkpt lat="45.0787675" lon="7.3284141"><ele>1165.0</ele><time>2026-04-04T05:33:08.552Z</time></trkpt><trkpt lat="45.0787274" lon="7.3283403"><ele>1164.0</ele><time>2026-04-04T05:33:20.558Z</time></trkpt><trkpt lat="45.078724" lon="7.3282405"><ele>1163.0</ele><time>2026-04-04T05:33:32.564Z</time></trkpt><trkpt lat="45.0787141" lon="7.3281517"><ele>1162.0</ele><time>2026-04-04T05:33:42.552Z</time></trkpt><trkpt lat="45.0787648" lon="7.3280845"><ele>1163.7142857142858</ele><time>2026-04-04T05:33:50.521Z</time></trkpt><trkpt lat="45.0787942" lon="7.3279923"><ele>1165.4285714285716</ele><time>2026-04-04T05:33:56.577Z</time></trkpt><trkpt lat="45.0788316" lon="7.327909"><ele>1167.142857142857</ele><time>2026-04-04T05:34:00.601Z</time></trkpt><trkpt lat="45.0788527" lon="7.3278222"><ele>1168.857142857143</ele><time>2026-04-04T05:34:08.582Z</time></trkpt><trkpt lat="45.078873" lon="7.32773"><ele>1170.5714285714287</ele><time>2026-04-04T05:34:18.57Z</time></trkpt><trkpt lat="45.0788876" lon="7.3276385"><ele>1172.2857142857142</ele><time>2026-04-04T05:34:25.465Z</time></trkpt><trkpt lat="45.0788718" lon="7.3275507"><ele>1174.0</ele><time>2026-04-04T05:34:33.552Z</time></trkpt><trkpt lat="45.0788604" lon="7.3274618"><ele>1174.0</ele><time>2026-04-04T05:34:42.583Z</time></trkpt><trkpt lat="45.0788694" lon="7.3273731"><ele>1174.0</ele><time>2026-04-04T05:34:48.533Z</time></trkpt><trkpt lat="45.07889" lon="7.3272811"><ele>1174.0</ele><time>2026-04-04T05:34:55.545Z</time></trkpt><trkpt lat="45.0789221" lon="7.3270831"><ele>1174.0</ele><time>2026-04-04T05:35:17.525Z</time></trkpt><trkpt lat="45.0789107" lon="7.3269878"><ele>1174.0</ele><time>2026-04-04T05:35:24.55Z</time></trkpt><trkpt lat="45.0788892" lon="7.3268871"><ele>1174.0</ele><time>2026-04-04T05:35:32.52Z</time></trkpt><trkpt lat="45.0788633" lon="7.3268043"><ele>1174.857142857143</ele><time>2026-04-04T05:35:39.532Z</time></trkpt><trkpt lat="45.0788302" lon="7.3267232"><ele>1175.7142857142858</ele><time>2026-04-04T05:35:47.607Z</time></trkpt><trkpt lat="45.0788329" lon="7.3266297"><ele>1176.5714285714287</ele><time>2026-04-04T05:35:55.488Z</time></trkpt><trkpt lat="45.0788218" lon="7.3265334"><ele>1177.4285714285716</ele><time>2026-04-04T05:36:01.525Z</time></trkpt><trkpt lat="45.0788313" lon="7.3264386"><ele>1178.2857142857142</ele><time>2026-04-04T05:36:09.601Z</time></trkpt><trkpt lat="45.0788346" lon="7.3263374"><ele>1179.1428571428573</ele><time>2026-04-04T05:36:15.551Z</time></trkpt><trkpt lat="45.0788313" lon="7.3262483"><ele>1180.0</ele><time>2026-04-04T05:36:21.607Z</time></trkpt><trkpt lat="45.078833" lon="7.3261462"><ele>1180.7142857142858</ele><time>2026-04-04T05:36:27.557Z</time></trkpt><trkpt lat="45.0788425" lon="7.3260473"><ele>1181.4285714285716</ele><time>2026-04-04T05:36:33.613Z</time></trkpt><trkpt lat="45.0788264" lon="7.3259518"><ele>1182.142857142857</ele><time>2026-04-04T05:36:39.563Z</time></trkpt><trkpt lat="45.0788098" lon="7.3258628"><ele>1182.857142857143</ele><time>2026-04-04T05:36:44.583Z</time></trkpt><trkpt lat="45.07879" lon="7.325757"><ele>1183.5714285714284</ele><time>2026-04-04T05:36:50.586Z</time></trkpt><trkpt lat="45.0787511" lon="7.325686"><ele>1184.2857142857142</ele><time>2026-04-04T05:36:55.607Z</time></trkpt><trkpt lat="45.0787056" lon="7.3256121"><ele>1185.0</ele><time>2026-04-04T05:37:01.557Z</time></trkpt><trkpt lat="45.0786546" lon="7.3255519"><ele>1185.7142857142858</ele><time>2026-04-04T05:37:06.606Z</time></trkpt><trkpt lat="45.0786199" lon="7.3254594"><ele>1186.4285714285713</ele><time>2026-04-04T05:37:12.584Z</time></trkpt><trkpt lat="45.0785841" lon="7.3253859"><ele>1187.142857142857</ele><time>2026-04-04T05:37:20.485Z</time></trkpt><trkpt lat="45.0785308" lon="7.325322"><ele>1187.857142857143</ele><time>2026-04-04T05:37:26.604Z</time></trkpt><trkpt lat="45.0784917" lon="7.3252334"><ele>1188.5714285714284</ele><time>2026-04-04T05:37:31.518Z</time></trkpt><trkpt lat="45.0784686" lon="7.3251352"><ele>1189.2857142857142</ele><time>2026-04-04T05:37:41.506Z</time></trkpt><trkpt lat="45.0784546" lon="7.3250473"><ele>1190.0</ele><time>2026-04-04T05:37:48.518Z</time></trkpt><trkpt lat="45.0784433" lon="7.3249587"><ele>1190.0</ele><time>2026-04-04T05:37:52.555Z</time></trkpt><trkpt lat="45.0784467" lon="7.3248554"><ele>1190.0</ele><time>2026-04-04T05:37:57.549Z</time></trkpt><trkpt lat="45.0784379" lon="7.3247582"><ele>1190.0</ele><time>2026-04-04T05:38:03.503Z</time></trkpt><trkpt lat="45.0783942" lon="7.3246762"><ele>1190.0</ele><time>2026-04-04T05:38:11.566Z</time></trkpt><trkpt lat="45.0783298" lon="7.3246285"><ele>1190.0</ele><time>2026-04-04T05:38:19.543Z</time></trkpt><trkpt lat="45.0782744" lon="7.3245831"><ele>1190.0</ele><time>2026-04-04T05:38:31.549Z</time></trkpt><trkpt lat="45.078221" lon="7.3245291"><ele>1190.0</ele><time>2026-04-04T05:38:38.561Z</time></trkpt><trkpt lat="45.0781683" lon="7.3244382"><ele>1190.142857142857</ele><time>2026-04-04T05:38:55.561Z</time></trkpt><trkpt lat="45.0780852" lon="7.324371"><ele>1190.2857142857142</ele><time>2026-04-04T05:39:47.516Z</time></trkpt><trkpt lat="45.0780373" lon="7.3243131"><ele>1190.4285714285716</ele><time>2026-04-04T05:39:51.554Z</time></trkpt><trkpt lat="45.0780229" lon="7.3242254"><ele>1190.5714285714284</ele><time>2026-04-04T05:39:57.486Z</time></trkpt><trkpt lat="45.0779914" lon="7.3241347"><ele>1190.7142857142858</ele><time>2026-04-04T05:40:08.554Z</time></trkpt><trkpt lat="45.0779358" lon="7.3240832"><ele>1190.857142857143</ele><time>2026-04-04T05:40:14.505Z</time></trkpt><trkpt lat="45.0778706" lon="7.3240511"><ele>1191.0</ele><time>2026-04-04T05:40:22.097Z</time></trkpt><trkpt lat="45.0778153" lon="7.3239808"><ele>1191.0</ele><time>2026-04-04T05:40:29.256Z</time></trkpt><trkpt lat="45.0777484" lon="7.3239405"><ele>1191.0</ele><time>2026-04-04T05:40:31.437Z</time></trkpt><trkpt lat="45.0777134" lon="7.3238649"><ele>1191.0</ele><time>2026-04-04T05:40:36.584Z</time></trkpt><trkpt lat="45.0777509" lon="7.3237829"><ele>1191.0</ele><time>2026-04-04T05:40:47.528Z</time></trkpt><trkpt lat="45.0777746" lon="7.3236778"><ele>1191.0</ele><time>2026-04-04T05:40:51.565Z</time></trkpt><trkpt lat="45.0777665" lon="7.3235878"><ele>1191.0</ele><time>2026-04-04T05:40:58.578Z</time></trkpt><trkpt lat="45.0777549" lon="7.323485"><ele>1191.0</ele><time>2026-04-04T05:41:03.571Z</time></trkpt><trkpt lat="45.0777181" lon="7.323397"><ele>1192.857142857143</ele><time>2026-04-04T05:41:08.565Z</time></trkpt><trkpt lat="45.0776997" lon="7.3233044"><ele>1194.7142857142858</ele><time>2026-04-04T05:41:14.514Z</time></trkpt><trkpt lat="45.0776867" lon="7.3232144"><ele>1196.5714285714284</ele><time>2026-04-04T05:41:23.546Z</time></trkpt><trkpt lat="45.0776863" lon="7.3231187"><ele>1198.4285714285716</ele><time>2026-04-04T05:41:31.515Z</time></trkpt><trkpt lat="45.0776835" lon="7.3230165"><ele>1200.2857142857142</ele><time>2026-04-04T05:41:38.528Z</time></trkpt><trkpt lat="45.0776868" lon="7.3229078"><ele>1202.142857142857</ele><time>2026-04-04T05:41:43.521Z</time></trkpt><trkpt lat="45.077695" lon="7.3228011"><ele>1204.0</ele><time>2026-04-04T05:41:48.375Z</time></trkpt><trkpt lat="45.0776834" lon="7.322691"><ele>1205.0</ele><time>2026-04-04T05:41:54.571Z</time></trkpt><trkpt lat="45.0776909" lon="7.3225947"><ele>1206.0</ele><time>2026-04-04T05:42:01.556Z</time></trkpt><trkpt lat="45.0776879" lon="7.3224987"><ele>1207.0</ele><time>2026-04-04T05:42:07.534Z</time></trkpt><trkpt lat="45.0776753" lon="7.3224108"><ele>1208.0</ele><time>2026-04-04T05:42:12.528Z</time></trkpt><trkpt lat="45.0776658" lon="7.3223226"><ele>1209.0</ele><time>2026-04-04T05:42:16.614Z</time></trkpt><trkpt lat="45.0776663" lon="7.3222204"><ele>1210.0</ele><time>2026-04-04T05:42:22.638Z</time></trkpt><trkpt lat="45.0776839" lon="7.3221187"><ele>1211.0</ele><time>2026-04-04T05:42:28.57Z</time></trkpt><trkpt lat="45.0777068" lon="7.3220229"><ele>1211.5714285714287</ele><time>2026-04-04T05:42:33.565Z</time></trkpt><trkpt lat="45.0777434" lon="7.32194"><ele>1212.142857142857</ele><time>2026-04-04T05:42:38.594Z</time></trkpt><trkpt lat="45.0777817" lon="7.3218456"><ele>1212.7142857142858</ele><time>2026-04-04T05:42:44.516Z</time></trkpt><trkpt lat="45.077794" lon="7.3217526"><ele>1213.2857142857142</ele><time>2026-04-04T05:42:50.565Z</time></trkpt><trkpt lat="45.0777884" lon="7.3216632"><ele>1213.857142857143</ele><time>2026-04-04T05:42:56.514Z</time></trkpt><trkpt lat="45.0778071" lon="7.321575"><ele>1214.4285714285716</ele><time>2026-04-04T05:43:02.465Z</time></trkpt><trkpt lat="45.0778289" lon="7.3214864"><ele>1215.0</ele><time>2026-04-04T05:43:06.503Z</time></trkpt><trkpt lat="45.0778484" lon="7.3213965"><ele>1216.4285714285716</ele><time>2026-04-04T05:43:12.558Z</time></trkpt><trkpt lat="45.0778672" lon="7.3213108"><ele>1217.857142857143</ele><time>2026-04-04T05:43:19.57Z</time></trkpt><trkpt lat="45.0778789" lon="7.3212074"><ele>1219.2857142857142</ele><time>2026-04-04T05:43:27.54Z</time></trkpt><trkpt lat="45.0778886" lon="7.3210969"><ele>1220.7142857142858</ele><time>2026-04-04T05:43:34.552Z</time></trkpt><trkpt lat="45.0778732" lon="7.3210005"><ele>1222.142857142857</ele><time>2026-04-04T05:43:40.504Z</time></trkpt><trkpt lat="45.0778375" lon="7.3209182"><ele>1223.5714285714287</ele><time>2026-04-04T05:43:49.534Z</time></trkpt><trkpt lat="45.0777929" lon="7.3208326"><ele>1225.0</ele><time>2026-04-04T05:43:56.546Z</time></trkpt><trkpt lat="45.0777641" lon="7.3207318"><ele>1225.0</ele><time>2026-04-04T05:44:01.54Z</time></trkpt><trkpt lat="45.0777196" lon="7.3206418"><ele>1225.0</ele><time>2026-04-04T05:44:08.552Z</time></trkpt><trkpt lat="45.0776965" lon="7.3205565"><ele>1225.0</ele><time>2026-04-04T05:44:11.526Z</time></trkpt><trkpt lat="45.0776359" lon="7.3205258"><ele>1225.0</ele><time>2026-04-04T05:44:17.583Z</time></trkpt><trkpt lat="45.0776075" lon="7.320439"><ele>1225.0</ele><time>2026-04-04T05:44:29.59Z</time></trkpt><trkpt lat="45.0776031" lon="7.3203487"><ele>1225.0</ele><time>2026-04-04T05:44:34.584Z</time></trkpt><trkpt lat="45.0775801" lon="7.3202654"><ele>1225.0</ele><time>2026-04-04T05:44:40.617Z</time></trkpt><trkpt lat="45.0775349" lon="7.3201985"><ele>1225.7142857142858</ele><time>2026-04-04T05:44:48.503Z</time></trkpt><trkpt lat="45.0774795" lon="7.3201299"><ele>1226.4285714285716</ele><time>2026-04-04T05:44:54.559Z</time></trkpt><trkpt lat="45.0774212" lon="7.320081"><ele>1227.142857142857</ele><time>2026-04-04T05:44:59.552Z</time></trkpt><trkpt lat="45.0773535" lon="7.320033"><ele>1227.857142857143</ele><time>2026-04-04T05:45:05.556Z</time></trkpt><trkpt lat="45.0773129" lon="7.3199462"><ele>1228.5714285714287</ele><time>2026-04-04T05:45:10.602Z</time></trkpt><trkpt lat="45.0773261" lon="7.3198376"><ele>1229.2857142857142</ele><time>2026-04-04T05:45:15.596Z</time></trkpt><trkpt lat="45.0773476" lon="7.3197473"><ele>1230.0</ele><time>2026-04-04T05:45:22.596Z</time></trkpt><trkpt lat="45.0773957" lon="7.3196857"><ele>1232.857142857143</ele><time>2026-04-04T05:45:32.596Z</time></trkpt><trkpt lat="45.0774506" lon="7.3196346"><ele>1235.7142857142858</ele><time>2026-04-04T05:45:38.547Z</time></trkpt><trkpt lat="45.0774945" lon="7.319562"><ele>1238.5714285714287</ele><time>2026-04-04T05:45:50.553Z</time></trkpt><trkpt lat="45.0774974" lon="7.3194536"><ele>1241.4285714285716</ele><time>2026-04-04T05:46:04.315Z</time></trkpt><trkpt lat="45.0775302" lon="7.3193718"><ele>1244.2857142857142</ele><time>2026-04-04T05:46:09.514Z</time></trkpt><trkpt lat="45.0775888" lon="7.3193104"><ele>1247.1428571428573</ele><time>2026-04-04T05:46:17.589Z</time></trkpt><trkpt lat="45.0775837" lon="7.3192143"><ele>1250.0</ele><time>2026-04-04T05:46:26.514Z</time></trkpt><trkpt lat="45.0776291" lon="7.3191362"><ele>1250.0</ele><time>2026-04-04T05:46:31.507Z</time></trkpt><trkpt lat="45.0776966" lon="7.3190161"><ele>1250.0</ele><time>2026-04-04T05:47:00.114Z</time></trkpt><trkpt lat="45.0777583" lon="7.3189586"><ele>1250.0</ele><time>2026-04-04T05:47:06.571Z</time></trkpt><trkpt lat="45.0778266" lon="7.3189862"><ele>1250.0</ele><time>2026-04-04T05:47:16.554Z</time></trkpt><trkpt lat="45.0778768" lon="7.3189175"><ele>1250.0</ele><time>2026-04-04T05:47:32.496Z</time></trkpt><trkpt lat="45.0779298" lon="7.3188599"><ele>1250.0</ele><time>2026-04-04T05:47:37.433Z</time></trkpt><trkpt lat="45.0779822" lon="7.3188023"><ele>1251.0000000000002</ele><time>2026-04-04T05:47:43.595Z</time></trkpt><trkpt lat="45.0780043" lon="7.3187145"><ele>1252.0</ele><time>2026-04-04T05:47:51.515Z</time></trkpt><trkpt lat="45.0780222" lon="7.3186212"><ele>1253.0</ele><time>2026-04-04T05:48:02.564Z</time></trkpt><trkpt lat="45.0780541" lon="7.3185439"><ele>1254.0</ele><time>2026-04-04T05:48:09.578Z</time></trkpt><trkpt lat="45.0781027" lon="7.3184738"><ele>1255.0</ele><time>2026-04-04T05:48:14.571Z</time></trkpt><trkpt lat="45.0781682" lon="7.3184235"><ele>1256.0000000000002</ele><time>2026-04-04T05:48:20.521Z</time></trkpt><trkpt lat="45.0782295" lon="7.3183998"><ele>1257.0</ele><time>2026-04-04T05:48:26.578Z</time></trkpt><trkpt lat="45.0781695" lon="7.3183654"><ele>1257.0000000000002</ele><time>2026-04-04T05:49:06.501Z</time></trkpt><trkpt lat="45.0781126" lon="7.318434"><ele>1257.0</ele><time>2026-04-04T05:49:13.059Z</time></trkpt><trkpt lat="45.0780435" lon="7.3184481"><ele>1257.0</ele><time>2026-04-04T05:49:17.461Z</time></trkpt><trkpt lat="45.0779749" lon="7.3184251"><ele>1257.0</ele><time>2026-04-04T05:49:24.514Z</time></trkpt><trkpt lat="45.0779132" lon="7.3183798"><ele>1257.0</ele><time>2026-04-04T05:49:31.526Z</time></trkpt><trkpt lat="45.0778632" lon="7.318309"><ele>1257.0000000000002</ele><time>2026-04-04T05:49:39.603Z</time></trkpt><trkpt lat="45.0778091" lon="7.3182542"><ele>1257.0</ele><time>2026-04-04T05:49:45.551Z</time></trkpt><trkpt lat="45.0777913" lon="7.3181639"><ele>1258.0000000000002</ele><time>2026-04-04T05:49:51.503Z</time></trkpt><trkpt lat="45.0777712" lon="7.3180657"><ele>1259.0</ele><time>2026-04-04T05:49:58.514Z</time></trkpt><trkpt lat="45.0777539" lon="7.3179755"><ele>1260.0</ele><time>2026-04-04T05:50:03.508Z</time></trkpt><trkpt lat="45.0777251" lon="7.3178825"><ele>1261.0</ele><time>2026-04-04T05:50:09.564Z</time></trkpt><trkpt lat="45.077703" lon="7.3177861"><ele>1262.0</ele><time>2026-04-04T05:50:16.576Z</time></trkpt><trkpt lat="45.0776704" lon="7.3176925"><ele>1263.0000000000002</ele><time>2026-04-04T05:50:24.562Z</time></trkpt><trkpt lat="45.0776338" lon="7.3176002"><ele>1264.0</ele><time>2026-04-04T05:50:30.602Z</time></trkpt><trkpt lat="45.0776214" lon="7.3175091"><ele>1264.0000000000002</ele><time>2026-04-04T05:50:35.594Z</time></trkpt><trkpt lat="45.0776211" lon="7.3174121"><ele>1264.0</ele><time>2026-04-04T05:50:42.608Z</time></trkpt><trkpt lat="45.0776244" lon="7.3173141"><ele>1264.0</ele><time>2026-04-04T05:50:48.623Z</time></trkpt><trkpt lat="45.0776333" lon="7.3172194"><ele>1264.0</ele><time>2026-04-04T05:50:54.04Z</time></trkpt><trkpt lat="45.0776352" lon="7.3171135"><ele>1264.0</ele><time>2026-04-04T05:50:59.561Z</time></trkpt><trkpt lat="45.0776215" lon="7.3170194"><ele>1264.0000000000002</ele><time>2026-04-04T05:51:05.558Z</time></trkpt><trkpt lat="45.0775913" lon="7.3169302"><ele>1264.0</ele><time>2026-04-04T05:51:12.57Z</time></trkpt><trkpt lat="45.0775745" lon="7.3168432"><ele>1264.4285714285716</ele><time>2026-04-04T05:51:18.52Z</time></trkpt><trkpt lat="45.0775717" lon="7.3167456"><ele>1264.857142857143</ele><time>2026-04-04T05:51:24.575Z</time></trkpt><trkpt lat="45.0775459" lon="7.316659"><ele>1265.2857142857142</ele><time>2026-04-04T05:51:30.581Z</time></trkpt><trkpt lat="45.0775057" lon="7.316586"><ele>1265.7142857142858</ele><time>2026-04-04T05:51:36.464Z</time></trkpt><trkpt lat="45.0774531" lon="7.3165249"><ele>1266.142857142857</ele><time>2026-04-04T05:51:42.533Z</time></trkpt><trkpt lat="45.0774044" lon="7.3164614"><ele>1266.5714285714287</ele><time>2026-04-04T05:51:48.588Z</time></trkpt><trkpt lat="45.0773665" lon="7.3163734"><ele>1267.0</ele><time>2026-04-04T05:51:53.483Z</time></trkpt><trkpt lat="45.0773357" lon="7.3162911"><ele>1268.857142857143</ele><time>2026-04-04T05:51:58.577Z</time></trkpt><trkpt lat="45.0772966" lon="7.316209"><ele>1270.7142857142858</ele><time>2026-04-04T05:52:03.461Z</time></trkpt><trkpt lat="45.0772553" lon="7.3161264"><ele>1272.5714285714284</ele><time>2026-04-04T05:52:08.563Z</time></trkpt><trkpt lat="45.0772073" lon="7.3160517"><ele>1274.4285714285716</ele><time>2026-04-04T05:52:15.576Z</time></trkpt><trkpt lat="45.0771643" lon="7.3159789"><ele>1276.2857142857142</ele><time>2026-04-04T05:52:21.527Z</time></trkpt><trkpt lat="45.0771319" lon="7.3159012"><ele>1278.142857142857</ele><time>2026-04-04T05:52:26.52Z</time></trkpt><trkpt lat="45.0770946" lon="7.3158277"><ele>1280.0</ele><time>2026-04-04T05:52:31.514Z</time></trkpt><trkpt lat="45.0770487" lon="7.3157483"><ele>1280.0</ele><time>2026-04-04T05:52:36.508Z</time></trkpt><trkpt lat="45.0769949" lon="7.3156724"><ele>1280.0</ele><time>2026-04-04T05:52:42.563Z</time></trkpt><trkpt lat="45.0769485" lon="7.3156094"><ele>1280.0</ele><time>2026-04-04T05:52:47.558Z</time></trkpt><trkpt lat="45.0769051" lon="7.3155236"><ele>1280.0</ele><time>2026-04-04T05:52:53.508Z</time></trkpt><trkpt lat="45.0768576" lon="7.3154558"><ele>1280.0</ele><time>2026-04-04T05:52:58.505Z</time></trkpt><trkpt lat="45.0768122" lon="7.3153819"><ele>1280.0</ele><time>2026-04-04T05:53:04.558Z</time></trkpt><trkpt lat="45.0767694" lon="7.3153164"><ele>1280.0</ele><time>2026-04-04T05:53:08.505Z</time></trkpt><trkpt lat="45.0767269" lon="7.3152492"><ele>1279.5714285714284</ele><time>2026-04-04T05:53:14.62Z</time></trkpt><trkpt lat="45.0766708" lon="7.3151798"><ele>1279.142857142857</ele><time>2026-04-04T05:53:19.603Z</time></trkpt><trkpt lat="45.0766081" lon="7.3151394"><ele>1278.7142857142858</ele><time>2026-04-04T05:53:25.594Z</time></trkpt><trkpt lat="45.0765646" lon="7.3150735"><ele>1278.2857142857142</ele><time>2026-04-04T05:53:32.505Z</time></trkpt><trkpt lat="45.0765291" lon="7.314997"><ele>1277.857142857143</ele><time>2026-04-04T05:53:38.558Z</time></trkpt><trkpt lat="45.0764973" lon="7.3149086"><ele>1277.4285714285713</ele><time>2026-04-04T05:53:44.507Z</time></trkpt><trkpt lat="45.0764647" lon="7.3148214"><ele>1277.0</ele><time>2026-04-04T05:53:49.521Z</time></trkpt><trkpt lat="45.0764217" lon="7.3147499"><ele>1276.9999999999998</ele><time>2026-04-04T05:53:55.557Z</time></trkpt><trkpt lat="45.076382" lon="7.314675"><ele>1277.0</ele><time>2026-04-04T05:54:00.551Z</time></trkpt><trkpt lat="45.0763432" lon="7.3145887"><ele>1277.0</ele><time>2026-04-04T05:54:06.505Z</time></trkpt><trkpt lat="45.0763287" lon="7.3144882"><ele>1277.0</ele><time>2026-04-04T05:54:12.602Z</time></trkpt><trkpt lat="45.0763089" lon="7.314401"><ele>1277.0</ele><time>2026-04-04T05:54:17.551Z</time></trkpt><trkpt lat="45.0763021" lon="7.3143092"><ele>1276.9999999999998</ele><time>2026-04-04T05:54:22.545Z</time></trkpt><trkpt lat="45.0763131" lon="7.3142156"><ele>1277.0</ele><time>2026-04-04T05:54:26.582Z</time></trkpt><trkpt lat="45.0763293" lon="7.3141185"><ele>1276.9999999999998</ele><time>2026-04-04T05:54:31.423Z</time></trkpt><trkpt lat="45.0763441" lon="7.3140217"><ele>1277.0</ele><time>2026-04-04T05:54:36.57Z</time></trkpt><trkpt lat="45.0763504" lon="7.3139241"><ele>1277.0</ele><time>2026-04-04T05:54:42.52Z</time></trkpt><trkpt lat="45.0763394" lon="7.3138173"><ele>1277.0</ele><time>2026-04-04T05:54:48.577Z</time></trkpt><trkpt lat="45.0763392" lon="7.3137242"><ele>1277.0</ele><time>2026-04-04T05:54:53.569Z</time></trkpt><trkpt lat="45.0763407" lon="7.313624"><ele>1276.9999999999998</ele><time>2026-04-04T05:54:58.563Z</time></trkpt><trkpt lat="45.0763436" lon="7.3135245"><ele>1277.0</ele><time>2026-04-04T05:55:03.521Z</time></trkpt><trkpt lat="45.0763268" lon="7.3134296"><ele>1275.142857142857</ele><time>2026-04-04T05:55:11.527Z</time></trkpt><trkpt lat="45.0763141" lon="7.3133332"><ele>1273.2857142857142</ele><time>2026-04-04T05:55:16.52Z</time></trkpt><trkpt lat="45.076296" lon="7.31323"><ele>1271.4285714285716</ele><time>2026-04-04T05:55:21.514Z</time></trkpt><trkpt lat="45.0763391" lon="7.3131463"><ele>1269.5714285714284</ele><time>2026-04-04T05:55:27.57Z</time></trkpt><trkpt lat="45.0763714" lon="7.3130567"><ele>1267.7142857142858</ele><time>2026-04-04T05:55:32.564Z</time></trkpt><trkpt lat="45.0763903" lon="7.3129693"><ele>1265.857142857143</ele><time>2026-04-04T05:55:38.514Z</time></trkpt><trkpt lat="45.0764113" lon="7.3128772"><ele>1264.0</ele><time>2026-04-04T05:55:45.527Z</time></trkpt><trkpt lat="45.0764185" lon="7.3127741"><ele>1261.857142857143</ele><time>2026-04-04T05:55:50.579Z</time></trkpt><trkpt lat="45.0764297" lon="7.312684"><ele>1259.7142857142858</ele><time>2026-04-04T05:55:55.514Z</time></trkpt><trkpt lat="45.0764307" lon="7.3125839"><ele>1257.5714285714284</ele><time>2026-04-04T05:56:00.584Z</time></trkpt><trkpt lat="45.0764547" lon="7.3124928"><ele>1255.4285714285716</ele><time>2026-04-04T05:56:05.506Z</time></trkpt><trkpt lat="45.0764871" lon="7.3124059"><ele>1253.2857142857142</ele><time>2026-04-04T05:56:11.557Z</time></trkpt><trkpt lat="45.0764993" lon="7.3123152"><ele>1251.142857142857</ele><time>2026-04-04T05:56:16.551Z</time></trkpt><trkpt lat="45.0765218" lon="7.3122263"><ele>1249.0</ele><time>2026-04-04T05:56:21.599Z</time></trkpt><trkpt lat="45.076547" lon="7.3121384"><ele>1247.5714285714284</ele><time>2026-04-04T05:56:26.538Z</time></trkpt><trkpt lat="45.0765728" lon="7.3120422"><ele>1246.142857142857</ele><time>2026-04-04T05:56:34.507Z</time></trkpt><trkpt lat="45.0766055" lon="7.3119557"><ele>1244.7142857142858</ele><time>2026-04-04T05:56:40.563Z</time></trkpt><trkpt lat="45.0766325" lon="7.3118727"><ele>1243.2857142857142</ele><time>2026-04-04T05:56:45.557Z</time></trkpt><trkpt lat="45.0766482" lon="7.3117504"><ele>1241.857142857143</ele><time>2026-04-04T05:57:13.506Z</time></trkpt><trkpt lat="45.0766432" lon="7.3116549"><ele>1240.4285714285713</ele><time>2026-04-04T05:57:18.506Z</time></trkpt><trkpt lat="45.0766413" lon="7.311559"><ele>1239.0</ele><time>2026-04-04T05:57:23.593Z</time></trkpt><trkpt lat="45.0766561" lon="7.3114511"><ele>1243.0</ele><time>2026-04-04T05:57:29.543Z</time></trkpt><trkpt lat="45.0766674" lon="7.3113582"><ele>1247.0</ele><time>2026-04-04T05:57:34.536Z</time></trkpt><trkpt lat="45.0766872" lon="7.31126"><ele>1251.0</ele><time>2026-04-04T05:57:40.592Z</time></trkpt><trkpt lat="45.0767013" lon="7.3111599"><ele>1255.0</ele><time>2026-04-04T05:57:47.506Z</time></trkpt><trkpt lat="45.0767222" lon="7.3110654"><ele>1259.0</ele><time>2026-04-04T05:57:52.598Z</time></trkpt><trkpt lat="45.076742" lon="7.3109806"><ele>1263.0</ele><time>2026-04-04T05:57:57.59Z</time></trkpt><trkpt lat="45.0767875" lon="7.3108965"><ele>1267.0</ele><time>2026-04-04T05:58:03.541Z</time></trkpt><trkpt lat="45.0768186" lon="7.3108143"><ele>1267.0</ele><time>2026-04-04T05:58:08.944Z</time></trkpt><trkpt lat="45.0768545" lon="7.3107195"><ele>1267.0</ele><time>2026-04-04T05:58:14.464Z</time></trkpt><trkpt lat="45.0768616" lon="7.3106283"><ele>1267.0</ele><time>2026-04-04T05:58:19.584Z</time></trkpt><trkpt lat="45.0768623" lon="7.3105386"><ele>1267.0</ele><time>2026-04-04T05:58:24.577Z</time></trkpt><trkpt lat="45.076858" lon="7.3104471"><ele>1267.0</ele><time>2026-04-04T05:58:30.528Z</time></trkpt><trkpt lat="45.076873" lon="7.3103451"><ele>1267.0</ele><time>2026-04-04T05:58:35.521Z</time></trkpt><trkpt lat="45.0768983" lon="7.31026"><ele>1267.0</ele><time>2026-04-04T05:58:40.514Z</time></trkpt><trkpt lat="45.0769158" lon="7.3101616"><ele>1265.5714285714287</ele><time>2026-04-04T05:58:46.563Z</time></trkpt><trkpt lat="45.0769288" lon="7.3100743"><ele>1264.142857142857</ele><time>2026-04-04T05:58:52.521Z</time></trkpt><trkpt lat="45.0769493" lon="7.3099718"><ele>1262.7142857142858</ele><time>2026-04-04T05:58:58.576Z</time></trkpt><trkpt lat="45.0769487" lon="7.3098746"><ele>1261.2857142857142</ele><time>2026-04-04T05:59:06.545Z</time></trkpt><trkpt lat="45.0769778" lon="7.3097892"><ele>1259.857142857143</ele><time>2026-04-04T05:59:12.507Z</time></trkpt><trkpt lat="45.0769821" lon="7.3096851"><ele>1258.4285714285716</ele><time>2026-04-04T05:59:18.55Z</time></trkpt><trkpt lat="45.0769814" lon="7.3095947"><ele>1257.0</ele><time>2026-04-04T05:59:23.543Z</time></trkpt><trkpt lat="45.076996" lon="7.3094774"><ele>1256.5714285714287</ele><time>2026-04-04T05:59:29.6Z</time></trkpt><trkpt lat="45.0770191" lon="7.3093803"><ele>1256.142857142857</ele><time>2026-04-04T05:59:33.532Z</time></trkpt><trkpt lat="45.0770273" lon="7.309291"><ele>1255.7142857142858</ele><time>2026-04-04T05:59:39.587Z</time></trkpt><trkpt lat="45.0770425" lon="7.3091931"><ele>1255.2857142857142</ele><time>2026-04-04T05:59:44.581Z</time></trkpt><trkpt lat="45.0770722" lon="7.30911"><ele>1254.857142857143</ele><time>2026-04-04T05:59:49.575Z</time></trkpt><trkpt lat="45.0770468" lon="7.3090257"><ele>1254.4285714285716</ele><time>2026-04-04T05:59:56.444Z</time></trkpt><trkpt lat="45.0770716" lon="7.3089384"><ele>1254.0</ele><time>2026-04-04T06:00:02.536Z</time></trkpt><trkpt lat="45.0770983" lon="7.3088528"><ele>1254.0</ele><time>2026-04-04T06:00:08.592Z</time></trkpt><trkpt lat="45.077123" lon="7.3087651"><ele>1254.0</ele><time>2026-04-04T06:00:14.542Z</time></trkpt><trkpt lat="45.0771486" lon="7.308666"><ele>1254.0</ele><time>2026-04-04T06:00:21.542Z</time></trkpt><trkpt lat="45.0771847" lon="7.3085772"><ele>1254.0</ele><time>2026-04-04T06:00:27.507Z</time></trkpt><trkpt lat="45.0772095" lon="7.3084766"><ele>1254.0</ele><time>2026-04-04T06:00:34.503Z</time></trkpt><trkpt lat="45.0772412" lon="7.3083974"><ele>1254.0</ele><time>2026-04-04T06:00:40.466Z</time></trkpt><trkpt lat="45.0772731" lon="7.3083159"><ele>1254.0</ele><time>2026-04-04T06:00:46.522Z</time></trkpt><trkpt lat="45.0772977" lon="7.3082275"><ele>1254.0</ele><time>2026-04-04T06:00:52.577Z</time></trkpt><trkpt lat="45.0773306" lon="7.3081351"><ele>1254.0</ele><time>2026-04-04T06:00:59.59Z</time></trkpt><trkpt lat="45.077355" lon="7.3080463"><ele>1254.0</ele><time>2026-04-04T06:01:07.558Z</time></trkpt><trkpt lat="45.0774025" lon="7.3079755"><ele>1254.0</ele><time>2026-04-04T06:01:14.57Z</time></trkpt><trkpt lat="45.0774118" lon="7.3078796"><ele>1254.0</ele><time>2026-04-04T06:01:21.582Z</time></trkpt><trkpt lat="45.0774661" lon="7.3077926"><ele>1254.0</ele><time>2026-04-04T06:01:27.543Z</time></trkpt><trkpt lat="45.0775335" lon="7.3077308"><ele>1254.0</ele><time>2026-04-04T06:01:31.569Z</time></trkpt><trkpt lat="45.0775899" lon="7.3076895"><ele>1256.7142857142858</ele><time>2026-04-04T06:01:37.519Z</time></trkpt><trkpt lat="45.0776283" lon="7.307615"><ele>1259.4285714285713</ele><time>2026-04-04T06:01:42.512Z</time></trkpt><trkpt lat="45.0776718" lon="7.3075382"><ele>1262.142857142857</ele><time>2026-04-04T06:01:47.502Z</time></trkpt><trkpt lat="45.0777147" lon="7.3074556"><ele>1264.857142857143</ele><time>2026-04-04T06:01:53.462Z</time></trkpt><trkpt lat="45.0777644" lon="7.3073974"><ele>1267.5714285714287</ele><time>2026-04-04T06:01:57.508Z</time></trkpt><trkpt lat="45.0778076" lon="7.3073102"><ele>1270.2857142857142</ele><time>2026-04-04T06:02:02.593Z</time></trkpt><trkpt lat="45.077839" lon="7.3072326"><ele>1273.0</ele><time>2026-04-04T06:02:07.443Z</time></trkpt><trkpt lat="45.0778631" lon="7.3071414"><ele>1273.0</ele><time>2026-04-04T06:02:12.58Z</time></trkpt><trkpt lat="45.0779164" lon="7.3070674"><ele>1273.0</ele><time>2026-04-04T06:02:18.521Z</time></trkpt><trkpt lat="45.0779666" lon="7.3069962"><ele>1273.0</ele><time>2026-04-04T06:02:23.583Z</time></trkpt><trkpt lat="45.0780177" lon="7.306932"><ele>1273.0</ele><time>2026-04-04T06:02:28.517Z</time></trkpt><trkpt lat="45.0780707" lon="7.3068561"><ele>1273.0</ele><time>2026-04-04T06:02:33.51Z</time></trkpt><trkpt lat="45.0781163" lon="7.3067872"><ele>1273.0</ele><time>2026-04-04T06:02:38.507Z</time></trkpt><trkpt lat="45.0781609" lon="7.3067201"><ele>1273.0</ele><time>2026-04-04T06:02:42.541Z</time></trkpt><trkpt lat="45.078208" lon="7.3066433"><ele>1273.0</ele><time>2026-04-04T06:02:48.597Z</time></trkpt><trkpt lat="45.0782468" lon="7.306557"><ele>1273.0</ele><time>2026-04-04T06:02:55.61Z</time></trkpt><trkpt lat="45.0782657" lon="7.3064665"><ele>1273.0</ele><time>2026-04-04T06:03:01.56Z</time></trkpt><trkpt lat="45.078306" lon="7.3063873"><ele>1273.0</ele><time>2026-04-04T06:03:07.51Z</time></trkpt><trkpt lat="45.0783371" lon="7.3062965"><ele>1273.0</ele><time>2026-04-04T06:03:13.566Z</time></trkpt><trkpt lat="45.0783634" lon="7.3062025"><ele>1273.0</ele><time>2026-04-04T06:03:19.516Z</time></trkpt><trkpt lat="45.0784038" lon="7.3061093"><ele>1273.0</ele><time>2026-04-04T06:03:26.52Z</time></trkpt><trkpt lat="45.0784331" lon="7.3060285"><ele>1273.7142857142858</ele><time>2026-04-04T06:03:32.584Z</time></trkpt><trkpt lat="45.0784485" lon="7.3059289"><ele>1274.4285714285716</ele><time>2026-04-04T06:03:38.534Z</time></trkpt><trkpt lat="45.0784599" lon="7.3058384"><ele>1275.1428571428573</ele><time>2026-04-04T06:03:44.601Z</time></trkpt><trkpt lat="45.0784833" lon="7.305744"><ele>1275.857142857143</ele><time>2026-04-04T06:03:51.502Z</time></trkpt><trkpt lat="45.078519" lon="7.3056681"><ele>1276.5714285714287</ele><time>2026-04-04T06:03:56.596Z</time></trkpt><trkpt lat="45.0785361" lon="7.3055774"><ele>1277.2857142857144</ele><time>2026-04-04T06:04:02.546Z</time></trkpt><trkpt lat="45.0785632" lon="7.305489"><ele>1278.0</ele><time>2026-04-04T06:04:09.558Z</time></trkpt><trkpt lat="45.0785926" lon="7.3054052"><ele>1278.0000000000002</ele><time>2026-04-04T06:04:13.596Z</time></trkpt><trkpt lat="45.0786371" lon="7.3053324"><ele>1278.0</ele><time>2026-04-04T06:04:17.601Z</time></trkpt><trkpt lat="45.0786816" lon="7.3052484"><ele>1278.0</ele><time>2026-04-04T06:04:22.521Z</time></trkpt><trkpt lat="45.0787227" lon="7.3051579"><ele>1278.0</ele><time>2026-04-04T06:04:27.514Z</time></trkpt><trkpt lat="45.07877" lon="7.3050824"><ele>1278.0</ele><time>2026-04-04T06:04:32.507Z</time></trkpt><trkpt lat="45.0787832" lon="7.3049939"><ele>1278.0000000000002</ele><time>2026-04-04T06:04:39.52Z</time></trkpt><trkpt lat="45.0787974" lon="7.3048942"><ele>1278.0</ele><time>2026-04-04T06:04:46.52Z</time></trkpt><trkpt lat="45.0788322" lon="7.30481"><ele>1275.8333333333333</ele><time>2026-04-04T06:04:52.508Z</time></trkpt><trkpt lat="45.0788698" lon="7.3047337"><ele>1273.6666666666667</ele><time>2026-04-04T06:04:56.83Z</time></trkpt><trkpt lat="45.0789129" lon="7.3046344"><ele>1271.5</ele><time>2026-04-04T06:05:05.556Z</time></trkpt><trkpt lat="45.0790193" lon="7.3045197"><ele>1269.3333333333335</ele><time>2026-04-04T06:05:08.531Z</time></trkpt><trkpt lat="45.0790159" lon="7.3044254"><ele>1267.1666666666667</ele><time>2026-04-04T06:05:11.505Z</time></trkpt><trkpt lat="45.0789762" lon="7.3043498"><ele>1265.0</ele><time>2026-04-04T06:05:18.471Z</time></trkpt><trkpt lat="45.0789866" lon="7.3042527"><ele>1265.0</ele><time>2026-04-04T06:05:24.574Z</time></trkpt><trkpt lat="45.0790281" lon="7.3041773"><ele>1265.0</ele><time>2026-04-04T06:05:29.53Z</time></trkpt><trkpt lat="45.0790413" lon="7.3040835"><ele>1265.0</ele><time>2026-04-04T06:05:35.518Z</time></trkpt><trkpt lat="45.0790642" lon="7.3039834"><ele>1265.0</ele><time>2026-04-04T06:05:41.574Z</time></trkpt><trkpt lat="45.0790612" lon="7.3038934"><ele>1265.0</ele><time>2026-04-04T06:05:47.523Z</time></trkpt><trkpt lat="45.0790501" lon="7.3038034"><ele>1265.0</ele><time>2026-04-04T06:05:53.533Z</time></trkpt><trkpt lat="45.0790953" lon="7.3037243"><ele>1265.0</ele><time>2026-04-04T06:06:01.548Z</time></trkpt><trkpt lat="45.079141" lon="7.3036628"><ele>1269.857142857143</ele><time>2026-04-04T06:06:07.504Z</time></trkpt><trkpt lat="45.0791549" lon="7.3035695"><ele>1274.7142857142858</ele><time>2026-04-04T06:06:14.51Z</time></trkpt><trkpt lat="45.0792026" lon="7.3034481"><ele>1279.5714285714287</ele><time>2026-04-04T06:06:29.504Z</time></trkpt><trkpt lat="45.0792316" lon="7.3033477"><ele>1284.4285714285716</ele><time>2026-04-04T06:06:39.585Z</time></trkpt><trkpt lat="45.0792463" lon="7.3032455"><ele>1289.2857142857142</ele><time>2026-04-04T06:06:46.597Z</time></trkpt><trkpt lat="45.0792432" lon="7.3031493"><ele>1294.1428571428573</ele><time>2026-04-04T06:06:52.547Z</time></trkpt><trkpt lat="45.0792414" lon="7.3030577"><ele>1299.0</ele><time>2026-04-04T06:07:02.534Z</time></trkpt><trkpt lat="45.0792141" lon="7.3029745"><ele>1299.0000000000002</ele><time>2026-04-04T06:07:06.571Z</time></trkpt><trkpt lat="45.0792036" lon="7.302882"><ele>1299.0</ele><time>2026-04-04T06:07:09.547Z</time></trkpt><trkpt lat="45.0791766" lon="7.3027584"><ele>1299.0</ele><time>2026-04-04T06:07:15.504Z</time></trkpt><trkpt lat="45.0791524" lon="7.3026603"><ele>1299.0</ele><time>2026-04-04T06:07:19.976Z</time></trkpt><trkpt lat="45.0791532" lon="7.302562"><ele>1299.0</ele><time>2026-04-04T06:07:26.545Z</time></trkpt><trkpt lat="45.0791836" lon="7.3024823"><ele>1299.0000000000002</ele><time>2026-04-04T06:07:33.559Z</time></trkpt><trkpt lat="45.0791962" lon="7.3023915"><ele>1299.0</ele><time>2026-04-04T06:07:40.571Z</time></trkpt><trkpt lat="45.0792156" lon="7.3023022"><ele>1298.0000000000002</ele><time>2026-04-04T06:07:46.521Z</time></trkpt><trkpt lat="45.0792442" lon="7.3022184"><ele>1297.0</ele><time>2026-04-04T06:07:51.614Z</time></trkpt><trkpt lat="45.079272" lon="7.3021277"><ele>1296.0</ele><time>2026-04-04T06:07:56.507Z</time></trkpt><trkpt lat="45.0792963" lon="7.3020451"><ele>1295.0</ele><time>2026-04-04T06:08:01.505Z</time></trkpt><trkpt lat="45.0793324" lon="7.30196"><ele>1294.0</ele><time>2026-04-04T06:08:06.602Z</time></trkpt><trkpt lat="45.0793591" lon="7.301866"><ele>1293.0000000000002</ele><time>2026-04-04T06:08:14.57Z</time></trkpt><trkpt lat="45.0793808" lon="7.3017776"><ele>1292.0</ele><time>2026-04-04T06:08:21.583Z</time></trkpt><trkpt lat="45.0793888" lon="7.3016669"><ele>1292.0000000000002</ele><time>2026-04-04T06:08:26.576Z</time></trkpt><trkpt lat="45.0793938" lon="7.3015704"><ele>1292.0</ele><time>2026-04-04T06:08:30.612Z</time></trkpt><trkpt lat="45.079408" lon="7.3014754"><ele>1292.0</ele><time>2026-04-04T06:08:34.545Z</time></trkpt><trkpt lat="45.0794101" lon="7.3013841"><ele>1292.0</ele><time>2026-04-04T06:08:39.537Z</time></trkpt><trkpt lat="45.0794129" lon="7.3012798"><ele>1292.0</ele><time>2026-04-04T06:08:44.532Z</time></trkpt><trkpt lat="45.0793839" lon="7.3011923"><ele>1292.0000000000002</ele><time>2026-04-04T06:08:54.518Z</time></trkpt><trkpt lat="45.0793462" lon="7.3011007"><ele>1292.0</ele><time>2026-04-04T06:09:05.568Z</time></trkpt><trkpt lat="45.0793325" lon="7.3010021"><ele>1291.2857142857144</ele><time>2026-04-04T06:09:33.512Z</time></trkpt><trkpt lat="45.0793542" lon="7.3009177"><ele>1290.5714285714287</ele><time>2026-04-04T06:09:37.549Z</time></trkpt><trkpt lat="45.0793491" lon="7.3008266"><ele>1289.857142857143</ele><time>2026-04-04T06:09:44.562Z</time></trkpt><trkpt lat="45.0793403" lon="7.3007341"><ele>1289.1428571428573</ele><time>2026-04-04T06:09:50.51Z</time></trkpt><trkpt lat="45.0793357" lon="7.3006392"><ele>1288.4285714285716</ele><time>2026-04-04T06:09:55.574Z</time></trkpt><trkpt lat="45.0793326" lon="7.3005371"><ele>1287.7142857142858</ele><time>2026-04-04T06:10:01.561Z</time></trkpt><trkpt lat="45.079346" lon="7.3004341"><ele>1287.0</ele><time>2026-04-04T06:10:08.12Z</time></trkpt><trkpt lat="45.0793217" lon="7.3003299"><ele>1288.857142857143</ele><time>2026-04-04T06:10:16.503Z</time></trkpt><trkpt lat="45.0793404" lon="7.3002278"><ele>1290.7142857142858</ele><time>2026-04-04T06:10:19.338Z</time></trkpt><trkpt lat="45.0793695" lon="7.3001294"><ele>1292.5714285714284</ele><time>2026-04-04T06:10:24.578Z</time></trkpt><trkpt lat="45.0793602" lon="7.3000405"><ele>1294.4285714285716</ele><time>2026-04-04T06:10:30.528Z</time></trkpt><trkpt lat="45.079358" lon="7.2999384"><ele>1296.2857142857144</ele><time>2026-04-04T06:10:37.54Z</time></trkpt><trkpt lat="45.0793469" lon="7.2998439"><ele>1298.142857142857</ele><time>2026-04-04T06:10:43.559Z</time></trkpt><trkpt lat="45.0793234" lon="7.2997507"><ele>1300.0</ele><time>2026-04-04T06:10:51.564Z</time></trkpt><trkpt lat="45.0792983" lon="7.2996506"><ele>1301.1666666666665</ele><time>2026-04-04T06:10:56.557Z</time></trkpt><trkpt lat="45.079274" lon="7.299564"><ele>1302.3333333333333</ele><time>2026-04-04T06:11:01.552Z</time></trkpt><trkpt lat="45.0792188" lon="7.2994082"><ele>1303.5</ele><time>2026-04-04T06:12:26.55Z</time></trkpt><trkpt lat="45.0792332" lon="7.2993204"><ele>1304.6666666666667</ele><time>2026-04-04T06:12:30.588Z</time></trkpt><trkpt lat="45.0792556" lon="7.299225"><ele>1305.8333333333335</ele><time>2026-04-04T06:12:36.538Z</time></trkpt><trkpt lat="45.0792712" lon="7.2991368"><ele>1307.0</ele><time>2026-04-04T06:12:43.551Z</time></trkpt><trkpt lat="45.0792543" lon="7.2990379"><ele>1307.0</ele><time>2026-04-04T06:12:50.579Z</time></trkpt><trkpt lat="45.0792358" lon="7.2989493"><ele>1307.0</ele><time>2026-04-04T06:12:57.562Z</time></trkpt><trkpt lat="45.0792443" lon="7.2988466"><ele>1307.0</ele><time>2026-04-04T06:13:03.526Z</time></trkpt><trkpt lat="45.0792529" lon="7.298739"><ele>1307.0</ele><time>2026-04-04T06:13:11.52Z</time></trkpt><trkpt lat="45.0793035" lon="7.2985272"><ele>1307.0</ele><time>2026-04-04T06:13:15.963Z</time></trkpt><trkpt lat="45.0793329" lon="7.2984312"><ele>1307.0</ele><time>2026-04-04T06:13:21.522Z</time></trkpt><trkpt lat="45.0793546" lon="7.2983465"><ele>1307.4285714285713</ele><time>2026-04-04T06:13:24.573Z</time></trkpt><trkpt lat="45.0793783" lon="7.2982459"><ele>1307.857142857143</ele><time>2026-04-04T06:13:28.504Z</time></trkpt><trkpt lat="45.079391" lon="7.2981562"><ele>1308.2857142857142</ele><time>2026-04-04T06:13:34.56Z</time></trkpt><trkpt lat="45.0794416" lon="7.2980726"><ele>1308.7142857142858</ele><time>2026-04-04T06:13:41.572Z</time></trkpt><trkpt lat="45.079466" lon="7.2979764"><ele>1309.142857142857</ele><time>2026-04-04T06:13:47.563Z</time></trkpt><trkpt lat="45.0794638" lon="7.2978838"><ele>1309.5714285714287</ele><time>2026-04-04T06:13:53.579Z</time></trkpt><trkpt lat="45.0794573" lon="7.2977904"><ele>1310.0</ele><time>2026-04-04T06:14:00.591Z</time></trkpt><trkpt lat="45.0794634" lon="7.2976885"><ele>1310.7142857142858</ele><time>2026-04-04T06:14:09.516Z</time></trkpt><trkpt lat="45.0794556" lon="7.2975888"><ele>1311.4285714285713</ele><time>2026-04-04T06:14:14.509Z</time></trkpt><trkpt lat="45.0794251" lon="7.2975065"><ele>1312.142857142857</ele><time>2026-04-04T06:14:17.591Z</time></trkpt><trkpt lat="45.0794223" lon="7.2974"><ele>1312.857142857143</ele><time>2026-04-04T06:14:22.584Z</time></trkpt><trkpt lat="45.0794211" lon="7.2973104"><ele>1313.5714285714287</ele><time>2026-04-04T06:14:28.534Z</time></trkpt><trkpt lat="45.0794303" lon="7.2972124"><ele>1314.2857142857142</ele><time>2026-04-04T06:14:35.547Z</time></trkpt><trkpt lat="45.0794023" lon="7.2971236"><ele>1315.0</ele><time>2026-04-04T06:14:44.578Z</time></trkpt><trkpt lat="45.0793747" lon="7.2970377"><ele>1315.857142857143</ele><time>2026-04-04T06:14:48.602Z</time></trkpt><trkpt lat="45.079381" lon="7.2969363"><ele>1316.7142857142858</ele><time>2026-04-04T06:14:55.521Z</time></trkpt><trkpt lat="45.0793854" lon="7.2968354"><ele>1317.5714285714284</ele><time>2026-04-04T06:15:00.514Z</time></trkpt><trkpt lat="45.0793648" lon="7.2967453"><ele>1318.4285714285716</ele><time>2026-04-04T06:15:08.59Z</time></trkpt><trkpt lat="45.0793452" lon="7.2966482"><ele>1319.2857142857144</ele><time>2026-04-04T06:15:12.521Z</time></trkpt><trkpt lat="45.0793276" lon="7.2965513"><ele>1320.142857142857</ele><time>2026-04-04T06:15:18.579Z</time></trkpt><trkpt lat="45.0793078" lon="7.2964558"><ele>1321.0</ele><time>2026-04-04T06:15:22.539Z</time></trkpt><trkpt lat="45.0792764" lon="7.2963743"><ele>1322.2857142857142</ele><time>2026-04-04T06:15:27.504Z</time></trkpt><trkpt lat="45.0792375" lon="7.296292"><ele>1323.5714285714287</ele><time>2026-04-04T06:15:34.515Z</time></trkpt><trkpt lat="45.0792115" lon="7.2962101"><ele>1324.857142857143</ele><time>2026-04-04T06:15:39.508Z</time></trkpt><trkpt lat="45.0791905" lon="7.2961217"><ele>1326.142857142857</ele><time>2026-04-04T06:15:45.56Z</time></trkpt><trkpt lat="45.0792013" lon="7.2960108"><ele>1327.4285714285716</ele><time>2026-04-04T06:15:52.559Z</time></trkpt><trkpt lat="45.0792005" lon="7.2959179"><ele>1328.7142857142858</ele><time>2026-04-04T06:15:57.571Z</time></trkpt><trkpt lat="45.0791713" lon="7.2958342"><ele>1330.0</ele><time>2026-04-04T06:16:06.438Z</time></trkpt><trkpt lat="45.0791249" lon="7.2957567"><ele>1328.857142857143</ele><time>2026-04-04T06:16:10.532Z</time></trkpt><trkpt lat="45.0790597" lon="7.295684"><ele>1327.7142857142858</ele><time>2026-04-04T06:16:15.527Z</time></trkpt><trkpt lat="45.079013" lon="7.2956232"><ele>1326.5714285714284</ele><time>2026-04-04T06:16:18.504Z</time></trkpt><trkpt lat="45.0789496" lon="7.2955465"><ele>1325.4285714285716</ele><time>2026-04-04T06:16:23.504Z</time></trkpt><trkpt lat="45.0788934" lon="7.2954769"><ele>1324.2857142857142</ele><time>2026-04-04T06:16:28.596Z</time></trkpt><trkpt lat="45.0788472" lon="7.295401"><ele>1323.142857142857</ele><time>2026-04-04T06:16:36.564Z</time></trkpt><trkpt lat="45.078811" lon="7.2953215"><ele>1322.0</ele><time>2026-04-04T06:16:44.533Z</time></trkpt><trkpt lat="45.0787567" lon="7.2952695"><ele>1322.0</ele><time>2026-04-04T06:16:52.56Z</time></trkpt><trkpt lat="45.0787156" lon="7.2951936"><ele>1322.0</ele><time>2026-04-04T06:16:58.558Z</time></trkpt><trkpt lat="45.0787031" lon="7.2950943"><ele>1322.0</ele><time>2026-04-04T06:17:03.551Z</time></trkpt><trkpt lat="45.0786895" lon="7.2949807"><ele>1322.0</ele><time>2026-04-04T06:17:08.545Z</time></trkpt><trkpt lat="45.0786806" lon="7.2948852"><ele>1322.0</ele><time>2026-04-04T06:17:12.583Z</time></trkpt><trkpt lat="45.0786819" lon="7.2947863"><ele>1322.0</ele><time>2026-04-04T06:17:16.514Z</time></trkpt><trkpt lat="45.0786836" lon="7.2946802"><ele>1322.0</ele><time>2026-04-04T06:17:21.508Z</time></trkpt><trkpt lat="45.0786961" lon="7.2945793"><ele>1323.0</ele><time>2026-04-04T06:17:26.504Z</time></trkpt><trkpt lat="45.0786868" lon="7.2944799"><ele>1324.0</ele><time>2026-04-04T06:17:33.514Z</time></trkpt><trkpt lat="45.0786579" lon="7.2943932"><ele>1325.0</ele><time>2026-04-04T06:17:39.499Z</time></trkpt><trkpt lat="45.078617" lon="7.2942998"><ele>1326.0</ele><time>2026-04-04T06:17:46.581Z</time></trkpt><trkpt lat="45.0785872" lon="7.2942172"><ele>1327.0</ele><time>2026-04-04T06:17:51.576Z</time></trkpt><trkpt lat="45.0785686" lon="7.2941098"><ele>1328.0</ele><time>2026-04-04T06:17:57.561Z</time></trkpt><trkpt lat="45.0785656" lon="7.2940117"><ele>1329.0</ele><time>2026-04-04T06:18:03.582Z</time></trkpt><trkpt lat="45.0785691" lon="7.293921"><ele>1330.4285714285713</ele><time>2026-04-04T06:18:09.532Z</time></trkpt><trkpt lat="45.0785782" lon="7.2938256"><ele>1331.857142857143</ele><time>2026-04-04T06:18:15.588Z</time></trkpt><trkpt lat="45.0785761" lon="7.2937333"><ele>1333.2857142857142</ele><time>2026-04-04T06:18:21.538Z</time></trkpt><trkpt lat="45.0785847" lon="7.293628"><ele>1334.7142857142858</ele><time>2026-04-04T06:18:27.581Z</time></trkpt><trkpt lat="45.0785657" lon="7.29353"><ele>1336.142857142857</ele><time>2026-04-04T06:18:32.588Z</time></trkpt><trkpt lat="45.0785484" lon="7.2934364"><ele>1337.5714285714287</ele><time>2026-04-04T06:18:37.581Z</time></trkpt><trkpt lat="45.0785548" lon="7.2933382"><ele>1339.0</ele><time>2026-04-04T06:18:43.581Z</time></trkpt><trkpt lat="45.0785598" lon="7.2932481"><ele>1339.0</ele><time>2026-04-04T06:18:49.587Z</time></trkpt><trkpt lat="45.0785661" lon="7.2931558"><ele>1339.0</ele><time>2026-04-04T06:18:56.6Z</time></trkpt><trkpt lat="45.0785928" lon="7.2930623"><ele>1339.0</ele><time>2026-04-04T06:19:01.594Z</time></trkpt><trkpt lat="45.0786152" lon="7.2929534"><ele>1339.0</ele><time>2026-04-04T06:19:07.544Z</time></trkpt><trkpt lat="45.0786018" lon="7.2928512"><ele>1339.0</ele><time>2026-04-04T06:19:13.505Z</time></trkpt><trkpt lat="45.0785798" lon="7.2927417"><ele>1339.0</ele><time>2026-04-04T06:19:20.506Z</time></trkpt><trkpt lat="45.0785948" lon="7.2926514"><ele>1339.0</ele><time>2026-04-04T06:19:25.505Z</time></trkpt><trkpt lat="45.0786192" lon="7.2925593"><ele>1338.1666666666665</ele><time>2026-04-04T06:19:39.524Z</time></trkpt><trkpt lat="45.0786155" lon="7.2924483"><ele>1337.3333333333333</ele><time>2026-04-04T06:19:54.505Z</time></trkpt><trkpt lat="45.0786128" lon="7.2923062"><ele>1336.5</ele><time>2026-04-04T06:21:17.505Z</time></trkpt><trkpt lat="45.0786376" lon="7.2922074"><ele>1335.6666666666667</ele><time>2026-04-04T06:21:43.363Z</time></trkpt><trkpt lat="45.0786847" lon="7.2921404"><ele>1334.8333333333335</ele><time>2026-04-04T06:21:48.516Z</time></trkpt><trkpt lat="45.078733" lon="7.292059"><ele>1334.0</ele><time>2026-04-04T06:21:55.529Z</time></trkpt><trkpt lat="45.0787609" lon="7.2919733"><ele>1333.2857142857144</ele><time>2026-04-04T06:22:00.522Z</time></trkpt><trkpt lat="45.0787924" lon="7.2918912"><ele>1332.5714285714287</ele><time>2026-04-04T06:22:06.579Z</time></trkpt><trkpt lat="45.0788141" lon="7.2918057"><ele>1331.857142857143</ele><time>2026-04-04T06:22:11.558Z</time></trkpt><trkpt lat="45.0788331" lon="7.2917198"><ele>1331.1428571428573</ele><time>2026-04-04T06:22:17.522Z</time></trkpt><trkpt lat="45.0788468" lon="7.2916272"><ele>1330.4285714285716</ele><time>2026-04-04T06:22:23.579Z</time></trkpt><trkpt lat="45.0788676" lon="7.2915268"><ele>1329.7142857142858</ele><time>2026-04-04T06:22:27.51Z</time></trkpt><trkpt lat="45.0788915" lon="7.291441"><ele>1329.0</ele><time>2026-04-04T06:22:31.538Z</time></trkpt><trkpt lat="45.0788999" lon="7.291332"><ele>1329.0</ele><time>2026-04-04T06:22:37.505Z</time></trkpt><trkpt lat="45.0789135" lon="7.2912358"><ele>1329.0</ele><time>2026-04-04T06:22:41.535Z</time></trkpt><trkpt lat="45.0789368" lon="7.2911463"><ele>1329.0</ele><time>2026-04-04T06:22:45.583Z</time></trkpt><trkpt lat="45.0789472" lon="7.2910425"><ele>1329.0</ele><time>2026-04-04T06:22:50.566Z</time></trkpt><trkpt lat="45.0789521" lon="7.2909508"><ele>1329.0</ele><time>2026-04-04T06:22:55.56Z</time></trkpt><trkpt lat="45.0789512" lon="7.2908554"><ele>1329.0</ele><time>2026-04-04T06:23:02.572Z</time></trkpt><trkpt lat="45.0789413" lon="7.2907642"><ele>1329.0</ele><time>2026-04-04T06:23:07.5Z</time></trkpt><trkpt lat="45.0789356" lon="7.290662"><ele>1331.4285714285713</ele><time>2026-04-04T06:23:13.523Z</time></trkpt><trkpt lat="45.0789301" lon="7.2905616"><ele>1333.857142857143</ele><time>2026-04-04T06:23:18.463Z</time></trkpt><trkpt lat="45.0789236" lon="7.2904668"><ele>1336.2857142857142</ele><time>2026-04-04T06:23:23.505Z</time></trkpt><trkpt lat="45.0789226" lon="7.2903718"><ele>1338.7142857142858</ele><time>2026-04-04T06:23:33.597Z</time></trkpt><trkpt lat="45.0789007" lon="7.2902609"><ele>1341.142857142857</ele><time>2026-04-04T06:24:07.597Z</time></trkpt><trkpt lat="45.0789021" lon="7.2901541"><ele>1343.5714285714287</ele><time>2026-04-04T06:24:14.481Z</time></trkpt><trkpt lat="45.0789151" lon="7.2900494"><ele>1346.0</ele><time>2026-04-04T06:24:23.534Z</time></trkpt><trkpt lat="45.0789162" lon="7.2899588"><ele>1346.0</ele><time>2026-04-04T06:24:30.547Z</time></trkpt><trkpt lat="45.0789275" lon="7.2898586"><ele>1346.0</ele><time>2026-04-04T06:24:37.56Z</time></trkpt><trkpt lat="45.0789355" lon="7.2897649"><ele>1346.0</ele><time>2026-04-04T06:24:45.529Z</time></trkpt><trkpt lat="45.0789253" lon="7.2896735"><ele>1346.0</ele><time>2026-04-04T06:24:52.541Z</time></trkpt><trkpt lat="45.0789499" lon="7.2895869"><ele>1346.0</ele><time>2026-04-04T06:24:58.541Z</time></trkpt><trkpt lat="45.0789441" lon="7.2894856"><ele>1346.0</ele><time>2026-04-04T06:25:04.52Z</time></trkpt><trkpt lat="45.0789531" lon="7.2893879"><ele>1346.0</ele><time>2026-04-04T06:25:10.441Z</time></trkpt><trkpt lat="45.0789775" lon="7.2893037"><ele>1345.5714285714287</ele><time>2026-04-04T06:25:17.624Z</time></trkpt><trkpt lat="45.078992" lon="7.2892141"><ele>1345.142857142857</ele><time>2026-04-04T06:25:22.506Z</time></trkpt><trkpt lat="45.07899" lon="7.2891225"><ele>1344.7142857142858</ele><time>2026-04-04T06:25:29.581Z</time></trkpt><trkpt lat="45.0789776" lon="7.2890277"><ele>1344.2857142857142</ele><time>2026-04-04T06:25:35.572Z</time></trkpt><trkpt lat="45.0789806" lon="7.288924"><ele>1343.857142857143</ele><time>2026-04-04T06:25:41.563Z</time></trkpt><trkpt lat="45.0789914" lon="7.2888221"><ele>1343.4285714285713</ele><time>2026-04-04T06:25:47.579Z</time></trkpt><trkpt lat="45.0789981" lon="7.2887304"><ele>1343.0</ele><time>2026-04-04T06:25:55.563Z</time></trkpt><trkpt lat="45.0789751" lon="7.2886447"><ele>1344.0</ele><time>2026-04-04T06:26:50.582Z</time></trkpt><trkpt lat="45.0789431" lon="7.2885631"><ele>1345.0</ele><time>2026-04-04T06:26:54.516Z</time></trkpt><trkpt lat="45.0789187" lon="7.2884648"><ele>1346.0</ele><time>2026-04-04T06:27:02.501Z</time></trkpt><trkpt lat="45.078893" lon="7.288374"><ele>1347.0</ele><time>2026-04-04T06:27:07.563Z</time></trkpt><trkpt lat="45.0788705" lon="7.2882787"><ele>1348.0</ele><time>2026-04-04T06:27:12.579Z</time></trkpt><trkpt lat="45.0788355" lon="7.2881851"><ele>1349.0</ele><time>2026-04-04T06:27:19.54Z</time></trkpt><trkpt lat="45.0788022" lon="7.2880928"><ele>1350.0</ele><time>2026-04-04T06:27:25.543Z</time></trkpt><trkpt lat="45.0787829" lon="7.2879948"><ele>1352.0</ele><time>2026-04-04T06:27:33.511Z</time></trkpt><trkpt lat="45.0787578" lon="7.2878961"><ele>1354.0</ele><time>2026-04-04T06:27:38.507Z</time></trkpt><trkpt lat="45.0787309" lon="7.2877981"><ele>1356.0</ele><time>2026-04-04T06:27:44.561Z</time></trkpt><trkpt lat="45.0786871" lon="7.2877278"><ele>1358.0</ele><time>2026-04-04T06:27:49.554Z</time></trkpt><trkpt lat="45.0786505" lon="7.2876356"><ele>1360.0</ele><time>2026-04-04T06:27:56.539Z</time></trkpt><trkpt lat="45.0785909" lon="7.2875785"><ele>1362.0</ele><time>2026-04-04T06:28:02.517Z</time></trkpt><trkpt lat="45.0785496" lon="7.287484"><ele>1364.0</ele><time>2026-04-04T06:28:07.58Z</time></trkpt><trkpt lat="45.0785168" lon="7.2873874"><ele>1364.0</ele><time>2026-04-04T06:28:12.602Z</time></trkpt><trkpt lat="45.0785023" lon="7.2872982"><ele>1364.0</ele><time>2026-04-04T06:28:17.506Z</time></trkpt><trkpt lat="45.0784771" lon="7.2872101"><ele>1364.0</ele><time>2026-04-04T06:28:23.555Z</time></trkpt><trkpt lat="45.0784653" lon="7.2871115"><ele>1364.0</ele><time>2026-04-04T06:28:28.548Z</time></trkpt><trkpt lat="45.078414" lon="7.2870528"><ele>1364.0</ele><time>2026-04-04T06:28:40.555Z</time></trkpt><trkpt lat="45.0784152" lon="7.2869535"><ele>1364.0</ele><time>2026-04-04T06:28:46.507Z</time></trkpt><trkpt lat="45.0784029" lon="7.2868561"><ele>1364.0</ele><time>2026-04-04T06:28:52.561Z</time></trkpt><trkpt lat="45.078411" lon="7.2867622"><ele>1365.857142857143</ele><time>2026-04-04T06:28:57.6Z</time></trkpt><trkpt lat="45.0784135" lon="7.2866618"><ele>1367.7142857142858</ele><time>2026-04-04T06:29:03.507Z</time></trkpt><trkpt lat="45.0784164" lon="7.2865725"><ele>1369.5714285714284</ele><time>2026-04-04T06:29:07.543Z</time></trkpt><trkpt lat="45.0784281" lon="7.286471"><ele>1371.4285714285716</ele><time>2026-04-04T06:29:12.542Z</time></trkpt><trkpt lat="45.07839" lon="7.2863618"><ele>1373.2857142857144</ele><time>2026-04-04T06:29:20.507Z</time></trkpt><trkpt lat="45.0783806" lon="7.2862728"><ele>1375.142857142857</ele><time>2026-04-04T06:29:24.542Z</time></trkpt><trkpt lat="45.0783931" lon="7.2861846"><ele>1377.0</ele><time>2026-04-04T06:29:29.536Z</time></trkpt><trkpt lat="45.0783914" lon="7.2860952"><ele>1377.4285714285713</ele><time>2026-04-04T06:29:34.53Z</time></trkpt><trkpt lat="45.0783641" lon="7.2860123"><ele>1377.857142857143</ele><time>2026-04-04T06:29:38.603Z</time></trkpt><trkpt lat="45.0783623" lon="7.2859154"><ele>1378.2857142857142</ele><time>2026-04-04T06:29:44.518Z</time></trkpt><trkpt lat="45.0783567" lon="7.2858209"><ele>1378.7142857142858</ele><time>2026-04-04T06:29:49.511Z</time></trkpt><trkpt lat="45.0783239" lon="7.2857335"><ele>1379.142857142857</ele><time>2026-04-04T06:29:55.501Z</time></trkpt><trkpt lat="45.0782751" lon="7.2856654"><ele>1379.5714285714287</ele><time>2026-04-04T06:29:59.605Z</time></trkpt><trkpt lat="45.0782308" lon="7.2855883"><ele>1380.0</ele><time>2026-04-04T06:30:04.5Z</time></trkpt><trkpt lat="45.0781909" lon="7.2854908"><ele>1375.0</ele><time>2026-04-04T06:30:11.508Z</time></trkpt><trkpt lat="45.0781622" lon="7.2854048"><ele>1370.0</ele><time>2026-04-04T06:30:16.508Z</time></trkpt><trkpt lat="45.0781392" lon="7.28531"><ele>1365.0</ele><time>2026-04-04T06:30:21.508Z</time></trkpt><trkpt lat="45.0780966" lon="7.2852251"><ele>1360.0</ele><time>2026-04-04T06:30:28.508Z</time></trkpt><trkpt lat="45.0780673" lon="7.2851323"><ele>1355.0</ele><time>2026-04-04T06:30:34.561Z</time></trkpt><trkpt lat="45.0780391" lon="7.2850494"><ele>1350.0</ele><time>2026-04-04T06:30:39.554Z</time></trkpt><trkpt lat="45.0779942" lon="7.2849706"><ele>1345.0</ele><time>2026-04-04T06:30:45.508Z</time></trkpt><trkpt lat="45.0779683" lon="7.284883"><ele>1345.0</ele><time>2026-04-04T06:30:49.542Z</time></trkpt><trkpt lat="45.0779345" lon="7.2847972"><ele>1345.0</ele><time>2026-04-04T06:30:54.535Z</time></trkpt><trkpt lat="45.0778844" lon="7.284708"><ele>1345.0</ele><time>2026-04-04T06:30:58.574Z</time></trkpt><trkpt lat="45.0778564" lon="7.2846218"><ele>1345.0</ele><time>2026-04-04T06:31:02.558Z</time></trkpt><trkpt lat="45.0778167" lon="7.2845405"><ele>1345.0</ele><time>2026-04-04T06:31:08.561Z</time></trkpt><trkpt lat="45.0778142" lon="7.2844295"><ele>1345.0</ele><time>2026-04-04T06:31:13.554Z</time></trkpt><trkpt lat="45.0778081" lon="7.2843255"><ele>1345.0</ele><time>2026-04-04T06:31:18.54Z</time></trkpt><trkpt lat="45.0777975" lon="7.2842326"><ele>1348.0</ele><time>2026-04-04T06:31:25.561Z</time></trkpt><trkpt lat="45.0778185" lon="7.2841369"><ele>1351.0</ele><time>2026-04-04T06:31:31.46Z</time></trkpt><trkpt lat="45.0778234" lon="7.284044"><ele>1354.0</ele><time>2026-04-04T06:31:36.508Z</time></trkpt><trkpt lat="45.0778161" lon="7.2839456"><ele>1357.0</ele><time>2026-04-04T06:31:41.621Z</time></trkpt><trkpt lat="45.0777711" lon="7.2838622"><ele>1360.0</ele><time>2026-04-04T06:31:49.573Z</time></trkpt><trkpt lat="45.0777212" lon="7.2837797"><ele>1363.0</ele><time>2026-04-04T06:31:53.508Z</time></trkpt><trkpt lat="45.07767" lon="7.2837137"><ele>1366.0</ele><time>2026-04-04T06:31:58.508Z</time></trkpt><trkpt lat="45.0776314" lon="7.2836269"><ele>1365.2857142857142</ele><time>2026-04-04T06:32:02.541Z</time></trkpt><trkpt lat="45.077581" lon="7.2835421"><ele>1364.5714285714284</ele><time>2026-04-04T06:32:08.592Z</time></trkpt><trkpt lat="45.0775372" lon="7.2834528"><ele>1363.8571428571427</ele><time>2026-04-04T06:32:12.482Z</time></trkpt><trkpt lat="45.0774984" lon="7.2833596"><ele>1363.142857142857</ele><time>2026-04-04T06:32:17.517Z</time></trkpt><trkpt lat="45.0774481" lon="7.2832879"><ele>1362.4285714285713</ele><time>2026-04-04T06:32:22.459Z</time></trkpt><trkpt lat="45.0774056" lon="7.2832124"><ele>1361.7142857142856</ele><time>2026-04-04T06:32:26.549Z</time></trkpt><trkpt lat="45.077374" lon="7.2831301"><ele>1361.0</ele><time>2026-04-04T06:32:32.605Z</time></trkpt><trkpt lat="45.0773179" lon="7.2830647"><ele>1363.2857142857142</ele><time>2026-04-04T06:32:38.542Z</time></trkpt><trkpt lat="45.0772671" lon="7.2829975"><ele>1365.5714285714284</ele><time>2026-04-04T06:32:42.593Z</time></trkpt><trkpt lat="45.0772243" lon="7.282922"><ele>1367.8571428571427</ele><time>2026-04-04T06:32:47.586Z</time></trkpt><trkpt lat="45.0771659" lon="7.2828625"><ele>1370.142857142857</ele><time>2026-04-04T06:32:52.58Z</time></trkpt><trkpt lat="45.0771112" lon="7.2827817"><ele>1372.4285714285716</ele><time>2026-04-04T06:32:59.503Z</time></trkpt><trkpt lat="45.0770663" lon="7.2827069"><ele>1374.7142857142856</ele><time>2026-04-04T06:33:04.586Z</time></trkpt><trkpt lat="45.0770281" lon="7.2826194"><ele>1377.0</ele><time>2026-04-04T06:33:12.554Z</time></trkpt><trkpt lat="45.0769855" lon="7.2825518"><ele>1377.0</ele><time>2026-04-04T06:33:17.549Z</time></trkpt><trkpt lat="45.0769246" lon="7.2824827"><ele>1377.0</ele><time>2026-04-04T06:33:23.508Z</time></trkpt><trkpt lat="45.0768725" lon="7.2824249"><ele>1377.0</ele><time>2026-04-04T06:33:29.555Z</time></trkpt><trkpt lat="45.0768069" lon="7.2823751"><ele>1377.0</ele><time>2026-04-04T06:33:35.508Z</time></trkpt><trkpt lat="45.0767381" lon="7.2823487"><ele>1377.0</ele><time>2026-04-04T06:33:40.462Z</time></trkpt><trkpt lat="45.0766682" lon="7.2823501"><ele>1377.0</ele><time>2026-04-04T06:33:46.555Z</time></trkpt><trkpt lat="45.0766013" lon="7.2823669"><ele>1377.0</ele><time>2026-04-04T06:33:51.549Z</time></trkpt><trkpt lat="45.0765371" lon="7.2823674"><ele>1375.6666666666667</ele><time>2026-04-04T06:33:55.587Z</time></trkpt><trkpt lat="45.0764606" lon="7.282367"><ele>1374.3333333333333</ele><time>2026-04-04T06:34:00.58Z</time></trkpt><trkpt lat="45.0763886" lon="7.2824022"><ele>1373.0</ele><time>2026-04-04T06:34:06.53Z</time></trkpt><trkpt lat="45.0763404" lon="7.2824737"><ele>1371.6666666666665</ele><time>2026-04-04T06:34:11.524Z</time></trkpt><trkpt lat="45.0763613" lon="7.2822816"><ele>1370.3333333333333</ele><time>2026-04-04T06:37:10.56Z</time></trkpt><trkpt lat="45.0763319" lon="7.2821859"><ele>1369.0</ele><time>2026-04-04T06:37:17.573Z</time></trkpt><trkpt lat="45.0762967" lon="7.2820896"><ele>1369.0000000000002</ele><time>2026-04-04T06:37:26.508Z</time></trkpt><trkpt lat="45.076263" lon="7.2820025"><ele>1369.0</ele><time>2026-04-04T06:37:32.554Z</time></trkpt><trkpt lat="45.0762334" lon="7.2819069"><ele>1369.0</ele><time>2026-04-04T06:37:37.548Z</time></trkpt><trkpt lat="45.076218" lon="7.2818128"><ele>1369.0</ele><time>2026-04-04T06:37:42.542Z</time></trkpt><trkpt lat="45.0761962" lon="7.28172"><ele>1369.0</ele><time>2026-04-04T06:37:49.555Z</time></trkpt><trkpt lat="45.0761712" lon="7.281622"><ele>1369.0000000000002</ele><time>2026-04-04T06:37:56.567Z</time></trkpt><trkpt lat="45.0761529" lon="7.2815323"><ele>1369.0</ele><time>2026-04-04T06:38:02.518Z</time></trkpt><trkpt lat="45.0761372" lon="7.2814429"><ele>1369.5714285714287</ele><time>2026-04-04T06:38:07.511Z</time></trkpt><trkpt lat="45.0761337" lon="7.2813527"><ele>1370.142857142857</ele><time>2026-04-04T06:38:12.51Z</time></trkpt><trkpt lat="45.0761228" lon="7.2812584"><ele>1370.7142857142858</ele><time>2026-04-04T06:38:18.622Z</time></trkpt><trkpt lat="45.0761" lon="7.2811677"><ele>1371.2857142857142</ele><time>2026-04-04T06:38:25.001Z</time></trkpt><trkpt lat="45.0760648" lon="7.2810741"><ele>1371.857142857143</ele><time>2026-04-04T06:38:29.522Z</time></trkpt><trkpt lat="45.0760465" lon="7.2809837"><ele>1372.4285714285716</ele><time>2026-04-04T06:38:34.559Z</time></trkpt><trkpt lat="45.0760492" lon="7.280884"><ele>1373.0</ele><time>2026-04-04T06:38:40.556Z</time></trkpt><trkpt lat="45.0760363" lon="7.2807864"><ele>1373.0</ele><time>2026-04-04T06:38:46.361Z</time></trkpt><trkpt lat="45.0760114" lon="7.2806909"><ele>1373.0</ele><time>2026-04-04T06:38:52.562Z</time></trkpt><trkpt lat="45.0759795" lon="7.2806043"><ele>1373.0</ele><time>2026-04-04T06:38:58.512Z</time></trkpt><trkpt lat="45.0759739" lon="7.280512"><ele>1373.0</ele><time>2026-04-04T06:39:02.55Z</time></trkpt><trkpt lat="45.0759733" lon="7.2804163"><ele>1373.0</ele><time>2026-04-04T06:39:07.544Z</time></trkpt><trkpt lat="45.0759463" lon="7.2803134"><ele>1373.0</ele><time>2026-04-04T06:39:14.481Z</time></trkpt><trkpt lat="45.0759285" lon="7.2802238"><ele>1373.0</ele><time>2026-04-04T06:39:19.55Z</time></trkpt><trkpt lat="45.0758613" lon="7.2802048"><ele>1373.5714285714287</ele><time>2026-04-04T06:39:21.57Z</time></trkpt><trkpt lat="45.0758337" lon="7.2801227"><ele>1374.142857142857</ele><time>2026-04-04T06:39:26.563Z</time></trkpt><trkpt lat="45.0758042" lon="7.2800339"><ele>1374.7142857142858</ele><time>2026-04-04T06:39:34.533Z</time></trkpt><trkpt lat="45.0758734" lon="7.2799926"><ele>1375.2857142857142</ele><time>2026-04-04T06:39:36.551Z</time></trkpt><trkpt lat="45.0758908" lon="7.2798927"><ele>1375.857142857143</ele><time>2026-04-04T06:39:44.52Z</time></trkpt><trkpt lat="45.0758847" lon="7.2797831"><ele>1376.4285714285713</ele><time>2026-04-04T06:40:27.554Z</time></trkpt><trkpt lat="45.0759004" lon="7.2796764"><ele>1377.0</ele><time>2026-04-04T06:40:32.547Z</time></trkpt><trkpt lat="45.0759013" lon="7.2795872"><ele>1378.0</ele><time>2026-04-04T06:40:36.586Z</time></trkpt><trkpt lat="45.0759296" lon="7.2794944"><ele>1379.0</ele><time>2026-04-04T06:40:42.536Z</time></trkpt><trkpt lat="45.0759387" lon="7.2793945"><ele>1380.0</ele><time>2026-04-04T06:40:47.53Z</time></trkpt><trkpt lat="45.0759172" lon="7.2792898"><ele>1381.0</ele><time>2026-04-04T06:40:52.525Z</time></trkpt><trkpt lat="45.0758859" lon="7.279205"><ele>1382.0</ele><time>2026-04-04T06:40:56.562Z</time></trkpt><trkpt lat="45.0758462" lon="7.2791207"><ele>1383.0</ele><time>2026-04-04T06:41:02.513Z</time></trkpt><trkpt lat="45.0758412" lon="7.2790172"><ele>1384.0</ele><time>2026-04-04T06:41:09.6Z</time></trkpt><trkpt lat="45.0758383" lon="7.2789266"><ele>1384.5714285714284</ele><time>2026-04-04T06:41:14.52Z</time></trkpt><trkpt lat="45.0758169" lon="7.2788409"><ele>1385.1428571428573</ele><time>2026-04-04T06:41:21.499Z</time></trkpt><trkpt lat="45.0757956" lon="7.2787364"><ele>1385.7142857142858</ele><time>2026-04-04T06:41:29.503Z</time></trkpt><trkpt lat="45.0757801" lon="7.2786324"><ele>1386.2857142857142</ele><time>2026-04-04T06:41:35.541Z</time></trkpt><trkpt lat="45.0757785" lon="7.2785355"><ele>1386.8571428571427</ele><time>2026-04-04T06:41:40.552Z</time></trkpt><trkpt lat="45.0757656" lon="7.2784407"><ele>1387.4285714285716</ele><time>2026-04-04T06:41:46.499Z</time></trkpt><trkpt lat="45.0757561" lon="7.2783357"><ele>1388.0</ele><time>2026-04-04T06:41:52.558Z</time></trkpt><trkpt lat="45.0757368" lon="7.2782377"><ele>1386.5714285714287</ele><time>2026-04-04T06:41:58.508Z</time></trkpt><trkpt lat="45.0757314" lon="7.2781392"><ele>1385.142857142857</ele><time>2026-04-04T06:42:03.502Z</time></trkpt><trkpt lat="45.0757394" lon="7.2780371"><ele>1383.7142857142858</ele><time>2026-04-04T06:42:09.558Z</time></trkpt><trkpt lat="45.0757491" lon="7.2779363"><ele>1382.2857142857142</ele><time>2026-04-04T06:42:15.508Z</time></trkpt><trkpt lat="45.0757358" lon="7.2778316"><ele>1380.857142857143</ele><time>2026-04-04T06:42:20.621Z</time></trkpt><trkpt lat="45.075733" lon="7.2777402"><ele>1379.4285714285713</ele><time>2026-04-04T06:42:25.503Z</time></trkpt><trkpt lat="45.075713" lon="7.2776463"><ele>1378.0</ele><time>2026-04-04T06:42:31.553Z</time></trkpt><trkpt lat="45.0757121" lon="7.2775505"><ele>1378.0</ele><time>2026-04-04T06:42:37.503Z</time></trkpt><trkpt lat="45.0757234" lon="7.2774468"><ele>1378.0</ele><time>2026-04-04T06:42:42.603Z</time></trkpt><trkpt lat="45.0757251" lon="7.2773518"><ele>1378.0</ele><time>2026-04-04T06:42:48.553Z</time></trkpt><trkpt lat="45.0757172" lon="7.2772566"><ele>1378.0</ele><time>2026-04-04T06:42:53.546Z</time></trkpt><trkpt lat="45.075661" lon="7.2771849"><ele>1378.0</ele><time>2026-04-04T06:42:59.461Z</time></trkpt><trkpt lat="45.0756141" lon="7.2771057"><ele>1378.0</ele><time>2026-04-04T06:43:05.599Z</time></trkpt><trkpt lat="45.0755688" lon="7.2770343"><ele>1378.0</ele><time>2026-04-04T06:43:11.163Z</time></trkpt><trkpt lat="45.0755376" lon="7.2769505"><ele>1379.857142857143</ele><time>2026-04-04T06:43:17.56Z</time></trkpt><trkpt lat="45.0755069" lon="7.2768583"><ele>1381.7142857142858</ele><time>2026-04-04T06:43:22.561Z</time></trkpt><trkpt lat="45.0754681" lon="7.2767796"><ele>1383.5714285714284</ele><time>2026-04-04T06:43:28.504Z</time></trkpt><trkpt lat="45.0754416" lon="7.2766903"><ele>1385.4285714285716</ele><time>2026-04-04T06:43:36.579Z</time></trkpt><trkpt lat="45.0753857" lon="7.2766415"><ele>1387.2857142857144</ele><time>2026-04-04T06:43:44.548Z</time></trkpt><trkpt lat="45.075338" lon="7.2765706"><ele>1389.142857142857</ele><time>2026-04-04T06:44:04.523Z</time></trkpt><trkpt lat="45.0752999" lon="7.2764966"><ele>1391.0</ele><time>2026-04-04T06:44:08.561Z</time></trkpt><trkpt lat="45.0752845" lon="7.27641"><ele>1393.0</ele><time>2026-04-04T06:44:12.598Z</time></trkpt><trkpt lat="45.0752657" lon="7.276318"><ele>1395.0</ele><time>2026-04-04T06:44:18.56Z</time></trkpt><trkpt lat="45.0752115" lon="7.2762659"><ele>1397.0</ele><time>2026-04-04T06:44:25.561Z</time></trkpt><trkpt lat="45.0751755" lon="7.27616"><ele>1399.0</ele><time>2026-04-04T06:44:49.581Z</time></trkpt><trkpt lat="45.0751344" lon="7.2760818"><ele>1401.0</ele><time>2026-04-04T06:44:55.524Z</time></trkpt><trkpt lat="45.0750918" lon="7.2760132"><ele>1403.0</ele><time>2026-04-04T06:45:00.517Z</time></trkpt><trkpt lat="45.0750529" lon="7.2759368"><ele>1405.0</ele><time>2026-04-04T06:45:06.575Z</time></trkpt><trkpt lat="45.0750155" lon="7.275865"><ele>1405.0</ele><time>2026-04-04T06:45:12.525Z</time></trkpt><trkpt lat="45.0749577" lon="7.2758228"><ele>1405.0</ele><time>2026-04-04T06:45:23.575Z</time></trkpt><trkpt lat="45.0748832" lon="7.2758038"><ele>1405.0</ele><time>2026-04-04T06:45:30.588Z</time></trkpt><trkpt lat="45.0748198" lon="7.2757549"><ele>1405.0</ele><time>2026-04-04T06:45:59.504Z</time></trkpt><trkpt lat="45.0748078" lon="7.2756624"><ele>1405.0</ele><time>2026-04-04T06:46:04.498Z</time></trkpt><trkpt lat="45.0748106" lon="7.2755693"><ele>1405.0</ele><time>2026-04-04T06:46:10.538Z</time></trkpt><trkpt lat="45.074815" lon="7.2754802"><ele>1405.0</ele><time>2026-04-04T06:46:15.582Z</time></trkpt><trkpt lat="45.0748075" lon="7.2753762"><ele>1403.5714285714284</ele><time>2026-04-04T06:46:21.58Z</time></trkpt><trkpt lat="45.0747985" lon="7.2752878"><ele>1402.1428571428573</ele><time>2026-04-04T06:46:27.8Z</time></trkpt><trkpt lat="45.0747749" lon="7.2751926"><ele>1400.7142857142858</ele><time>2026-04-04T06:46:33.563Z</time></trkpt><trkpt lat="45.0747916" lon="7.2750933"><ele>1399.2857142857142</ele><time>2026-04-04T06:46:39.522Z</time></trkpt><trkpt lat="45.0748004" lon="7.2749906"><ele>1397.8571428571427</ele><time>2026-04-04T06:46:45.577Z</time></trkpt><trkpt lat="45.0748032" lon="7.2748813"><ele>1396.4285714285716</ele><time>2026-04-04T06:46:49.51Z</time></trkpt><trkpt lat="45.0747899" lon="7.2747829"><ele>1395.0</ele><time>2026-04-04T06:46:56.521Z</time></trkpt><trkpt lat="45.0747673" lon="7.2746848"><ele>1395.0</ele><time>2026-04-04T06:47:03.541Z</time></trkpt><trkpt lat="45.0747644" lon="7.2745863"><ele>1395.0</ele><time>2026-04-04T06:47:08.529Z</time></trkpt><trkpt lat="45.0747527" lon="7.2744837"><ele>1395.0</ele><time>2026-04-04T06:47:14.586Z</time></trkpt><trkpt lat="45.0747461" lon="7.2743787"><ele>1395.0</ele><time>2026-04-04T06:47:20.605Z</time></trkpt><trkpt lat="45.0747404" lon="7.2742875"><ele>1395.0</ele><time>2026-04-04T06:47:25.53Z</time></trkpt><trkpt lat="45.0747304" lon="7.2741981"><ele>1395.0</ele><time>2026-04-04T06:47:32.543Z</time></trkpt><trkpt lat="45.0747244" lon="7.2741088"><ele>1395.0</ele><time>2026-04-04T06:47:38.485Z</time></trkpt><trkpt lat="45.0747028" lon="7.2740074"><ele>1397.2857142857144</ele><time>2026-04-04T06:47:43.593Z</time></trkpt><trkpt lat="45.0746735" lon="7.273918"><ele>1399.5714285714284</ele><time>2026-04-04T06:47:48.603Z</time></trkpt><trkpt lat="45.0746604" lon="7.2738138"><ele>1401.857142857143</ele><time>2026-04-04T06:47:53.443Z</time></trkpt><trkpt lat="45.0746318" lon="7.2737272"><ele>1404.1428571428573</ele><time>2026-04-04T06:47:58.422Z</time></trkpt><trkpt lat="45.0746163" lon="7.2736342"><ele>1406.4285714285716</ele><time>2026-04-04T06:48:03.521Z</time></trkpt><trkpt lat="45.074594" lon="7.2735449"><ele>1408.7142857142858</ele><time>2026-04-04T06:48:09.518Z</time></trkpt><trkpt lat="45.0745748" lon="7.2734439"><ele>1411.0</ele><time>2026-04-04T06:48:14.513Z</time></trkpt><trkpt lat="45.0745281" lon="7.2733716"><ele>1411.0000000000002</ele><time>2026-04-04T06:48:18.549Z</time></trkpt><trkpt lat="45.0744658" lon="7.2733246"><ele>1411.0</ele><time>2026-04-04T06:48:23.544Z</time></trkpt><trkpt lat="45.0744085" lon="7.273284"><ele>1411.0</ele><time>2026-04-04T06:48:28.538Z</time></trkpt><trkpt lat="45.0743551" lon="7.2732181"><ele>1411.0</ele><time>2026-04-04T06:48:35.551Z</time></trkpt><trkpt lat="45.0743002" lon="7.2731713"><ele>1411.0</ele><time>2026-04-04T06:48:40.544Z</time></trkpt><trkpt lat="45.074252" lon="7.2731136"><ele>1411.0000000000002</ele><time>2026-04-04T06:48:45.544Z</time></trkpt><trkpt lat="45.074218" lon="7.2730357"><ele>1411.0</ele><time>2026-04-04T06:48:52.551Z</time></trkpt><trkpt lat="45.074158" lon="7.272985"><ele>1407.857142857143</ele><time>2026-04-04T06:48:58.503Z</time></trkpt><trkpt lat="45.0740938" lon="7.2729915"><ele>1404.7142857142858</ele><time>2026-04-04T06:49:16.564Z</time></trkpt><trkpt lat="45.0740347" lon="7.2729406"><ele>1401.5714285714284</ele><time>2026-04-04T06:49:21.525Z</time></trkpt><trkpt lat="45.0739672" lon="7.2728896"><ele>1398.4285714285716</ele><time>2026-04-04T06:49:27.508Z</time></trkpt><trkpt lat="45.0739046" lon="7.2728555"><ele>1395.2857142857142</ele><time>2026-04-04T06:49:34.52Z</time></trkpt><trkpt lat="45.0738216" lon="7.2728003"><ele>1392.142857142857</ele><time>2026-04-04T06:49:56.584Z</time></trkpt><trkpt lat="45.0737909" lon="7.2727194"><ele>1389.0</ele><time>2026-04-04T06:50:02.571Z</time></trkpt><trkpt lat="45.0736995" lon="7.2726545"><ele>1388.9999999999998</ele><time>2026-04-04T06:50:47.516Z</time></trkpt><trkpt lat="45.0737199" lon="7.2725639"><ele>1389.0</ele><time>2026-04-04T06:51:39.581Z</time></trkpt><trkpt lat="45.0737255" lon="7.2724601"><ele>1389.0</ele><time>2026-04-04T06:51:44.574Z</time></trkpt><trkpt lat="45.0737142" lon="7.2723634"><ele>1389.0</ele><time>2026-04-04T06:51:53.583Z</time></trkpt><trkpt lat="45.0736882" lon="7.2722736"><ele>1389.0</ele><time>2026-04-04T06:52:01.575Z</time></trkpt><trkpt lat="45.073664" lon="7.2721851"><ele>1388.9999999999998</ele><time>2026-04-04T06:52:08.588Z</time></trkpt><trkpt lat="45.0736561" lon="7.2720849"><ele>1389.0</ele><time>2026-04-04T06:52:18.542Z</time></trkpt><trkpt lat="45.0736421" lon="7.2719943"><ele>1392.142857142857</ele><time>2026-04-04T06:52:23.57Z</time></trkpt><trkpt lat="45.0736217" lon="7.2718948"><ele>1395.2857142857142</ele><time>2026-04-04T06:52:28.564Z</time></trkpt><trkpt lat="45.0736016" lon="7.2717958"><ele>1398.4285714285716</ele><time>2026-04-04T06:52:33.603Z</time></trkpt><trkpt lat="45.0735572" lon="7.2717161"><ele>1401.5714285714284</ele><time>2026-04-04T06:52:40.486Z</time></trkpt><trkpt lat="45.0735063" lon="7.27164"><ele>1404.7142857142858</ele><time>2026-04-04T06:52:45.503Z</time></trkpt><trkpt lat="45.0734671" lon="7.2715698"><ele>1407.857142857143</ele><time>2026-04-04T06:52:53.534Z</time></trkpt><trkpt lat="45.0734126" lon="7.2714938"><ele>1411.0</ele><time>2026-04-04T06:52:58.528Z</time></trkpt><trkpt lat="45.0733726" lon="7.2714076"><ele>1412.0000000000002</ele><time>2026-04-04T06:53:04.584Z</time></trkpt><trkpt lat="45.0733384" lon="7.2713182"><ele>1413.0</ele><time>2026-04-04T06:53:10.534Z</time></trkpt><trkpt lat="45.0733004" lon="7.2712403"><ele>1414.0</ele><time>2026-04-04T06:53:16.591Z</time></trkpt><trkpt lat="45.0732568" lon="7.2711705"><ele>1415.0</ele><time>2026-04-04T06:53:22.541Z</time></trkpt><trkpt lat="45.0732098" lon="7.2710975"><ele>1416.0</ele><time>2026-04-04T06:53:40.485Z</time></trkpt><trkpt lat="45.0732763" lon="7.2710031"><ele>1417.0000000000002</ele><time>2026-04-04T06:53:56.524Z</time></trkpt><trkpt lat="45.0733145" lon="7.2709273"><ele>1418.0</ele><time>2026-04-04T06:54:03.554Z</time></trkpt><trkpt lat="45.0733678" lon="7.2708619"><ele>1418.0000000000002</ele><time>2026-04-04T06:54:12.587Z</time></trkpt><trkpt lat="45.0733945" lon="7.2707796"><ele>1418.0</ele><time>2026-04-04T06:54:18.537Z</time></trkpt><trkpt lat="45.0734405" lon="7.2707099"><ele>1418.0</ele><time>2026-04-04T06:54:23.53Z</time></trkpt><trkpt lat="45.0734893" lon="7.2706522"><ele>1418.0</ele><time>2026-04-04T06:54:30.544Z</time></trkpt><trkpt lat="45.0735211" lon="7.2705716"><ele>1418.0</ele><time>2026-04-04T06:54:36.622Z</time></trkpt><trkpt lat="45.0735329" lon="7.2704801"><ele>1418.0000000000002</ele><time>2026-04-04T06:54:44.586Z</time></trkpt><trkpt lat="45.0735722" lon="7.2703977"><ele>1418.0</ele><time>2026-04-04T06:54:51.583Z</time></trkpt><trkpt lat="45.0736182" lon="7.2703189"><ele>1415.7142857142858</ele><time>2026-04-04T06:54:58.596Z</time></trkpt><trkpt lat="45.0736484" lon="7.2702379"><ele>1413.4285714285716</ele><time>2026-04-04T06:55:02.527Z</time></trkpt><trkpt lat="45.0736719" lon="7.2701417"><ele>1411.1428571428573</ele><time>2026-04-04T06:55:08.584Z</time></trkpt><trkpt lat="45.0736764" lon="7.2700471"><ele>1408.857142857143</ele><time>2026-04-04T06:55:15.444Z</time></trkpt><trkpt lat="45.0737201" lon="7.269982"><ele>1406.5714285714284</ele><time>2026-04-04T06:55:20.59Z</time></trkpt><trkpt lat="45.07376" lon="7.2698996"><ele>1404.2857142857144</ele><time>2026-04-04T06:55:28.559Z</time></trkpt><trkpt lat="45.0738037" lon="7.2698301"><ele>1402.0</ele><time>2026-04-04T06:55:34.52Z</time></trkpt><trkpt lat="45.0738596" lon="7.2697626"><ele>1400.857142857143</ele><time>2026-04-04T06:55:42.384Z</time></trkpt><trkpt lat="45.0739225" lon="7.2697299"><ele>1399.7142857142856</ele><time>2026-04-04T06:55:50.554Z</time></trkpt><trkpt lat="45.0739864" lon="7.269698"><ele>1398.5714285714284</ele><time>2026-04-04T06:55:57.567Z</time></trkpt><trkpt lat="45.0740548" lon="7.2696675"><ele>1397.4285714285716</ele><time>2026-04-04T06:56:03.563Z</time></trkpt><trkpt lat="45.0741204" lon="7.2696368"><ele>1396.2857142857142</ele><time>2026-04-04T06:56:09.573Z</time></trkpt><trkpt lat="45.0741752" lon="7.2695927"><ele>1395.142857142857</ele><time>2026-04-04T06:56:16.545Z</time></trkpt><trkpt lat="45.0742418" lon="7.2695652"><ele>1394.0</ele><time>2026-04-04T06:56:22.537Z</time></trkpt><trkpt lat="45.0743158" lon="7.2695391"><ele>1397.142857142857</ele><time>2026-04-04T06:56:28.594Z</time></trkpt><trkpt lat="45.0743848" lon="7.2695019"><ele>1400.2857142857142</ele><time>2026-04-04T06:56:34.544Z</time></trkpt><trkpt lat="45.0744433" lon="7.2694563"><ele>1403.4285714285716</ele><time>2026-04-04T06:56:40.601Z</time></trkpt><trkpt lat="45.0745104" lon="7.2694121"><ele>1406.5714285714284</ele><time>2026-04-04T06:56:48.57Z</time></trkpt><trkpt lat="45.0745845" lon="7.2694013"><ele>1409.7142857142856</ele><time>2026-04-04T06:56:54.52Z</time></trkpt><trkpt lat="45.0746629" lon="7.2694036"><ele>1412.857142857143</ele><time>2026-04-04T06:56:59.513Z</time></trkpt><trkpt lat="45.0747289" lon="7.2693727"><ele>1416.0</ele><time>2026-04-04T06:57:06.526Z</time></trkpt><trkpt lat="45.0747905" lon="7.2693188"><ele>1416.0</ele><time>2026-04-04T06:57:12.583Z</time></trkpt><trkpt lat="45.0748543" lon="7.2692944"><ele>1416.0</ele><time>2026-04-04T06:57:17.577Z</time></trkpt><trkpt lat="45.0749253" lon="7.2692558"><ele>1416.0</ele><time>2026-04-04T06:57:22.571Z</time></trkpt><trkpt lat="45.074998" lon="7.2692259"><ele>1416.0</ele><time>2026-04-04T06:57:26.504Z</time></trkpt><trkpt lat="45.0750641" lon="7.2691883"><ele>1416.0</ele><time>2026-04-04T06:57:30.54Z</time></trkpt><trkpt lat="45.0751239" lon="7.2691561"><ele>1416.0</ele><time>2026-04-04T06:57:35.533Z</time></trkpt><trkpt lat="45.0751784" lon="7.269097"><ele>1416.0</ele><time>2026-04-04T06:57:41.59Z</time></trkpt><trkpt lat="45.0752466" lon="7.2690484"><ele>1415.142857142857</ele><time>2026-04-04T06:57:46.584Z</time></trkpt><trkpt lat="45.0752931" lon="7.2689741"><ele>1414.2857142857142</ele><time>2026-04-04T06:57:52.533Z</time></trkpt><trkpt lat="45.0753335" lon="7.2689012"><ele>1413.4285714285713</ele><time>2026-04-04T06:57:57.528Z</time></trkpt><trkpt lat="45.0753777" lon="7.2688253"><ele>1412.5714285714284</ele><time>2026-04-04T06:58:02.52Z</time></trkpt><trkpt lat="45.0754138" lon="7.2687512"><ele>1411.7142857142858</ele><time>2026-04-04T06:58:07.521Z</time></trkpt><trkpt lat="45.075447" lon="7.2686674"><ele>1410.8571428571427</ele><time>2026-04-04T06:58:12.509Z</time></trkpt><trkpt lat="45.0754897" lon="7.2685886"><ele>1410.0</ele><time>2026-04-04T06:58:17.609Z</time></trkpt><trkpt lat="45.075525" lon="7.268511"><ele>1409.9999999999998</ele><time>2026-04-04T06:58:21.541Z</time></trkpt><trkpt lat="45.0755796" lon="7.2684443"><ele>1410.0</ele><time>2026-04-04T06:58:26.533Z</time></trkpt><trkpt lat="45.0756243" lon="7.2683729"><ele>1410.0</ele><time>2026-04-04T06:58:32.591Z</time></trkpt><trkpt lat="45.07568" lon="7.2683222"><ele>1410.0</ele><time>2026-04-04T06:58:38.541Z</time></trkpt><trkpt lat="45.0757271" lon="7.2682619"><ele>1410.0</ele><time>2026-04-04T06:58:43.535Z</time></trkpt><trkpt lat="45.0757883" lon="7.2682394"><ele>1409.9999999999998</ele><time>2026-04-04T06:58:50.547Z</time></trkpt><trkpt lat="45.0758332" lon="7.268173"><ele>1410.0</ele><time>2026-04-04T06:58:54.562Z</time></trkpt><trkpt lat="45.0758768" lon="7.2681039"><ele>1422.0</ele><time>2026-04-04T06:59:03.521Z</time></trkpt><trkpt lat="45.0759113" lon="7.2680292"><ele>1422.0</ele><time>2026-04-04T06:59:09.565Z</time></trkpt><trkpt lat="45.0759627" lon="7.2679721"><ele>1422.0</ele><time>2026-04-04T06:59:14.56Z</time></trkpt><trkpt lat="45.0760145" lon="7.2678879"><ele>1422.0</ele><time>2026-04-04T06:59:19.554Z</time></trkpt><trkpt lat="45.0760376" lon="7.2677914"><ele>1422.0</ele><time>2026-04-04T06:59:24.563Z</time></trkpt></trkseg><trkseg><trkpt lat="45.0768994" lon="7.2523336"><ele>1585.0000000000002</ele><time>2026-04-04T07:39:49.996Z</time></trkpt><trkpt lat="45.0767899" lon="7.2523827"><ele>1585.0</ele><time>2026-04-04T07:39:58.5Z</time></trkpt><trkpt lat="45.0767213" lon="7.2523996"><ele>1585.0</ele><time>2026-04-04T07:40:01.552Z</time></trkpt><trkpt lat="45.0766602" lon="7.2523664"><ele>1585.0</ele><time>2026-04-04T07:40:28.543Z</time></trkpt><trkpt lat="45.0766316" lon="7.2522565"><ele>1585.0000000000002</ele><time>2026-04-04T07:40:46.501Z</time></trkpt><trkpt lat="45.0766197" lon="7.2521681"><ele>1585.0</ele><time>2026-04-04T07:41:40.501Z</time></trkpt><trkpt lat="45.0766265" lon="7.2520738"><ele>1586.7142857142856</ele><time>2026-04-04T07:41:45.585Z</time></trkpt><trkpt lat="45.0766712" lon="7.2520083"><ele>1588.4285714285713</ele><time>2026-04-04T07:41:55.527Z</time></trkpt><trkpt lat="45.0766602" lon="7.25191"><ele>1590.142857142857</ele><time>2026-04-04T07:42:06.519Z</time></trkpt><trkpt lat="45.0766159" lon="7.2518233"><ele>1591.8571428571427</ele><time>2026-04-04T07:43:11.526Z</time></trkpt><trkpt lat="45.0766021" lon="7.2517337"><ele>1593.5714285714287</ele><time>2026-04-04T07:43:17.503Z</time></trkpt><trkpt lat="45.0765767" lon="7.2516424"><ele>1595.2857142857142</ele><time>2026-04-04T07:43:30.573Z</time></trkpt><trkpt lat="45.0765295" lon="7.251532"><ele>1597.0</ele><time>2026-04-04T07:44:44.265Z</time></trkpt><trkpt lat="45.0765235" lon="7.2514347"><ele>1589.142857142857</ele><time>2026-04-04T07:44:50.586Z</time></trkpt><trkpt lat="45.0765021" lon="7.2513396"><ele>1581.2857142857142</ele><time>2026-04-04T07:44:58.504Z</time></trkpt><trkpt lat="45.076501" lon="7.2512475"><ele>1573.4285714285716</ele><time>2026-04-04T07:45:12.525Z</time></trkpt><trkpt lat="45.0765222" lon="7.2511471"><ele>1565.5714285714284</ele><time>2026-04-04T07:45:20.551Z</time></trkpt><trkpt lat="45.0765727" lon="7.2510866"><ele>1557.7142857142856</ele><time>2026-04-04T07:45:32.558Z</time></trkpt><trkpt lat="45.0765783" lon="7.2509343"><ele>1549.857142857143</ele><time>2026-04-04T07:45:54.554Z</time></trkpt><trkpt lat="45.0765946" lon="7.2508462"><ele>1542.0</ele><time>2026-04-04T07:45:59.549Z</time></trkpt><trkpt lat="45.0765997" lon="7.2507515"><ele>1548.2857142857144</ele><time>2026-04-04T07:46:10.502Z</time></trkpt><trkpt lat="45.0766181" lon="7.2506484"><ele>1554.5714285714284</ele><time>2026-04-04T07:46:21.544Z</time></trkpt><trkpt lat="45.0766404" lon="7.2505599"><ele>1560.857142857143</ele><time>2026-04-04T07:46:27.526Z</time></trkpt><trkpt lat="45.0766643" lon="7.2504751"><ele>1567.1428571428573</ele><time>2026-04-04T07:46:33.552Z</time></trkpt><trkpt lat="45.0766575" lon="7.2503864"><ele>1573.4285714285716</ele><time>2026-04-04T07:46:40.566Z</time></trkpt><trkpt lat="45.0766763" lon="7.2502974"><ele>1579.7142857142858</ele><time>2026-04-04T07:46:50.554Z</time></trkpt><trkpt lat="45.0767021" lon="7.2501996"><ele>1586.0</ele><time>2026-04-04T07:46:56.505Z</time></trkpt><trkpt lat="45.0766998" lon="7.2501105"><ele>1586.0000000000002</ele><time>2026-04-04T07:47:03.517Z</time></trkpt><trkpt lat="45.0767128" lon="7.2500125"><ele>1586.0</ele><time>2026-04-04T07:47:13.506Z</time></trkpt><trkpt lat="45.076716" lon="7.2499229"><ele>1586.0</ele><time>2026-04-04T07:47:18.584Z</time></trkpt><trkpt lat="45.0767168" lon="7.249831"><ele>1586.0</ele><time>2026-04-04T07:47:24.607Z</time></trkpt><trkpt lat="45.076726" lon="7.2497272"><ele>1586.0</ele><time>2026-04-04T07:47:32.527Z</time></trkpt><trkpt lat="45.0767485" lon="7.249633"><ele>1586.0000000000002</ele><time>2026-04-04T07:47:39.54Z</time></trkpt><trkpt lat="45.0767292" lon="7.2495383"><ele>1586.0</ele><time>2026-04-04T07:47:47.51Z</time></trkpt><trkpt lat="45.0767293" lon="7.2494422"><ele>1586.1428571428573</ele><time>2026-04-04T07:47:53.567Z</time></trkpt><trkpt lat="45.0767263" lon="7.2493476"><ele>1586.2857142857142</ele><time>2026-04-04T07:47:59.516Z</time></trkpt><trkpt lat="45.0767163" lon="7.2492508"><ele>1586.4285714285716</ele><time>2026-04-04T07:48:05.574Z</time></trkpt><trkpt lat="45.0767165" lon="7.2491587"><ele>1586.5714285714287</ele><time>2026-04-04T07:48:12.587Z</time></trkpt><trkpt lat="45.0767134" lon="7.2490604"><ele>1586.7142857142858</ele><time>2026-04-04T07:48:20.556Z</time></trkpt><trkpt lat="45.0767047" lon="7.2489637"><ele>1586.857142857143</ele><time>2026-04-04T07:48:43.509Z</time></trkpt><trkpt lat="45.0767285" lon="7.2488705"><ele>1587.0</ele><time>2026-04-04T07:48:55.516Z</time></trkpt><trkpt lat="45.0766948" lon="7.2487902"><ele>1587.4285714285713</ele><time>2026-04-04T07:49:02.529Z</time></trkpt><trkpt lat="45.0766918" lon="7.2486818"><ele>1587.857142857143</ele><time>2026-04-04T07:49:17.444Z</time></trkpt><trkpt lat="45.0766872" lon="7.2485879"><ele>1588.2857142857142</ele><time>2026-04-04T07:49:25.588Z</time></trkpt><trkpt lat="45.076655" lon="7.2485089"><ele>1588.7142857142858</ele><time>2026-04-04T07:49:35.576Z</time></trkpt><trkpt lat="45.0766379" lon="7.2484157"><ele>1589.1428571428573</ele><time>2026-04-04T07:49:58.529Z</time></trkpt><trkpt lat="45.076635" lon="7.2483255"><ele>1589.5714285714287</ele><time>2026-04-04T07:50:05.505Z</time></trkpt><trkpt lat="45.0766357" lon="7.2482361"><ele>1590.0</ele><time>2026-04-04T07:50:13.511Z</time></trkpt><trkpt lat="45.0766337" lon="7.2481295"><ele>1590.4285714285716</ele><time>2026-04-04T07:50:27.507Z</time></trkpt><trkpt lat="45.0766378" lon="7.2480321"><ele>1590.857142857143</ele><time>2026-04-04T07:50:33.594Z</time></trkpt><trkpt lat="45.0766052" lon="7.2479437"><ele>1591.2857142857142</ele><time>2026-04-04T07:50:40.503Z</time></trkpt><trkpt lat="45.0765931" lon="7.2478562"><ele>1591.7142857142858</ele><time>2026-04-04T07:50:46.559Z</time></trkpt><trkpt lat="45.0765816" lon="7.2477627"><ele>1592.142857142857</ele><time>2026-04-04T07:50:53.572Z</time></trkpt><trkpt lat="45.0765684" lon="7.2476617"><ele>1592.5714285714287</ele><time>2026-04-04T07:51:09.54Z</time></trkpt><trkpt lat="45.0765636" lon="7.247564"><ele>1593.0</ele><time>2026-04-04T07:51:13.59Z</time></trkpt><trkpt lat="45.07656" lon="7.2474715"><ele>1592.2</ele><time>2026-04-04T07:51:20.592Z</time></trkpt><trkpt lat="45.0765474" lon="7.2473727"><ele>1591.4</ele><time>2026-04-04T07:51:29.518Z</time></trkpt><trkpt lat="45.0765445" lon="7.2472749"><ele>1590.6000000000001</ele><time>2026-04-04T07:51:36.531Z</time></trkpt><trkpt lat="45.0765752" lon="7.2470376"><ele>1589.8000000000002</ele><time>2026-04-04T07:52:26.579Z</time></trkpt><trkpt lat="45.0765828" lon="7.2469441"><ele>1589.0</ele><time>2026-04-04T07:52:32.53Z</time></trkpt><trkpt lat="45.0766155" lon="7.2468511"><ele>1589.0</ele><time>2026-04-04T07:52:44.484Z</time></trkpt><trkpt lat="45.0766082" lon="7.2467548"><ele>1589.0</ele><time>2026-04-04T07:52:50.466Z</time></trkpt><trkpt lat="45.0766111" lon="7.2466615"><ele>1589.0</ele><time>2026-04-04T07:52:58.588Z</time></trkpt><trkpt lat="45.0766265" lon="7.2465683"><ele>1589.0</ele><time>2026-04-04T07:53:07.514Z</time></trkpt><trkpt lat="45.0766504" lon="7.246485"><ele>1589.0</ele><time>2026-04-04T07:53:14.527Z</time></trkpt><trkpt lat="45.0766637" lon="7.2463976"><ele>1589.0</ele><time>2026-04-04T07:53:21.541Z</time></trkpt><trkpt lat="45.0766865" lon="7.2463137"><ele>1589.0</ele><time>2026-04-04T07:53:28.554Z</time></trkpt><trkpt lat="45.0766832" lon="7.2462217"><ele>1588.5714285714287</ele><time>2026-04-04T07:53:35.566Z</time></trkpt><trkpt lat="45.0766905" lon="7.2461322"><ele>1588.142857142857</ele><time>2026-04-04T07:53:42.581Z</time></trkpt><trkpt lat="45.0767155" lon="7.2460445"><ele>1587.7142857142858</ele><time>2026-04-04T07:53:50.549Z</time></trkpt><trkpt lat="45.0766998" lon="7.2459539"><ele>1587.2857142857142</ele><time>2026-04-04T07:53:57.57Z</time></trkpt><trkpt lat="45.0766942" lon="7.2458589"><ele>1586.857142857143</ele><time>2026-04-04T07:54:03.588Z</time></trkpt><trkpt lat="45.0766603" lon="7.2457306"><ele>1586.4285714285716</ele><time>2026-04-04T07:54:33.587Z</time></trkpt><trkpt lat="45.0766892" lon="7.2456265"><ele>1586.0</ele><time>2026-04-04T07:54:38.58Z</time></trkpt><trkpt lat="45.0767184" lon="7.2455343"><ele>1584.857142857143</ele><time>2026-04-04T07:54:44.566Z</time></trkpt><trkpt lat="45.0767302" lon="7.2454467"><ele>1583.7142857142858</ele><time>2026-04-04T07:54:53.563Z</time></trkpt><trkpt lat="45.076736" lon="7.2453525"><ele>1582.5714285714284</ele><time>2026-04-04T07:54:59.512Z</time></trkpt><trkpt lat="45.0767612" lon="7.2452577"><ele>1581.4285714285716</ele><time>2026-04-04T07:55:05.57Z</time></trkpt><trkpt lat="45.0767776" lon="7.2451652"><ele>1580.2857142857142</ele><time>2026-04-04T07:55:13.54Z</time></trkpt><trkpt lat="45.0768033" lon="7.2450687"><ele>1579.142857142857</ele><time>2026-04-04T07:55:20.553Z</time></trkpt><trkpt lat="45.0768279" lon="7.2449797"><ele>1578.0</ele><time>2026-04-04T07:55:26.63Z</time></trkpt><trkpt lat="45.0768326" lon="7.2448765"><ele>1577.7142857142856</ele><time>2026-04-04T07:55:37.554Z</time></trkpt><trkpt lat="45.0768551" lon="7.2447885"><ele>1577.4285714285713</ele><time>2026-04-04T07:55:45.569Z</time></trkpt><trkpt lat="45.0768697" lon="7.2446951"><ele>1577.142857142857</ele><time>2026-04-04T07:55:52.487Z</time></trkpt><trkpt lat="45.0768859" lon="7.244607"><ele>1576.8571428571427</ele><time>2026-04-04T07:56:01.569Z</time></trkpt><trkpt lat="45.0769075" lon="7.244523"><ele>1576.5714285714287</ele><time>2026-04-04T07:56:08.582Z</time></trkpt><trkpt lat="45.0769118" lon="7.2444305"><ele>1576.2857142857142</ele><time>2026-04-04T07:56:16.552Z</time></trkpt><trkpt lat="45.076907" lon="7.2443384"><ele>1576.0</ele><time>2026-04-04T07:56:23.567Z</time></trkpt><trkpt lat="45.0769012" lon="7.2442376"><ele>1576.0000000000002</ele><time>2026-04-04T07:56:30.578Z</time></trkpt><trkpt lat="45.0768895" lon="7.2441462"><ele>1576.0</ele><time>2026-04-04T07:56:37.591Z</time></trkpt><trkpt lat="45.0768829" lon="7.2440406"><ele>1576.0</ele><time>2026-04-04T07:56:47.58Z</time></trkpt><trkpt lat="45.0768757" lon="7.2439496"><ele>1576.0</ele><time>2026-04-04T07:56:53.531Z</time></trkpt><trkpt lat="45.0768527" lon="7.2438641"><ele>1576.0000000000002</ele><time>2026-04-04T07:57:02.563Z</time></trkpt><trkpt lat="45.0768437" lon="7.2437109"><ele>1576.0</ele><time>2026-04-04T07:57:24.558Z</time></trkpt><trkpt lat="45.0768325" lon="7.2436108"><ele>1577.857142857143</ele><time>2026-04-04T07:57:33.568Z</time></trkpt><trkpt lat="45.0768106" lon="7.2435164"><ele>1579.7142857142858</ele><time>2026-04-04T07:57:40.503Z</time></trkpt><trkpt lat="45.0767815" lon="7.2434343"><ele>1581.5714285714284</ele><time>2026-04-04T07:57:45.508Z</time></trkpt><trkpt lat="45.0767607" lon="7.2433479"><ele>1583.4285714285716</ele><time>2026-04-04T07:57:51.549Z</time></trkpt><trkpt lat="45.0767367" lon="7.2432506"><ele>1585.2857142857142</ele><time>2026-04-04T07:57:58.563Z</time></trkpt><trkpt lat="45.0767112" lon="7.2431536"><ele>1587.142857142857</ele><time>2026-04-04T07:58:07.595Z</time></trkpt><trkpt lat="45.0766751" lon="7.2430608"><ele>1589.0</ele><time>2026-04-04T07:58:29.503Z</time></trkpt><trkpt lat="45.0766406" lon="7.2429834"><ele>1584.4285714285713</ele><time>2026-04-04T07:58:35.547Z</time></trkpt><trkpt lat="45.0765763" lon="7.2429328"><ele>1579.857142857143</ele><time>2026-04-04T07:58:41.503Z</time></trkpt><trkpt lat="45.0765448" lon="7.2428492"><ele>1575.2857142857142</ele><time>2026-04-04T07:58:50.531Z</time></trkpt><trkpt lat="45.0765661" lon="7.2427652"><ele>1570.7142857142858</ele><time>2026-04-04T07:59:00.189Z</time></trkpt><trkpt lat="45.0765253" lon="7.2426851"><ele>1566.142857142857</ele><time>2026-04-04T07:59:06.577Z</time></trkpt><trkpt lat="45.0765033" lon="7.2425972"><ele>1561.5714285714284</ele><time>2026-04-04T07:59:13.591Z</time></trkpt><trkpt lat="45.0764623" lon="7.242512"><ele>1557.0</ele><time>2026-04-04T07:59:21.56Z</time></trkpt><trkpt lat="45.0764253" lon="7.2424293"><ele>1561.0</ele><time>2026-04-04T07:59:28.574Z</time></trkpt><trkpt lat="45.0763638" lon="7.2422417"><ele>1565.0</ele><time>2026-04-04T07:59:55.565Z</time></trkpt><trkpt lat="45.0763348" lon="7.2420833"><ele>1569.0</ele><time>2026-04-04T08:00:37.539Z</time></trkpt><trkpt lat="45.0763205" lon="7.2419944"><ele>1573.0</ele><time>2026-04-04T08:00:45.509Z</time></trkpt><trkpt lat="45.0762883" lon="7.2419112"><ele>1577.0</ele><time>2026-04-04T08:00:53.585Z</time></trkpt><trkpt lat="45.0762881" lon="7.2418068"><ele>1577.0</ele><time>2026-04-04T08:01:29.503Z</time></trkpt><trkpt lat="45.0762861" lon="7.2417074"><ele>1577.0</ele><time>2026-04-04T08:01:39.598Z</time></trkpt><trkpt lat="45.076287" lon="7.2416173"><ele>1577.0</ele><time>2026-04-04T08:01:46.592Z</time></trkpt><trkpt lat="45.0763069" lon="7.2415271"><ele>1577.0</ele><time>2026-04-04T08:01:54.581Z</time></trkpt><trkpt lat="45.0763256" lon="7.2414346"><ele>1577.0</ele><time>2026-04-04T08:02:06.589Z</time></trkpt><trkpt lat="45.076311" lon="7.241339"><ele>1577.0</ele><time>2026-04-04T08:02:18.597Z</time></trkpt><trkpt lat="45.0762928" lon="7.2412459"><ele>1577.0</ele><time>2026-04-04T08:02:25.504Z</time></trkpt><trkpt lat="45.0762771" lon="7.2411578"><ele>1579.5714285714287</ele><time>2026-04-04T08:02:34.536Z</time></trkpt><trkpt lat="45.0762693" lon="7.2410595"><ele>1582.142857142857</ele><time>2026-04-04T08:02:41.549Z</time></trkpt><trkpt lat="45.0762254" lon="7.2409848"><ele>1584.7142857142858</ele><time>2026-04-04T08:02:48.563Z</time></trkpt><trkpt lat="45.0761645" lon="7.2409445"><ele>1587.2857142857142</ele><time>2026-04-04T08:03:03.546Z</time></trkpt><trkpt lat="45.0761056" lon="7.2408895"><ele>1589.8571428571427</ele><time>2026-04-04T08:03:09.504Z</time></trkpt><trkpt lat="45.0760751" lon="7.2408022"><ele>1592.4285714285713</ele><time>2026-04-04T08:03:17.608Z</time></trkpt><trkpt lat="45.0760184" lon="7.2407492"><ele>1595.0</ele><time>2026-04-04T08:03:27.427Z</time></trkpt><trkpt lat="45.0759877" lon="7.2406652"><ele>1592.3333333333333</ele><time>2026-04-04T08:03:41.588Z</time></trkpt><trkpt lat="45.0759908" lon="7.2404973"><ele>1589.6666666666665</ele><time>2026-04-04T08:04:07.372Z</time></trkpt><trkpt lat="45.0759474" lon="7.2404168"><ele>1587.0</ele><time>2026-04-04T08:04:11.454Z</time></trkpt><trkpt lat="45.0759059" lon="7.24034"><ele>1584.3333333333335</ele><time>2026-04-04T08:04:22.605Z</time></trkpt><trkpt lat="45.0758617" lon="7.240266"><ele>1581.6666666666667</ele><time>2026-04-04T08:04:29.512Z</time></trkpt><trkpt lat="45.0757732" lon="7.2401843"><ele>1579.0</ele><time>2026-04-04T08:05:37.513Z</time></trkpt><trkpt lat="45.0757323" lon="7.2401013"><ele>1579.0000000000002</ele><time>2026-04-04T08:05:45.597Z</time></trkpt><trkpt lat="45.0756976" lon="7.2400151"><ele>1579.0</ele><time>2026-04-04T08:05:54.523Z</time></trkpt><trkpt lat="45.0756703" lon="7.239933"><ele>1579.0</ele><time>2026-04-04T08:06:01.537Z</time></trkpt><trkpt lat="45.0756204" lon="7.2398773"><ele>1579.0</ele><time>2026-04-04T08:06:09.507Z</time></trkpt><trkpt lat="45.0755709" lon="7.2398075"><ele>1579.0</ele><time>2026-04-04T08:06:17.583Z</time></trkpt><trkpt lat="45.0755178" lon="7.2397415"><ele>1579.0000000000002</ele><time>2026-04-04T08:06:23.533Z</time></trkpt><trkpt lat="45.0754708" lon="7.2396727"><ele>1579.0</ele><time>2026-04-04T08:06:30.234Z</time></trkpt><trkpt lat="45.0754211" lon="7.2396141"><ele>1581.857142857143</ele><time>2026-04-04T08:06:40.536Z</time></trkpt><trkpt lat="45.0754008" lon="7.2395219"><ele>1584.7142857142858</ele><time>2026-04-04T08:06:49.434Z</time></trkpt><trkpt lat="45.0753777" lon="7.2394383"><ele>1587.5714285714284</ele><time>2026-04-04T08:07:01.576Z</time></trkpt><trkpt lat="45.075336" lon="7.2393618"><ele>1590.4285714285716</ele><time>2026-04-04T08:07:11.565Z</time></trkpt><trkpt lat="45.0752975" lon="7.2392669"><ele>1593.2857142857142</ele><time>2026-04-04T08:07:20.503Z</time></trkpt><trkpt lat="45.075291" lon="7.2391699"><ele>1596.142857142857</ele><time>2026-04-04T08:07:30.586Z</time></trkpt><trkpt lat="45.0752428" lon="7.2390927"><ele>1599.0</ele><time>2026-04-04T08:07:40.575Z</time></trkpt><trkpt lat="45.0752043" lon="7.2390129"><ele>1602.2857142857142</ele><time>2026-04-04T08:07:49.608Z</time></trkpt><trkpt lat="45.0751807" lon="7.2389301"><ele>1605.5714285714284</ele><time>2026-04-04T08:07:56.515Z</time></trkpt><trkpt lat="45.0751792" lon="7.2388374"><ele>1608.8571428571427</ele><time>2026-04-04T08:08:03.529Z</time></trkpt><trkpt lat="45.0751466" lon="7.2387528"><ele>1612.142857142857</ele><time>2026-04-04T08:08:10.542Z</time></trkpt><trkpt lat="45.0751242" lon="7.2386601"><ele>1615.4285714285716</ele><time>2026-04-04T08:08:20.531Z</time></trkpt><trkpt lat="45.075086" lon="7.2385724"><ele>1618.7142857142856</ele><time>2026-04-04T08:08:28.575Z</time></trkpt><trkpt lat="45.0750236" lon="7.2384713"><ele>1622.0</ele><time>2026-04-04T08:08:44.547Z</time></trkpt><trkpt lat="45.0749593" lon="7.2383228"><ele>1618.9999999999998</ele><time>2026-04-04T08:09:07.503Z</time></trkpt><trkpt lat="45.0749371" lon="7.2382321"><ele>1616.0</ele><time>2026-04-04T08:09:17.533Z</time></trkpt><trkpt lat="45.0748915" lon="7.238035"><ele>1613.0</ele><time>2026-04-04T08:09:46.591Z</time></trkpt><trkpt lat="45.0748532" lon="7.2379502"><ele>1610.0</ele><time>2026-04-04T08:09:54.574Z</time></trkpt><trkpt lat="45.074828" lon="7.2378621"><ele>1606.9999999999998</ele><time>2026-04-04T08:10:01.587Z</time></trkpt><trkpt lat="45.0747582" lon="7.2378396"><ele>1604.0</ele><time>2026-04-04T08:10:12.58Z</time></trkpt><trkpt lat="45.0747371" lon="7.2377554"><ele>1604.0</ele><time>2026-04-04T08:10:29.583Z</time></trkpt><trkpt lat="45.0747184" lon="7.2376635"><ele>1604.0</ele><time>2026-04-04T08:10:36.597Z</time></trkpt><trkpt lat="45.0746587" lon="7.237568"><ele>1604.0</ele><time>2026-04-04T08:10:56.574Z</time></trkpt><trkpt lat="45.0746061" lon="7.2375039"><ele>1604.0</ele><time>2026-04-04T08:11:03.588Z</time></trkpt><trkpt lat="45.0745633" lon="7.2374354"><ele>1604.0</ele><time>2026-04-04T08:11:09.539Z</time></trkpt><trkpt lat="45.0745183" lon="7.2373668"><ele>1604.0</ele><time>2026-04-04T08:11:16.553Z</time></trkpt><trkpt lat="45.0744293" lon="7.2373806"><ele>1604.0</ele><time>2026-04-04T08:11:46.519Z</time></trkpt><trkpt lat="45.074408" lon="7.2372879"><ele>1607.8333333333333</ele><time>2026-04-04T08:11:55.503Z</time></trkpt><trkpt lat="45.0743814" lon="7.2371916"><ele>1611.6666666666665</ele><time>2026-04-04T08:12:05.594Z</time></trkpt><trkpt lat="45.0743448" lon="7.2370931"><ele>1615.5</ele><time>2026-04-04T08:12:13.564Z</time></trkpt><trkpt lat="45.0742926" lon="7.237039"><ele>1619.3333333333335</ele><time>2026-04-04T08:12:19.516Z</time></trkpt><trkpt lat="45.0742392" lon="7.2369045"><ele>1623.1666666666667</ele><time>2026-04-04T08:13:10.523Z</time></trkpt><trkpt lat="45.0742115" lon="7.2367906"><ele>1627.0</ele><time>2026-04-04T08:13:22.532Z</time></trkpt><trkpt lat="45.0741676" lon="7.236725"><ele>1626.9999999999998</ele><time>2026-04-04T08:13:28.589Z</time></trkpt><trkpt lat="45.0741375" lon="7.2366349"><ele>1627.0</ele><time>2026-04-04T08:13:47.504Z</time></trkpt><trkpt lat="45.0740897" lon="7.2365649"><ele>1627.0</ele><time>2026-04-04T08:13:52.558Z</time></trkpt><trkpt lat="45.0740702" lon="7.23647"><ele>1627.0</ele><time>2026-04-04T08:14:03.551Z</time></trkpt><trkpt lat="45.0740343" lon="7.2363861"><ele>1627.0</ele><time>2026-04-04T08:14:10.563Z</time></trkpt><trkpt lat="45.0740006" lon="7.2363004"><ele>1626.9999999999998</ele><time>2026-04-04T08:14:25.548Z</time></trkpt><trkpt lat="45.0739584" lon="7.2362178"><ele>1627.0</ele><time>2026-04-04T08:14:35.537Z</time></trkpt><trkpt lat="45.0739399" lon="7.2361285"><ele>1626.4285714285713</ele><time>2026-04-04T08:14:42.551Z</time></trkpt><trkpt lat="45.0739141" lon="7.2360327"><ele>1625.857142857143</ele><time>2026-04-04T08:14:50.521Z</time></trkpt><trkpt lat="45.0739052" lon="7.2359316"><ele>1625.2857142857142</ele><time>2026-04-04T08:14:56.48Z</time></trkpt><trkpt lat="45.0739034" lon="7.2358395"><ele>1624.7142857142858</ele><time>2026-04-04T08:15:06.567Z</time></trkpt><trkpt lat="45.0738994" lon="7.2357459"><ele>1624.142857142857</ele><time>2026-04-04T08:15:14.537Z</time></trkpt><trkpt lat="45.0738897" lon="7.235649"><ele>1623.5714285714284</ele><time>2026-04-04T08:15:26.545Z</time></trkpt><trkpt lat="45.0739112" lon="7.2355509"><ele>1623.0</ele><time>2026-04-04T08:15:33.618Z</time></trkpt><trkpt lat="45.0738735" lon="7.2354"><ele>1623.0</ele><time>2026-04-04T08:16:20.534Z</time></trkpt><trkpt lat="45.0738443" lon="7.2353153"><ele>1623.0</ele><time>2026-04-04T08:16:25.578Z</time></trkpt><trkpt lat="45.0737885" lon="7.2352634"><ele>1623.0</ele><time>2026-04-04T08:16:31.58Z</time></trkpt><trkpt lat="45.0737419" lon="7.2352015"><ele>1623.0</ele><time>2026-04-04T08:16:37.531Z</time></trkpt><trkpt lat="45.073714" lon="7.2351151"><ele>1623.0</ele><time>2026-04-04T08:16:47.52Z</time></trkpt><trkpt lat="45.0736756" lon="7.2350265"><ele>1623.0</ele><time>2026-04-04T08:16:57.478Z</time></trkpt><trkpt lat="45.0736217" lon="7.2349758"><ele>1623.0</ele><time>2026-04-04T08:17:04.523Z</time></trkpt><trkpt lat="45.0735874" lon="7.2348955"><ele>1623.0</ele><time>2026-04-04T08:17:18.55Z</time></trkpt><trkpt lat="45.0735499" lon="7.234819"><ele>1623.0</ele><time>2026-04-04T08:17:26.52Z</time></trkpt><trkpt lat="45.0734933" lon="7.2347455"><ele>1623.0</ele><time>2026-04-04T08:17:34.868Z</time></trkpt><trkpt lat="45.0734544" lon="7.2346715"><ele>1623.0</ele><time>2026-04-04T08:17:47.601Z</time></trkpt><trkpt lat="45.0734305" lon="7.2345821"><ele>1623.0</ele><time>2026-04-04T08:17:53.569Z</time></trkpt><trkpt lat="45.0733995" lon="7.2344949"><ele>1623.0</ele><time>2026-04-04T08:17:58.564Z</time></trkpt><trkpt lat="45.0733744" lon="7.2344074"><ele>1623.0</ele><time>2026-04-04T08:18:07.597Z</time></trkpt><trkpt lat="45.0733807" lon="7.2343171"><ele>1624.0</ele><time>2026-04-04T08:18:18.542Z</time></trkpt><trkpt lat="45.0734013" lon="7.2342269"><ele>1625.0</ele><time>2026-04-04T08:18:24.519Z</time></trkpt><trkpt lat="45.073406" lon="7.2341336"><ele>1626.0</ele><time>2026-04-04T08:18:30.601Z</time></trkpt><trkpt lat="45.0734155" lon="7.2340422"><ele>1627.0</ele><time>2026-04-04T08:18:41.602Z</time></trkpt><trkpt lat="45.0734161" lon="7.2339508"><ele>1628.0</ele><time>2026-04-04T08:18:51.591Z</time></trkpt><trkpt lat="45.0734661" lon="7.2337598"><ele>1629.0</ele><time>2026-04-04T08:19:17.521Z</time></trkpt><trkpt lat="45.073499" lon="7.2335966"><ele>1629.0</ele><time>2026-04-04T08:20:04.599Z</time></trkpt><trkpt lat="45.0735195" lon="7.2335097"><ele>1629.0</ele><time>2026-04-04T08:20:10.548Z</time></trkpt><trkpt lat="45.0735319" lon="7.233416"><ele>1629.0</ele><time>2026-04-04T08:20:17.52Z</time></trkpt><trkpt lat="45.0735414" lon="7.2333194"><ele>1629.0</ele><time>2026-04-04T08:20:26.594Z</time></trkpt><trkpt lat="45.0735712" lon="7.233238"><ele>1629.0</ele><time>2026-04-04T08:20:37.54Z</time></trkpt><trkpt lat="45.0736196" lon="7.2331656"><ele>1629.0</ele><time>2026-04-04T08:20:44.554Z</time></trkpt><trkpt lat="45.0736515" lon="7.233082"><ele>1629.0</ele><time>2026-04-04T08:20:52.524Z</time></trkpt><trkpt lat="45.0736655" lon="7.2329799"><ele>1628.3333333333333</ele><time>2026-04-04T08:20:59.537Z</time></trkpt><trkpt lat="45.0737076" lon="7.2328974"><ele>1627.6666666666665</ele><time>2026-04-04T08:21:06.55Z</time></trkpt><trkpt lat="45.0737354" lon="7.2328147"><ele>1627.0</ele><time>2026-04-04T08:21:14.521Z</time></trkpt><trkpt lat="45.0737634" lon="7.2327249"><ele>1626.3333333333333</ele><time>2026-04-04T08:21:22.52Z</time></trkpt><trkpt lat="45.0737612" lon="7.2325371"><ele>1625.6666666666665</ele><time>2026-04-04T08:21:46.479Z</time></trkpt><trkpt lat="45.0737704" lon="7.2324475"><ele>1625.0</ele><time>2026-04-04T08:21:58.515Z</time></trkpt><trkpt lat="45.0737615" lon="7.2323584"><ele>1624.0</ele><time>2026-04-04T08:22:05.528Z</time></trkpt><trkpt lat="45.073752" lon="7.2322638"><ele>1623.0</ele><time>2026-04-04T08:22:12.542Z</time></trkpt><trkpt lat="45.0737685" lon="7.2321567"><ele>1622.0</ele><time>2026-04-04T08:22:21.519Z</time></trkpt><trkpt lat="45.0737694" lon="7.2320667"><ele>1621.0</ele><time>2026-04-04T08:22:28.502Z</time></trkpt><trkpt lat="45.07381" lon="7.2319811"><ele>1620.0</ele><time>2026-04-04T08:22:39.421Z</time></trkpt><trkpt lat="45.0738253" lon="7.2318939"><ele>1619.0</ele><time>2026-04-04T08:22:45.578Z</time></trkpt><trkpt lat="45.0738501" lon="7.2318018"><ele>1618.0</ele><time>2026-04-04T08:22:54.518Z</time></trkpt><trkpt lat="45.0738898" lon="7.231643"><ele>1618.0</ele><time>2026-04-04T08:23:16.515Z</time></trkpt><trkpt lat="45.07391" lon="7.2315461"><ele>1618.0</ele><time>2026-04-04T08:23:23.529Z</time></trkpt><trkpt lat="45.0739397" lon="7.2314653"><ele>1618.0</ele><time>2026-04-04T08:23:29.586Z</time></trkpt><trkpt lat="45.0740141" lon="7.2314216"><ele>1618.0</ele><time>2026-04-04T08:23:42.556Z</time></trkpt><trkpt lat="45.0740674" lon="7.231354"><ele>1618.0</ele><time>2026-04-04T08:23:48.614Z</time></trkpt><trkpt lat="45.0740743" lon="7.2312515"><ele>1618.0</ele><time>2026-04-04T08:23:54.494Z</time></trkpt><trkpt lat="45.0741077" lon="7.231174"><ele>1618.0</ele><time>2026-04-04T08:24:01.579Z</time></trkpt><trkpt lat="45.0741456" lon="7.2310947"><ele>1621.3333333333335</ele><time>2026-04-04T08:24:26.551Z</time></trkpt><trkpt lat="45.0742321" lon="7.2310736"><ele>1624.6666666666667</ele><time>2026-04-04T08:26:09.524Z</time></trkpt><trkpt lat="45.0742943" lon="7.2310942"><ele>1628.0</ele><time>2026-04-04T08:26:14.518Z</time></trkpt><trkpt lat="45.0743291" lon="7.231011"><ele>1631.3333333333335</ele><time>2026-04-04T08:26:30.424Z</time></trkpt><trkpt lat="45.0743791" lon="7.2309548"><ele>1634.6666666666667</ele><time>2026-04-04T08:27:26.566Z</time></trkpt><trkpt lat="45.0744454" lon="7.2308065"><ele>1638.0</ele><time>2026-04-04T08:27:48.564Z</time></trkpt><trkpt lat="45.0744845" lon="7.2307072"><ele>1638.0</ele><time>2026-04-04T08:30:01.504Z</time></trkpt><trkpt lat="45.0745456" lon="7.2306796"><ele>1638.0</ele><time>2026-04-04T08:30:04.585Z</time></trkpt><trkpt lat="45.0745965" lon="7.2306185"><ele>1638.0</ele><time>2026-04-04T08:30:09.581Z</time></trkpt><trkpt lat="45.0746309" lon="7.2305432"><ele>1638.0</ele><time>2026-04-04T08:30:15.601Z</time></trkpt><trkpt lat="45.0746779" lon="7.2304625"><ele>1638.0</ele><time>2026-04-04T08:30:23.502Z</time></trkpt><trkpt lat="45.0746958" lon="7.2303761"><ele>1638.0</ele><time>2026-04-04T08:30:30.623Z</time></trkpt><trkpt lat="45.0746852" lon="7.230284"><ele>1638.0</ele><time>2026-04-04T08:30:52.513Z</time></trkpt><trkpt lat="45.074743" lon="7.2302447"><ele>1635.857142857143</ele><time>2026-04-04T08:31:01.544Z</time></trkpt><trkpt lat="45.0748138" lon="7.2302619"><ele>1633.7142857142858</ele><time>2026-04-04T08:31:10.577Z</time></trkpt><trkpt lat="45.0748611" lon="7.230203"><ele>1631.5714285714284</ele><time>2026-04-04T08:31:22.464Z</time></trkpt><trkpt lat="45.0749239" lon="7.2301735"><ele>1629.4285714285716</ele><time>2026-04-04T08:31:34.594Z</time></trkpt><trkpt lat="45.0749781" lon="7.2301211"><ele>1627.2857142857142</ele><time>2026-04-04T08:32:05.517Z</time></trkpt><trkpt lat="45.074974" lon="7.2299993"><ele>1625.142857142857</ele><time>2026-04-04T08:32:08.599Z</time></trkpt><trkpt lat="45.0750162" lon="7.2299298"><ele>1623.0</ele><time>2026-04-04T08:32:17.526Z</time></trkpt><trkpt lat="45.0750837" lon="7.2298792"><ele>1625.3333333333333</ele><time>2026-04-04T08:32:29.502Z</time></trkpt><trkpt lat="45.0751151" lon="7.2297977"><ele>1627.6666666666665</ele><time>2026-04-04T08:32:38.464Z</time></trkpt><trkpt lat="45.0751636" lon="7.2297219"><ele>1630.0</ele><time>2026-04-04T08:32:58.544Z</time></trkpt><trkpt lat="45.0752111" lon="7.2296603"><ele>1632.3333333333333</ele><time>2026-04-04T08:33:08.532Z</time></trkpt><trkpt lat="45.0752309" lon="7.2295707"><ele>1634.6666666666665</ele><time>2026-04-04T08:33:14.589Z</time></trkpt><trkpt lat="45.0753261" lon="7.2294141"><ele>1637.0</ele><time>2026-04-04T08:33:39.562Z</time></trkpt><trkpt lat="45.0753795" lon="7.2293664"><ele>1636.9999999999998</ele><time>2026-04-04T08:33:47.532Z</time></trkpt><trkpt lat="45.075427" lon="7.2292954"><ele>1637.0</ele><time>2026-04-04T08:34:01.559Z</time></trkpt><trkpt lat="45.0755004" lon="7.2292323"><ele>1637.0</ele><time>2026-04-04T08:34:17.604Z</time></trkpt><trkpt lat="45.0755581" lon="7.2291934"><ele>1637.0</ele><time>2026-04-04T08:34:29.612Z</time></trkpt><trkpt lat="45.075615" lon="7.2291073"><ele>1636.9999999999998</ele><time>2026-04-04T08:34:49.59Z</time></trkpt><trkpt lat="45.0756977" lon="7.2290588"><ele>1637.0</ele><time>2026-04-04T08:35:09.567Z</time></trkpt><trkpt lat="45.0757588" lon="7.2290285"><ele>1638.142857142857</ele><time>2026-04-04T08:35:16.58Z</time></trkpt><trkpt lat="45.0758056" lon="7.2289448"><ele>1639.2857142857142</ele><time>2026-04-04T08:35:22.581Z</time></trkpt><trkpt lat="45.075846" lon="7.2288711"><ele>1640.4285714285716</ele><time>2026-04-04T08:35:36.558Z</time></trkpt><trkpt lat="45.0758328" lon="7.2287716"><ele>1641.5714285714284</ele><time>2026-04-04T08:35:46.546Z</time></trkpt><trkpt lat="45.0758557" lon="7.2286805"><ele>1642.7142857142858</ele><time>2026-04-04T08:36:01.484Z</time></trkpt><trkpt lat="45.0758775" lon="7.2285943"><ele>1643.857142857143</ele><time>2026-04-04T08:36:10.562Z</time></trkpt><trkpt lat="45.0758967" lon="7.2285043"><ele>1645.0</ele><time>2026-04-04T08:36:21.507Z</time></trkpt><trkpt lat="45.0759223" lon="7.2284223"><ele>1645.0000000000002</ele><time>2026-04-04T08:36:33.515Z</time></trkpt><trkpt lat="45.0759782" lon="7.2283704"><ele>1645.0</ele><time>2026-04-04T08:36:43.503Z</time></trkpt><trkpt lat="45.0760179" lon="7.2283009"><ele>1645.0</ele><time>2026-04-04T08:41:57.525Z</time></trkpt><trkpt lat="45.0760798" lon="7.2282169"><ele>1645.0</ele><time>2026-04-04T08:41:58.603Z</time></trkpt><trkpt lat="45.0761313" lon="7.2281524"><ele>1645.0000000000002</ele><time>2026-04-04T08:42:04.521Z</time></trkpt><trkpt lat="45.0761721" lon="7.2280781"><ele>1645.0</ele><time>2026-04-04T08:42:15.591Z</time></trkpt><trkpt lat="45.0761914" lon="7.2279398"><ele>1645.7142857142858</ele><time>2026-04-04T08:44:35.55Z</time></trkpt><trkpt lat="45.076214" lon="7.2278535"><ele>1646.4285714285716</ele><time>2026-04-04T08:44:41.559Z</time></trkpt><trkpt lat="45.0762396" lon="7.2277198"><ele>1647.142857142857</ele><time>2026-04-04T08:45:09.557Z</time></trkpt><trkpt lat="45.0762829" lon="7.2276468"><ele>1647.857142857143</ele><time>2026-04-04T08:45:23.505Z</time></trkpt><trkpt lat="45.0763158" lon="7.2275634"><ele>1648.5714285714287</ele><time>2026-04-04T08:45:34.532Z</time></trkpt><trkpt lat="45.0763398" lon="7.22748"><ele>1649.2857142857142</ele><time>2026-04-04T08:45:50.579Z</time></trkpt><trkpt lat="45.076358" lon="7.227385"><ele>1650.0</ele><time>2026-04-04T08:46:09.506Z</time></trkpt><trkpt lat="45.0763826" lon="7.2272958"><ele>1652.3333333333333</ele><time>2026-04-04T08:46:25.542Z</time></trkpt><trkpt lat="45.0764234" lon="7.2272214"><ele>1654.6666666666665</ele><time>2026-04-04T08:46:35.532Z</time></trkpt><trkpt lat="45.0764658" lon="7.2271477"><ele>1657.0</ele><time>2026-04-04T08:46:49.56Z</time></trkpt><trkpt lat="45.0765019" lon="7.226977"><ele>1659.3333333333333</ele><time>2026-04-04T08:47:31.537Z</time></trkpt><trkpt lat="45.0765221" lon="7.2268695"><ele>1661.6666666666665</ele><time>2026-04-04T08:48:02.568Z</time></trkpt><trkpt lat="45.0765476" lon="7.2267745"><ele>1664.0</ele><time>2026-04-04T08:48:16.597Z</time></trkpt><trkpt lat="45.0766168" lon="7.2266699"><ele>1668.6666666666665</ele><time>2026-04-04T08:49:04.524Z</time></trkpt><trkpt lat="45.076636" lon="7.2265757"><ele>1673.3333333333333</ele><time>2026-04-04T08:49:32.581Z</time></trkpt><trkpt lat="45.0766784" lon="7.2264353"><ele>1678.0</ele><time>2026-04-04T08:50:16.576Z</time></trkpt><trkpt lat="45.07674" lon="7.2263327"><ele>1682.6666666666665</ele><time>2026-04-04T08:50:59.509Z</time></trkpt><trkpt lat="45.0767475" lon="7.2262419"><ele>1687.3333333333333</ele><time>2026-04-04T08:51:20.621Z</time></trkpt><trkpt lat="45.0767291" lon="7.2261528"><ele>1692.0</ele><time>2026-04-04T08:51:37.555Z</time></trkpt><trkpt lat="45.0767391" lon="7.2260527"><ele>1694.7142857142856</ele><time>2026-04-04T08:51:58.519Z</time></trkpt><trkpt lat="45.0767169" lon="7.2259671"><ele>1697.4285714285716</ele><time>2026-04-04T08:52:06.567Z</time></trkpt><trkpt lat="45.0767166" lon="7.2258772"><ele>1700.142857142857</ele><time>2026-04-04T08:52:21.551Z</time></trkpt><trkpt lat="45.0767275" lon="7.2257859"><ele>1702.8571428571427</ele><time>2026-04-04T08:52:43.548Z</time></trkpt><trkpt lat="45.0767261" lon="7.2256444"><ele>1705.5714285714284</ele><time>2026-04-04T08:53:06.507Z</time></trkpt><trkpt lat="45.0767137" lon="7.2255529"><ele>1708.2857142857142</ele><time>2026-04-04T08:54:22.593Z</time></trkpt><trkpt lat="45.0767252" lon="7.2254593"><ele>1711.0</ele><time>2026-04-04T08:54:42.464Z</time></trkpt><trkpt lat="45.0767369" lon="7.2252954"><ele>1712.5714285714284</ele><time>2026-04-04T08:55:05.582Z</time></trkpt><trkpt lat="45.0767419" lon="7.2252046"><ele>1714.142857142857</ele><time>2026-04-04T08:55:14.56Z</time></trkpt><trkpt lat="45.0767479" lon="7.2251089"><ele>1715.7142857142858</ele><time>2026-04-04T08:55:44.528Z</time></trkpt><trkpt lat="45.0767499" lon="7.2250196"><ele>1717.2857142857142</ele><time>2026-04-04T08:55:55.581Z</time></trkpt><trkpt lat="45.0767425" lon="7.224931"><ele>1718.857142857143</ele><time>2026-04-04T08:56:05.571Z</time></trkpt><trkpt lat="45.076779" lon="7.2248058"><ele>1720.4285714285713</ele><time>2026-04-04T08:56:36.508Z</time></trkpt><trkpt lat="45.0767758" lon="7.2247106"><ele>1722.0</ele><time>2026-04-04T08:57:14.54Z</time></trkpt><trkpt lat="45.0767502" lon="7.224536"><ele>1724.142857142857</ele><time>2026-04-04T08:57:46.526Z</time></trkpt><trkpt lat="45.0767522" lon="7.2244395"><ele>1726.2857142857142</ele><time>2026-04-04T08:58:05.547Z</time></trkpt><trkpt lat="45.0767518" lon="7.2243463"><ele>1728.4285714285716</ele><time>2026-04-04T08:58:14.581Z</time></trkpt><trkpt lat="45.0767443" lon="7.2242569"><ele>1730.5714285714284</ele><time>2026-04-04T08:58:24.57Z</time></trkpt><trkpt lat="45.0767303" lon="7.2241614"><ele>1732.7142857142858</ele><time>2026-04-04T08:58:35.515Z</time></trkpt><trkpt lat="45.0767074" lon="7.224015"><ele>1734.857142857143</ele><time>2026-04-04T09:00:54.563Z</time></trkpt><trkpt lat="45.0767224" lon="7.223926"><ele>1737.0</ele><time>2026-04-04T09:02:16.552Z</time></trkpt><trkpt lat="45.0767387" lon="7.2238341"><ele>1737.5714285714287</ele><time>2026-04-04T09:02:25.543Z</time></trkpt><trkpt lat="45.0767529" lon="7.2237395"><ele>1738.1428571428573</ele><time>2026-04-04T09:02:34.511Z</time></trkpt><trkpt lat="45.076773" lon="7.223655"><ele>1738.7142857142858</ele><time>2026-04-04T09:02:51.514Z</time></trkpt><trkpt lat="45.0767844" lon="7.2235595"><ele>1739.2857142857142</ele><time>2026-04-04T09:03:19.568Z</time></trkpt><trkpt lat="45.0768235" lon="7.2234823"><ele>1739.857142857143</ele><time>2026-04-04T09:03:28.6Z</time></trkpt><trkpt lat="45.0768478" lon="7.2233978"><ele>1740.4285714285713</ele><time>2026-04-04T09:03:36.438Z</time></trkpt><trkpt lat="45.0768852" lon="7.2233138"><ele>1741.0</ele><time>2026-04-04T09:03:42.522Z</time></trkpt><trkpt lat="45.076901" lon="7.2232164"><ele>1740.2857142857142</ele><time>2026-04-04T09:03:54.53Z</time></trkpt><trkpt lat="45.0769009" lon="7.223115"><ele>1739.5714285714287</ele><time>2026-04-04T09:04:00.599Z</time></trkpt><trkpt lat="45.0768995" lon="7.2230203"><ele>1738.857142857143</ele><time>2026-04-04T09:04:08.557Z</time></trkpt><trkpt lat="45.0769254" lon="7.2229274"><ele>1738.142857142857</ele><time>2026-04-04T09:04:14.508Z</time></trkpt><trkpt lat="45.0769531" lon="7.2228452"><ele>1737.4285714285716</ele><time>2026-04-04T09:04:21.521Z</time></trkpt><trkpt lat="45.076971" lon="7.2227592"><ele>1736.7142857142858</ele><time>2026-04-04T09:04:33.529Z</time></trkpt><trkpt lat="45.0770021" lon="7.2226724"><ele>1736.0</ele><time>2026-04-04T09:04:42.56Z</time></trkpt><trkpt lat="45.0770448" lon="7.2226017"><ele>1735.9999999999998</ele><time>2026-04-04T09:04:50.378Z</time></trkpt><trkpt lat="45.077058" lon="7.2225056"><ele>1736.0</ele><time>2026-04-04T09:04:59.481Z</time></trkpt><trkpt lat="45.0770644" lon="7.222406"><ele>1736.0</ele><time>2026-04-04T09:05:07.534Z</time></trkpt><trkpt lat="45.0770811" lon="7.2223118"><ele>1736.0</ele><time>2026-04-04T09:05:18.585Z</time></trkpt><trkpt lat="45.0770826" lon="7.2221316"><ele>1735.9999999999998</ele><time>2026-04-04T09:05:38.562Z</time></trkpt><trkpt lat="45.0770997" lon="7.2220383"><ele>1736.0</ele><time>2026-04-04T09:05:46.533Z</time></trkpt><trkpt lat="45.0771251" lon="7.2219558"><ele>1736.2857142857142</ele><time>2026-04-04T09:05:57.583Z</time></trkpt><trkpt lat="45.0771555" lon="7.2218316"><ele>1736.5714285714284</ele><time>2026-04-04T09:06:15.558Z</time></trkpt><trkpt lat="45.0771746" lon="7.2217381"><ele>1736.857142857143</ele><time>2026-04-04T09:06:22.556Z</time></trkpt><trkpt lat="45.0772096" lon="7.2216566"><ele>1737.142857142857</ele><time>2026-04-04T09:06:31.588Z</time></trkpt><trkpt lat="45.0772233" lon="7.2215667"><ele>1737.4285714285713</ele><time>2026-04-04T09:06:38.504Z</time></trkpt><trkpt lat="45.0772284" lon="7.2214776"><ele>1737.7142857142858</ele><time>2026-04-04T09:06:44.598Z</time></trkpt><trkpt lat="45.0772253" lon="7.2213864"><ele>1738.0</ele><time>2026-04-04T09:06:53.586Z</time></trkpt><trkpt lat="45.0772218" lon="7.2212959"><ele>1738.0</ele><time>2026-04-04T09:07:06.55Z</time></trkpt><trkpt lat="45.0772129" lon="7.2212064"><ele>1738.0</ele><time>2026-04-04T09:07:19.514Z</time></trkpt><trkpt lat="45.0771924" lon="7.2210688"><ele>1738.0</ele><time>2026-04-04T09:07:30.118Z</time></trkpt><trkpt lat="45.0771788" lon="7.2209805"><ele>1738.0</ele><time>2026-04-04T09:07:36.517Z</time></trkpt><trkpt lat="45.0771851" lon="7.2208878"><ele>1738.0</ele><time>2026-04-04T09:07:47.535Z</time></trkpt><trkpt lat="45.0771971" lon="7.2207935"><ele>1738.0</ele><time>2026-04-04T09:08:01.595Z</time></trkpt><trkpt lat="45.0772526" lon="7.2206979"><ele>1738.0</ele><time>2026-04-04T09:08:56.478Z</time></trkpt><trkpt lat="45.0772924" lon="7.2206255"><ele>1739.857142857143</ele><time>2026-04-04T09:09:04.504Z</time></trkpt><trkpt lat="45.0773795" lon="7.2205893"><ele>1741.7142857142856</ele><time>2026-04-04T09:09:55.51Z</time></trkpt><trkpt lat="45.0774476" lon="7.2205262"><ele>1743.5714285714284</ele><time>2026-04-04T09:10:42.583Z</time></trkpt><trkpt lat="45.077486" lon="7.2204503"><ele>1745.4285714285716</ele><time>2026-04-04T09:10:51.511Z</time></trkpt><trkpt lat="45.0775081" lon="7.2203627"><ele>1747.2857142857142</ele><time>2026-04-04T09:11:08.513Z</time></trkpt><trkpt lat="45.0775255" lon="7.2202684"><ele>1749.142857142857</ele><time>2026-04-04T09:12:25.555Z</time></trkpt><trkpt lat="45.0774855" lon="7.2201931"><ele>1751.0</ele><time>2026-04-04T09:12:40.539Z</time></trkpt><trkpt lat="45.0774669" lon="7.2201022"><ele>1757.6666666666665</ele><time>2026-04-04T09:12:59.561Z</time></trkpt><trkpt lat="45.0774917" lon="7.2199382"><ele>1764.3333333333333</ele><time>2026-04-04T09:14:10.546Z</time></trkpt><trkpt lat="45.0774651" lon="7.2198302"><ele>1771.0</ele><time>2026-04-04T09:14:35.519Z</time></trkpt><trkpt lat="45.0774592" lon="7.2197404"><ele>1777.6666666666665</ele><time>2026-04-04T09:14:40.514Z</time></trkpt><trkpt lat="45.0774558" lon="7.2195869"><ele>1784.3333333333333</ele><time>2026-04-04T09:15:14.519Z</time></trkpt><trkpt lat="45.0774615" lon="7.2194948"><ele>1791.0</ele><time>2026-04-04T09:15:27.589Z</time></trkpt><trkpt lat="45.0774659" lon="7.2194007"><ele>1791.7142857142858</ele><time>2026-04-04T09:15:37.489Z</time></trkpt><trkpt lat="45.0774526" lon="7.2193131"><ele>1792.4285714285713</ele><time>2026-04-04T09:15:49.587Z</time></trkpt><trkpt lat="45.077427" lon="7.2192212"><ele>1793.142857142857</ele><time>2026-04-04T09:15:59.611Z</time></trkpt><trkpt lat="45.0774409" lon="7.2191319"><ele>1793.8571428571427</ele><time>2026-04-04T09:16:11.583Z</time></trkpt><trkpt lat="45.0774179" lon="7.2190486"><ele>1794.5714285714284</ele><time>2026-04-04T09:16:29.543Z</time></trkpt><trkpt lat="45.0774071" lon="7.2189583"><ele>1795.2857142857142</ele><time>2026-04-04T09:17:21.507Z</time></trkpt><trkpt lat="45.077398" lon="7.2188587"><ele>1796.0</ele><time>2026-04-04T09:17:33.515Z</time></trkpt><trkpt lat="45.0774188" lon="7.2187665"><ele>1795.9999999999998</ele><time>2026-04-04T09:17:43.568Z</time></trkpt><trkpt lat="45.0774076" lon="7.2186609"><ele>1796.0</ele><time>2026-04-04T09:18:15.107Z</time></trkpt><trkpt lat="45.0773752" lon="7.2185793"><ele>1796.0</ele><time>2026-04-04T09:18:23.585Z</time></trkpt><trkpt lat="45.0774025" lon="7.2184958"><ele>1796.0</ele><time>2026-04-04T09:18:42.501Z</time></trkpt><trkpt lat="45.0773984" lon="7.218375"><ele>1795.9999999999998</ele><time>2026-04-04T09:19:09.598Z</time></trkpt><trkpt lat="45.0773457" lon="7.2182454"><ele>1796.0</ele><time>2026-04-04T09:19:33.452Z</time></trkpt><trkpt lat="45.0772795" lon="7.2181174"><ele>1799.9999999999998</ele><time>2026-04-04T09:23:40.574Z</time></trkpt><trkpt lat="45.0772546" lon="7.2180305"><ele>1804.0</ele><time>2026-04-04T09:24:21.592Z</time></trkpt><trkpt lat="45.0771898" lon="7.2179628"><ele>1808.0</ele><time>2026-04-04T09:26:20.503Z</time></trkpt><trkpt lat="45.0771635" lon="7.217876"><ele>1812.0</ele><time>2026-04-04T09:26:41.541Z</time></trkpt><trkpt lat="45.07711" lon="7.217765"><ele>1815.9999999999998</ele><time>2026-04-04T09:27:59.503Z</time></trkpt><trkpt lat="45.0770583" lon="7.217685"><ele>1820.0</ele><time>2026-04-04T09:28:18.503Z</time></trkpt><trkpt lat="45.07705" lon="7.2175626"><ele>1819.9999999999998</ele><time>2026-04-04T09:30:09.503Z</time></trkpt><trkpt lat="45.0770145" lon="7.2174138"><ele>1820.0</ele><time>2026-04-04T09:30:32.559Z</time></trkpt><trkpt lat="45.0770015" lon="7.2173191"><ele>1820.0</ele><time>2026-04-04T09:30:43.472Z</time></trkpt><trkpt lat="45.0770135" lon="7.2172298"><ele>1820.0</ele><time>2026-04-04T09:30:54.556Z</time></trkpt><trkpt lat="45.0770191" lon="7.2170994"><ele>1819.9999999999998</ele><time>2026-04-04T09:32:18.507Z</time></trkpt><trkpt lat="45.0770161" lon="7.2169877"><ele>1820.0</ele><time>2026-04-04T09:32:41.565Z</time></trkpt><trkpt lat="45.0770126" lon="7.2168716"><ele>1820.142857142857</ele><time>2026-04-04T09:33:36.594Z</time></trkpt><trkpt lat="45.0770126" lon="7.216774"><ele>1820.2857142857142</ele><time>2026-04-04T09:33:44.574Z</time></trkpt><trkpt lat="45.0770139" lon="7.2166733"><ele>1820.4285714285716</ele><time>2026-04-04T09:34:02.597Z</time></trkpt><trkpt lat="45.0770327" lon="7.2165836"><ele>1820.5714285714287</ele><time>2026-04-04T09:34:12.531Z</time></trkpt><trkpt lat="45.0770774" lon="7.2165177"><ele>1820.7142857142858</ele><time>2026-04-04T09:34:23.417Z</time></trkpt><trkpt lat="45.0771007" lon="7.2164306"><ele>1820.8571428571431</ele><time>2026-04-04T09:34:39.593Z</time></trkpt><trkpt lat="45.077126" lon="7.2163331"><ele>1821.0000000000002</ele><time>2026-04-04T09:35:03.54Z</time></trkpt><trkpt lat="45.0771478" lon="7.2162471"><ele>1819.0</ele><time>2026-04-04T09:35:10.555Z</time></trkpt><trkpt lat="45.0771676" lon="7.2161323"><ele>1817.0</ele><time>2026-04-04T09:36:02.52Z</time></trkpt><trkpt lat="45.0771875" lon="7.2160373"><ele>1815.0</ele><time>2026-04-04T09:36:10.503Z</time></trkpt><trkpt lat="45.0772045" lon="7.2159404"><ele>1813.0</ele><time>2026-04-04T09:36:19.523Z</time></trkpt><trkpt lat="45.07722" lon="7.2158538"><ele>1811.0</ele><time>2026-04-04T09:36:26.536Z</time></trkpt><trkpt lat="45.0772725" lon="7.2156594"><ele>1809.0</ele><time>2026-04-04T09:37:04.476Z</time></trkpt><trkpt lat="45.0773013" lon="7.2155798"><ele>1807.4285714285716</ele><time>2026-04-04T09:37:12.551Z</time></trkpt><trkpt lat="45.0773208" lon="7.2154799"><ele>1805.8571428571431</ele><time>2026-04-04T09:37:25.517Z</time></trkpt><trkpt lat="45.077345" lon="7.2153967"><ele>1804.2857142857142</ele><time>2026-04-04T09:37:33.593Z</time></trkpt><trkpt lat="45.0773495" lon="7.2152952"><ele>1802.7142857142858</ele><time>2026-04-04T09:37:43.581Z</time></trkpt><trkpt lat="45.0773514" lon="7.2152026"><ele>1801.142857142857</ele><time>2026-04-04T09:37:55.591Z</time></trkpt><trkpt lat="45.0773953" lon="7.2151"><ele>1799.5714285714284</ele><time>2026-04-04T09:38:27.577Z</time></trkpt><trkpt lat="45.0774201" lon="7.2150126"><ele>1797.9999999999998</ele><time>2026-04-04T09:38:34.505Z</time></trkpt><trkpt lat="45.0774434" lon="7.2149189"><ele>1797.9999999999998</ele><time>2026-04-04T09:38:46.505Z</time></trkpt><trkpt lat="45.077433" lon="7.2148271"><ele>1798.0</ele><time>2026-04-04T09:38:54.476Z</time></trkpt><trkpt lat="45.0774514" lon="7.2147378"><ele>1797.9999999999998</ele><time>2026-04-04T09:39:03.505Z</time></trkpt><trkpt lat="45.077471" lon="7.2146478"><ele>1797.9999999999998</ele><time>2026-04-04T09:39:16.568Z</time></trkpt><trkpt lat="45.0774865" lon="7.2145608"><ele>1798.0</ele><time>2026-04-04T09:39:24.538Z</time></trkpt><trkpt lat="45.0775164" lon="7.2144763"><ele>1797.9999999999998</ele><time>2026-04-04T09:39:36.595Z</time></trkpt><trkpt lat="45.0775089" lon="7.2143837"><ele>1797.9999999999998</ele><time>2026-04-04T09:39:47.505Z</time></trkpt><trkpt lat="45.0775294" lon="7.2142914"><ele>1804.1428571428569</ele><time>2026-04-04T09:40:31.505Z</time></trkpt><trkpt lat="45.0775649" lon="7.2142137"><ele>1810.2857142857142</ele><time>2026-04-04T09:40:40.522Z</time></trkpt><trkpt lat="45.0775638" lon="7.2141241"><ele>1816.4285714285713</ele><time>2026-04-04T09:40:53.505Z</time></trkpt><trkpt lat="45.0775673" lon="7.214028"><ele>1822.5714285714284</ele><time>2026-04-04T09:41:18.567Z</time></trkpt><trkpt lat="45.0775924" lon="7.2138764"><ele>1828.7142857142858</ele><time>2026-04-04T09:41:38.561Z</time></trkpt><trkpt lat="45.0775879" lon="7.2137846"><ele>1834.857142857143</ele><time>2026-04-04T09:42:11.418Z</time></trkpt><trkpt lat="45.0776074" lon="7.213694"><ele>1841.0</ele><time>2026-04-04T09:42:15.481Z</time></trkpt><trkpt lat="45.0776195" lon="7.2136009"><ele>1841.0</ele><time>2026-04-04T09:42:23.457Z</time></trkpt><trkpt lat="45.0776357" lon="7.2135039"><ele>1841.0</ele><time>2026-04-04T09:42:34.551Z</time></trkpt><trkpt lat="45.0776318" lon="7.2134126"><ele>1841.0</ele><time>2026-04-04T09:42:43.584Z</time></trkpt><trkpt lat="45.0776526" lon="7.2133263"><ele>1841.0</ele><time>2026-04-04T09:42:52.51Z</time></trkpt><trkpt lat="45.0776753" lon="7.2132421"><ele>1841.0</ele><time>2026-04-04T09:43:01.543Z</time></trkpt><trkpt lat="45.0776949" lon="7.2131453"><ele>1841.0</ele><time>2026-04-04T09:43:10.576Z</time></trkpt><trkpt lat="45.0777328" lon="7.2130495"><ele>1841.0</ele><time>2026-04-04T09:43:36.506Z</time></trkpt><trkpt lat="45.0777791" lon="7.2129761"><ele>1839.2857142857142</ele><time>2026-04-04T09:43:44.499Z</time></trkpt><trkpt lat="45.0777924" lon="7.2128823"><ele>1837.5714285714284</ele><time>2026-04-04T09:43:54.421Z</time></trkpt><trkpt lat="45.0778126" lon="7.2127956"><ele>1835.857142857143</ele><time>2026-04-04T09:44:03.506Z</time></trkpt><trkpt lat="45.0778503" lon="7.2126913"><ele>1834.142857142857</ele><time>2026-04-04T09:44:24.54Z</time></trkpt><trkpt lat="45.0778761" lon="7.2126095"><ele>1832.4285714285713</ele><time>2026-04-04T09:44:35.505Z</time></trkpt><trkpt lat="45.0779014" lon="7.2125131"><ele>1830.7142857142858</ele><time>2026-04-04T09:45:11.511Z</time></trkpt><trkpt lat="45.0779346" lon="7.2124362"><ele>1829.0</ele><time>2026-04-04T09:45:18.524Z</time></trkpt><trkpt lat="45.0779475" lon="7.2123488"><ele>1827.5714285714287</ele><time>2026-04-04T09:45:25.537Z</time></trkpt><trkpt lat="45.0779568" lon="7.212258"><ele>1826.1428571428569</ele><time>2026-04-04T09:45:33.508Z</time></trkpt><trkpt lat="45.0779839" lon="7.2121731"><ele>1824.7142857142856</ele><time>2026-04-04T09:45:41.585Z</time></trkpt><trkpt lat="45.0779995" lon="7.2120813"><ele>1823.2857142857142</ele><time>2026-04-04T09:45:53.466Z</time></trkpt><trkpt lat="45.0780355" lon="7.2119601"><ele>1821.8571428571427</ele><time>2026-04-04T09:46:12.505Z</time></trkpt><trkpt lat="45.0780449" lon="7.2118638"><ele>1820.428571428571</ele><time>2026-04-04T09:46:17.61Z</time></trkpt><trkpt lat="45.0780686" lon="7.2117806"><ele>1818.9999999999998</ele><time>2026-04-04T09:46:28.555Z</time></trkpt><trkpt lat="45.0780853" lon="7.2116793"><ele>1818.9999999999998</ele><time>2026-04-04T09:46:36.845Z</time></trkpt><trkpt lat="45.078053" lon="7.2115965"><ele>1819.0</ele><time>2026-04-04T09:46:46.529Z</time></trkpt><trkpt lat="45.0780996" lon="7.2115259"><ele>1818.9999999999998</ele><time>2026-04-04T09:46:55.562Z</time></trkpt><trkpt lat="45.0781367" lon="7.2114517"><ele>1818.9999999999998</ele><time>2026-04-04T09:47:03.532Z</time></trkpt><trkpt lat="45.0782002" lon="7.2114401"><ele>1819.0</ele><time>2026-04-04T09:47:39.557Z</time></trkpt><trkpt lat="45.0782773" lon="7.211488"><ele>1818.9999999999998</ele><time>2026-04-04T09:48:16.541Z</time></trkpt><trkpt lat="45.078341" lon="7.2115083"><ele>1818.9999999999998</ele><time>2026-04-04T09:48:31.526Z</time></trkpt><trkpt lat="45.0784038" lon="7.21148"><ele>1827.0</ele><time>2026-04-04T09:48:41.515Z</time></trkpt><trkpt lat="45.0784629" lon="7.2114389"><ele>1835.0</ele><time>2026-04-04T09:48:52.568Z</time></trkpt><trkpt lat="45.0785262" lon="7.211403"><ele>1843.0</ele><time>2026-04-04T09:49:15.524Z</time></trkpt><trkpt lat="45.0786191" lon="7.2113524"><ele>1851.0</ele><time>2026-04-04T09:49:45.599Z</time></trkpt><trkpt lat="45.0786807" lon="7.2113239"><ele>1859.0</ele><time>2026-04-04T09:49:55.588Z</time></trkpt><trkpt lat="45.0788649" lon="7.2113115"><ele>1858.9999999999998</ele><time>2026-04-04T09:51:55.569Z</time></trkpt><trkpt lat="45.078937" lon="7.2112653"><ele>1859.0</ele><time>2026-04-04T09:53:49.503Z</time></trkpt><trkpt lat="45.0789957" lon="7.2111992"><ele>1859.0</ele><time>2026-04-04T09:53:54.503Z</time></trkpt><trkpt lat="45.0790443" lon="7.21112"><ele>1859.0</ele><time>2026-04-04T09:54:15.528Z</time></trkpt><trkpt lat="45.0790526" lon="7.2110267"><ele>1858.9999999999998</ele><time>2026-04-04T09:54:25.517Z</time></trkpt><trkpt lat="45.0789817" lon="7.21104"><ele>1859.0</ele><time>2026-04-04T10:09:30.551Z</time></trkpt><trkpt lat="45.0790617" lon="7.210975"><ele>1859.0</ele><time>2026-04-04T10:14:23.504Z</time></trkpt><trkpt lat="45.0791083" lon="7.2110367"><ele>1858.9999999999998</ele><time>2026-04-04T10:17:14.503Z</time></trkpt><trkpt lat="45.0791367" lon="7.2109567"><ele>1859.0</ele><time>2026-04-04T10:33:41.503Z</time></trkpt><trkpt lat="45.07905" lon="7.211045"><ele>1859.0</ele><time>2026-04-04T10:39:26.501Z</time></trkpt><trkpt lat="45.07899" lon="7.21108"><ele>1858.9999999999998</ele><time>2026-04-04T10:39:36.502Z</time></trkpt><trkpt lat="45.0789283" lon="7.2111017"><ele>1859.0</ele><time>2026-04-04T10:39:46.502Z</time></trkpt><trkpt lat="45.0788683" lon="7.2111533"><ele>1859.0</ele><time>2026-04-04T10:39:55.502Z</time></trkpt><trkpt lat="45.07881" lon="7.2111933"><ele>1859.0</ele><time>2026-04-04T10:40:06.502Z</time></trkpt><trkpt lat="45.0787467" lon="7.2112283"><ele>1858.9999999999998</ele><time>2026-04-04T10:40:17.502Z</time></trkpt><trkpt lat="45.0786867" lon="7.2112683"><ele>1859.0</ele><time>2026-04-04T10:40:30.503Z</time></trkpt><trkpt lat="45.078625" lon="7.2113"><ele>1859.0</ele><time>2026-04-04T10:40:39.502Z</time></trkpt><trkpt lat="45.0785721" lon="7.2113539"><ele>1858.9999999999998</ele><time>2026-04-04T10:40:55.507Z</time></trkpt><trkpt lat="45.0785021" lon="7.2113565"><ele>1859.0</ele><time>2026-04-04T10:41:05.502Z</time></trkpt><trkpt lat="45.0784383" lon="7.2113704"><ele>1859.0</ele><time>2026-04-04T10:41:14.531Z</time></trkpt><trkpt lat="45.078376" lon="7.2114103"><ele>1858.9999999999998</ele><time>2026-04-04T10:41:25.502Z</time></trkpt><trkpt lat="45.0782825" lon="7.2114503"><ele>1859.0</ele><time>2026-04-04T10:42:51.524Z</time></trkpt><trkpt lat="45.0782002" lon="7.2114178"><ele>1859.0</ele><time>2026-04-04T10:43:05.501Z</time></trkpt><trkpt lat="45.0781334" lon="7.2115106"><ele>1859.0</ele><time>2026-04-04T10:43:38.544Z</time></trkpt><trkpt lat="45.0780869" lon="7.2115952"><ele>1858.9999999999998</ele><time>2026-04-04T10:43:47.381Z</time></trkpt><trkpt lat="45.078055" lon="7.2116754"><ele>1859.0</ele><time>2026-04-04T10:43:52.957Z</time></trkpt><trkpt lat="45.0780712" lon="7.211769"><ele>1854.7142857142856</ele><time>2026-04-04T10:44:01.549Z</time></trkpt><trkpt lat="45.0780615" lon="7.2118637"><ele>1850.428571428571</ele><time>2026-04-04T10:44:11.54Z</time></trkpt><trkpt lat="45.0780469" lon="7.211961"><ele>1846.142857142857</ele><time>2026-04-04T10:44:23.519Z</time></trkpt><trkpt lat="45.0780173" lon="7.2120484"><ele>1841.8571428571427</ele><time>2026-04-04T10:44:29.502Z</time></trkpt><trkpt lat="45.0779981" lon="7.2121369"><ele>1837.5714285714284</ele><time>2026-04-04T10:44:39.502Z</time></trkpt><trkpt lat="45.0779816" lon="7.2122248"><ele>1833.2857142857142</ele><time>2026-04-04T10:44:52.5Z</time></trkpt><trkpt lat="45.0779487" lon="7.2123019"><ele>1829.0</ele><time>2026-04-04T10:45:00.536Z</time></trkpt><trkpt lat="45.0779152" lon="7.2124166"><ele>1828.9999999999998</ele><time>2026-04-04T10:45:53.571Z</time></trkpt><trkpt lat="45.0779" lon="7.2125134"><ele>1829.0</ele><time>2026-04-04T10:46:01.542Z</time></trkpt><trkpt lat="45.0778704" lon="7.2125974"><ele>1829.0</ele><time>2026-04-04T10:46:12.521Z</time></trkpt><trkpt lat="45.0778383" lon="7.2127316"><ele>1829.0</ele><time>2026-04-04T10:46:41.503Z</time></trkpt><trkpt lat="45.07778" lon="7.2128738"><ele>1828.9999999999998</ele><time>2026-04-04T10:47:13.503Z</time></trkpt><trkpt lat="45.077743" lon="7.2129547"><ele>1829.0</ele><time>2026-04-04T10:47:27.522Z</time></trkpt><trkpt lat="45.0777159" lon="7.2130425"><ele>1829.0</ele><time>2026-04-04T10:47:38.576Z</time></trkpt><trkpt lat="45.0776952" lon="7.2131347"><ele>1829.0</ele><time>2026-04-04T10:47:46.568Z</time></trkpt><trkpt lat="45.0776832" lon="7.2132277"><ele>1829.0</ele><time>2026-04-04T10:47:59.504Z</time></trkpt><trkpt lat="45.0776756" lon="7.2133214"><ele>1829.0</ele><time>2026-04-04T10:48:08.547Z</time></trkpt><trkpt lat="45.0776505" lon="7.2134033"><ele>1829.0</ele><time>2026-04-04T10:48:19.503Z</time></trkpt><trkpt lat="45.077649" lon="7.2134994"><ele>1829.0</ele><time>2026-04-04T10:48:30.546Z</time></trkpt><trkpt lat="45.0776266" lon="7.2135851"><ele>1829.0</ele><time>2026-04-04T10:48:46.595Z</time></trkpt><trkpt lat="45.0776228" lon="7.2136746"><ele>1831.4</ele><time>2026-04-04T10:49:12.527Z</time></trkpt><trkpt lat="45.0776191" lon="7.2137714"><ele>1833.8000000000002</ele><time>2026-04-04T10:49:45.58Z</time></trkpt><trkpt lat="45.0776063" lon="7.2139166"><ele>1836.1999999999998</ele><time>2026-04-04T10:50:04.502Z</time></trkpt><trkpt lat="45.0775788" lon="7.2140049"><ele>1838.6</ele><time>2026-04-04T10:50:28.518Z</time></trkpt><trkpt lat="45.0775417" lon="7.2141963"><ele>1841.0</ele><time>2026-04-04T10:51:02.527Z</time></trkpt><trkpt lat="45.0774956" lon="7.2142729"><ele>1842.0</ele><time>2026-04-04T10:51:07.523Z</time></trkpt><trkpt lat="45.077492" lon="7.2143703"><ele>1843.0</ele><time>2026-04-04T10:51:15.502Z</time></trkpt><trkpt lat="45.0774944" lon="7.2144644"><ele>1844.0</ele><time>2026-04-04T10:51:25.57Z</time></trkpt><trkpt lat="45.0774814" lon="7.2145545"><ele>1845.0</ele><time>2026-04-04T10:51:36.537Z</time></trkpt><trkpt lat="45.0774458" lon="7.2146363"><ele>1846.0</ele><time>2026-04-04T10:51:47.502Z</time></trkpt><trkpt lat="45.0774323" lon="7.2147258"><ele>1847.0</ele><time>2026-04-04T10:51:58.537Z</time></trkpt><trkpt lat="45.0774463" lon="7.2148197"><ele>1848.0</ele><time>2026-04-04T10:52:13.522Z</time></trkpt><trkpt lat="45.0774375" lon="7.214915"><ele>1839.6666666666667</ele><time>2026-04-04T10:52:22.557Z</time></trkpt><trkpt lat="45.077417" lon="7.2150559"><ele>1831.3333333333335</ele><time>2026-04-04T10:52:46.576Z</time></trkpt><trkpt lat="45.0773718" lon="7.2151186"><ele>1823.0</ele><time>2026-04-04T10:52:55.503Z</time></trkpt><trkpt lat="45.0773505" lon="7.2152045"><ele>1814.6666666666667</ele><time>2026-04-04T10:53:10.501Z</time></trkpt><trkpt lat="45.0773617" lon="7.2153525"><ele>1806.3333333333335</ele><time>2026-04-04T10:53:30.577Z</time></trkpt><trkpt lat="45.0773313" lon="7.2154399"><ele>1798.0</ele><time>2026-04-04T10:53:38.548Z</time></trkpt><trkpt lat="45.0772984" lon="7.2155954"><ele>1799.5714285714284</ele><time>2026-04-04T10:54:03.523Z</time></trkpt><trkpt lat="45.077238" lon="7.2157182"><ele>1801.142857142857</ele><time>2026-04-04T10:54:28.502Z</time></trkpt><trkpt lat="45.0772037" lon="7.2158013"><ele>1802.7142857142858</ele><time>2026-04-04T10:54:40.509Z</time></trkpt><trkpt lat="45.0772068" lon="7.2158965"><ele>1804.2857142857142</ele><time>2026-04-04T10:54:50.501Z</time></trkpt><trkpt lat="45.0771995" lon="7.2159931"><ele>1805.8571428571431</ele><time>2026-04-04T10:54:58.577Z</time></trkpt><trkpt lat="45.077189" lon="7.2160856"><ele>1807.4285714285716</ele><time>2026-04-04T10:55:09.523Z</time></trkpt><trkpt lat="45.0771678" lon="7.216171"><ele>1809.0</ele><time>2026-04-04T10:55:19.514Z</time></trkpt><trkpt lat="45.0771466" lon="7.2162605"><ele>1809.0</ele><time>2026-04-04T10:55:30.568Z</time></trkpt><trkpt lat="45.07712" lon="7.2163477"><ele>1809.0</ele><time>2026-04-04T10:55:40.558Z</time></trkpt><trkpt lat="45.0770838" lon="7.2164319"><ele>1809.0</ele><time>2026-04-04T10:55:53.524Z</time></trkpt><trkpt lat="45.0770368" lon="7.216597"><ele>1809.0</ele><time>2026-04-04T10:56:31.573Z</time></trkpt><trkpt lat="45.0770242" lon="7.2166854"><ele>1809.0</ele><time>2026-04-04T10:56:37.579Z</time></trkpt><trkpt lat="45.0770052" lon="7.2168016"><ele>1809.0</ele><time>2026-04-04T10:56:58.568Z</time></trkpt><trkpt lat="45.0769913" lon="7.216897"><ele>1811.2</ele><time>2026-04-04T10:57:06.539Z</time></trkpt><trkpt lat="45.0770119" lon="7.2170004"><ele>1813.4</ele><time>2026-04-04T10:57:36.891Z</time></trkpt><trkpt lat="45.0770129" lon="7.2171394"><ele>1815.6</ele><time>2026-04-04T10:58:35.5Z</time></trkpt><trkpt lat="45.0769885" lon="7.2173507"><ele>1817.8</ele><time>2026-04-04T10:59:09.501Z</time></trkpt><trkpt lat="45.0770188" lon="7.2174492"><ele>1820.0</ele><time>2026-04-04T10:59:37.557Z</time></trkpt><trkpt lat="45.0770468" lon="7.2175332"><ele>1819.9999999999998</ele><time>2026-04-04T10:59:46.567Z</time></trkpt><trkpt lat="45.0770401" lon="7.2176442"><ele>1820.0</ele><time>2026-04-04T11:00:04.553Z</time></trkpt><trkpt lat="45.077066" lon="7.2177325"><ele>1820.0</ele><time>2026-04-04T11:00:18.583Z</time></trkpt><trkpt lat="45.0771173" lon="7.2178187"><ele>1820.0</ele><time>2026-04-04T11:01:36.502Z</time></trkpt><trkpt lat="45.0771491" lon="7.2178987"><ele>1819.9999999999998</ele><time>2026-04-04T11:01:46.511Z</time></trkpt><trkpt lat="45.0771813" lon="7.2179801"><ele>1820.0</ele><time>2026-04-04T11:02:01.572Z</time></trkpt><trkpt lat="45.0772496" lon="7.2180773"><ele>1815.2</ele><time>2026-04-04T11:03:43.502Z</time></trkpt><trkpt lat="45.077339" lon="7.218186"><ele>1810.4</ele><time>2026-04-04T11:06:09.529Z</time></trkpt><trkpt lat="45.0773978" lon="7.2183332"><ele>1805.6</ele><time>2026-04-04T11:06:58.526Z</time></trkpt><trkpt lat="45.0774193" lon="7.2184698"><ele>1800.8</ele><time>2026-04-04T11:07:36.574Z</time></trkpt><trkpt lat="45.0774172" lon="7.2185633"><ele>1796.0</ele><time>2026-04-04T11:07:43.502Z</time></trkpt><trkpt lat="45.077402" lon="7.2186548"><ele>1796.0</ele><time>2026-04-04T11:07:53.579Z</time></trkpt><trkpt lat="45.0774129" lon="7.2187473"><ele>1795.9999999999998</ele><time>2026-04-04T11:08:02.508Z</time></trkpt><trkpt lat="45.0774061" lon="7.2188453"><ele>1796.0</ele><time>2026-04-04T11:08:17.529Z</time></trkpt><trkpt lat="45.0773946" lon="7.2189339"><ele>1796.0</ele><time>2026-04-04T11:08:29.503Z</time></trkpt><trkpt lat="45.077404" lon="7.2190245"><ele>1795.9999999999998</ele><time>2026-04-04T11:08:48.526Z</time></trkpt><trkpt lat="45.0774322" lon="7.2191309"><ele>1796.0</ele><time>2026-04-04T11:09:10.504Z</time></trkpt><trkpt lat="45.0774329" lon="7.2192297"><ele>1796.0</ele><time>2026-04-04T11:09:27.532Z</time></trkpt><trkpt lat="45.0774615" lon="7.2193171"><ele>1795.1666666666665</ele><time>2026-04-04T11:09:34.547Z</time></trkpt><trkpt lat="45.0774596" lon="7.2194503"><ele>1794.3333333333333</ele><time>2026-04-04T11:09:58.565Z</time></trkpt><trkpt lat="45.0774809" lon="7.2195404"><ele>1793.5</ele><time>2026-04-04T11:10:06.537Z</time></trkpt><trkpt lat="45.0774682" lon="7.2196327"><ele>1792.6666666666665</ele><time>2026-04-04T11:12:06.529Z</time></trkpt><trkpt lat="45.0774555" lon="7.2197329"><ele>1791.8333333333333</ele><time>2026-04-04T11:12:08.548Z</time></trkpt><trkpt lat="45.0774574" lon="7.2198249"><ele>1791.0</ele><time>2026-04-04T11:12:16.519Z</time></trkpt><trkpt lat="45.0774587" lon="7.2199821"><ele>1791.0</ele><time>2026-04-04T11:13:16.568Z</time></trkpt><trkpt lat="45.0774478" lon="7.2200765"><ele>1791.0</ele><time>2026-04-04T11:13:25.502Z</time></trkpt><trkpt lat="45.0774653" lon="7.2201628"><ele>1791.0</ele><time>2026-04-04T11:13:44.467Z</time></trkpt><trkpt lat="45.0775088" lon="7.2202345"><ele>1791.0</ele><time>2026-04-04T11:13:58.549Z</time></trkpt><trkpt lat="45.0775259" lon="7.2203223"><ele>1791.0</ele><time>2026-04-04T11:14:10.568Z</time></trkpt><trkpt lat="45.0774917" lon="7.2204049"><ele>1791.0</ele><time>2026-04-04T11:14:21.505Z</time></trkpt><trkpt lat="45.0774674" lon="7.2204924"><ele>1791.0</ele><time>2026-04-04T11:14:40.529Z</time></trkpt><trkpt lat="45.0773628" lon="7.2205468"><ele>1785.2857142857142</ele><time>2026-04-04T11:15:10.606Z</time></trkpt><trkpt lat="45.0772995" lon="7.2205529"><ele>1779.5714285714284</ele><time>2026-04-04T11:15:29.523Z</time></trkpt><trkpt lat="45.0772446" lon="7.220635"><ele>1773.857142857143</ele><time>2026-04-04T11:16:29.573Z</time></trkpt><trkpt lat="45.077238" lon="7.2207249"><ele>1768.142857142857</ele><time>2026-04-04T11:16:53.593Z</time></trkpt><trkpt lat="45.0772349" lon="7.2208147"><ele>1762.4285714285716</ele><time>2026-04-04T11:17:06.559Z</time></trkpt><trkpt lat="45.0771983" lon="7.2208885"><ele>1756.7142857142858</ele><time>2026-04-04T11:17:15.517Z</time></trkpt><trkpt lat="45.0771871" lon="7.2209781"><ele>1751.0</ele><time>2026-04-04T11:17:25.583Z</time></trkpt><trkpt lat="45.0771999" lon="7.2210839"><ele>1749.142857142857</ele><time>2026-04-04T11:17:37.503Z</time></trkpt><trkpt lat="45.0772178" lon="7.2211708"><ele>1747.2857142857142</ele><time>2026-04-04T11:17:47.583Z</time></trkpt><trkpt lat="45.0772161" lon="7.221261"><ele>1745.4285714285716</ele><time>2026-04-04T11:18:00.549Z</time></trkpt><trkpt lat="45.077207" lon="7.221393"><ele>1743.5714285714284</ele><time>2026-04-04T11:18:21.592Z</time></trkpt><trkpt lat="45.0772165" lon="7.221483"><ele>1741.7142857142856</ele><time>2026-04-04T11:18:28.503Z</time></trkpt><trkpt lat="45.0772167" lon="7.2215806"><ele>1739.857142857143</ele><time>2026-04-04T11:18:41.547Z</time></trkpt><trkpt lat="45.0771839" lon="7.2216699"><ele>1738.0</ele><time>2026-04-04T11:18:48.587Z</time></trkpt><trkpt lat="45.0771466" lon="7.2217551"><ele>1737.7142857142858</ele><time>2026-04-04T11:18:56.6Z</time></trkpt><trkpt lat="45.0771324" lon="7.2218443"><ele>1737.4285714285713</ele><time>2026-04-04T11:19:05.591Z</time></trkpt><trkpt lat="45.0771238" lon="7.2219389"><ele>1737.142857142857</ele><time>2026-04-04T11:19:15.581Z</time></trkpt><trkpt lat="45.0770831" lon="7.2220087"><ele>1736.857142857143</ele><time>2026-04-04T11:19:29.504Z</time></trkpt><trkpt lat="45.0770793" lon="7.2221104"><ele>1736.5714285714284</ele><time>2026-04-04T11:19:36.493Z</time></trkpt><trkpt lat="45.0770746" lon="7.2222102"><ele>1736.2857142857142</ele><time>2026-04-04T11:19:43.532Z</time></trkpt><trkpt lat="45.0770774" lon="7.2223013"><ele>1736.0</ele><time>2026-04-04T11:19:55.542Z</time></trkpt><trkpt lat="45.0770742" lon="7.2223937"><ele>1736.0</ele><time>2026-04-04T11:20:06.595Z</time></trkpt><trkpt lat="45.0770583" lon="7.2224842"><ele>1736.0</ele><time>2026-04-04T11:20:15.551Z</time></trkpt><trkpt lat="45.0770346" lon="7.2225691"><ele>1736.0</ele><time>2026-04-04T11:20:23.599Z</time></trkpt><trkpt lat="45.0770109" lon="7.2226588"><ele>1736.0</ele><time>2026-04-04T11:20:33.471Z</time></trkpt><trkpt lat="45.0769953" lon="7.2227473"><ele>1736.0</ele><time>2026-04-04T11:20:41.61Z</time></trkpt><trkpt lat="45.0769368" lon="7.2228344"><ele>1736.0</ele><time>2026-04-04T11:20:57.398Z</time></trkpt><trkpt lat="45.0769174" lon="7.2229273"><ele>1736.0</ele><time>2026-04-04T11:21:03.44Z</time></trkpt><trkpt lat="45.0769086" lon="7.2230322"><ele>1736.0</ele><time>2026-04-04T11:21:09.512Z</time></trkpt><trkpt lat="45.0768988" lon="7.2231225"><ele>1736.0</ele><time>2026-04-04T11:21:16.526Z</time></trkpt><trkpt lat="45.0769013" lon="7.2232211"><ele>1736.0</ele><time>2026-04-04T11:21:25.56Z</time></trkpt><trkpt lat="45.0768792" lon="7.223308"><ele>1736.0</ele><time>2026-04-04T11:21:36.507Z</time></trkpt><trkpt lat="45.0768645" lon="7.2234246"><ele>1736.0</ele><time>2026-04-04T11:22:25.503Z</time></trkpt><trkpt lat="45.0768344" lon="7.223528"><ele>1736.0</ele><time>2026-04-04T11:22:49.52Z</time></trkpt><trkpt lat="45.0768084" lon="7.2236212"><ele>1736.0</ele><time>2026-04-04T11:22:55.578Z</time></trkpt><trkpt lat="45.0767693" lon="7.2237016"><ele>1736.142857142857</ele><time>2026-04-04T11:23:05.568Z</time></trkpt><trkpt lat="45.076759" lon="7.2237918"><ele>1736.2857142857142</ele><time>2026-04-04T11:23:12.582Z</time></trkpt><trkpt lat="45.0767527" lon="7.2238888"><ele>1736.4285714285716</ele><time>2026-04-04T11:23:22.572Z</time></trkpt><trkpt lat="45.0767371" lon="7.2239827"><ele>1736.5714285714284</ele><time>2026-04-04T11:23:31.504Z</time></trkpt><trkpt lat="45.076755" lon="7.2240769"><ele>1736.7142857142858</ele><time>2026-04-04T11:23:40.533Z</time></trkpt><trkpt lat="45.076765" lon="7.2241924"><ele>1736.857142857143</ele><time>2026-04-04T11:24:04.552Z</time></trkpt><trkpt lat="45.0767542" lon="7.2242886"><ele>1737.0</ele><time>2026-04-04T11:24:24.532Z</time></trkpt><trkpt lat="45.0767771" lon="7.2243722"><ele>1737.0</ele><time>2026-04-04T11:24:32.504Z</time></trkpt><trkpt lat="45.0767841" lon="7.2244662"><ele>1737.0</ele><time>2026-04-04T11:24:44.506Z</time></trkpt><trkpt lat="45.0767769" lon="7.2245591"><ele>1737.0</ele><time>2026-04-04T11:25:02.578Z</time></trkpt><trkpt lat="45.0767928" lon="7.2247273"><ele>1737.0</ele><time>2026-04-04T11:25:33.505Z</time></trkpt><trkpt lat="45.0767937" lon="7.2248179"><ele>1737.0</ele><time>2026-04-04T11:25:43.504Z</time></trkpt><trkpt lat="45.0767489" lon="7.2248857"><ele>1737.0</ele><time>2026-04-04T11:26:00.504Z</time></trkpt><trkpt lat="45.0767594" lon="7.2249739"><ele>1737.0</ele><time>2026-04-04T11:26:15.59Z</time></trkpt><trkpt lat="45.0767683" lon="7.2250725"><ele>1734.5</ele><time>2026-04-04T11:26:31.531Z</time></trkpt><trkpt lat="45.0767341" lon="7.2251615"><ele>1732.0</ele><time>2026-04-04T11:26:53.53Z</time></trkpt><trkpt lat="45.0766925" lon="7.2252741"><ele>1729.5</ele><time>2026-04-04T11:27:06.59Z</time></trkpt><trkpt lat="45.0767185" lon="7.2254503"><ele>1727.0</ele><time>2026-04-04T11:27:48.459Z</time></trkpt><trkpt lat="45.0767109" lon="7.2255446"><ele>1724.5</ele><time>2026-04-04T11:28:00.588Z</time></trkpt><trkpt lat="45.0767271" lon="7.2256376"><ele>1722.0</ele><time>2026-04-04T11:28:13.488Z</time></trkpt><trkpt lat="45.0767183" lon="7.2258427"><ele>1720.1666666666667</ele><time>2026-04-04T11:28:50.539Z</time></trkpt><trkpt lat="45.0767265" lon="7.2259391"><ele>1718.3333333333335</ele><time>2026-04-04T11:28:57.589Z</time></trkpt><trkpt lat="45.0767392" lon="7.2260611"><ele>1716.5</ele><time>2026-04-04T11:29:17.533Z</time></trkpt><trkpt lat="45.0767396" lon="7.2261507"><ele>1714.6666666666667</ele><time>2026-04-04T11:29:24.546Z</time></trkpt><trkpt lat="45.0767241" lon="7.2262867"><ele>1712.8333333333335</ele><time>2026-04-04T11:29:50.585Z</time></trkpt><trkpt lat="45.0767172" lon="7.2263796"><ele>1711.0</ele><time>2026-04-04T11:30:00.525Z</time></trkpt><trkpt lat="45.0767517" lon="7.2264709"><ele>1707.8333333333335</ele><time>2026-04-04T11:30:24.505Z</time></trkpt><trkpt lat="45.0766941" lon="7.2266097"><ele>1704.6666666666667</ele><time>2026-04-04T11:31:05.51Z</time></trkpt><trkpt lat="45.0766133" lon="7.2267048"><ele>1701.5</ele><time>2026-04-04T11:31:41.537Z</time></trkpt><trkpt lat="45.0765328" lon="7.226739"><ele>1698.3333333333335</ele><time>2026-04-04T11:32:21.603Z</time></trkpt><trkpt lat="45.0764744" lon="7.2267878"><ele>1695.1666666666667</ele><time>2026-04-04T11:32:42.539Z</time></trkpt><trkpt lat="45.0764121" lon="7.2268291"><ele>1692.0</ele><time>2026-04-04T11:32:49.554Z</time></trkpt><trkpt lat="45.0764152" lon="7.2269215"><ele>1688.0</ele><time>2026-04-04T11:32:59.544Z</time></trkpt><trkpt lat="45.0763794" lon="7.226999"><ele>1684.0</ele><time>2026-04-04T11:33:19.524Z</time></trkpt><trkpt lat="45.0763968" lon="7.2271293"><ele>1680.0</ele><time>2026-04-04T11:33:35.571Z</time></trkpt><trkpt lat="45.0763837" lon="7.2272186"><ele>1676.0</ele><time>2026-04-04T11:33:44.511Z</time></trkpt><trkpt lat="45.0763125" lon="7.2272615"><ele>1672.0</ele><time>2026-04-04T11:34:02.566Z</time></trkpt><trkpt lat="45.0762589" lon="7.2273135"><ele>1668.0</ele><time>2026-04-04T11:34:11.506Z</time></trkpt><trkpt lat="45.0762225" lon="7.2274093"><ele>1664.0</ele><time>2026-04-04T11:34:45.506Z</time></trkpt><trkpt lat="45.0762122" lon="7.2275009"><ele>1661.6666666666665</ele><time>2026-04-04T11:34:54.534Z</time></trkpt><trkpt lat="45.0762227" lon="7.2276036"><ele>1659.3333333333333</ele><time>2026-04-04T11:35:10.583Z</time></trkpt><trkpt lat="45.0762448" lon="7.2276898"><ele>1657.0</ele><time>2026-04-04T11:35:19.51Z</time></trkpt><trkpt lat="45.0762059" lon="7.2277661"><ele>1654.6666666666665</ele><time>2026-04-04T11:35:30.563Z</time></trkpt><trkpt lat="45.0761732" lon="7.2278447"><ele>1652.3333333333333</ele><time>2026-04-04T11:35:41.51Z</time></trkpt><trkpt lat="45.0761721" lon="7.2279376"><ele>1650.0</ele><time>2026-04-04T11:35:51.589Z</time></trkpt><trkpt lat="45.0761162" lon="7.2280998"><ele>1649.2857142857142</ele><time>2026-04-04T11:36:25.51Z</time></trkpt><trkpt lat="45.0760841" lon="7.2281774"><ele>1648.5714285714287</ele><time>2026-04-04T11:36:34.544Z</time></trkpt><trkpt lat="45.0760351" lon="7.2282442"><ele>1647.857142857143</ele><time>2026-04-04T11:36:43.59Z</time></trkpt><trkpt lat="45.0759809" lon="7.228294"><ele>1647.142857142857</ele><time>2026-04-04T11:36:54.524Z</time></trkpt><trkpt lat="45.0759289" lon="7.2283594"><ele>1646.4285714285716</ele><time>2026-04-04T11:37:48.516Z</time></trkpt><trkpt lat="45.075876" lon="7.2284102"><ele>1645.7142857142858</ele><time>2026-04-04T11:38:54.519Z</time></trkpt><trkpt lat="45.0758366" lon="7.2284864"><ele>1645.0</ele><time>2026-04-04T11:39:02.596Z</time></trkpt><trkpt lat="45.0758248" lon="7.2285793"><ele>1645.0</ele><time>2026-04-04T11:39:12.618Z</time></trkpt><trkpt lat="45.0757904" lon="7.2286573"><ele>1645.0</ele><time>2026-04-04T11:39:22.578Z</time></trkpt><trkpt lat="45.0757696" lon="7.2287436"><ele>1645.0</ele><time>2026-04-04T11:39:32.568Z</time></trkpt><trkpt lat="45.0757488" lon="7.2288288"><ele>1645.0</ele><time>2026-04-04T11:39:45.589Z</time></trkpt><trkpt lat="45.075751" lon="7.2289199"><ele>1645.0</ele><time>2026-04-04T11:39:57.507Z</time></trkpt><trkpt lat="45.0756929" lon="7.2289563"><ele>1645.0</ele><time>2026-04-04T11:40:17.503Z</time></trkpt><trkpt lat="45.0756058" lon="7.2289797"><ele>1645.0</ele><time>2026-04-04T11:40:35.556Z</time></trkpt><trkpt lat="45.0755536" lon="7.2290395"><ele>1643.857142857143</ele><time>2026-04-04T11:40:47.567Z</time></trkpt><trkpt lat="45.0756086" lon="7.229114"><ele>1642.7142857142858</ele><time>2026-04-04T11:42:02.604Z</time></trkpt><trkpt lat="45.0755371" lon="7.2291219"><ele>1641.5714285714284</ele><time>2026-04-04T11:43:18.588Z</time></trkpt><trkpt lat="45.075455" lon="7.229113"><ele>1640.4285714285716</ele><time>2026-04-04T11:43:44.528Z</time></trkpt><trkpt lat="45.0754082" lon="7.2291762"><ele>1639.2857142857142</ele><time>2026-04-04T11:43:52.503Z</time></trkpt><trkpt lat="45.0753527" lon="7.2292294"><ele>1638.142857142857</ele><time>2026-04-04T11:43:59.549Z</time></trkpt><trkpt lat="45.0753016" lon="7.2292836"><ele>1637.0</ele><time>2026-04-04T11:44:10.566Z</time></trkpt><trkpt lat="45.075265" lon="7.2293671"><ele>1636.9999999999998</ele><time>2026-04-04T11:44:22.577Z</time></trkpt><trkpt lat="45.075207" lon="7.2294423"><ele>1637.0</ele><time>2026-04-04T11:44:41.601Z</time></trkpt><trkpt lat="45.0751797" lon="7.229523"><ele>1637.0</ele><time>2026-04-04T11:44:49.511Z</time></trkpt><trkpt lat="45.0751709" lon="7.229616"><ele>1637.0</ele><time>2026-04-04T11:45:00.519Z</time></trkpt><trkpt lat="45.0751282" lon="7.2296863"><ele>1636.9999999999998</ele><time>2026-04-04T11:45:19.542Z</time></trkpt><trkpt lat="45.075024" lon="7.229771"><ele>1637.0</ele><time>2026-04-04T11:45:43.562Z</time></trkpt><trkpt lat="45.0749708" lon="7.22987"><ele>1635.0</ele><time>2026-04-04T11:46:05.562Z</time></trkpt><trkpt lat="45.0749539" lon="7.2299597"><ele>1633.0</ele><time>2026-04-04T11:46:11.513Z</time></trkpt><trkpt lat="45.0748592" lon="7.2300283"><ele>1631.0</ele><time>2026-04-04T11:46:40.138Z</time></trkpt><trkpt lat="45.0748154" lon="7.2300997"><ele>1629.0</ele><time>2026-04-04T11:47:00.584Z</time></trkpt><trkpt lat="45.0747641" lon="7.23016"><ele>1627.0</ele><time>2026-04-04T11:47:20.537Z</time></trkpt><trkpt lat="45.0747047" lon="7.2302077"><ele>1625.0</ele><time>2026-04-04T11:47:29.579Z</time></trkpt><trkpt lat="45.0746655" lon="7.2302845"><ele>1623.0</ele><time>2026-04-04T11:47:37.543Z</time></trkpt><trkpt lat="45.0746486" lon="7.2303772"><ele>1623.0</ele><time>2026-04-04T11:47:45.497Z</time></trkpt><trkpt lat="45.0746192" lon="7.2304685"><ele>1623.0</ele><time>2026-04-04T11:47:53.593Z</time></trkpt><trkpt lat="45.0745767" lon="7.2305347"><ele>1623.0</ele><time>2026-04-04T11:48:03.583Z</time></trkpt><trkpt lat="45.0745413" lon="7.2306103"><ele>1623.0</ele><time>2026-04-04T11:48:11.555Z</time></trkpt><trkpt lat="45.0744956" lon="7.2306727"><ele>1623.0</ele><time>2026-04-04T11:48:21.494Z</time></trkpt><trkpt lat="45.0744435" lon="7.2307434"><ele>1623.0</ele><time>2026-04-04T11:48:30.58Z</time></trkpt><trkpt lat="45.0743758" lon="7.2307967"><ele>1623.0</ele><time>2026-04-04T11:49:40.514Z</time></trkpt><trkpt lat="45.0743017" lon="7.2308999"><ele>1625.5</ele><time>2026-04-04T11:50:07.51Z</time></trkpt><trkpt lat="45.0742119" lon="7.230995"><ele>1628.0</ele><time>2026-04-04T11:50:48.011Z</time></trkpt><trkpt lat="45.0741416" lon="7.2309943"><ele>1630.5</ele><time>2026-04-04T11:50:54.58Z</time></trkpt><trkpt lat="45.0741168" lon="7.2310811"><ele>1633.0</ele><time>2026-04-04T11:51:09.567Z</time></trkpt><trkpt lat="45.0740259" lon="7.2311354"><ele>1635.5</ele><time>2026-04-04T11:51:33.588Z</time></trkpt><trkpt lat="45.0739734" lon="7.2311906"><ele>1638.0</ele><time>2026-04-04T11:51:41.559Z</time></trkpt><trkpt lat="45.0739414" lon="7.2312759"><ele>1634.6666666666667</ele><time>2026-04-04T11:51:49.53Z</time></trkpt><trkpt lat="45.0739127" lon="7.2313583"><ele>1631.3333333333335</ele><time>2026-04-04T11:51:56.546Z</time></trkpt><trkpt lat="45.0738579" lon="7.2314232"><ele>1628.0</ele><time>2026-04-04T11:52:04.517Z</time></trkpt><trkpt lat="45.0738161" lon="7.2314955"><ele>1624.6666666666667</ele><time>2026-04-04T11:52:13.551Z</time></trkpt><trkpt lat="45.0738097" lon="7.2315916"><ele>1621.3333333333335</ele><time>2026-04-04T11:52:20.592Z</time></trkpt><trkpt lat="45.0737746" lon="7.2317463"><ele>1618.0</ele><time>2026-04-04T11:52:41.505Z</time></trkpt><trkpt lat="45.0737553" lon="7.2318415"><ele>1618.0</ele><time>2026-04-04T11:52:51.602Z</time></trkpt><trkpt lat="45.0736804" lon="7.2319532"><ele>1618.0</ele><time>2026-04-04T11:53:23.514Z</time></trkpt><trkpt lat="45.0736764" lon="7.2320451"><ele>1618.0</ele><time>2026-04-04T11:53:29.546Z</time></trkpt><trkpt lat="45.0736966" lon="7.2321326"><ele>1618.0</ele><time>2026-04-04T11:53:37.518Z</time></trkpt><trkpt lat="45.0737111" lon="7.2322224"><ele>1618.0</ele><time>2026-04-04T11:53:45.596Z</time></trkpt><trkpt lat="45.0736939" lon="7.2323101"><ele>1618.0</ele><time>2026-04-04T11:53:57.605Z</time></trkpt><trkpt lat="45.0736988" lon="7.2324112"><ele>1618.0</ele><time>2026-04-04T11:54:12.502Z</time></trkpt><trkpt lat="45.0736773" lon="7.2325388"><ele>1619.0</ele><time>2026-04-04T11:54:30.555Z</time></trkpt><trkpt lat="45.0736742" lon="7.2326315"><ele>1620.0</ele><time>2026-04-04T11:54:38.526Z</time></trkpt><trkpt lat="45.0736493" lon="7.232758"><ele>1621.0</ele><time>2026-04-04T11:54:55.532Z</time></trkpt><trkpt lat="45.073616" lon="7.232834"><ele>1622.0</ele><time>2026-04-04T11:55:04.573Z</time></trkpt><trkpt lat="45.0736017" lon="7.2329229"><ele>1623.0</ele><time>2026-04-04T11:55:13.6Z</time></trkpt><trkpt lat="45.0735825" lon="7.233012"><ele>1624.0</ele><time>2026-04-04T11:55:21.573Z</time></trkpt><trkpt lat="45.0735683" lon="7.2330997"><ele>1625.0</ele><time>2026-04-04T11:55:31.564Z</time></trkpt><trkpt lat="45.0735283" lon="7.233169"><ele>1625.5714285714287</ele><time>2026-04-04T11:55:42.511Z</time></trkpt><trkpt lat="45.0734901" lon="7.2332415"><ele>1626.1428571428573</ele><time>2026-04-04T11:55:54.522Z</time></trkpt><trkpt lat="45.0734788" lon="7.2333414"><ele>1626.7142857142858</ele><time>2026-04-04T11:56:09.51Z</time></trkpt><trkpt lat="45.0734627" lon="7.2334288"><ele>1627.2857142857142</ele><time>2026-04-04T11:56:21.521Z</time></trkpt><trkpt lat="45.073437" lon="7.23352"><ele>1627.857142857143</ele><time>2026-04-04T11:56:32.47Z</time></trkpt><trkpt lat="45.0734288" lon="7.2336088"><ele>1628.4285714285713</ele><time>2026-04-04T11:56:39.591Z</time></trkpt><trkpt lat="45.0734123" lon="7.2337105"><ele>1629.0</ele><time>2026-04-04T11:56:48.994Z</time></trkpt><trkpt lat="45.0733852" lon="7.2337956"><ele>1629.0</ele><time>2026-04-04T11:56:58.511Z</time></trkpt><trkpt lat="45.0733666" lon="7.2338886"><ele>1629.0</ele><time>2026-04-04T11:57:07.546Z</time></trkpt><trkpt lat="45.0733546" lon="7.2339804"><ele>1629.0</ele><time>2026-04-04T11:57:20.514Z</time></trkpt><trkpt lat="45.0733208" lon="7.2340561"><ele>1629.0</ele><time>2026-04-04T11:57:33.587Z</time></trkpt><trkpt lat="45.073325" lon="7.2341489"><ele>1629.0</ele><time>2026-04-04T11:57:41.559Z</time></trkpt><trkpt lat="45.0733389" lon="7.234241"><ele>1629.0</ele><time>2026-04-04T11:57:51.55Z</time></trkpt><trkpt lat="45.0733345" lon="7.2343408"><ele>1629.0</ele><time>2026-04-04T11:58:00.584Z</time></trkpt><trkpt lat="45.0733387" lon="7.2344308"><ele>1629.8333333333333</ele><time>2026-04-04T11:58:09.596Z</time></trkpt><trkpt lat="45.0733702" lon="7.2345133"><ele>1630.6666666666665</ele><time>2026-04-04T11:58:20.565Z</time></trkpt><trkpt lat="45.0734154" lon="7.2345845"><ele>1631.5</ele><time>2026-04-04T11:58:42.566Z</time></trkpt><trkpt lat="45.0734337" lon="7.2347089"><ele>1632.3333333333333</ele><time>2026-04-04T11:58:44.587Z</time></trkpt><trkpt lat="45.0734925" lon="7.2348286"><ele>1633.1666666666665</ele><time>2026-04-04T11:59:22.529Z</time></trkpt><trkpt lat="45.0735566" lon="7.2349332"><ele>1634.0</ele><time>2026-04-04T11:59:44.531Z</time></trkpt><trkpt lat="45.0736067" lon="7.2349897"><ele>1632.4285714285713</ele><time>2026-04-04T11:59:49.527Z</time></trkpt><trkpt lat="45.0736632" lon="7.2350809"><ele>1630.857142857143</ele><time>2026-04-04T12:00:05.469Z</time></trkpt><trkpt lat="45.0736949" lon="7.2351592"><ele>1629.2857142857142</ele><time>2026-04-04T12:00:12.589Z</time></trkpt><trkpt lat="45.0737357" lon="7.2352405"><ele>1627.7142857142858</ele><time>2026-04-04T12:00:23.538Z</time></trkpt><trkpt lat="45.0737955" lon="7.2352902"><ele>1626.142857142857</ele><time>2026-04-04T12:00:32.572Z</time></trkpt><trkpt lat="45.0738419" lon="7.2353536"><ele>1624.5714285714284</ele><time>2026-04-04T12:00:43.519Z</time></trkpt><trkpt lat="45.0738696" lon="7.2354414"><ele>1623.0</ele><time>2026-04-04T12:00:52.553Z</time></trkpt><trkpt lat="45.0738678" lon="7.2355308"><ele>1623.0</ele><time>2026-04-04T12:01:02.544Z</time></trkpt><trkpt lat="45.0738281" lon="7.235611"><ele>1623.0</ele><time>2026-04-04T12:01:12.51Z</time></trkpt><trkpt lat="45.073843" lon="7.2357017"><ele>1623.0</ele><time>2026-04-04T12:01:22.493Z</time></trkpt><trkpt lat="45.0738646" lon="7.2357879"><ele>1623.0</ele><time>2026-04-04T12:01:31.559Z</time></trkpt><trkpt lat="45.0738565" lon="7.2359159"><ele>1623.0</ele><time>2026-04-04T12:01:49.521Z</time></trkpt><trkpt lat="45.0738882" lon="7.2360028"><ele>1623.0</ele><time>2026-04-04T12:01:56.536Z</time></trkpt><trkpt lat="45.0739209" lon="7.2360968"><ele>1623.0</ele><time>2026-04-04T12:02:31.504Z</time></trkpt><trkpt lat="45.0739331" lon="7.2361872"><ele>1623.5714285714284</ele><time>2026-04-04T12:02:39.58Z</time></trkpt><trkpt lat="45.0739728" lon="7.236271"><ele>1624.142857142857</ele><time>2026-04-04T12:02:47.551Z</time></trkpt><trkpt lat="45.0740103" lon="7.2363515"><ele>1624.7142857142858</ele><time>2026-04-04T12:02:56.585Z</time></trkpt><trkpt lat="45.0740444" lon="7.2364419"><ele>1625.2857142857142</ele><time>2026-04-04T12:03:12.526Z</time></trkpt><trkpt lat="45.0740609" lon="7.2365287"><ele>1625.857142857143</ele><time>2026-04-04T12:03:26.557Z</time></trkpt><trkpt lat="45.0740894" lon="7.2366123"><ele>1626.4285714285713</ele><time>2026-04-04T12:03:39.523Z</time></trkpt><trkpt lat="45.0741207" lon="7.236691"><ele>1627.0</ele><time>2026-04-04T12:03:49.514Z</time></trkpt><trkpt lat="45.0741714" lon="7.2367458"><ele>1627.0000000000002</ele><time>2026-04-04T12:04:00.567Z</time></trkpt><trkpt lat="45.0742083" lon="7.2368254"><ele>1627.0</ele><time>2026-04-04T12:04:11.515Z</time></trkpt><trkpt lat="45.0742264" lon="7.2369141"><ele>1627.0</ele><time>2026-04-04T12:04:33.514Z</time></trkpt><trkpt lat="45.0742599" lon="7.2369942"><ele>1627.0</ele><time>2026-04-04T12:05:07.611Z</time></trkpt><trkpt lat="45.0743173" lon="7.2370811"><ele>1627.0000000000002</ele><time>2026-04-04T12:05:09.543Z</time></trkpt><trkpt lat="45.0743367" lon="7.2371681"><ele>1627.0</ele><time>2026-04-04T12:05:19.534Z</time></trkpt><trkpt lat="45.0744237" lon="7.237284"><ele>1623.1666666666667</ele><time>2026-04-04T12:05:44.555Z</time></trkpt><trkpt lat="45.0744924" lon="7.2374257"><ele>1619.3333333333335</ele><time>2026-04-04T12:07:33.552Z</time></trkpt><trkpt lat="45.0745454" lon="7.2374891"><ele>1615.5</ele><time>2026-04-04T12:07:47.581Z</time></trkpt><trkpt lat="45.0746084" lon="7.2375811"><ele>1611.6666666666665</ele><time>2026-04-04T12:08:09.474Z</time></trkpt><trkpt lat="45.0746745" lon="7.2376808"><ele>1607.8333333333333</ele><time>2026-04-04T12:08:25.524Z</time></trkpt><trkpt lat="45.0747102" lon="7.2377571"><ele>1604.0</ele><time>2026-04-04T12:08:31.581Z</time></trkpt><trkpt lat="45.0747626" lon="7.2378077"><ele>1603.9999999999998</ele><time>2026-04-04T12:08:40.51Z</time></trkpt><trkpt lat="45.0748016" lon="7.2378924"><ele>1604.0</ele><time>2026-04-04T12:08:53.582Z</time></trkpt><trkpt lat="45.0748371" lon="7.2379685"><ele>1604.0</ele><time>2026-04-04T12:09:06.548Z</time></trkpt><trkpt lat="45.0748763" lon="7.2380395"><ele>1604.0</ele><time>2026-04-04T12:09:15.582Z</time></trkpt><trkpt lat="45.0748859" lon="7.2381579"><ele>1603.9999999999998</ele><time>2026-04-04T12:09:39.593Z</time></trkpt><trkpt lat="45.0749256" lon="7.2382273"><ele>1604.0</ele><time>2026-04-04T12:09:47.573Z</time></trkpt><trkpt lat="45.0749456" lon="7.2383767"><ele>1603.2857142857142</ele><time>2026-04-04T12:10:10.376Z</time></trkpt><trkpt lat="45.0749805" lon="7.2384528"><ele>1602.5714285714287</ele><time>2026-04-04T12:10:16.492Z</time></trkpt><trkpt lat="45.0750377" lon="7.238507"><ele>1601.8571428571427</ele><time>2026-04-04T12:10:23.601Z</time></trkpt><trkpt lat="45.0750698" lon="7.238591"><ele>1601.142857142857</ele><time>2026-04-04T12:10:36.565Z</time></trkpt><trkpt lat="45.0751034" lon="7.2387094"><ele>1600.4285714285713</ele><time>2026-04-04T12:10:55.591Z</time></trkpt><trkpt lat="45.0751247" lon="7.2388041"><ele>1599.7142857142856</ele><time>2026-04-04T12:11:02.534Z</time></trkpt><trkpt lat="45.0751338" lon="7.2388998"><ele>1599.0</ele><time>2026-04-04T12:11:12.595Z</time></trkpt><trkpt lat="45.0751741" lon="7.2389868"><ele>1598.9999999999998</ele><time>2026-04-04T12:12:28.584Z</time></trkpt><trkpt lat="45.0751928" lon="7.2390875"><ele>1599.0</ele><time>2026-04-04T12:12:42.506Z</time></trkpt><trkpt lat="45.0752292" lon="7.2391632"><ele>1599.0</ele><time>2026-04-04T12:12:51.54Z</time></trkpt><trkpt lat="45.0752966" lon="7.2392224"><ele>1599.0</ele><time>2026-04-04T12:13:11.52Z</time></trkpt><trkpt lat="45.0753306" lon="7.2393027"><ele>1599.0</ele><time>2026-04-04T12:13:19.598Z</time></trkpt><trkpt lat="45.075362" lon="7.239391"><ele>1598.9999999999998</ele><time>2026-04-04T12:13:27.568Z</time></trkpt><trkpt lat="45.0753809" lon="7.2395137"><ele>1599.0</ele><time>2026-04-04T12:13:58.57Z</time></trkpt><trkpt lat="45.0753714" lon="7.239609"><ele>1598.9999999999998</ele><time>2026-04-04T12:14:03.597Z</time></trkpt><trkpt lat="45.075415" lon="7.2396802"><ele>1599.0</ele><time>2026-04-04T12:14:14.544Z</time></trkpt><trkpt lat="45.0754688" lon="7.2397325"><ele>1599.0</ele><time>2026-04-04T12:14:27.511Z</time></trkpt><trkpt lat="45.0755151" lon="7.2397996"><ele>1599.0</ele><time>2026-04-04T12:14:39.52Z</time></trkpt><trkpt lat="45.0755636" lon="7.2398669"><ele>1599.0</ele><time>2026-04-04T12:14:48.553Z</time></trkpt><trkpt lat="45.0756132" lon="7.2399263"><ele>1598.9999999999998</ele><time>2026-04-04T12:14:58.544Z</time></trkpt><trkpt lat="45.0756449" lon="7.2400049"><ele>1599.0</ele><time>2026-04-04T12:15:07.577Z</time></trkpt><trkpt lat="45.075668" lon="7.2400889"><ele>1601.8333333333333</ele><time>2026-04-04T12:15:18.523Z</time></trkpt><trkpt lat="45.0757039" lon="7.2401659"><ele>1604.6666666666665</ele><time>2026-04-04T12:15:25.512Z</time></trkpt><trkpt lat="45.0757588" lon="7.2402189"><ele>1607.5</ele><time>2026-04-04T12:15:33.509Z</time></trkpt><trkpt lat="45.0758005" lon="7.2402875"><ele>1610.3333333333333</ele><time>2026-04-04T12:15:41.612Z</time></trkpt><trkpt lat="45.0758811" lon="7.2403981"><ele>1613.1666666666665</ele><time>2026-04-04T12:16:04.542Z</time></trkpt><trkpt lat="45.0759338" lon="7.2404781"><ele>1616.0</ele><time>2026-04-04T12:16:26.541Z</time></trkpt><trkpt lat="45.0759786" lon="7.2405573"><ele>1612.4999999999998</ele><time>2026-04-04T12:16:41.004Z</time></trkpt><trkpt lat="45.0759637" lon="7.2406681"><ele>1609.0</ele><time>2026-04-04T12:17:22.493Z</time></trkpt><trkpt lat="45.0760028" lon="7.2407416"><ele>1605.5</ele><time>2026-04-04T12:17:28.504Z</time></trkpt><trkpt lat="45.0760595" lon="7.240838"><ele>1602.0</ele><time>2026-04-04T12:17:45.506Z</time></trkpt><trkpt lat="45.0761005" lon="7.2409205"><ele>1598.4999999999998</ele><time>2026-04-04T12:17:51.564Z</time></trkpt><trkpt lat="45.0761908" lon="7.2410387"><ele>1595.0</ele><time>2026-04-04T12:18:18.533Z</time></trkpt><trkpt lat="45.0761961" lon="7.2411333"><ele>1595.0</ele><time>2026-04-04T12:18:28.55Z</time></trkpt><trkpt lat="45.0762182" lon="7.2412245"><ele>1595.0</ele><time>2026-04-04T12:18:38.541Z</time></trkpt><trkpt lat="45.0762372" lon="7.2413157"><ele>1595.0</ele><time>2026-04-04T12:18:52.57Z</time></trkpt><trkpt lat="45.0762568" lon="7.2414051"><ele>1595.0</ele><time>2026-04-04T12:19:12.413Z</time></trkpt><trkpt lat="45.0762357" lon="7.2414983"><ele>1595.0</ele><time>2026-04-04T12:19:17.548Z</time></trkpt><trkpt lat="45.0762238" lon="7.2415918"><ele>1595.0</ele><time>2026-04-04T12:19:25.519Z</time></trkpt><trkpt lat="45.076248" lon="7.2416777"><ele>1595.0</ele><time>2026-04-04T12:19:32.535Z</time></trkpt><trkpt lat="45.076278" lon="7.2417647"><ele>1592.4285714285713</ele><time>2026-04-04T12:19:41.57Z</time></trkpt><trkpt lat="45.0762887" lon="7.2418789"><ele>1589.8571428571427</ele><time>2026-04-04T12:20:08.566Z</time></trkpt><trkpt lat="45.0762983" lon="7.24197"><ele>1587.2857142857142</ele><time>2026-04-04T12:20:14.611Z</time></trkpt><trkpt lat="45.0763178" lon="7.2420589"><ele>1584.7142857142858</ele><time>2026-04-04T12:20:26.528Z</time></trkpt><trkpt lat="45.0763248" lon="7.2421825"><ele>1582.142857142857</ele><time>2026-04-04T12:20:45.553Z</time></trkpt><trkpt lat="45.0763328" lon="7.2422766"><ele>1579.5714285714287</ele><time>2026-04-04T12:20:54.433Z</time></trkpt><trkpt lat="45.0763663" lon="7.2423562"><ele>1577.0</ele><time>2026-04-04T12:21:03.514Z</time></trkpt><trkpt lat="45.0764195" lon="7.2424241"><ele>1574.142857142857</ele><time>2026-04-04T12:21:13.504Z</time></trkpt><trkpt lat="45.0764609" lon="7.2425044"><ele>1571.2857142857142</ele><time>2026-04-04T12:21:21.582Z</time></trkpt><trkpt lat="45.0764935" lon="7.2425833"><ele>1568.4285714285713</ele><time>2026-04-04T12:21:30.509Z</time></trkpt><trkpt lat="45.0765352" lon="7.2426664"><ele>1565.5714285714284</ele><time>2026-04-04T12:21:40.504Z</time></trkpt><trkpt lat="45.076566" lon="7.2427529"><ele>1562.7142857142858</ele><time>2026-04-04T12:21:49.533Z</time></trkpt><trkpt lat="45.0765884" lon="7.2428441"><ele>1559.8571428571427</ele><time>2026-04-04T12:21:56.548Z</time></trkpt><trkpt lat="45.0766362" lon="7.2429164"><ele>1557.0</ele><time>2026-04-04T12:22:04.518Z</time></trkpt><trkpt lat="45.0766784" lon="7.242998"><ele>1561.5714285714284</ele><time>2026-04-04T12:22:13.552Z</time></trkpt><trkpt lat="45.076698" lon="7.2430853"><ele>1566.142857142857</ele><time>2026-04-04T12:22:21.515Z</time></trkpt><trkpt lat="45.0767065" lon="7.2431834"><ele>1570.7142857142858</ele><time>2026-04-04T12:22:30.451Z</time></trkpt><trkpt lat="45.0767375" lon="7.2432685"><ele>1575.2857142857142</ele><time>2026-04-04T12:22:39.59Z</time></trkpt><trkpt lat="45.0767587" lon="7.2433538"><ele>1579.857142857143</ele><time>2026-04-04T12:22:47.514Z</time></trkpt><trkpt lat="45.0767748" lon="7.2434401"><ele>1584.4285714285713</ele><time>2026-04-04T12:22:53.512Z</time></trkpt><trkpt lat="45.0767927" lon="7.2435266"><ele>1589.0</ele><time>2026-04-04T12:23:01.59Z</time></trkpt><trkpt lat="45.0768179" lon="7.2436095"><ele>1589.0</ele><time>2026-04-04T12:23:10.518Z</time></trkpt><trkpt lat="45.076819" lon="7.2436993"><ele>1589.0</ele><time>2026-04-04T12:23:18.595Z</time></trkpt><trkpt lat="45.0768233" lon="7.2437894"><ele>1589.0</ele><time>2026-04-04T12:23:24.546Z</time></trkpt><trkpt lat="45.07684" lon="7.2438828"><ele>1589.0</ele><time>2026-04-04T12:23:31.572Z</time></trkpt><trkpt lat="45.0768447" lon="7.2439741"><ele>1589.0</ele><time>2026-04-04T12:23:38.573Z</time></trkpt><trkpt lat="45.0768602" lon="7.2440705"><ele>1589.0</ele><time>2026-04-04T12:23:44.527Z</time></trkpt><trkpt lat="45.0768949" lon="7.2441532"><ele>1589.0</ele><time>2026-04-04T12:23:52.504Z</time></trkpt><trkpt lat="45.0769012" lon="7.244248"><ele>1587.4285714285713</ele><time>2026-04-04T12:24:02.595Z</time></trkpt><trkpt lat="45.0768988" lon="7.2443401"><ele>1585.857142857143</ele><time>2026-04-04T12:24:10.514Z</time></trkpt><trkpt lat="45.0768901" lon="7.2444359"><ele>1584.2857142857142</ele><time>2026-04-04T12:24:20.556Z</time></trkpt><trkpt lat="45.0768731" lon="7.2445241"><ele>1582.7142857142858</ele><time>2026-04-04T12:24:31.608Z</time></trkpt><trkpt lat="45.0768481" lon="7.2446389"><ele>1581.142857142857</ele><time>2026-04-04T12:24:48.508Z</time></trkpt><trkpt lat="45.076838" lon="7.2447273"><ele>1579.5714285714284</ele><time>2026-04-04T12:24:53.505Z</time></trkpt><trkpt lat="45.0768228" lon="7.2448227"><ele>1578.0</ele><time>2026-04-04T12:25:02.615Z</time></trkpt><trkpt lat="45.0768265" lon="7.2449189"><ele>1577.9999999999998</ele><time>2026-04-04T12:25:12.415Z</time></trkpt><trkpt lat="45.0767934" lon="7.2450044"><ele>1578.0</ele><time>2026-04-04T12:25:20.603Z</time></trkpt><trkpt lat="45.0767745" lon="7.2450924"><ele>1578.0</ele><time>2026-04-04T12:25:28.574Z</time></trkpt><trkpt lat="45.0767484" lon="7.2451765"><ele>1578.0</ele><time>2026-04-04T12:25:37.616Z</time></trkpt><trkpt lat="45.0767251" lon="7.2452722"><ele>1578.0</ele><time>2026-04-04T12:25:45.578Z</time></trkpt><trkpt lat="45.0767101" lon="7.2453665"><ele>1577.9999999999998</ele><time>2026-04-04T12:25:51.53Z</time></trkpt><trkpt lat="45.0767238" lon="7.2454646"><ele>1578.0</ele><time>2026-04-04T12:25:59.575Z</time></trkpt><trkpt lat="45.0766811" lon="7.2455363"><ele>1579.142857142857</ele><time>2026-04-04T12:26:06.515Z</time></trkpt><trkpt lat="45.0766504" lon="7.245631"><ele>1580.2857142857142</ele><time>2026-04-04T12:26:12.573Z</time></trkpt><trkpt lat="45.0766633" lon="7.2457237"><ele>1581.4285714285716</ele><time>2026-04-04T12:26:20.544Z</time></trkpt><trkpt lat="45.0766563" lon="7.2458205"><ele>1582.5714285714284</ele><time>2026-04-04T12:26:28.512Z</time></trkpt><trkpt lat="45.0766603" lon="7.24592"><ele>1583.7142857142858</ele><time>2026-04-04T12:26:37.548Z</time></trkpt><trkpt lat="45.0766722" lon="7.2460095"><ele>1584.857142857143</ele><time>2026-04-04T12:26:46.51Z</time></trkpt><trkpt lat="45.0766653" lon="7.2461099"><ele>1586.0</ele><time>2026-04-04T12:26:54.553Z</time></trkpt><trkpt lat="45.0766754" lon="7.2462004"><ele>1586.0000000000002</ele><time>2026-04-04T12:27:03.472Z</time></trkpt><trkpt lat="45.076666" lon="7.2462894"><ele>1586.0</ele><time>2026-04-04T12:27:12.514Z</time></trkpt><trkpt lat="45.076643" lon="7.2463832"><ele>1586.0</ele><time>2026-04-04T12:27:22.505Z</time></trkpt><trkpt lat="45.0766321" lon="7.2464812"><ele>1586.0</ele><time>2026-04-04T12:27:30.581Z</time></trkpt><trkpt lat="45.0766297" lon="7.2465775"><ele>1586.0</ele><time>2026-04-04T12:27:41.528Z</time></trkpt><trkpt lat="45.0766046" lon="7.2466684"><ele>1586.0000000000002</ele><time>2026-04-04T12:27:49.505Z</time></trkpt><trkpt lat="45.0766111" lon="7.24676"><ele>1586.0</ele><time>2026-04-04T12:27:59.594Z</time></trkpt><trkpt lat="45.0765841" lon="7.2468479"><ele>1580.1428571428573</ele><time>2026-04-04T12:28:10.542Z</time></trkpt><trkpt lat="45.0765644" lon="7.2469353"><ele>1574.2857142857142</ele><time>2026-04-04T12:28:20.612Z</time></trkpt><trkpt lat="45.076544" lon="7.2470262"><ele>1568.4285714285716</ele><time>2026-04-04T12:28:28.609Z</time></trkpt><trkpt lat="45.0765336" lon="7.2471217"><ele>1562.5714285714287</ele><time>2026-04-04T12:28:36.58Z</time></trkpt><trkpt lat="45.0765348" lon="7.2472227"><ele>1556.7142857142858</ele><time>2026-04-04T12:28:45.507Z</time></trkpt><trkpt lat="45.0765326" lon="7.2473138"><ele>1550.857142857143</ele><time>2026-04-04T12:28:52.521Z</time></trkpt><trkpt lat="45.0765327" lon="7.2474089"><ele>1545.0</ele><time>2026-04-04T12:29:00.598Z</time></trkpt><trkpt lat="45.0765221" lon="7.2474983"><ele>1545.0</ele><time>2026-04-04T12:29:08.569Z</time></trkpt><trkpt lat="45.0765561" lon="7.2475783"><ele>1545.0</ele><time>2026-04-04T12:29:16.54Z</time></trkpt><trkpt lat="45.0765618" lon="7.2476713"><ele>1545.0</ele><time>2026-04-04T12:29:28.549Z</time></trkpt><trkpt lat="45.0765762" lon="7.2477647"><ele>1545.0</ele><time>2026-04-04T12:29:35.562Z</time></trkpt><trkpt lat="45.0765823" lon="7.2478626"><ele>1545.0</ele><time>2026-04-04T12:29:44.597Z</time></trkpt><trkpt lat="45.076613" lon="7.247945"><ele>1545.0</ele><time>2026-04-04T12:29:50.548Z</time></trkpt><trkpt lat="45.0766159" lon="7.248044"><ele>1545.0</ele><time>2026-04-04T12:30:01.505Z</time></trkpt><trkpt lat="45.0766166" lon="7.2481359"><ele>1551.4285714285713</ele><time>2026-04-04T12:30:09.571Z</time></trkpt><trkpt lat="45.0766457" lon="7.2482203"><ele>1557.857142857143</ele><time>2026-04-04T12:30:17.541Z</time></trkpt><trkpt lat="45.0766275" lon="7.2483119"><ele>1564.2857142857142</ele><time>2026-04-04T12:30:27.531Z</time></trkpt><trkpt lat="45.076643" lon="7.2484034"><ele>1570.7142857142858</ele><time>2026-04-04T12:30:39.54Z</time></trkpt><trkpt lat="45.0766522" lon="7.2484945"><ele>1577.1428571428573</ele><time>2026-04-04T12:30:51.552Z</time></trkpt><trkpt lat="45.076672" lon="7.2485851"><ele>1583.5714285714287</ele><time>2026-04-04T12:31:00.583Z</time></trkpt><trkpt lat="45.0766706" lon="7.2486822"><ele>1590.0</ele><time>2026-04-04T12:31:11.529Z</time></trkpt><trkpt lat="45.0767037" lon="7.2487607"><ele>1590.0</ele><time>2026-04-04T12:31:22.511Z</time></trkpt><trkpt lat="45.0766939" lon="7.2488614"><ele>1590.0</ele><time>2026-04-04T12:31:32.572Z</time></trkpt><trkpt lat="45.0767027" lon="7.2489564"><ele>1590.0</ele><time>2026-04-04T12:31:41.534Z</time></trkpt><trkpt lat="45.0767201" lon="7.2490513"><ele>1590.0</ele><time>2026-04-04T12:31:50.532Z</time></trkpt><trkpt lat="45.0767244" lon="7.2491442"><ele>1590.0</ele><time>2026-04-04T12:31:59.565Z</time></trkpt><trkpt lat="45.0767122" lon="7.249239"><ele>1590.0</ele><time>2026-04-04T12:32:07.213Z</time></trkpt><trkpt lat="45.0767327" lon="7.2493343"><ele>1590.0</ele><time>2026-04-04T12:32:14.55Z</time></trkpt><trkpt lat="45.076733" lon="7.2494366"><ele>1589.5714285714287</ele><time>2026-04-04T12:32:26.559Z</time></trkpt><trkpt lat="45.0767233" lon="7.2495331"><ele>1589.1428571428573</ele><time>2026-04-04T12:32:33.573Z</time></trkpt><trkpt lat="45.0767263" lon="7.2496317"><ele>1588.7142857142858</ele><time>2026-04-04T12:32:42.506Z</time></trkpt><trkpt lat="45.0767049" lon="7.2497232"><ele>1588.2857142857142</ele><time>2026-04-04T12:32:51.593Z</time></trkpt><trkpt lat="45.0767051" lon="7.2498202"><ele>1587.857142857143</ele><time>2026-04-04T12:33:00.153Z</time></trkpt><trkpt lat="45.0766896" lon="7.249915"><ele>1587.4285714285713</ele><time>2026-04-04T12:33:07.581Z</time></trkpt><trkpt lat="45.0766981" lon="7.2500116"><ele>1587.0</ele><time>2026-04-04T12:33:16.355Z</time></trkpt><trkpt lat="45.0766722" lon="7.2500982"><ele>1586.857142857143</ele><time>2026-04-04T12:33:26.604Z</time></trkpt><trkpt lat="45.0766556" lon="7.2501859"><ele>1586.7142857142858</ele><time>2026-04-04T12:33:34.574Z</time></trkpt><trkpt lat="45.076631" lon="7.2502747"><ele>1586.5714285714287</ele><time>2026-04-04T12:33:43.506Z</time></trkpt><trkpt lat="45.0766097" lon="7.250362"><ele>1586.4285714285716</ele><time>2026-04-04T12:33:50.516Z</time></trkpt><trkpt lat="45.0766091" lon="7.2504592"><ele>1586.2857142857142</ele><time>2026-04-04T12:33:59.549Z</time></trkpt><trkpt lat="45.0765904" lon="7.2505509"><ele>1586.1428571428573</ele><time>2026-04-04T12:34:07.531Z</time></trkpt><trkpt lat="45.07657" lon="7.2506358"><ele>1586.0</ele><time>2026-04-04T12:34:15.506Z</time></trkpt><trkpt lat="45.0765545" lon="7.2507307"><ele>1579.7142857142858</ele><time>2026-04-04T12:34:22.593Z</time></trkpt><trkpt lat="45.0765565" lon="7.2508245"><ele>1573.4285714285716</ele><time>2026-04-04T12:34:29.493Z</time></trkpt><trkpt lat="45.0765699" lon="7.2509225"><ele>1567.1428571428573</ele><time>2026-04-04T12:34:35.576Z</time></trkpt><trkpt lat="45.076552" lon="7.2510129"><ele>1560.857142857143</ele><time>2026-04-04T12:34:45.566Z</time></trkpt><trkpt lat="45.0764968" lon="7.2510695"><ele>1554.5714285714284</ele><time>2026-04-04T12:34:54.601Z</time></trkpt><trkpt lat="45.0764499" lon="7.2511337"><ele>1548.2857142857144</ele><time>2026-04-04T12:35:07.566Z</time></trkpt><trkpt lat="45.0764989" lon="7.2511945"><ele>1542.0</ele><time>2026-04-04T12:35:21.595Z</time></trkpt><trkpt lat="45.0765062" lon="7.2512942"><ele>1542.0</ele><time>2026-04-04T12:35:27.547Z</time></trkpt><trkpt lat="45.0764991" lon="7.2513901"><ele>1542.0</ele><time>2026-04-04T12:35:36.58Z</time></trkpt><trkpt lat="45.0765437" lon="7.2515211"><ele>1542.0</ele><time>2026-04-04T12:36:46.509Z</time></trkpt><trkpt lat="45.0765801" lon="7.2516006"><ele>1542.0</ele><time>2026-04-04T12:36:54.586Z</time></trkpt><trkpt lat="45.0765859" lon="7.2516904"><ele>1542.0</ele><time>2026-04-04T12:37:01.5Z</time></trkpt><trkpt lat="45.0765902" lon="7.2517797"><ele>1542.0</ele><time>2026-04-04T12:37:10.527Z</time></trkpt><trkpt lat="45.0766064" lon="7.2518718"><ele>1542.0</ele><time>2026-04-04T12:37:21.444Z</time></trkpt><trkpt lat="45.0766169" lon="7.2519621"><ele>1548.142857142857</ele><time>2026-04-04T12:37:32.526Z</time></trkpt><trkpt lat="45.0766189" lon="7.2520537"><ele>1554.2857142857142</ele><time>2026-04-04T12:37:41.441Z</time></trkpt><trkpt lat="45.0766225" lon="7.2521559"><ele>1560.4285714285713</ele><time>2026-04-04T12:37:50.591Z</time></trkpt><trkpt lat="45.076653" lon="7.2522404"><ele>1566.5714285714284</ele><time>2026-04-04T12:37:58.541Z</time></trkpt><trkpt lat="45.076666" lon="7.2523341"><ele>1572.7142857142858</ele><time>2026-04-04T12:38:06.533Z</time></trkpt><trkpt lat="45.076683" lon="7.2524245"><ele>1578.8571428571427</ele><time>2026-04-04T12:38:14.504Z</time></trkpt><trkpt lat="45.0767153" lon="7.2525121"><ele>1585.0</ele><time>2026-04-04T12:38:23.537Z</time></trkpt><trkpt lat="45.0767381" lon="7.252601"><ele>1584.9999999999998</ele><time>2026-04-04T12:38:32.444Z</time></trkpt><trkpt lat="45.0767426" lon="7.2526968"><ele>1585.0</ele><time>2026-04-04T12:38:44.579Z</time></trkpt><trkpt lat="45.0767734" lon="7.2527785"><ele>1585.0</ele><time>2026-04-04T12:38:57.544Z</time></trkpt><trkpt lat="45.0767936" lon="7.2528693"><ele>1585.0</ele><time>2026-04-04T12:39:10.579Z</time></trkpt><trkpt lat="45.0768131" lon="7.2529542"><ele>1585.0</ele><time>2026-04-04T12:39:25.599Z</time></trkpt><trkpt lat="45.076859" lon="7.2530195"><ele>1584.9999999999998</ele><time>2026-04-04T12:39:40.584Z</time></trkpt><trkpt lat="45.0768928" lon="7.2531022"><ele>1585.0</ele><time>2026-04-04T12:39:55.581Z</time></trkpt><trkpt lat="45.0769306" lon="7.2532086"><ele>1581.4285714285713</ele><time>2026-04-04T12:40:18.524Z</time></trkpt><trkpt lat="45.0769341" lon="7.2533098"><ele>1577.857142857143</ele><time>2026-04-04T12:40:39.566Z</time></trkpt><trkpt lat="45.0769254" lon="7.2534581"><ele>1574.2857142857142</ele><time>2026-04-04T12:41:07.581Z</time></trkpt><trkpt lat="45.0769465" lon="7.253545"><ele>1570.7142857142858</ele><time>2026-04-04T12:41:16.549Z</time></trkpt><trkpt lat="45.0769909" lon="7.2536167"><ele>1567.142857142857</ele><time>2026-04-04T12:41:25.583Z</time></trkpt><trkpt lat="45.0769788" lon="7.2537122"><ele>1563.5714285714284</ele><time>2026-04-04T12:41:40.568Z</time></trkpt><trkpt lat="45.07702" lon="7.2537813"><ele>1560.0</ele><time>2026-04-04T12:41:48.538Z</time></trkpt><trkpt lat="45.0770076" lon="7.2538733"><ele>1558.7142857142858</ele><time>2026-04-04T12:41:57.57Z</time></trkpt><trkpt lat="45.077013" lon="7.2539636"><ele>1557.4285714285713</ele><time>2026-04-04T12:42:06.622Z</time></trkpt><trkpt lat="45.0770106" lon="7.2540629"><ele>1556.1428571428573</ele><time>2026-04-04T12:42:15.532Z</time></trkpt><trkpt lat="45.0769784" lon="7.2541405"><ele>1554.857142857143</ele><time>2026-04-04T12:42:22.601Z</time></trkpt><trkpt lat="45.0769611" lon="7.2542341"><ele>1553.5714285714287</ele><time>2026-04-04T12:42:31.561Z</time></trkpt><trkpt lat="45.076948" lon="7.2543271"><ele>1552.2857142857144</ele><time>2026-04-04T12:42:40.506Z</time></trkpt><trkpt lat="45.0769349" lon="7.2544145"><ele>1551.0</ele><time>2026-04-04T12:42:51.558Z</time></trkpt><trkpt lat="45.0769058" lon="7.2544955"><ele>1551.0000000000002</ele><time>2026-04-04T12:43:04.523Z</time></trkpt><trkpt lat="45.0769004" lon="7.2545859"><ele>1551.0</ele><time>2026-04-04T12:43:14.512Z</time></trkpt><trkpt lat="45.0768822" lon="7.2546763"><ele>1551.0</ele><time>2026-04-04T12:43:29.604Z</time></trkpt><trkpt lat="45.0768618" lon="7.2547665"><ele>1551.0</ele><time>2026-04-04T12:43:53.515Z</time></trkpt><trkpt lat="45.0768602" lon="7.2548661"><ele>1551.0</ele><time>2026-04-04T12:44:04.567Z</time></trkpt><trkpt lat="45.0768215" lon="7.2549534"><ele>1551.0000000000002</ele><time>2026-04-04T12:44:16.576Z</time></trkpt><trkpt lat="45.076781" lon="7.2550241"><ele>1551.0</ele><time>2026-04-04T12:44:26.565Z</time></trkpt><trkpt lat="45.0767359" lon="7.2550984"><ele>1550.7142857142858</ele><time>2026-04-04T12:44:38.574Z</time></trkpt><trkpt lat="45.0767128" lon="7.2551861"><ele>1550.4285714285716</ele><time>2026-04-04T12:44:49.52Z</time></trkpt><trkpt lat="45.0767125" lon="7.2552771"><ele>1550.1428571428573</ele><time>2026-04-04T12:44:56.534Z</time></trkpt><trkpt lat="45.0766928" lon="7.2553628"><ele>1549.857142857143</ele><time>2026-04-04T12:45:06.523Z</time></trkpt><trkpt lat="45.0766602" lon="7.2554475"><ele>1549.5714285714284</ele><time>2026-04-04T12:45:21.615Z</time></trkpt><trkpt lat="45.0766578" lon="7.2555518"><ele>1549.2857142857144</ele><time>2026-04-04T12:45:30.542Z</time></trkpt><trkpt lat="45.0766908" lon="7.2556368"><ele>1549.0</ele><time>2026-04-04T12:45:38.512Z</time></trkpt><trkpt lat="45.0767746" lon="7.2557769"><ele>1547.5714285714287</ele><time>2026-04-04T12:45:59.522Z</time></trkpt><trkpt lat="45.0768048" lon="7.2558638"><ele>1546.142857142857</ele><time>2026-04-04T12:46:10.504Z</time></trkpt><trkpt lat="45.0768515" lon="7.2559307"><ele>1544.7142857142858</ele><time>2026-04-04T12:46:20.596Z</time></trkpt><trkpt lat="45.0768827" lon="7.2560355"><ele>1543.2857142857142</ele><time>2026-04-04T12:46:54.504Z</time></trkpt><trkpt lat="45.0768981" lon="7.2561257"><ele>1541.8571428571427</ele><time>2026-04-04T12:47:02.573Z</time></trkpt><trkpt lat="45.0769336" lon="7.2562064"><ele>1540.4285714285713</ele><time>2026-04-04T12:47:11.499Z</time></trkpt><trkpt lat="45.0769853" lon="7.2562727"><ele>1539.0</ele><time>2026-04-04T12:47:22.553Z</time></trkpt><trkpt lat="45.0770019" lon="7.2563762"><ele>1539.0</ele><time>2026-04-04T12:47:31.587Z</time></trkpt><trkpt lat="45.0770532" lon="7.2564345"><ele>1539.0</ele><time>2026-04-04T12:47:39.622Z</time></trkpt><trkpt lat="45.0770915" lon="7.2565158"><ele>1539.0</ele><time>2026-04-04T12:47:50.503Z</time></trkpt><trkpt lat="45.0771434" lon="7.2565787"><ele>1539.0</ele><time>2026-04-04T12:47:59.536Z</time></trkpt><trkpt lat="45.0771733" lon="7.2566574"><ele>1539.0</ele><time>2026-04-04T12:48:09.536Z</time></trkpt><trkpt lat="45.0771922" lon="7.2567469"><ele>1539.0</ele><time>2026-04-04T12:48:19.515Z</time></trkpt><trkpt lat="45.0772056" lon="7.2568736"><ele>1539.0</ele><time>2026-04-04T12:48:44.597Z</time></trkpt><trkpt lat="45.0772338" lon="7.256956"><ele>1534.5714285714284</ele><time>2026-04-04T12:48:50.548Z</time></trkpt><trkpt lat="45.0772615" lon="7.2570462"><ele>1530.142857142857</ele><time>2026-04-04T12:49:03.513Z</time></trkpt><trkpt lat="45.0773014" lon="7.2571271"><ele>1525.7142857142858</ele><time>2026-04-04T12:49:10.526Z</time></trkpt><trkpt lat="45.0772958" lon="7.2572347"><ele>1521.2857142857142</ele><time>2026-04-04T12:49:35.607Z</time></trkpt><trkpt lat="45.0772461" lon="7.2572936"><ele>1516.857142857143</ele><time>2026-04-04T12:49:44.534Z</time></trkpt><trkpt lat="45.0772569" lon="7.2574008"><ele>1512.4285714285713</ele><time>2026-04-04T12:50:03.556Z</time></trkpt><trkpt lat="45.0772687" lon="7.2574899"><ele>1508.0</ele><time>2026-04-04T12:50:09.482Z</time></trkpt><trkpt lat="45.0772722" lon="7.2575792"><ele>1508.7142857142856</ele><time>2026-04-04T12:50:20.56Z</time></trkpt><trkpt lat="45.0772849" lon="7.2576699"><ele>1509.4285714285713</ele><time>2026-04-04T12:50:50.22Z</time></trkpt><trkpt lat="45.0773169" lon="7.2577476"><ele>1510.142857142857</ele><time>2026-04-04T12:50:54.565Z</time></trkpt><trkpt lat="45.0773601" lon="7.2578173"><ele>1510.8571428571427</ele><time>2026-04-04T12:51:01.58Z</time></trkpt><trkpt lat="45.0773981" lon="7.2579235"><ele>1511.5714285714287</ele><time>2026-04-04T12:51:25.505Z</time></trkpt><trkpt lat="45.0774192" lon="7.258016"><ele>1512.2857142857142</ele><time>2026-04-04T12:51:32.611Z</time></trkpt><trkpt lat="45.0774561" lon="7.2581023"><ele>1513.0</ele><time>2026-04-04T12:51:51.527Z</time></trkpt><trkpt lat="45.0774836" lon="7.2581975"><ele>1509.857142857143</ele><time>2026-04-04T12:52:00.559Z</time></trkpt><trkpt lat="45.0775144" lon="7.2582783"><ele>1506.7142857142858</ele><time>2026-04-04T12:52:08.499Z</time></trkpt><trkpt lat="45.0775637" lon="7.2583456"><ele>1503.5714285714284</ele><time>2026-04-04T12:52:20.52Z</time></trkpt><trkpt lat="45.0775877" lon="7.2584411"><ele>1500.4285714285716</ele><time>2026-04-04T12:52:32.547Z</time></trkpt><trkpt lat="45.0776023" lon="7.2585327"><ele>1497.2857142857142</ele><time>2026-04-04T12:52:42.535Z</time></trkpt><trkpt lat="45.0775965" lon="7.2586245"><ele>1494.142857142857</ele><time>2026-04-04T12:53:03.576Z</time></trkpt><trkpt lat="45.0775947" lon="7.258715"><ele>1491.0</ele><time>2026-04-04T12:53:12.505Z</time></trkpt><trkpt lat="45.077589" lon="7.2588237"><ele>1491.0</ele><time>2026-04-04T12:53:27.6Z</time></trkpt><trkpt lat="45.0776091" lon="7.2589172"><ele>1491.0</ele><time>2026-04-04T12:53:34.607Z</time></trkpt><trkpt lat="45.0776242" lon="7.2590166"><ele>1491.0</ele><time>2026-04-04T12:53:43.534Z</time></trkpt><trkpt lat="45.0776396" lon="7.2591114"><ele>1491.0</ele><time>2026-04-04T12:53:52.567Z</time></trkpt><trkpt lat="45.0776778" lon="7.2591838"><ele>1491.0</ele><time>2026-04-04T12:54:00.537Z</time></trkpt><trkpt lat="45.0776936" lon="7.259272"><ele>1491.0</ele><time>2026-04-04T12:54:08.539Z</time></trkpt><trkpt lat="45.0777074" lon="7.2593731"><ele>1491.0</ele><time>2026-04-04T12:54:16.583Z</time></trkpt><trkpt lat="45.0777233" lon="7.2595309"><ele>1488.857142857143</ele><time>2026-04-04T12:54:32.524Z</time></trkpt><trkpt lat="45.0777192" lon="7.2596232"><ele>1486.7142857142858</ele><time>2026-04-04T12:54:40.578Z</time></trkpt><trkpt lat="45.077722" lon="7.259723"><ele>1484.5714285714284</ele><time>2026-04-04T12:54:51.546Z</time></trkpt><trkpt lat="45.077735" lon="7.2598125"><ele>1482.4285714285716</ele><time>2026-04-04T12:54:57.506Z</time></trkpt><trkpt lat="45.0777337" lon="7.2599107"><ele>1480.2857142857142</ele><time>2026-04-04T12:55:06.53Z</time></trkpt><trkpt lat="45.0777239" lon="7.2599995"><ele>1478.142857142857</ele><time>2026-04-04T12:55:16.519Z</time></trkpt><trkpt lat="45.0777005" lon="7.2601197"><ele>1476.0</ele><time>2026-04-04T12:55:27.502Z</time></trkpt><trkpt lat="45.0776959" lon="7.2602097"><ele>1474.7142857142858</ele><time>2026-04-04T12:55:35.542Z</time></trkpt><trkpt lat="45.0777281" lon="7.2602874"><ele>1473.4285714285713</ele><time>2026-04-04T12:55:45.531Z</time></trkpt><trkpt lat="45.0777134" lon="7.2603852"><ele>1472.1428571428573</ele><time>2026-04-04T12:55:55.519Z</time></trkpt><trkpt lat="45.0776901" lon="7.2604734"><ele>1470.857142857143</ele><time>2026-04-04T12:56:01.521Z</time></trkpt><trkpt lat="45.0776818" lon="7.2605665"><ele>1469.5714285714287</ele><time>2026-04-04T12:56:08.439Z</time></trkpt><trkpt lat="45.0776847" lon="7.2606621"><ele>1468.2857142857144</ele><time>2026-04-04T12:56:17.518Z</time></trkpt><trkpt lat="45.0776796" lon="7.2607591"><ele>1467.0</ele><time>2026-04-04T12:56:28.443Z</time></trkpt><trkpt lat="45.077666" lon="7.2608522"><ele>1466.7142857142858</ele><time>2026-04-04T12:56:35.584Z</time></trkpt><trkpt lat="45.0776615" lon="7.26095"><ele>1466.4285714285716</ele><time>2026-04-04T12:56:43.554Z</time></trkpt><trkpt lat="45.0776478" lon="7.2610381"><ele>1466.1428571428573</ele><time>2026-04-04T12:56:50.567Z</time></trkpt><trkpt lat="45.0776341" lon="7.2611273"><ele>1465.857142857143</ele><time>2026-04-04T12:56:56.54Z</time></trkpt><trkpt lat="45.0776123" lon="7.2612184"><ele>1465.5714285714284</ele><time>2026-04-04T12:57:06.508Z</time></trkpt><trkpt lat="45.0776016" lon="7.2613156"><ele>1465.2857142857144</ele><time>2026-04-04T12:57:14.584Z</time></trkpt><trkpt lat="45.0775719" lon="7.2614062"><ele>1465.0</ele><time>2026-04-04T12:57:22.555Z</time></trkpt><trkpt lat="45.0775381" lon="7.2614822"><ele>1464.7142857142858</ele><time>2026-04-04T12:57:32.544Z</time></trkpt><trkpt lat="45.0775214" lon="7.2615748"><ele>1464.4285714285713</ele><time>2026-04-04T12:57:38.6Z</time></trkpt><trkpt lat="45.0774874" lon="7.2616581"><ele>1464.142857142857</ele><time>2026-04-04T12:57:47.528Z</time></trkpt><trkpt lat="45.0774744" lon="7.2617494"><ele>1463.857142857143</ele><time>2026-04-04T12:57:56.56Z</time></trkpt><trkpt lat="45.0774782" lon="7.2618412"><ele>1463.5714285714284</ele><time>2026-04-04T12:58:02.513Z</time></trkpt><trkpt lat="45.0774778" lon="7.2619326"><ele>1463.2857142857142</ele><time>2026-04-04T12:58:11.546Z</time></trkpt><trkpt lat="45.0774695" lon="7.262033"><ele>1463.0</ele><time>2026-04-04T12:58:19.58Z</time></trkpt><trkpt lat="45.0774462" lon="7.2621244"><ele>1459.7142857142858</ele><time>2026-04-04T12:58:27.592Z</time></trkpt><trkpt lat="45.0774353" lon="7.2622126"><ele>1456.4285714285716</ele><time>2026-04-04T12:58:36.503Z</time></trkpt><trkpt lat="45.0773926" lon="7.2622904"><ele>1453.142857142857</ele><time>2026-04-04T12:58:45.551Z</time></trkpt><trkpt lat="45.0773562" lon="7.2623656"><ele>1449.857142857143</ele><time>2026-04-04T12:58:53.522Z</time></trkpt><trkpt lat="45.0773364" lon="7.2624591"><ele>1446.5714285714287</ele><time>2026-04-04T12:59:01.5Z</time></trkpt><trkpt lat="45.0773295" lon="7.2625564"><ele>1443.2857142857142</ele><time>2026-04-04T12:59:08.506Z</time></trkpt><trkpt lat="45.0773125" lon="7.2626468"><ele>1440.0</ele><time>2026-04-04T12:59:16.583Z</time></trkpt><trkpt lat="45.0772852" lon="7.262737"><ele>1440.0</ele><time>2026-04-04T12:59:26.573Z</time></trkpt><trkpt lat="45.0772514" lon="7.2628151"><ele>1440.0</ele><time>2026-04-04T12:59:33.481Z</time></trkpt><trkpt lat="45.0772267" lon="7.2629058"><ele>1440.0</ele><time>2026-04-04T12:59:42.513Z</time></trkpt><trkpt lat="45.077193" lon="7.2629826"><ele>1440.0</ele><time>2026-04-04T12:59:49.527Z</time></trkpt><trkpt lat="45.0771556" lon="7.2630612"><ele>1440.0</ele><time>2026-04-04T12:59:58.42Z</time></trkpt><trkpt lat="45.0771451" lon="7.2631501"><ele>1440.0</ele><time>2026-04-04T13:00:04.511Z</time></trkpt><trkpt lat="45.0771107" lon="7.2632304"><ele>1440.0</ele><time>2026-04-04T13:00:12.588Z</time></trkpt><trkpt lat="45.0770739" lon="7.2633079"><ele>1442.2857142857142</ele><time>2026-04-04T13:00:20.558Z</time></trkpt><trkpt lat="45.0770446" lon="7.2633955"><ele>1444.5714285714287</ele><time>2026-04-04T13:00:29.591Z</time></trkpt><trkpt lat="45.0770121" lon="7.2634804"><ele>1446.857142857143</ele><time>2026-04-04T13:00:37.558Z</time></trkpt><trkpt lat="45.076976" lon="7.2635649"><ele>1449.142857142857</ele><time>2026-04-04T13:00:46.594Z</time></trkpt><trkpt lat="45.076951" lon="7.2636503"><ele>1451.4285714285716</ele><time>2026-04-04T13:00:53.607Z</time></trkpt><trkpt lat="45.0769088" lon="7.2637309"><ele>1453.7142857142858</ele><time>2026-04-04T13:00:59.56Z</time></trkpt><trkpt lat="45.0768773" lon="7.2638127"><ele>1456.0</ele><time>2026-04-04T13:01:07.599Z</time></trkpt><trkpt lat="45.0768446" lon="7.2638889"><ele>1456.0</ele><time>2026-04-04T13:01:15.48Z</time></trkpt><trkpt lat="45.0768085" lon="7.2639632"><ele>1456.0</ele><time>2026-04-04T13:01:21.558Z</time></trkpt><trkpt lat="45.0767592" lon="7.264038"><ele>1456.0</ele><time>2026-04-04T13:01:28.572Z</time></trkpt><trkpt lat="45.076724" lon="7.2641192"><ele>1456.0</ele><time>2026-04-04T13:01:34.523Z</time></trkpt><trkpt lat="45.0766945" lon="7.2642015"><ele>1456.0</ele><time>2026-04-04T13:01:41.601Z</time></trkpt><trkpt lat="45.0766818" lon="7.2642951"><ele>1456.0</ele><time>2026-04-04T13:01:49.508Z</time></trkpt><trkpt lat="45.0766864" lon="7.2643883"><ele>1456.0</ele><time>2026-04-04T13:01:56.522Z</time></trkpt><trkpt lat="45.076668" lon="7.2644853"><ele>1456.0</ele><time>2026-04-04T13:02:03.535Z</time></trkpt><trkpt lat="45.0766483" lon="7.2645711"><ele>1456.0</ele><time>2026-04-04T13:02:10.55Z</time></trkpt><trkpt lat="45.0766266" lon="7.2646686"><ele>1456.0</ele><time>2026-04-04T13:02:17.599Z</time></trkpt><trkpt lat="45.0766225" lon="7.26477"><ele>1456.0</ele><time>2026-04-04T13:02:25.535Z</time></trkpt><trkpt lat="45.0766156" lon="7.2648622"><ele>1456.0</ele><time>2026-04-04T13:02:33.502Z</time></trkpt><trkpt lat="45.0766139" lon="7.2649625"><ele>1456.0</ele><time>2026-04-04T13:02:42.538Z</time></trkpt><trkpt lat="45.0765852" lon="7.265045"><ele>1456.0</ele><time>2026-04-04T13:02:50.508Z</time></trkpt><trkpt lat="45.0765843" lon="7.2651411"><ele>1450.7142857142858</ele><time>2026-04-04T13:02:59.542Z</time></trkpt><trkpt lat="45.0765746" lon="7.2652341"><ele>1445.4285714285716</ele><time>2026-04-04T13:03:06.555Z</time></trkpt><trkpt lat="45.0765549" lon="7.2653232"><ele>1440.142857142857</ele><time>2026-04-04T13:03:12.507Z</time></trkpt><trkpt lat="45.0765333" lon="7.2654124"><ele>1434.857142857143</ele><time>2026-04-04T13:03:21.619Z</time></trkpt><trkpt lat="45.076511" lon="7.265505"><ele>1429.5714285714287</ele><time>2026-04-04T13:03:30.574Z</time></trkpt><trkpt lat="45.0764738" lon="7.2655778"><ele>1424.2857142857142</ele><time>2026-04-04T13:03:37.587Z</time></trkpt><trkpt lat="45.0764521" lon="7.2656698"><ele>1419.0</ele><time>2026-04-04T13:03:46.515Z</time></trkpt><trkpt lat="45.0764347" lon="7.2657596"><ele>1418.5</ele><time>2026-04-04T13:03:54.59Z</time></trkpt><trkpt lat="45.0764026" lon="7.2658391"><ele>1418.0</ele><time>2026-04-04T13:04:04.58Z</time></trkpt><trkpt lat="45.0763917" lon="7.2659556"><ele>1417.5</ele><time>2026-04-04T13:04:19.565Z</time></trkpt><trkpt lat="45.0763918" lon="7.266061"><ele>1417.0</ele><time>2026-04-04T13:04:26.58Z</time></trkpt><trkpt lat="45.0763903" lon="7.2661579"><ele>1416.5</ele><time>2026-04-04T13:04:33.594Z</time></trkpt><trkpt lat="45.0763344" lon="7.2663378"><ele>1416.0</ele><time>2026-04-04T13:05:04.561Z</time></trkpt><trkpt lat="45.0762914" lon="7.2664122"><ele>1415.5714285714287</ele><time>2026-04-04T13:05:12.596Z</time></trkpt><trkpt lat="45.0762924" lon="7.2665051"><ele>1415.142857142857</ele><time>2026-04-04T13:05:22.585Z</time></trkpt><trkpt lat="45.0763049" lon="7.2665963"><ele>1414.7142857142858</ele><time>2026-04-04T13:05:30.557Z</time></trkpt><trkpt lat="45.0763206" lon="7.2666932"><ele>1414.2857142857142</ele><time>2026-04-04T13:05:40.546Z</time></trkpt><trkpt lat="45.0763133" lon="7.266783"><ele>1413.857142857143</ele><time>2026-04-04T13:05:50.536Z</time></trkpt><trkpt lat="45.0763072" lon="7.2668737"><ele>1413.4285714285713</ele><time>2026-04-04T13:05:58.508Z</time></trkpt><trkpt lat="45.0762625" lon="7.266756"><ele>1413.0</ele><time>2026-04-04T13:06:29.539Z</time></trkpt><trkpt lat="45.0762474" lon="7.2666645"><ele>1413.0</ele><time>2026-04-04T13:06:39.527Z</time></trkpt><trkpt lat="45.0762148" lon="7.2665716"><ele>1413.0</ele><time>2026-04-04T13:06:48.562Z</time></trkpt><trkpt lat="45.0761663" lon="7.2664986"><ele>1413.0</ele><time>2026-04-04T13:06:55.576Z</time></trkpt><trkpt lat="45.0761403" lon="7.266412"><ele>1413.0</ele><time>2026-04-04T13:07:03.547Z</time></trkpt><trkpt lat="45.076102" lon="7.2663357"><ele>1413.0</ele><time>2026-04-04T13:07:15.556Z</time></trkpt><trkpt lat="45.0760844" lon="7.2662421"><ele>1413.0</ele><time>2026-04-04T13:07:24.589Z</time></trkpt><trkpt lat="45.0761078" lon="7.2661576"><ele>1413.0</ele><time>2026-04-04T13:07:39.574Z</time></trkpt><trkpt lat="45.0760455" lon="7.2661211"><ele>1413.0</ele><time>2026-04-04T13:07:51.583Z</time></trkpt><trkpt lat="45.0759967" lon="7.2662032"><ele>1413.0</ele><time>2026-04-04T13:08:14.539Z</time></trkpt><trkpt lat="45.0759983" lon="7.266319"><ele>1413.0</ele><time>2026-04-04T13:10:24.62Z</time></trkpt><trkpt lat="45.0759872" lon="7.2664069"><ele>1413.0</ele><time>2026-04-04T13:10:30.601Z</time></trkpt><trkpt lat="45.0759806" lon="7.2665008"><ele>1413.0</ele><time>2026-04-04T13:10:40.517Z</time></trkpt><trkpt lat="45.076036" lon="7.2666107"><ele>1413.0</ele><time>2026-04-04T13:10:58.521Z</time></trkpt><trkpt lat="45.076062" lon="7.2667028"><ele>1413.0</ele><time>2026-04-04T13:11:06.597Z</time></trkpt><trkpt lat="45.0760842" lon="7.2667972"><ele>1413.0</ele><time>2026-04-04T13:11:13.508Z</time></trkpt><trkpt lat="45.0760937" lon="7.2668905"><ele>1413.0</ele><time>2026-04-04T13:11:22.538Z</time></trkpt><trkpt lat="45.0760723" lon="7.2669845"><ele>1413.0</ele><time>2026-04-04T13:11:29.552Z</time></trkpt><trkpt lat="45.0761336" lon="7.2669282"><ele>1413.0</ele><time>2026-04-04T13:40:11.51Z</time></trkpt><trkpt lat="45.0761762" lon="7.2670204"><ele>1413.0</ele><time>2026-04-04T13:40:39.573Z</time></trkpt><trkpt lat="45.076197" lon="7.2671085"><ele>1413.0</ele><time>2026-04-04T13:40:45.527Z</time></trkpt><trkpt lat="45.0761887" lon="7.2672023"><ele>1414.2857142857142</ele><time>2026-04-04T13:40:53.502Z</time></trkpt><trkpt lat="45.0761562" lon="7.2672814"><ele>1415.5714285714287</ele><time>2026-04-04T13:41:03.598Z</time></trkpt><trkpt lat="45.0762042" lon="7.2673474"><ele>1416.857142857143</ele><time>2026-04-04T13:42:22.58Z</time></trkpt><trkpt lat="45.0762087" lon="7.2674976"><ele>1418.142857142857</ele><time>2026-04-04T13:43:16.586Z</time></trkpt><trkpt lat="45.0761448" lon="7.2675335"><ele>1419.4285714285713</ele><time>2026-04-04T13:43:27.528Z</time></trkpt><trkpt lat="45.0761409" lon="7.2676283"><ele>1420.7142857142858</ele><time>2026-04-04T13:44:12.599Z</time></trkpt><trkpt lat="45.0760757" lon="7.2676614"><ele>1422.0</ele><time>2026-04-04T13:45:05.535Z</time></trkpt><trkpt lat="45.0760176" lon="7.2677114"><ele>1422.0</ele><time>2026-04-04T13:45:14.57Z</time></trkpt><trkpt lat="45.0759593" lon="7.2677646"><ele>1422.0</ele><time>2026-04-04T13:45:23.607Z</time></trkpt><trkpt lat="45.075908" lon="7.2678264"><ele>1422.0</ele><time>2026-04-04T13:45:29.558Z</time></trkpt><trkpt lat="45.0758703" lon="7.2678985"><ele>1422.0</ele><time>2026-04-04T13:45:35.51Z</time></trkpt><trkpt lat="45.0758539" lon="7.2679936"><ele>1422.0</ele><time>2026-04-04T13:45:42.587Z</time></trkpt><trkpt lat="45.0758062" lon="7.2680554"><ele>1422.0</ele><time>2026-04-04T13:45:49.541Z</time></trkpt><trkpt lat="45.0757445" lon="7.2680964"><ele>1422.0</ele><time>2026-04-04T13:45:56.556Z</time></trkpt><trkpt lat="45.0756818" lon="7.2681336"><ele>1420.2857142857142</ele><time>2026-04-04T13:46:03.571Z</time></trkpt><trkpt lat="45.0756173" lon="7.2681778"><ele>1418.5714285714284</ele><time>2026-04-04T13:46:10.587Z</time></trkpt><trkpt lat="45.0755778" lon="7.2682629"><ele>1416.8571428571427</ele><time>2026-04-04T13:46:18.558Z</time></trkpt><trkpt lat="45.0755319" lon="7.2683281"><ele>1415.142857142857</ele><time>2026-04-04T13:46:24.526Z</time></trkpt><trkpt lat="45.0754887" lon="7.2684114"><ele>1413.4285714285713</ele><time>2026-04-04T13:46:30.569Z</time></trkpt><trkpt lat="45.0754655" lon="7.2685127"><ele>1411.7142857142856</ele><time>2026-04-04T13:46:36.522Z</time></trkpt><trkpt lat="45.0754196" lon="7.2685802"><ele>1410.0</ele><time>2026-04-04T13:46:42.58Z</time></trkpt><trkpt lat="45.0753886" lon="7.2686695"><ele>1409.9999999999998</ele><time>2026-04-04T13:46:48.533Z</time></trkpt><trkpt lat="45.0753344" lon="7.2687264"><ele>1410.0</ele><time>2026-04-04T13:46:54.591Z</time></trkpt><trkpt lat="45.075297" lon="7.268806"><ele>1410.0</ele><time>2026-04-04T13:47:03.52Z</time></trkpt><trkpt lat="45.0752503" lon="7.2688792"><ele>1410.0</ele><time>2026-04-04T13:47:11.466Z</time></trkpt><trkpt lat="45.0752015" lon="7.268945"><ele>1410.0</ele><time>2026-04-04T13:47:19.569Z</time></trkpt><trkpt lat="45.075135" lon="7.2689635"><ele>1409.9999999999998</ele><time>2026-04-04T13:47:26.584Z</time></trkpt><trkpt lat="45.075075" lon="7.2689954"><ele>1410.0</ele><time>2026-04-04T13:47:32.536Z</time></trkpt><trkpt lat="45.0750145" lon="7.2690405"><ele>1410.8571428571427</ele><time>2026-04-04T13:47:39.552Z</time></trkpt><trkpt lat="45.0749558" lon="7.2690928"><ele>1411.7142857142858</ele><time>2026-04-04T13:47:47.524Z</time></trkpt><trkpt lat="45.0748927" lon="7.269132"><ele>1412.5714285714284</ele><time>2026-04-04T13:47:53.545Z</time></trkpt><trkpt lat="45.0748286" lon="7.2691704"><ele>1413.4285714285713</ele><time>2026-04-04T13:48:00.597Z</time></trkpt><trkpt lat="45.0747659" lon="7.2692059"><ele>1414.2857142857142</ele><time>2026-04-04T13:48:07.506Z</time></trkpt><trkpt lat="45.0747023" lon="7.269227"><ele>1415.142857142857</ele><time>2026-04-04T13:48:13.464Z</time></trkpt><trkpt lat="45.074628" lon="7.2692386"><ele>1416.0</ele><time>2026-04-04T13:48:22.599Z</time></trkpt><trkpt lat="45.0745575" lon="7.2692657"><ele>1416.0</ele><time>2026-04-04T13:48:29.508Z</time></trkpt><trkpt lat="45.0744943" lon="7.2692827"><ele>1416.0</ele><time>2026-04-04T13:48:35.566Z</time></trkpt><trkpt lat="45.0744342" lon="7.2693281"><ele>1416.0</ele><time>2026-04-04T13:48:41.505Z</time></trkpt><trkpt lat="45.0743724" lon="7.2693451"><ele>1416.0</ele><time>2026-04-04T13:48:47.577Z</time></trkpt><trkpt lat="45.0743047" lon="7.2693591"><ele>1416.0</ele><time>2026-04-04T13:48:55.549Z</time></trkpt><trkpt lat="45.0742398" lon="7.269378"><ele>1416.0</ele><time>2026-04-04T13:49:02.564Z</time></trkpt><trkpt lat="45.0741723" lon="7.2694062"><ele>1416.0</ele><time>2026-04-04T13:49:10.535Z</time></trkpt><trkpt lat="45.0741106" lon="7.2694262"><ele>1412.857142857143</ele><time>2026-04-04T13:49:17.551Z</time></trkpt><trkpt lat="45.0740433" lon="7.2694601"><ele>1409.7142857142856</ele><time>2026-04-04T13:49:23.542Z</time></trkpt><trkpt lat="45.0739875" lon="7.2695025"><ele>1406.5714285714284</ele><time>2026-04-04T13:49:28.604Z</time></trkpt><trkpt lat="45.0739187" lon="7.2695399"><ele>1403.4285714285716</ele><time>2026-04-04T13:49:34.557Z</time></trkpt><trkpt lat="45.0738513" lon="7.2695711"><ele>1400.2857142857142</ele><time>2026-04-04T13:49:41.571Z</time></trkpt><trkpt lat="45.0737864" lon="7.2696099"><ele>1397.142857142857</ele><time>2026-04-04T13:49:50.585Z</time></trkpt><trkpt lat="45.0737313" lon="7.2696719"><ele>1394.0</ele><time>2026-04-04T13:49:58.604Z</time></trkpt><trkpt lat="45.0736871" lon="7.2697443"><ele>1395.142857142857</ele><time>2026-04-04T13:50:05.594Z</time></trkpt><trkpt lat="45.0736647" lon="7.2698384"><ele>1396.2857142857142</ele><time>2026-04-04T13:50:13.566Z</time></trkpt><trkpt lat="45.0736158" lon="7.269896"><ele>1397.4285714285716</ele><time>2026-04-04T13:50:23.545Z</time></trkpt><trkpt lat="45.0736084" lon="7.2699874"><ele>1398.5714285714284</ele><time>2026-04-04T13:50:30.573Z</time></trkpt><trkpt lat="45.0735919" lon="7.2700785"><ele>1399.7142857142856</ele><time>2026-04-04T13:50:37.546Z</time></trkpt><trkpt lat="45.0735833" lon="7.2701691"><ele>1400.857142857143</ele><time>2026-04-04T13:50:50.555Z</time></trkpt><trkpt lat="45.0735343" lon="7.2702469"><ele>1402.0</ele><time>2026-04-04T13:50:57.542Z</time></trkpt><trkpt lat="45.0734888" lon="7.2703219"><ele>1402.0</ele><time>2026-04-04T13:51:04.422Z</time></trkpt><trkpt lat="45.0734642" lon="7.2704168"><ele>1402.0</ele><time>2026-04-04T13:51:10.537Z</time></trkpt><trkpt lat="45.0734293" lon="7.2704963"><ele>1402.0</ele><time>2026-04-04T13:51:17.553Z</time></trkpt><trkpt lat="45.0733714" lon="7.2705582"><ele>1402.0</ele><time>2026-04-04T13:51:25.525Z</time></trkpt><trkpt lat="45.073347" lon="7.2706527"><ele>1402.0</ele><time>2026-04-04T13:51:31.583Z</time></trkpt><trkpt lat="45.0733358" lon="7.2707509"><ele>1402.0</ele><time>2026-04-04T13:51:38.599Z</time></trkpt><trkpt lat="45.0732771" lon="7.2708135"><ele>1402.0</ele><time>2026-04-04T13:51:46.57Z</time></trkpt><trkpt lat="45.0732182" lon="7.2708616"><ele>1404.2857142857144</ele><time>2026-04-04T13:51:53.544Z</time></trkpt><trkpt lat="45.0731561" lon="7.2709061"><ele>1406.5714285714284</ele><time>2026-04-04T13:52:00.602Z</time></trkpt><trkpt lat="45.0731171" lon="7.2709956"><ele>1408.857142857143</ele><time>2026-04-04T13:52:08.574Z</time></trkpt><trkpt lat="45.0731402" lon="7.2710902"><ele>1411.1428571428573</ele><time>2026-04-04T13:52:15.589Z</time></trkpt><trkpt lat="45.0731892" lon="7.2711568"><ele>1413.4285714285716</ele><time>2026-04-04T13:52:24.517Z</time></trkpt><trkpt lat="45.0732496" lon="7.271213"><ele>1415.7142857142858</ele><time>2026-04-04T13:52:31.532Z</time></trkpt><trkpt lat="45.0733025" lon="7.2712694"><ele>1418.0</ele><time>2026-04-04T13:52:38.547Z</time></trkpt><trkpt lat="45.0733491" lon="7.2713323"><ele>1418.0000000000002</ele><time>2026-04-04T13:52:45.564Z</time></trkpt><trkpt lat="45.0733955" lon="7.2714018"><ele>1418.0</ele><time>2026-04-04T13:52:52.577Z</time></trkpt><trkpt lat="45.0734446" lon="7.2714839"><ele>1418.0</ele><time>2026-04-04T13:52:59.592Z</time></trkpt><trkpt lat="45.0734926" lon="7.2715734"><ele>1418.0</ele><time>2026-04-04T13:53:05.546Z</time></trkpt><trkpt lat="45.0735293" lon="7.2716626"><ele>1418.0</ele><time>2026-04-04T13:53:11.603Z</time></trkpt><trkpt lat="45.073569" lon="7.2717481"><ele>1418.0000000000002</ele><time>2026-04-04T13:53:18.511Z</time></trkpt><trkpt lat="45.0736055" lon="7.2718355"><ele>1418.0</ele><time>2026-04-04T13:53:26.504Z</time></trkpt><trkpt lat="45.0736208" lon="7.2719326"><ele>1417.0000000000002</ele><time>2026-04-04T13:53:33.504Z</time></trkpt><trkpt lat="45.0736165" lon="7.2720289"><ele>1416.0</ele><time>2026-04-04T13:53:40.512Z</time></trkpt><trkpt lat="45.0736233" lon="7.2721221"><ele>1415.0</ele><time>2026-04-04T13:53:46.571Z</time></trkpt><trkpt lat="45.0736342" lon="7.2722155"><ele>1414.0</ele><time>2026-04-04T13:53:53.585Z</time></trkpt><trkpt lat="45.0736729" lon="7.2722897"><ele>1413.0</ele><time>2026-04-04T13:54:00.545Z</time></trkpt><trkpt lat="45.0736759" lon="7.2724146"><ele>1412.0000000000002</ele><time>2026-04-04T13:54:17.504Z</time></trkpt><trkpt lat="45.073677" lon="7.272515"><ele>1411.0</ele><time>2026-04-04T13:54:26.535Z</time></trkpt><trkpt lat="45.0736753" lon="7.2726125"><ele>1407.857142857143</ele><time>2026-04-04T13:54:37.485Z</time></trkpt><trkpt lat="45.0737272" lon="7.2726944"><ele>1404.7142857142858</ele><time>2026-04-04T13:55:04.586Z</time></trkpt><trkpt lat="45.0737712" lon="7.2727698"><ele>1401.5714285714284</ele><time>2026-04-04T13:55:11.503Z</time></trkpt><trkpt lat="45.0738032" lon="7.2728532"><ele>1398.4285714285716</ele><time>2026-04-04T13:55:20.529Z</time></trkpt><trkpt lat="45.0738658" lon="7.2729118"><ele>1395.2857142857142</ele><time>2026-04-04T13:55:27.543Z</time></trkpt><trkpt lat="45.073924" lon="7.2729555"><ele>1392.142857142857</ele><time>2026-04-04T13:55:33.602Z</time></trkpt><trkpt lat="45.0739913" lon="7.2729732"><ele>1389.0</ele><time>2026-04-04T13:55:38.597Z</time></trkpt><trkpt lat="45.0740582" lon="7.2729962"><ele>1392.142857142857</ele><time>2026-04-04T13:55:45.612Z</time></trkpt><trkpt lat="45.0741274" lon="7.2730385"><ele>1395.2857142857142</ele><time>2026-04-04T13:55:51.564Z</time></trkpt><trkpt lat="45.0741837" lon="7.2730982"><ele>1398.4285714285716</ele><time>2026-04-04T13:55:58.579Z</time></trkpt><trkpt lat="45.0742372" lon="7.2731608"><ele>1401.5714285714284</ele><time>2026-04-04T13:56:07.506Z</time></trkpt><trkpt lat="45.074296" lon="7.2731998"><ele>1404.7142857142858</ele><time>2026-04-04T13:56:10.509Z</time></trkpt><trkpt lat="45.0743462" lon="7.2732562"><ele>1407.857142857143</ele><time>2026-04-04T13:56:14.522Z</time></trkpt><trkpt lat="45.0743825" lon="7.2733344"><ele>1411.0</ele><time>2026-04-04T13:56:22.611Z</time></trkpt><trkpt lat="45.0744463" lon="7.273369"><ele>1411.0000000000002</ele><time>2026-04-04T13:56:29.611Z</time></trkpt><trkpt lat="45.074513" lon="7.2733996"><ele>1411.0</ele><time>2026-04-04T13:56:35.565Z</time></trkpt><trkpt lat="45.074558" lon="7.2734733"><ele>1411.0</ele><time>2026-04-04T13:56:43.612Z</time></trkpt><trkpt lat="45.0745661" lon="7.2735655"><ele>1411.0</ele><time>2026-04-04T13:56:50.612Z</time></trkpt><trkpt lat="45.0745634" lon="7.2736593"><ele>1411.0</ele><time>2026-04-04T13:56:55.593Z</time></trkpt><trkpt lat="45.0745635" lon="7.2737573"><ele>1411.0000000000002</ele><time>2026-04-04T13:57:00.543Z</time></trkpt><trkpt lat="45.0745706" lon="7.2738499"><ele>1411.0</ele><time>2026-04-04T13:57:06.601Z</time></trkpt><trkpt lat="45.0745838" lon="7.2739499"><ele>1408.7142857142858</ele><time>2026-04-04T13:57:13.616Z</time></trkpt><trkpt lat="45.0746008" lon="7.2740451"><ele>1406.4285714285716</ele><time>2026-04-04T13:57:21.587Z</time></trkpt><trkpt lat="45.0746298" lon="7.2741306"><ele>1404.1428571428573</ele><time>2026-04-04T13:57:28.501Z</time></trkpt><trkpt lat="45.074638" lon="7.2742254"><ele>1401.857142857143</ele><time>2026-04-04T13:57:36.573Z</time></trkpt><trkpt lat="45.074661" lon="7.2743226"><ele>1399.5714285714284</ele><time>2026-04-04T13:57:43.587Z</time></trkpt><trkpt lat="45.0746951" lon="7.2744188"><ele>1397.2857142857144</ele><time>2026-04-04T13:57:50.602Z</time></trkpt><trkpt lat="45.074708" lon="7.2745077"><ele>1395.0</ele><time>2026-04-04T13:57:55.597Z</time></trkpt><trkpt lat="45.0747247" lon="7.274607"><ele>1395.0</ele><time>2026-04-04T13:58:03.551Z</time></trkpt><trkpt lat="45.0747314" lon="7.2746998"><ele>1395.0</ele><time>2026-04-04T13:58:09.511Z</time></trkpt><trkpt lat="45.0747032" lon="7.2747887"><ele>1395.0</ele><time>2026-04-04T13:58:17.597Z</time></trkpt><trkpt lat="45.0747106" lon="7.2748873"><ele>1395.0</ele><time>2026-04-04T13:58:24.505Z</time></trkpt><trkpt lat="45.0747355" lon="7.2749807"><ele>1395.0</ele><time>2026-04-04T13:58:31.52Z</time></trkpt><trkpt lat="45.0747379" lon="7.2750816"><ele>1395.0</ele><time>2026-04-04T13:58:39.501Z</time></trkpt><trkpt lat="45.0747393" lon="7.2751869"><ele>1395.0</ele><time>2026-04-04T13:58:47.568Z</time></trkpt><trkpt lat="45.0747474" lon="7.2752813"><ele>1393.0</ele><time>2026-04-04T13:58:52.512Z</time></trkpt><trkpt lat="45.0747453" lon="7.2753761"><ele>1391.0</ele><time>2026-04-04T13:58:58.515Z</time></trkpt><trkpt lat="45.0747439" lon="7.2754783"><ele>1389.0</ele><time>2026-04-04T13:59:04.573Z</time></trkpt><trkpt lat="45.0747824" lon="7.2755507"><ele>1387.0</ele><time>2026-04-04T13:59:13.469Z</time></trkpt><trkpt lat="45.0748147" lon="7.2756372"><ele>1385.0</ele><time>2026-04-04T13:59:18.467Z</time></trkpt><trkpt lat="45.0748348" lon="7.2757235"><ele>1383.0</ele><time>2026-04-04T13:59:29.572Z</time></trkpt><trkpt lat="45.0748488" lon="7.2758244"><ele>1381.0</ele><time>2026-04-04T13:59:59.543Z</time></trkpt><trkpt lat="45.0749055" lon="7.2758681"><ele>1384.4285714285716</ele><time>2026-04-04T14:00:04.537Z</time></trkpt><trkpt lat="45.0749674" lon="7.2759102"><ele>1387.8571428571427</ele><time>2026-04-04T14:00:12.587Z</time></trkpt><trkpt lat="45.0750095" lon="7.2759824"><ele>1391.2857142857142</ele><time>2026-04-04T14:00:22.502Z</time></trkpt><trkpt lat="45.0750366" lon="7.2760656"><ele>1394.7142857142858</ele><time>2026-04-04T14:00:29.513Z</time></trkpt><trkpt lat="45.0751053" lon="7.2761088"><ele>1398.1428571428573</ele><time>2026-04-04T14:00:45.561Z</time></trkpt><trkpt lat="45.0751612" lon="7.2761705"><ele>1401.5714285714284</ele><time>2026-04-04T14:00:50.408Z</time></trkpt><trkpt lat="45.0752098" lon="7.2762481"><ele>1405.0</ele><time>2026-04-04T14:00:56.508Z</time></trkpt><trkpt lat="45.0752461" lon="7.2763216"><ele>1405.0</ele><time>2026-04-04T14:01:03.504Z</time></trkpt><trkpt lat="45.0752827" lon="7.2763985"><ele>1405.0</ele><time>2026-04-04T14:01:09.548Z</time></trkpt><trkpt lat="45.0753066" lon="7.2764949"><ele>1405.0</ele><time>2026-04-04T14:01:15.485Z</time></trkpt><trkpt lat="45.0753455" lon="7.2765758"><ele>1405.0</ele><time>2026-04-04T14:01:21.589Z</time></trkpt><trkpt lat="45.0753822" lon="7.2766535"><ele>1405.0</ele><time>2026-04-04T14:01:28.509Z</time></trkpt><trkpt lat="45.0754355" lon="7.276717"><ele>1405.0</ele><time>2026-04-04T14:01:34.554Z</time></trkpt><trkpt lat="45.0754616" lon="7.2768032"><ele>1405.0</ele><time>2026-04-04T14:01:40.506Z</time></trkpt><trkpt lat="45.0754947" lon="7.2768869"><ele>1403.0</ele><time>2026-04-04T14:01:47.521Z</time></trkpt><trkpt lat="45.075536" lon="7.276967"><ele>1401.0</ele><time>2026-04-04T14:01:56.024Z</time></trkpt><trkpt lat="45.0755874" lon="7.2770293"><ele>1399.0</ele><time>2026-04-04T14:02:01.549Z</time></trkpt><trkpt lat="45.0756299" lon="7.2771007"><ele>1397.0</ele><time>2026-04-04T14:02:07.606Z</time></trkpt><trkpt lat="45.0756824" lon="7.2771776"><ele>1395.0</ele><time>2026-04-04T14:02:14.515Z</time></trkpt><trkpt lat="45.0757152" lon="7.2772682"><ele>1393.0</ele><time>2026-04-04T14:02:20.584Z</time></trkpt><trkpt lat="45.0757244" lon="7.2773568"><ele>1391.0</ele><time>2026-04-04T14:02:27.587Z</time></trkpt><trkpt lat="45.0757168" lon="7.2774519"><ele>1389.142857142857</ele><time>2026-04-04T14:02:33.537Z</time></trkpt><trkpt lat="45.0757" lon="7.2775499"><ele>1387.2857142857144</ele><time>2026-04-04T14:02:39.596Z</time></trkpt><trkpt lat="45.0756946" lon="7.2776487"><ele>1385.4285714285716</ele><time>2026-04-04T14:02:46.504Z</time></trkpt><trkpt lat="45.0757038" lon="7.2777521"><ele>1383.5714285714284</ele><time>2026-04-04T14:02:52.523Z</time></trkpt><trkpt lat="45.0757068" lon="7.2778442"><ele>1381.7142857142858</ele><time>2026-04-04T14:02:57.556Z</time></trkpt><trkpt lat="45.0757141" lon="7.277947"><ele>1379.857142857143</ele><time>2026-04-04T14:03:05.527Z</time></trkpt><trkpt lat="45.0757196" lon="7.2780566"><ele>1378.0</ele><time>2026-04-04T14:03:12.542Z</time></trkpt><trkpt lat="45.0757248" lon="7.2781486"><ele>1376.7142857142858</ele><time>2026-04-04T14:03:18.599Z</time></trkpt><trkpt lat="45.0757282" lon="7.2782501"><ele>1375.4285714285716</ele><time>2026-04-04T14:03:25.506Z</time></trkpt><trkpt lat="45.0757563" lon="7.2783362"><ele>1374.1428571428573</ele><time>2026-04-04T14:03:32.522Z</time></trkpt><trkpt lat="45.0757632" lon="7.2784338"><ele>1372.857142857143</ele><time>2026-04-04T14:03:39.106Z</time></trkpt><trkpt lat="45.0757819" lon="7.2785247"><ele>1371.5714285714287</ele><time>2026-04-04T14:03:47.526Z</time></trkpt><trkpt lat="45.0757733" lon="7.2786278"><ele>1370.2857142857144</ele><time>2026-04-04T14:03:54.521Z</time></trkpt><trkpt lat="45.0757791" lon="7.2787308"><ele>1369.0</ele><time>2026-04-04T14:04:01.534Z</time></trkpt><trkpt lat="45.0757857" lon="7.2788245"><ele>1371.1428571428573</ele><time>2026-04-04T14:04:08.548Z</time></trkpt><trkpt lat="45.0758062" lon="7.2789157"><ele>1373.2857142857142</ele><time>2026-04-04T14:04:15.564Z</time></trkpt><trkpt lat="45.0758214" lon="7.279008"><ele>1375.4285714285716</ele><time>2026-04-04T14:04:22.578Z</time></trkpt><trkpt lat="45.0758342" lon="7.2790972"><ele>1377.5714285714287</ele><time>2026-04-04T14:04:28.303Z</time></trkpt><trkpt lat="45.0758488" lon="7.2791853"><ele>1379.7142857142858</ele><time>2026-04-04T14:04:34.587Z</time></trkpt><trkpt lat="45.0758644" lon="7.2792862"><ele>1381.857142857143</ele><time>2026-04-04T14:04:41.495Z</time></trkpt><trkpt lat="45.0758782" lon="7.2793782"><ele>1384.0</ele><time>2026-04-04T14:04:46.596Z</time></trkpt><trkpt lat="45.0758795" lon="7.2794792"><ele>1384.0</ele><time>2026-04-04T14:04:53.504Z</time></trkpt><trkpt lat="45.075882" lon="7.2795695"><ele>1384.0</ele><time>2026-04-04T14:05:01.581Z</time></trkpt><trkpt lat="45.0758842" lon="7.2796676"><ele>1384.0</ele><time>2026-04-04T14:05:09.552Z</time></trkpt><trkpt lat="45.0758455" lon="7.2797561"><ele>1384.0</ele><time>2026-04-04T14:05:18.585Z</time></trkpt><trkpt lat="45.0758462" lon="7.2798486"><ele>1384.0</ele><time>2026-04-04T14:05:30.503Z</time></trkpt><trkpt lat="45.075842" lon="7.2799459"><ele>1384.0</ele><time>2026-04-04T14:05:43.485Z</time></trkpt><trkpt lat="45.0758505" lon="7.28004"><ele>1384.0</ele><time>2026-04-04T14:05:49.531Z</time></trkpt><trkpt lat="45.075856" lon="7.2801333"><ele>1383.0</ele><time>2026-04-04T14:05:56.526Z</time></trkpt><trkpt lat="45.0758613" lon="7.2802344"><ele>1382.0</ele><time>2026-04-04T14:06:03.541Z</time></trkpt><trkpt lat="45.0758507" lon="7.2803358"><ele>1381.0</ele><time>2026-04-04T14:06:09.598Z</time></trkpt><trkpt lat="45.0758612" lon="7.2804262"><ele>1380.0</ele><time>2026-04-04T14:06:17.569Z</time></trkpt><trkpt lat="45.0758801" lon="7.2805148"><ele>1379.0</ele><time>2026-04-04T14:06:25.54Z</time></trkpt><trkpt lat="45.0759117" lon="7.2805929"><ele>1378.0</ele><time>2026-04-04T14:06:33.51Z</time></trkpt><trkpt lat="45.0759087" lon="7.2806829"><ele>1377.0</ele><time>2026-04-04T14:06:48.601Z</time></trkpt><trkpt lat="45.0759108" lon="7.2807753"><ele>1376.4285714285713</ele><time>2026-04-04T14:06:54.553Z</time></trkpt><trkpt lat="45.0759349" lon="7.2808628"><ele>1375.857142857143</ele><time>2026-04-04T14:07:00.61Z</time></trkpt><trkpt lat="45.0759493" lon="7.2809508"><ele>1375.2857142857142</ele><time>2026-04-04T14:07:06.562Z</time></trkpt><trkpt lat="45.0759741" lon="7.2810439"><ele>1374.7142857142858</ele><time>2026-04-04T14:07:12.513Z</time></trkpt><trkpt lat="45.0759966" lon="7.281133"><ele>1374.142857142857</ele><time>2026-04-04T14:07:17.508Z</time></trkpt><trkpt lat="45.075987" lon="7.2812688"><ele>1373.5714285714287</ele><time>2026-04-04T14:07:43.543Z</time></trkpt><trkpt lat="45.0760135" lon="7.2813519"><ele>1373.0</ele><time>2026-04-04T14:07:48.539Z</time></trkpt><trkpt lat="45.0760341" lon="7.2814424"><ele>1372.4285714285716</ele><time>2026-04-04T14:07:53.533Z</time></trkpt><trkpt lat="45.0760517" lon="7.2815362"><ele>1371.857142857143</ele><time>2026-04-04T14:08:02.567Z</time></trkpt><trkpt lat="45.0760787" lon="7.2816197"><ele>1371.2857142857142</ele><time>2026-04-04T14:08:08.518Z</time></trkpt><trkpt lat="45.0761022" lon="7.2817062"><ele>1370.7142857142858</ele><time>2026-04-04T14:08:19.569Z</time></trkpt><trkpt lat="45.0761132" lon="7.2818002"><ele>1370.142857142857</ele><time>2026-04-04T14:08:25.521Z</time></trkpt><trkpt lat="45.0761246" lon="7.2818898"><ele>1369.5714285714287</ele><time>2026-04-04T14:08:30.516Z</time></trkpt><trkpt lat="45.0761415" lon="7.2819868"><ele>1369.0</ele><time>2026-04-04T14:08:36.573Z</time></trkpt><trkpt lat="45.0761733" lon="7.282069"><ele>1369.0000000000002</ele><time>2026-04-04T14:08:44.544Z</time></trkpt><trkpt lat="45.0761763" lon="7.2821697"><ele>1369.0</ele><time>2026-04-04T14:08:52.514Z</time></trkpt><trkpt lat="45.0761864" lon="7.2822586"><ele>1369.0</ele><time>2026-04-04T14:08:58.571Z</time></trkpt><trkpt lat="45.0762029" lon="7.2823451"><ele>1369.0</ele><time>2026-04-04T14:09:03.566Z</time></trkpt><trkpt lat="45.0762503" lon="7.2824133"><ele>1369.0</ele><time>2026-04-04T14:09:09.517Z</time></trkpt><trkpt lat="45.0763111" lon="7.2824459"><ele>1369.0000000000002</ele><time>2026-04-04T14:09:14.512Z</time></trkpt><trkpt lat="45.076381" lon="7.2824347"><ele>1369.0</ele><time>2026-04-04T14:09:21.526Z</time></trkpt><trkpt lat="45.0764538" lon="7.2824443"><ele>1370.1428571428573</ele><time>2026-04-04T14:09:27.583Z</time></trkpt><trkpt lat="45.0765197" lon="7.282452"><ele>1371.2857142857142</ele><time>2026-04-04T14:09:32.577Z</time></trkpt><trkpt lat="45.0765909" lon="7.2824315"><ele>1372.4285714285716</ele><time>2026-04-04T14:09:39.592Z</time></trkpt><trkpt lat="45.0766656" lon="7.2824098"><ele>1373.5714285714287</ele><time>2026-04-04T14:09:44.586Z</time></trkpt><trkpt lat="45.0767398" lon="7.282422"><ele>1374.7142857142858</ele><time>2026-04-04T14:09:51.504Z</time></trkpt><trkpt lat="45.0768004" lon="7.2824718"><ele>1375.857142857143</ele><time>2026-04-04T14:09:57.658Z</time></trkpt><trkpt lat="45.0768509" lon="7.2825448"><ele>1377.0</ele><time>2026-04-04T14:10:03.518Z</time></trkpt><trkpt lat="45.0769138" lon="7.282562"><ele>1377.0</ele><time>2026-04-04T14:10:11.512Z</time></trkpt><trkpt lat="45.076961" lon="7.2826285"><ele>1377.0</ele><time>2026-04-04T14:10:17.569Z</time></trkpt><trkpt lat="45.0770122" lon="7.2826825"><ele>1377.0</ele><time>2026-04-04T14:10:22.522Z</time></trkpt><trkpt lat="45.077065" lon="7.2827429"><ele>1377.0</ele><time>2026-04-04T14:10:29.578Z</time></trkpt><trkpt lat="45.0771194" lon="7.282814"><ele>1377.0</ele><time>2026-04-04T14:10:35.529Z</time></trkpt><trkpt lat="45.0771736" lon="7.2828769"><ele>1377.0</ele><time>2026-04-04T14:10:41.587Z</time></trkpt><trkpt lat="45.0772373" lon="7.2829125"><ele>1377.0</ele><time>2026-04-04T14:10:48.6Z</time></trkpt><trkpt lat="45.0772867" lon="7.2829842"><ele>1377.0</ele><time>2026-04-04T14:10:55.508Z</time></trkpt><trkpt lat="45.0773358" lon="7.2830616"><ele>1377.0</ele><time>2026-04-04T14:11:01.565Z</time></trkpt><trkpt lat="45.0773812" lon="7.2831348"><ele>1377.0</ele><time>2026-04-04T14:11:06.559Z</time></trkpt><trkpt lat="45.077424" lon="7.2832115"><ele>1377.0</ele><time>2026-04-04T14:11:13.574Z</time></trkpt><trkpt lat="45.0774712" lon="7.2832872"><ele>1377.0</ele><time>2026-04-04T14:11:20.588Z</time></trkpt><trkpt lat="45.0775117" lon="7.2833633"><ele>1377.0</ele><time>2026-04-04T14:11:26.539Z</time></trkpt><trkpt lat="45.0775469" lon="7.2834406"><ele>1377.0</ele><time>2026-04-04T14:11:31.533Z</time></trkpt><trkpt lat="45.0775861" lon="7.2835163"><ele>1378.2857142857142</ele><time>2026-04-04T14:11:38.547Z</time></trkpt><trkpt lat="45.0776371" lon="7.2835902"><ele>1379.5714285714287</ele><time>2026-04-04T14:11:44.503Z</time></trkpt><trkpt lat="45.0776691" lon="7.2836719"><ele>1380.857142857143</ele><time>2026-04-04T14:11:49.599Z</time></trkpt><trkpt lat="45.0777175" lon="7.2837492"><ele>1382.142857142857</ele><time>2026-04-04T14:11:56.523Z</time></trkpt><trkpt lat="45.0777397" lon="7.2838364"><ele>1383.4285714285716</ele><time>2026-04-04T14:12:03.58Z</time></trkpt><trkpt lat="45.0777468" lon="7.2839396"><ele>1384.7142857142858</ele><time>2026-04-04T14:12:09.422Z</time></trkpt><trkpt lat="45.0777331" lon="7.2840353"><ele>1386.0</ele><time>2026-04-04T14:12:15.529Z</time></trkpt><trkpt lat="45.0777298" lon="7.2841353"><ele>1383.142857142857</ele><time>2026-04-04T14:12:23.482Z</time></trkpt><trkpt lat="45.0777236" lon="7.2842361"><ele>1380.2857142857142</ele><time>2026-04-04T14:12:29.556Z</time></trkpt><trkpt lat="45.0777119" lon="7.2843288"><ele>1377.4285714285716</ele><time>2026-04-04T14:12:35.508Z</time></trkpt><trkpt lat="45.0777718" lon="7.2844283"><ele>1374.5714285714284</ele><time>2026-04-04T14:12:48.58Z</time></trkpt><trkpt lat="45.0777975" lon="7.284516"><ele>1371.7142857142858</ele><time>2026-04-04T14:12:54.531Z</time></trkpt><trkpt lat="45.0778393" lon="7.2845915"><ele>1368.857142857143</ele><time>2026-04-04T14:13:01.545Z</time></trkpt><trkpt lat="45.0778867" lon="7.2846512"><ele>1366.0</ele><time>2026-04-04T14:13:06.54Z</time></trkpt><trkpt lat="45.0779298" lon="7.284734"><ele>1363.0</ele><time>2026-04-04T14:13:12.503Z</time></trkpt><trkpt lat="45.0779683" lon="7.2848061"><ele>1360.0</ele><time>2026-04-04T14:13:17.592Z</time></trkpt><trkpt lat="45.0779898" lon="7.2849014"><ele>1357.0</ele><time>2026-04-04T14:13:23.543Z</time></trkpt><trkpt lat="45.0780085" lon="7.2849888"><ele>1354.0</ele><time>2026-04-04T14:13:30.557Z</time></trkpt><trkpt lat="45.0780436" lon="7.2850646"><ele>1351.0</ele><time>2026-04-04T14:13:35.552Z</time></trkpt><trkpt lat="45.0780612" lon="7.2851519"><ele>1348.0</ele><time>2026-04-04T14:13:41.503Z</time></trkpt><trkpt lat="45.0781016" lon="7.2852308"><ele>1345.0</ele><time>2026-04-04T14:13:49.774Z</time></trkpt><trkpt lat="45.078149" lon="7.2853124"><ele>1345.0</ele><time>2026-04-04T14:13:57.55Z</time></trkpt><trkpt lat="45.0781866" lon="7.2853888"><ele>1345.0</ele><time>2026-04-04T14:14:01.588Z</time></trkpt><trkpt lat="45.0782147" lon="7.2854711"><ele>1345.0</ele><time>2026-04-04T14:14:07.539Z</time></trkpt><trkpt lat="45.0782679" lon="7.2855279"><ele>1345.0</ele><time>2026-04-04T14:14:16.572Z</time></trkpt><trkpt lat="45.0782993" lon="7.2856074"><ele>1345.0</ele><time>2026-04-04T14:14:24.535Z</time></trkpt><trkpt lat="45.0783039" lon="7.2857047"><ele>1345.0</ele><time>2026-04-04T14:14:31.557Z</time></trkpt><trkpt lat="45.078312" lon="7.2857958"><ele>1345.0</ele><time>2026-04-04T14:14:38.572Z</time></trkpt><trkpt lat="45.078322" lon="7.285884"><ele>1349.5714285714287</ele><time>2026-04-04T14:14:45.585Z</time></trkpt><trkpt lat="45.0783143" lon="7.2859787"><ele>1354.142857142857</ele><time>2026-04-04T14:14:52.599Z</time></trkpt><trkpt lat="45.0783123" lon="7.2860727"><ele>1358.7142857142858</ele><time>2026-04-04T14:14:58.576Z</time></trkpt><trkpt lat="45.0783131" lon="7.2861756"><ele>1363.2857142857142</ele><time>2026-04-04T14:15:04.504Z</time></trkpt><trkpt lat="45.0783225" lon="7.2862767"><ele>1367.857142857143</ele><time>2026-04-04T14:15:10.559Z</time></trkpt><trkpt lat="45.0783358" lon="7.2863644"><ele>1372.4285714285713</ele><time>2026-04-04T14:15:16.51Z</time></trkpt><trkpt lat="45.0783297" lon="7.2864577"><ele>1377.0</ele><time>2026-04-04T14:15:22.567Z</time></trkpt><trkpt lat="45.0783462" lon="7.2865491"><ele>1377.0</ele><time>2026-04-04T14:15:28.519Z</time></trkpt><trkpt lat="45.0783368" lon="7.2866397"><ele>1377.0</ele><time>2026-04-04T14:15:38.508Z</time></trkpt><trkpt lat="45.0783288" lon="7.2867359"><ele>1377.0</ele><time>2026-04-04T14:15:47.541Z</time></trkpt><trkpt lat="45.0783337" lon="7.2868393"><ele>1377.0</ele><time>2026-04-04T14:15:52.536Z</time></trkpt><trkpt lat="45.078372" lon="7.2869116"><ele>1377.0</ele><time>2026-04-04T14:15:57.531Z</time></trkpt><trkpt lat="45.0783955" lon="7.2869973"><ele>1377.0</ele><time>2026-04-04T14:16:03.512Z</time></trkpt><trkpt lat="45.0784065" lon="7.2870852"><ele>1377.0</ele><time>2026-04-04T14:16:10.511Z</time></trkpt><trkpt lat="45.0784157" lon="7.287182"><ele>1375.142857142857</ele><time>2026-04-04T14:16:17.51Z</time></trkpt><trkpt lat="45.078446" lon="7.2872724"><ele>1373.2857142857144</ele><time>2026-04-04T14:16:26.542Z</time></trkpt><trkpt lat="45.0784755" lon="7.287352"><ele>1371.4285714285716</ele><time>2026-04-04T14:16:33.556Z</time></trkpt><trkpt lat="45.0785036" lon="7.2874365"><ele>1369.5714285714284</ele><time>2026-04-04T14:16:38.55Z</time></trkpt><trkpt lat="45.0785447" lon="7.2875348"><ele>1367.7142857142858</ele><time>2026-04-04T14:16:44.774Z</time></trkpt><trkpt lat="45.0785847" lon="7.2876214"><ele>1365.857142857143</ele><time>2026-04-04T14:16:49.595Z</time></trkpt><trkpt lat="45.0786312" lon="7.2877008"><ele>1364.0</ele><time>2026-04-04T14:16:55.554Z</time></trkpt><trkpt lat="45.078676" lon="7.2877882"><ele>1364.0</ele><time>2026-04-04T14:17:01.615Z</time></trkpt><trkpt lat="45.0786891" lon="7.2878791"><ele>1364.0</ele><time>2026-04-04T14:17:08.518Z</time></trkpt><trkpt lat="45.0787015" lon="7.2879728"><ele>1364.0</ele><time>2026-04-04T14:17:14.577Z</time></trkpt><trkpt lat="45.0787232" lon="7.2880618"><ele>1364.0</ele><time>2026-04-04T14:17:21.591Z</time></trkpt><trkpt lat="45.0787591" lon="7.2881394"><ele>1364.0</ele><time>2026-04-04T14:17:26.452Z</time></trkpt><trkpt lat="45.0787867" lon="7.2882249"><ele>1364.0</ele><time>2026-04-04T14:17:34.552Z</time></trkpt><trkpt lat="45.0788191" lon="7.2883016"><ele>1364.0</ele><time>2026-04-04T14:17:40.507Z</time></trkpt><trkpt lat="45.0788622" lon="7.2883709"><ele>1361.6666666666667</ele><time>2026-04-04T14:17:45.556Z</time></trkpt><trkpt lat="45.0789107" lon="7.2884469"><ele>1359.3333333333335</ele><time>2026-04-04T14:17:51.559Z</time></trkpt><trkpt lat="45.0789394" lon="7.2885302"><ele>1357.0</ele><time>2026-04-04T14:17:57.51Z</time></trkpt><trkpt lat="45.0789454" lon="7.2887118"><ele>1354.6666666666667</ele><time>2026-04-04T14:18:27.585Z</time></trkpt><trkpt lat="45.0789261" lon="7.2888023"><ele>1352.3333333333333</ele><time>2026-04-04T14:18:33.572Z</time></trkpt><trkpt lat="45.0789189" lon="7.2888974"><ele>1350.0</ele><time>2026-04-04T14:18:39.494Z</time></trkpt><trkpt lat="45.0789075" lon="7.2889919"><ele>1349.0</ele><time>2026-04-04T14:18:45.545Z</time></trkpt><trkpt lat="45.078894" lon="7.2890833"><ele>1348.0</ele><time>2026-04-04T14:18:51.504Z</time></trkpt><trkpt lat="45.0788747" lon="7.2891796"><ele>1347.0</ele><time>2026-04-04T14:18:57.552Z</time></trkpt><trkpt lat="45.0788621" lon="7.2892746"><ele>1346.0</ele><time>2026-04-04T14:19:04.567Z</time></trkpt><trkpt lat="45.0788449" lon="7.289361"><ele>1345.0</ele><time>2026-04-04T14:19:11.581Z</time></trkpt><trkpt lat="45.0788423" lon="7.2894583"><ele>1344.0</ele><time>2026-04-04T14:19:18.594Z</time></trkpt><trkpt lat="45.0788419" lon="7.2895552"><ele>1343.0</ele><time>2026-04-04T14:19:25.505Z</time></trkpt><trkpt lat="45.0788223" lon="7.2896425"><ele>1343.0</ele><time>2026-04-04T14:19:32.517Z</time></trkpt><trkpt lat="45.0788087" lon="7.2897339"><ele>1343.0</ele><time>2026-04-04T14:19:38.594Z</time></trkpt><trkpt lat="45.078801" lon="7.2898225"><ele>1343.0</ele><time>2026-04-04T14:19:45.474Z</time></trkpt><trkpt lat="45.07882" lon="7.2899105"><ele>1343.0</ele><time>2026-04-04T14:19:52.492Z</time></trkpt><trkpt lat="45.0788094" lon="7.2900055"><ele>1343.0</ele><time>2026-04-04T14:20:00.572Z</time></trkpt><trkpt lat="45.0787951" lon="7.290102"><ele>1343.0</ele><time>2026-04-04T14:20:10.534Z</time></trkpt><trkpt lat="45.0788019" lon="7.2901945"><ele>1343.0</ele><time>2026-04-04T14:20:17.494Z</time></trkpt><trkpt lat="45.078821" lon="7.290286"><ele>1343.4285714285713</ele><time>2026-04-04T14:20:23.533Z</time></trkpt><trkpt lat="45.0788314" lon="7.290377"><ele>1343.857142857143</ele><time>2026-04-04T14:20:29.584Z</time></trkpt><trkpt lat="45.078827" lon="7.2904699"><ele>1344.2857142857142</ele><time>2026-04-04T14:20:34.579Z</time></trkpt><trkpt lat="45.0788174" lon="7.2905701"><ele>1344.7142857142858</ele><time>2026-04-04T14:20:41.593Z</time></trkpt><trkpt lat="45.078816" lon="7.2906649"><ele>1345.142857142857</ele><time>2026-04-04T14:20:47.555Z</time></trkpt><trkpt lat="45.0788201" lon="7.2907542"><ele>1345.5714285714287</ele><time>2026-04-04T14:20:56.496Z</time></trkpt><trkpt lat="45.0788455" lon="7.2908442"><ele>1346.0</ele><time>2026-04-04T14:21:03.056Z</time></trkpt><trkpt lat="45.0788373" lon="7.2909475"><ele>1343.5714285714287</ele><time>2026-04-04T14:21:10.605Z</time></trkpt><trkpt lat="45.0788226" lon="7.2910898"><ele>1341.142857142857</ele><time>2026-04-04T14:21:26.545Z</time></trkpt><trkpt lat="45.0788256" lon="7.2911792"><ele>1338.7142857142858</ele><time>2026-04-04T14:21:32.603Z</time></trkpt><trkpt lat="45.0788086" lon="7.2912782"><ele>1336.2857142857142</ele><time>2026-04-04T14:21:39.51Z</time></trkpt><trkpt lat="45.0787887" lon="7.2913657"><ele>1333.857142857143</ele><time>2026-04-04T14:21:47.587Z</time></trkpt><trkpt lat="45.0787948" lon="7.2914622"><ele>1331.4285714285713</ele><time>2026-04-04T14:22:02.573Z</time></trkpt><trkpt lat="45.0787909" lon="7.2915575"><ele>1329.0</ele><time>2026-04-04T14:22:07.565Z</time></trkpt><trkpt lat="45.0787601" lon="7.2916528"><ele>1329.7142857142858</ele><time>2026-04-04T14:22:14.58Z</time></trkpt><trkpt lat="45.0787308" lon="7.2917555"><ele>1330.4285714285716</ele><time>2026-04-04T14:22:21.593Z</time></trkpt><trkpt lat="45.0787217" lon="7.2918543"><ele>1331.1428571428573</ele><time>2026-04-04T14:22:27.545Z</time></trkpt><trkpt lat="45.078709" lon="7.2919518"><ele>1331.857142857143</ele><time>2026-04-04T14:22:34.558Z</time></trkpt><trkpt lat="45.0786648" lon="7.2920351"><ele>1332.5714285714287</ele><time>2026-04-04T14:22:42.515Z</time></trkpt><trkpt lat="45.0786272" lon="7.2921077"><ele>1333.2857142857144</ele><time>2026-04-04T14:22:48.586Z</time></trkpt><trkpt lat="45.0785956" lon="7.2921995"><ele>1334.0</ele><time>2026-04-04T14:22:55.6Z</time></trkpt><trkpt lat="45.0785852" lon="7.2922907"><ele>1334.0000000000002</ele><time>2026-04-04T14:23:01.551Z</time></trkpt><trkpt lat="45.078572" lon="7.2923829"><ele>1334.0</ele><time>2026-04-04T14:23:07.475Z</time></trkpt><trkpt lat="45.0785531" lon="7.2924721"><ele>1334.0</ele><time>2026-04-04T14:23:13.559Z</time></trkpt><trkpt lat="45.0785071" lon="7.2925419"><ele>1334.0</ele><time>2026-04-04T14:23:20.573Z</time></trkpt><trkpt lat="45.0784871" lon="7.292667"><ele>1334.0</ele><time>2026-04-04T14:23:45.094Z</time></trkpt><trkpt lat="45.0784733" lon="7.2927716"><ele>1334.0000000000002</ele><time>2026-04-04T14:23:48.522Z</time></trkpt><trkpt lat="45.0784599" lon="7.2928602"><ele>1334.0</ele><time>2026-04-04T14:23:54.578Z</time></trkpt><trkpt lat="45.0784293" lon="7.2929402"><ele>1334.0000000000002</ele><time>2026-04-04T14:24:01.593Z</time></trkpt><trkpt lat="45.0784263" lon="7.2930311"><ele>1334.0</ele><time>2026-04-04T14:24:08.504Z</time></trkpt><trkpt lat="45.0784141" lon="7.293133"><ele>1334.0</ele><time>2026-04-04T14:24:14.557Z</time></trkpt><trkpt lat="45.0784" lon="7.2932287"><ele>1334.0</ele><time>2026-04-04T14:24:20.509Z</time></trkpt><trkpt lat="45.0784129" lon="7.2933263"><ele>1334.0</ele><time>2026-04-04T14:24:26.567Z</time></trkpt><trkpt lat="45.0784306" lon="7.2934209"><ele>1334.0000000000002</ele><time>2026-04-04T14:24:32.518Z</time></trkpt><trkpt lat="45.0784434" lon="7.293523"><ele>1334.0</ele><time>2026-04-04T14:24:39.532Z</time></trkpt><trkpt lat="45.0784554" lon="7.2936196"><ele>1334.7142857142858</ele><time>2026-04-04T14:24:45.589Z</time></trkpt><trkpt lat="45.0784564" lon="7.2937205"><ele>1335.4285714285716</ele><time>2026-04-04T14:24:54.035Z</time></trkpt><trkpt lat="45.0784524" lon="7.2938159"><ele>1336.1428571428573</ele><time>2026-04-04T14:25:00.414Z</time></trkpt><trkpt lat="45.0784632" lon="7.2939059"><ele>1336.857142857143</ele><time>2026-04-04T14:25:07.586Z</time></trkpt><trkpt lat="45.0784737" lon="7.2940103"><ele>1337.5714285714284</ele><time>2026-04-04T14:25:13.538Z</time></trkpt><trkpt lat="45.0784887" lon="7.2940997"><ele>1338.2857142857144</ele><time>2026-04-04T14:25:18.533Z</time></trkpt><trkpt lat="45.0785106" lon="7.294188"><ele>1339.0</ele><time>2026-04-04T14:25:25.546Z</time></trkpt><trkpt lat="45.0785411" lon="7.2942715"><ele>1337.5714285714287</ele><time>2026-04-04T14:25:32.561Z</time></trkpt><trkpt lat="45.0785686" lon="7.2943565"><ele>1336.142857142857</ele><time>2026-04-04T14:25:38.511Z</time></trkpt><trkpt lat="45.0785941" lon="7.2944385"><ele>1334.7142857142858</ele><time>2026-04-04T14:25:44.569Z</time></trkpt><trkpt lat="45.0785957" lon="7.2945299"><ele>1333.2857142857142</ele><time>2026-04-04T14:25:51.574Z</time></trkpt><trkpt lat="45.078603" lon="7.2946266"><ele>1331.857142857143</ele><time>2026-04-04T14:25:58.434Z</time></trkpt><trkpt lat="45.078583" lon="7.294719"><ele>1330.4285714285713</ele><time>2026-04-04T14:26:06.567Z</time></trkpt><trkpt lat="45.0785815" lon="7.2948142"><ele>1329.0</ele><time>2026-04-04T14:26:12.517Z</time></trkpt><trkpt lat="45.0785857" lon="7.294917"><ele>1328.0</ele><time>2026-04-04T14:26:19.531Z</time></trkpt><trkpt lat="45.0785914" lon="7.2950148"><ele>1327.0</ele><time>2026-04-04T14:26:26.546Z</time></trkpt><trkpt lat="45.0786102" lon="7.2951115"><ele>1326.0</ele><time>2026-04-04T14:26:31.541Z</time></trkpt><trkpt lat="45.0786272" lon="7.2951993"><ele>1325.0</ele><time>2026-04-04T14:26:38.555Z</time></trkpt><trkpt lat="45.0786515" lon="7.2952886"><ele>1324.0</ele><time>2026-04-04T14:27:01.509Z</time></trkpt><trkpt lat="45.0787093" lon="7.2953494"><ele>1323.0</ele><time>2026-04-04T14:27:06.506Z</time></trkpt><trkpt lat="45.078748" lon="7.2954284"><ele>1322.0</ele><time>2026-04-04T14:27:14.581Z</time></trkpt><trkpt lat="45.0787933" lon="7.2955035"><ele>1322.0</ele><time>2026-04-04T14:27:22.551Z</time></trkpt><trkpt lat="45.0788502" lon="7.2955722"><ele>1322.0</ele><time>2026-04-04T14:27:28.506Z</time></trkpt><trkpt lat="45.0789078" lon="7.2956289"><ele>1322.0</ele><time>2026-04-04T14:27:33.603Z</time></trkpt><trkpt lat="45.0789571" lon="7.2956846"><ele>1322.0</ele><time>2026-04-04T14:27:38.574Z</time></trkpt><trkpt lat="45.0789963" lon="7.2957637"><ele>1322.0</ele><time>2026-04-04T14:27:46.568Z</time></trkpt><trkpt lat="45.0790274" lon="7.295851"><ele>1322.0</ele><time>2026-04-04T14:27:54.538Z</time></trkpt><trkpt lat="45.0790505" lon="7.2959439"><ele>1322.0</ele><time>2026-04-04T14:28:01.572Z</time></trkpt><trkpt lat="45.0790509" lon="7.2960374"><ele>1321.857142857143</ele><time>2026-04-04T14:28:10.586Z</time></trkpt><trkpt lat="45.0790918" lon="7.2961141"><ele>1321.7142857142858</ele><time>2026-04-04T14:28:16.553Z</time></trkpt><trkpt lat="45.0791166" lon="7.2961973"><ele>1321.5714285714284</ele><time>2026-04-04T14:28:21.532Z</time></trkpt><trkpt lat="45.0791266" lon="7.2962897"><ele>1321.4285714285716</ele><time>2026-04-04T14:28:28.314Z</time></trkpt><trkpt lat="45.079153" lon="7.2963815"><ele>1321.2857142857144</ele><time>2026-04-04T14:28:35.814Z</time></trkpt><trkpt lat="45.0791693" lon="7.2964801"><ele>1321.142857142857</ele><time>2026-04-04T14:28:42.572Z</time></trkpt><trkpt lat="45.0792174" lon="7.2965436"><ele>1321.0</ele><time>2026-04-04T14:28:49.587Z</time></trkpt><trkpt lat="45.0792495" lon="7.2966299"><ele>1321.0</ele><time>2026-04-04T14:28:55.538Z</time></trkpt><trkpt lat="45.079256" lon="7.2967195"><ele>1321.0</ele><time>2026-04-04T14:29:03.508Z</time></trkpt><trkpt lat="45.0792671" lon="7.2968191"><ele>1321.0</ele><time>2026-04-04T14:29:12.542Z</time></trkpt><trkpt lat="45.0792971" lon="7.2969139"><ele>1321.0</ele><time>2026-04-04T14:29:19.556Z</time></trkpt><trkpt lat="45.079307" lon="7.2970081"><ele>1321.0</ele><time>2026-04-04T14:29:26.569Z</time></trkpt><trkpt lat="45.0793201" lon="7.2970996"><ele>1321.0</ele><time>2026-04-04T14:29:34.54Z</time></trkpt><trkpt lat="45.0793448" lon="7.297188"><ele>1321.0</ele><time>2026-04-04T14:29:42.51Z</time></trkpt><trkpt lat="45.079346" lon="7.2972891"><ele>1320.142857142857</ele><time>2026-04-04T14:29:49.523Z</time></trkpt><trkpt lat="45.0793492" lon="7.297383"><ele>1319.2857142857144</ele><time>2026-04-04T14:29:55.581Z</time></trkpt><trkpt lat="45.079343" lon="7.2974733"><ele>1318.4285714285716</ele><time>2026-04-04T14:30:01.532Z</time></trkpt><trkpt lat="45.0793435" lon="7.2975824"><ele>1317.5714285714284</ele><time>2026-04-04T14:30:10.431Z</time></trkpt><trkpt lat="45.0793606" lon="7.2976729"><ele>1316.7142857142858</ele><time>2026-04-04T14:30:17.579Z</time></trkpt><trkpt lat="45.0793595" lon="7.2977742"><ele>1315.857142857143</ele><time>2026-04-04T14:30:24.454Z</time></trkpt><trkpt lat="45.0793419" lon="7.2978709"><ele>1315.0</ele><time>2026-04-04T14:30:31.613Z</time></trkpt><trkpt lat="45.0793242" lon="7.2979659"><ele>1315.0</ele><time>2026-04-04T14:30:39.535Z</time></trkpt><trkpt lat="45.0793149" lon="7.2980649"><ele>1315.0</ele><time>2026-04-04T14:30:47.547Z</time></trkpt><trkpt lat="45.0792828" lon="7.2981506"><ele>1315.0</ele><time>2026-04-04T14:30:55.516Z</time></trkpt><trkpt lat="45.0792424" lon="7.2982372"><ele>1315.0</ele><time>2026-04-04T14:31:02.531Z</time></trkpt><trkpt lat="45.0792184" lon="7.2983292"><ele>1315.0</ele><time>2026-04-04T14:31:09.545Z</time></trkpt><trkpt lat="45.0791963" lon="7.2984221"><ele>1315.0</ele><time>2026-04-04T14:31:15.492Z</time></trkpt><trkpt lat="45.0791609" lon="7.2985013"><ele>1315.0</ele><time>2026-04-04T14:31:22.509Z</time></trkpt><trkpt lat="45.0791495" lon="7.2985902"><ele>1314.2857142857142</ele><time>2026-04-04T14:31:28.567Z</time></trkpt><trkpt lat="45.0791412" lon="7.2986949"><ele>1313.5714285714287</ele><time>2026-04-04T14:31:34.517Z</time></trkpt><trkpt lat="45.0791463" lon="7.2987902"><ele>1312.857142857143</ele><time>2026-04-04T14:31:40.574Z</time></trkpt><trkpt lat="45.0791531" lon="7.2988818"><ele>1312.142857142857</ele><time>2026-04-04T14:31:45.894Z</time></trkpt><trkpt lat="45.0791727" lon="7.2989709"><ele>1311.4285714285713</ele><time>2026-04-04T14:31:49.507Z</time></trkpt><trkpt lat="45.0791674" lon="7.2990663"><ele>1310.7142857142858</ele><time>2026-04-04T14:31:54.602Z</time></trkpt><trkpt lat="45.0791492" lon="7.2991672"><ele>1310.0</ele><time>2026-04-04T14:32:00.553Z</time></trkpt><trkpt lat="45.0791371" lon="7.2992639"><ele>1309.5714285714287</ele><time>2026-04-04T14:32:07.567Z</time></trkpt><trkpt lat="45.0791541" lon="7.2993583"><ele>1309.142857142857</ele><time>2026-04-04T14:32:14.58Z</time></trkpt><trkpt lat="45.0791497" lon="7.2994569"><ele>1308.7142857142858</ele><time>2026-04-04T14:32:22.55Z</time></trkpt><trkpt lat="45.0791575" lon="7.2995512"><ele>1308.2857142857142</ele><time>2026-04-04T14:32:28.507Z</time></trkpt><trkpt lat="45.0791758" lon="7.299643"><ele>1307.857142857143</ele><time>2026-04-04T14:32:33.473Z</time></trkpt><trkpt lat="45.079177" lon="7.2997323"><ele>1307.4285714285713</ele><time>2026-04-04T14:32:41.572Z</time></trkpt><trkpt lat="45.0791719" lon="7.2998278"><ele>1307.0</ele><time>2026-04-04T14:32:49.542Z</time></trkpt><trkpt lat="45.0791878" lon="7.2999198"><ele>1306.0</ele><time>2026-04-04T14:32:57.596Z</time></trkpt><trkpt lat="45.0791971" lon="7.3000172"><ele>1305.0</ele><time>2026-04-04T14:33:04.526Z</time></trkpt><trkpt lat="45.0791943" lon="7.3001158"><ele>1304.0</ele><time>2026-04-04T14:33:13.558Z</time></trkpt><trkpt lat="45.0792067" lon="7.300208"><ele>1303.0</ele><time>2026-04-04T14:33:20.572Z</time></trkpt><trkpt lat="45.0792148" lon="7.3002985"><ele>1302.0</ele><time>2026-04-04T14:33:27.585Z</time></trkpt><trkpt lat="45.0791965" lon="7.3003937"><ele>1301.0</ele><time>2026-04-04T14:33:34.515Z</time></trkpt><trkpt lat="45.0791882" lon="7.3004987"><ele>1300.0</ele><time>2026-04-04T14:33:42.29Z</time></trkpt><trkpt lat="45.079229" lon="7.3005925"><ele>1298.142857142857</ele><time>2026-04-04T14:33:52.501Z</time></trkpt><trkpt lat="45.0792395" lon="7.3007424"><ele>1296.2857142857144</ele><time>2026-04-04T14:34:09.501Z</time></trkpt><trkpt lat="45.0792222" lon="7.3008398"><ele>1294.4285714285716</ele><time>2026-04-04T14:34:16.511Z</time></trkpt><trkpt lat="45.0792038" lon="7.3009291"><ele>1292.5714285714284</ele><time>2026-04-04T14:34:23.525Z</time></trkpt><trkpt lat="45.0792195" lon="7.3010186"><ele>1290.7142857142858</ele><time>2026-04-04T14:34:29.583Z</time></trkpt><trkpt lat="45.0792516" lon="7.3011051"><ele>1288.857142857143</ele><time>2026-04-04T14:34:36.501Z</time></trkpt><trkpt lat="45.0792647" lon="7.3011962"><ele>1287.0</ele><time>2026-04-04T14:34:42.548Z</time></trkpt><trkpt lat="45.0792683" lon="7.3012982"><ele>1287.0</ele><time>2026-04-04T14:35:33.557Z</time></trkpt><trkpt lat="45.079304" lon="7.3013819"><ele>1287.0</ele><time>2026-04-04T14:35:40.571Z</time></trkpt><trkpt lat="45.0793247" lon="7.3014731"><ele>1287.0</ele><time>2026-04-04T14:35:47.584Z</time></trkpt><trkpt lat="45.0793307" lon="7.3015714"><ele>1287.0</ele><time>2026-04-04T14:35:53.535Z</time></trkpt><trkpt lat="45.0793097" lon="7.3016606"><ele>1287.0</ele><time>2026-04-04T14:36:02.603Z</time></trkpt><trkpt lat="45.0792652" lon="7.3017373"><ele>1287.0</ele><time>2026-04-04T14:36:09.582Z</time></trkpt><trkpt lat="45.0792243" lon="7.3018135"><ele>1287.0</ele><time>2026-04-04T14:36:16.595Z</time></trkpt><trkpt lat="45.0792114" lon="7.3019064"><ele>1287.7142857142858</ele><time>2026-04-04T14:36:23.503Z</time></trkpt><trkpt lat="45.0791864" lon="7.3019888"><ele>1288.4285714285716</ele><time>2026-04-04T14:36:29.427Z</time></trkpt><trkpt lat="45.0791515" lon="7.3020786"><ele>1289.1428571428573</ele><time>2026-04-04T14:36:34.555Z</time></trkpt><trkpt lat="45.079144" lon="7.3021677"><ele>1289.857142857143</ele><time>2026-04-04T14:36:45.502Z</time></trkpt><trkpt lat="45.0791104" lon="7.3022635"><ele>1290.5714285714287</ele><time>2026-04-04T14:36:53.507Z</time></trkpt><trkpt lat="45.0790643" lon="7.3023403"><ele>1291.2857142857144</ele><time>2026-04-04T14:36:59.587Z</time></trkpt><trkpt lat="45.079034" lon="7.3024196"><ele>1292.0</ele><time>2026-04-04T14:37:06.542Z</time></trkpt><trkpt lat="45.0790235" lon="7.302524"><ele>1293.0000000000002</ele><time>2026-04-04T14:37:14.547Z</time></trkpt><trkpt lat="45.0790064" lon="7.3026224"><ele>1294.0</ele><time>2026-04-04T14:37:21.025Z</time></trkpt><trkpt lat="45.0790282" lon="7.3027169"><ele>1295.0</ele><time>2026-04-04T14:37:27.583Z</time></trkpt><trkpt lat="45.0790605" lon="7.3028072"><ele>1296.0</ele><time>2026-04-04T14:37:32.577Z</time></trkpt><trkpt lat="45.0790995" lon="7.3028892"><ele>1297.0</ele><time>2026-04-04T14:37:38.527Z</time></trkpt><trkpt lat="45.0791392" lon="7.3029765"><ele>1298.0000000000002</ele><time>2026-04-04T14:37:46.502Z</time></trkpt><trkpt lat="45.0791767" lon="7.3030695"><ele>1299.0</ele><time>2026-04-04T14:37:53.617Z</time></trkpt><trkpt lat="45.0791964" lon="7.3031743"><ele>1299.1428571428573</ele><time>2026-04-04T14:38:00.526Z</time></trkpt><trkpt lat="45.0792209" lon="7.303271"><ele>1299.2857142857142</ele><time>2026-04-04T14:38:07.54Z</time></trkpt><trkpt lat="45.0791919" lon="7.3033541"><ele>1299.4285714285716</ele><time>2026-04-04T14:38:12.535Z</time></trkpt><trkpt lat="45.0791475" lon="7.3034358"><ele>1299.5714285714287</ele><time>2026-04-04T14:38:18.502Z</time></trkpt><trkpt lat="45.0791231" lon="7.3035233"><ele>1299.7142857142858</ele><time>2026-04-04T14:38:24.544Z</time></trkpt><trkpt lat="45.0790845" lon="7.3036052"><ele>1299.857142857143</ele><time>2026-04-04T14:38:30.502Z</time></trkpt><trkpt lat="45.0790476" lon="7.3036908"><ele>1300.0</ele><time>2026-04-04T14:38:37.509Z</time></trkpt><trkpt lat="45.0790149" lon="7.3037694"><ele>1295.0</ele><time>2026-04-04T14:38:43.567Z</time></trkpt><trkpt lat="45.0789643" lon="7.3038259"><ele>1290.0</ele><time>2026-04-04T14:38:49.518Z</time></trkpt><trkpt lat="45.0789361" lon="7.3039081"><ele>1285.0</ele><time>2026-04-04T14:38:55.606Z</time></trkpt><trkpt lat="45.0789086" lon="7.303992"><ele>1280.0</ele><time>2026-04-04T14:39:01.567Z</time></trkpt><trkpt lat="45.0788867" lon="7.3040785"><ele>1275.0</ele><time>2026-04-04T14:39:08.541Z</time></trkpt><trkpt lat="45.0788775" lon="7.3041716"><ele>1270.0</ele><time>2026-04-04T14:39:14.599Z</time></trkpt><trkpt lat="45.0789009" lon="7.3042569"><ele>1265.0</ele><time>2026-04-04T14:39:21.613Z</time></trkpt><trkpt lat="45.0789004" lon="7.3043472"><ele>1265.0</ele><time>2026-04-04T14:39:27.567Z</time></trkpt><trkpt lat="45.0788976" lon="7.3044503"><ele>1265.0</ele><time>2026-04-04T14:39:34.578Z</time></trkpt><trkpt lat="45.0788975" lon="7.304544"><ele>1265.0</ele><time>2026-04-04T14:39:42.547Z</time></trkpt><trkpt lat="45.0788805" lon="7.3046424"><ele>1265.0</ele><time>2026-04-04T14:39:49.562Z</time></trkpt><trkpt lat="45.0788619" lon="7.3047331"><ele>1265.0</ele><time>2026-04-04T14:39:56.576Z</time></trkpt><trkpt lat="45.0788393" lon="7.3048249"><ele>1265.0</ele><time>2026-04-04T14:40:02.485Z</time></trkpt><trkpt lat="45.078825" lon="7.3049215"><ele>1265.0</ele><time>2026-04-04T14:40:10.502Z</time></trkpt><trkpt lat="45.0787799" lon="7.3049873"><ele>1266.857142857143</ele><time>2026-04-04T14:40:15.565Z</time></trkpt><trkpt lat="45.0787308" lon="7.305052"><ele>1268.7142857142858</ele><time>2026-04-04T14:40:22.505Z</time></trkpt><trkpt lat="45.0786975" lon="7.3051343"><ele>1270.5714285714287</ele><time>2026-04-04T14:40:30.582Z</time></trkpt><trkpt lat="45.0786673" lon="7.3052258"><ele>1272.4285714285716</ele><time>2026-04-04T14:40:37.596Z</time></trkpt><trkpt lat="45.0786493" lon="7.3053238"><ele>1274.2857142857142</ele><time>2026-04-04T14:40:44.503Z</time></trkpt><trkpt lat="45.0786185" lon="7.3054016"><ele>1276.1428571428573</ele><time>2026-04-04T14:40:50.559Z</time></trkpt><trkpt lat="45.0785753" lon="7.305486"><ele>1278.0</ele><time>2026-04-04T14:40:57.574Z</time></trkpt><trkpt lat="45.078536" lon="7.3055587"><ele>1278.5714285714287</ele><time>2026-04-04T14:41:03.489Z</time></trkpt><trkpt lat="45.0785076" lon="7.3056515"><ele>1279.142857142857</ele><time>2026-04-04T14:41:09.581Z</time></trkpt><trkpt lat="45.078478" lon="7.3057309"><ele>1279.7142857142858</ele><time>2026-04-04T14:41:14.577Z</time></trkpt><trkpt lat="45.0784408" lon="7.3058136"><ele>1280.2857142857142</ele><time>2026-04-04T14:41:20.544Z</time></trkpt><trkpt lat="45.0784005" lon="7.3058998"><ele>1280.857142857143</ele><time>2026-04-04T14:41:26.428Z</time></trkpt><trkpt lat="45.0783768" lon="7.3059874"><ele>1281.4285714285716</ele><time>2026-04-04T14:41:32.268Z</time></trkpt><trkpt lat="45.0783522" lon="7.306079"><ele>1282.0</ele><time>2026-04-04T14:41:38.088Z</time></trkpt><trkpt lat="45.0783049" lon="7.3061592"><ele>1282.0</ele><time>2026-04-04T14:41:44.506Z</time></trkpt><trkpt lat="45.0782961" lon="7.306256"><ele>1282.0</ele><time>2026-04-04T14:41:48.544Z</time></trkpt><trkpt lat="45.0782835" lon="7.3063478"><ele>1282.0</ele><time>2026-04-04T14:41:54.502Z</time></trkpt><trkpt lat="45.0782665" lon="7.3064388"><ele>1282.0</ele><time>2026-04-04T14:42:00.553Z</time></trkpt><trkpt lat="45.0782254" lon="7.3065139"><ele>1282.0</ele><time>2026-04-04T14:42:06.583Z</time></trkpt><trkpt lat="45.0781835" lon="7.3065921"><ele>1282.0</ele><time>2026-04-04T14:42:12.523Z</time></trkpt><trkpt lat="45.0781572" lon="7.3066846"><ele>1282.0</ele><time>2026-04-04T14:42:18.485Z</time></trkpt><trkpt lat="45.0781217" lon="7.3067589"><ele>1280.857142857143</ele><time>2026-04-04T14:42:25.526Z</time></trkpt><trkpt lat="45.0780812" lon="7.3068296"><ele>1279.7142857142858</ele><time>2026-04-04T14:42:41.572Z</time></trkpt><trkpt lat="45.0780273" lon="7.3068985"><ele>1278.5714285714284</ele><time>2026-04-04T14:42:48.586Z</time></trkpt><trkpt lat="45.0779823" lon="7.3069661"><ele>1277.4285714285716</ele><time>2026-04-04T14:42:56.556Z</time></trkpt><trkpt lat="45.0779375" lon="7.3070518"><ele>1276.2857142857142</ele><time>2026-04-04T14:43:03.57Z</time></trkpt><trkpt lat="45.0778896" lon="7.3071286"><ele>1275.142857142857</ele><time>2026-04-04T14:43:09.56Z</time></trkpt><trkpt lat="45.0778608" lon="7.3072158"><ele>1274.0</ele><time>2026-04-04T14:43:15.577Z</time></trkpt><trkpt lat="45.0778264" lon="7.3073015"><ele>1274.0</ele><time>2026-04-04T14:43:21.529Z</time></trkpt><trkpt lat="45.0777948" lon="7.3073947"><ele>1274.0</ele><time>2026-04-04T14:43:27.586Z</time></trkpt><trkpt lat="45.0777516" lon="7.3074662"><ele>1274.0</ele><time>2026-04-04T14:43:33.522Z</time></trkpt><trkpt lat="45.0777049" lon="7.3075297"><ele>1274.0</ele><time>2026-04-04T14:43:41.507Z</time></trkpt><trkpt lat="45.0776693" lon="7.3076181"><ele>1274.0</ele><time>2026-04-04T14:43:49.962Z</time></trkpt><trkpt lat="45.0776321" lon="7.3077054"><ele>1274.0</ele><time>2026-04-04T14:43:56.596Z</time></trkpt><trkpt lat="45.0775865" lon="7.3077805"><ele>1274.0</ele><time>2026-04-04T14:44:02.547Z</time></trkpt><trkpt lat="45.0775286" lon="7.3078395"><ele>1274.0</ele><time>2026-04-04T14:44:09.561Z</time></trkpt><trkpt lat="45.0774884" lon="7.3079121"><ele>1274.0</ele><time>2026-04-04T14:44:15.511Z</time></trkpt><trkpt lat="45.0774394" lon="7.3079766"><ele>1274.0</ele><time>2026-04-04T14:44:23.588Z</time></trkpt><trkpt lat="45.0773936" lon="7.3080563"><ele>1274.0</ele><time>2026-04-04T14:44:28.603Z</time></trkpt><trkpt lat="45.0773565" lon="7.3081374"><ele>1274.0</ele><time>2026-04-04T14:44:33.577Z</time></trkpt><trkpt lat="45.0773099" lon="7.3082192"><ele>1274.0</ele><time>2026-04-04T14:44:40.591Z</time></trkpt><trkpt lat="45.0772538" lon="7.3082837"><ele>1274.0</ele><time>2026-04-04T14:44:47.503Z</time></trkpt><trkpt lat="45.0772414" lon="7.3084194"><ele>1271.142857142857</ele><time>2026-04-04T14:45:02.587Z</time></trkpt><trkpt lat="45.0771954" lon="7.308505"><ele>1268.2857142857142</ele><time>2026-04-04T14:45:07.521Z</time></trkpt><trkpt lat="45.0771452" lon="7.3085691"><ele>1265.4285714285716</ele><time>2026-04-04T14:45:13.533Z</time></trkpt><trkpt lat="45.0771088" lon="7.3086557"><ele>1262.5714285714284</ele><time>2026-04-04T14:45:19.59Z</time></trkpt><trkpt lat="45.0770813" lon="7.308745"><ele>1259.7142857142858</ele><time>2026-04-04T14:45:26.603Z</time></trkpt><trkpt lat="45.0770319" lon="7.3088223"><ele>1256.857142857143</ele><time>2026-04-04T14:45:33.564Z</time></trkpt><trkpt lat="45.0769935" lon="7.3089075"><ele>1254.0</ele><time>2026-04-04T14:45:39.568Z</time></trkpt><trkpt lat="45.0769656" lon="7.3089903"><ele>1252.857142857143</ele><time>2026-04-04T14:45:44.562Z</time></trkpt><trkpt lat="45.0769474" lon="7.3090923"><ele>1251.7142857142858</ele><time>2026-04-04T14:45:49.556Z</time></trkpt><trkpt lat="45.0769232" lon="7.3091808"><ele>1250.5714285714284</ele><time>2026-04-04T14:45:54.551Z</time></trkpt><trkpt lat="45.0769229" lon="7.3092788"><ele>1249.4285714285716</ele><time>2026-04-04T14:46:01.564Z</time></trkpt><trkpt lat="45.0769129" lon="7.3093799"><ele>1248.2857142857142</ele><time>2026-04-04T14:46:08.484Z</time></trkpt><trkpt lat="45.0769169" lon="7.3094828"><ele>1247.142857142857</ele><time>2026-04-04T14:46:15.591Z</time></trkpt><trkpt lat="45.076889" lon="7.3095688"><ele>1246.0</ele><time>2026-04-04T14:46:23.56Z</time></trkpt><trkpt lat="45.0768703" lon="7.3096619"><ele>1247.5714285714287</ele><time>2026-04-04T14:46:30.575Z</time></trkpt><trkpt lat="45.0768909" lon="7.3098025"><ele>1249.142857142857</ele><time>2026-04-04T14:46:55.547Z</time></trkpt><trkpt lat="45.0768856" lon="7.3099028"><ele>1250.7142857142858</ele><time>2026-04-04T14:47:01.503Z</time></trkpt><trkpt lat="45.0768687" lon="7.3099982"><ele>1252.2857142857142</ele><time>2026-04-04T14:47:08.511Z</time></trkpt><trkpt lat="45.0768531" lon="7.3100847"><ele>1253.857142857143</ele><time>2026-04-04T14:47:15.565Z</time></trkpt><trkpt lat="45.0768327" lon="7.3101724"><ele>1255.4285714285716</ele><time>2026-04-04T14:47:23.601Z</time></trkpt><trkpt lat="45.0768139" lon="7.3102583"><ele>1257.0</ele><time>2026-04-04T14:47:31.57Z</time></trkpt><trkpt lat="45.0768106" lon="7.3103558"><ele>1257.0000000000002</ele><time>2026-04-04T14:47:38.562Z</time></trkpt><trkpt lat="45.0768093" lon="7.310446"><ele>1257.0</ele><time>2026-04-04T14:47:44.535Z</time></trkpt><trkpt lat="45.0768122" lon="7.3105383"><ele>1257.0</ele><time>2026-04-04T14:47:52.584Z</time></trkpt><trkpt lat="45.0767923" lon="7.3106362"><ele>1257.0</ele><time>2026-04-04T14:47:58.561Z</time></trkpt><trkpt lat="45.0767727" lon="7.3107274"><ele>1257.0</ele><time>2026-04-04T14:48:05.575Z</time></trkpt><trkpt lat="45.0767352" lon="7.3108149"><ele>1257.0000000000002</ele><time>2026-04-04T14:48:12.587Z</time></trkpt><trkpt lat="45.0766863" lon="7.3108712"><ele>1257.0</ele><time>2026-04-04T14:48:18.584Z</time></trkpt><trkpt lat="45.0766634" lon="7.3109589"><ele>1258.4285714285716</ele><time>2026-04-04T14:48:26.509Z</time></trkpt><trkpt lat="45.0766337" lon="7.3110485"><ele>1259.857142857143</ele><time>2026-04-04T14:48:32.566Z</time></trkpt><trkpt lat="45.076606" lon="7.311131"><ele>1261.2857142857142</ele><time>2026-04-04T14:48:39.579Z</time></trkpt><trkpt lat="45.0765745" lon="7.311219"><ele>1262.7142857142858</ele><time>2026-04-04T14:48:46.583Z</time></trkpt><trkpt lat="45.0765412" lon="7.311308"><ele>1264.142857142857</ele><time>2026-04-04T14:48:52.542Z</time></trkpt><trkpt lat="45.0765346" lon="7.3114139"><ele>1265.5714285714287</ele><time>2026-04-04T14:48:58.6Z</time></trkpt><trkpt lat="45.0765162" lon="7.3115045"><ele>1267.0</ele><time>2026-04-04T14:49:04.551Z</time></trkpt><trkpt lat="45.0765233" lon="7.3115967"><ele>1263.0</ele><time>2026-04-04T14:49:10.608Z</time></trkpt><trkpt lat="45.0765431" lon="7.3116822"><ele>1259.0</ele><time>2026-04-04T14:49:15.504Z</time></trkpt><trkpt lat="45.0765343" lon="7.3117726"><ele>1255.0</ele><time>2026-04-04T14:49:21.622Z</time></trkpt><trkpt lat="45.0765006" lon="7.3118549"><ele>1251.0</ele><time>2026-04-04T14:49:29.6Z</time></trkpt><trkpt lat="45.0764531" lon="7.311917"><ele>1247.0</ele><time>2026-04-04T14:49:35.58Z</time></trkpt><trkpt lat="45.076425" lon="7.3120071"><ele>1243.0</ele><time>2026-04-04T14:49:41.403Z</time></trkpt><trkpt lat="45.0764006" lon="7.3120929"><ele>1239.0</ele><time>2026-04-04T14:49:46.584Z</time></trkpt><trkpt lat="45.0763789" lon="7.3121792"><ele>1240.4285714285713</ele><time>2026-04-04T14:49:51.383Z</time></trkpt><trkpt lat="45.0763621" lon="7.3122734"><ele>1241.857142857143</ele><time>2026-04-04T14:49:57.424Z</time></trkpt><trkpt lat="45.076356" lon="7.312368"><ele>1243.2857142857142</ele><time>2026-04-04T14:50:03.527Z</time></trkpt><trkpt lat="45.0763428" lon="7.3124676"><ele>1244.7142857142858</ele><time>2026-04-04T14:50:10.539Z</time></trkpt><trkpt lat="45.0763247" lon="7.3125708"><ele>1246.142857142857</ele><time>2026-04-04T14:50:16.445Z</time></trkpt><trkpt lat="45.0762966" lon="7.3126582"><ele>1247.5714285714284</ele><time>2026-04-04T14:50:22.548Z</time></trkpt><trkpt lat="45.0762983" lon="7.3127634"><ele>1249.0</ele><time>2026-04-04T14:50:28.583Z</time></trkpt><trkpt lat="45.0762795" lon="7.3128623"><ele>1248.9999999999998</ele><time>2026-04-04T14:50:34.602Z</time></trkpt><trkpt lat="45.0762696" lon="7.3129546"><ele>1249.0</ele><time>2026-04-04T14:50:40.507Z</time></trkpt><trkpt lat="45.0762558" lon="7.3130502"><ele>1249.0</ele><time>2026-04-04T14:50:47.521Z</time></trkpt><trkpt lat="45.0762366" lon="7.3131453"><ele>1249.0</ele><time>2026-04-04T14:50:54.534Z</time></trkpt><trkpt lat="45.0762441" lon="7.3132445"><ele>1249.0</ele><time>2026-04-04T14:51:00.59Z</time></trkpt><trkpt lat="45.0762499" lon="7.3133483"><ele>1248.9999999999998</ele><time>2026-04-04T14:51:06.505Z</time></trkpt><trkpt lat="45.0762572" lon="7.3134528"><ele>1249.0</ele><time>2026-04-04T14:51:12.504Z</time></trkpt><trkpt lat="45.0762443" lon="7.3135481"><ele>1251.142857142857</ele><time>2026-04-04T14:51:18.422Z</time></trkpt><trkpt lat="45.0762497" lon="7.3136401"><ele>1253.2857142857142</ele><time>2026-04-04T14:51:24.607Z</time></trkpt><trkpt lat="45.0762473" lon="7.3137312"><ele>1255.4285714285716</ele><time>2026-04-04T14:51:30.557Z</time></trkpt><trkpt lat="45.0762386" lon="7.3138241"><ele>1257.5714285714284</ele><time>2026-04-04T14:51:36.508Z</time></trkpt><trkpt lat="45.0762224" lon="7.3139286"><ele>1259.7142857142858</ele><time>2026-04-04T14:51:42.563Z</time></trkpt><trkpt lat="45.0761945" lon="7.3140194"><ele>1261.857142857143</ele><time>2026-04-04T14:51:49.582Z</time></trkpt><trkpt lat="45.0761767" lon="7.314114"><ele>1264.0</ele><time>2026-04-04T14:51:55.542Z</time></trkpt><trkpt lat="45.0761683" lon="7.3142045"><ele>1265.857142857143</ele><time>2026-04-04T14:52:01.446Z</time></trkpt><trkpt lat="45.0761859" lon="7.3143008"><ele>1267.7142857142858</ele><time>2026-04-04T14:52:07.538Z</time></trkpt><trkpt lat="45.0762225" lon="7.3143843"><ele>1269.5714285714284</ele><time>2026-04-04T14:52:14.365Z</time></trkpt><trkpt lat="45.0762545" lon="7.3144711"><ele>1271.4285714285716</ele><time>2026-04-04T14:52:20.562Z</time></trkpt><trkpt lat="45.0762896" lon="7.31456"><ele>1273.2857142857142</ele><time>2026-04-04T14:52:26.56Z</time></trkpt><trkpt lat="45.0763223" lon="7.3146386"><ele>1275.142857142857</ele><time>2026-04-04T14:52:31.502Z</time></trkpt><trkpt lat="45.0763539" lon="7.3147263"><ele>1277.0</ele><time>2026-04-04T14:52:36.549Z</time></trkpt><trkpt lat="45.076388" lon="7.3148045"><ele>1276.9999999999998</ele><time>2026-04-04T14:52:41.543Z</time></trkpt><trkpt lat="45.0764226" lon="7.3148889"><ele>1277.0</ele><time>2026-04-04T14:52:47.599Z</time></trkpt><trkpt lat="45.0764593" lon="7.3149703"><ele>1277.0</ele><time>2026-04-04T14:52:52.581Z</time></trkpt><trkpt lat="45.0765124" lon="7.3150467"><ele>1277.0</ele><time>2026-04-04T14:52:57.589Z</time></trkpt><trkpt lat="45.0765723" lon="7.3151104"><ele>1277.0</ele><time>2026-04-04T14:53:02.583Z</time></trkpt><trkpt lat="45.076615" lon="7.3151797"><ele>1276.9999999999998</ele><time>2026-04-04T14:53:08.534Z</time></trkpt><trkpt lat="45.0766698" lon="7.3152402"><ele>1277.0</ele><time>2026-04-04T14:53:14.591Z</time></trkpt><trkpt lat="45.0767123" lon="7.3153226"><ele>1277.4285714285713</ele><time>2026-04-04T14:53:21.504Z</time></trkpt><trkpt lat="45.0767581" lon="7.3153948"><ele>1277.857142857143</ele><time>2026-04-04T14:53:27.137Z</time></trkpt><trkpt lat="45.0768121" lon="7.3154588"><ele>1278.2857142857142</ele><time>2026-04-04T14:53:33.579Z</time></trkpt><trkpt lat="45.0768654" lon="7.3155079"><ele>1278.7142857142858</ele><time>2026-04-04T14:53:38.574Z</time></trkpt><trkpt lat="45.0769089" lon="7.3155902"><ele>1279.142857142857</ele><time>2026-04-04T14:53:45.586Z</time></trkpt><trkpt lat="45.0769526" lon="7.3156779"><ele>1279.5714285714284</ele><time>2026-04-04T14:53:50.582Z</time></trkpt><trkpt lat="45.0770073" lon="7.3157461"><ele>1280.0</ele><time>2026-04-04T14:53:55.576Z</time></trkpt><trkpt lat="45.0770575" lon="7.315806"><ele>1280.0</ele><time>2026-04-04T14:54:02.475Z</time></trkpt><trkpt lat="45.0771078" lon="7.3158633"><ele>1280.0</ele><time>2026-04-04T14:54:09.494Z</time></trkpt><trkpt lat="45.0771552" lon="7.3159334"><ele>1280.0</ele><time>2026-04-04T14:54:15.435Z</time></trkpt><trkpt lat="45.0772029" lon="7.3159962"><ele>1280.0</ele><time>2026-04-04T14:54:22.459Z</time></trkpt><trkpt lat="45.0772429" lon="7.3160842"><ele>1280.0</ele><time>2026-04-04T14:54:29.581Z</time></trkpt><trkpt lat="45.0772699" lon="7.3161675"><ele>1280.0</ele><time>2026-04-04T14:54:36.593Z</time></trkpt><trkpt lat="45.0773198" lon="7.3162387"><ele>1280.0</ele><time>2026-04-04T14:54:43.503Z</time></trkpt><trkpt lat="45.0773497" lon="7.3163228"><ele>1279.7142857142858</ele><time>2026-04-04T14:54:49.559Z</time></trkpt><trkpt lat="45.0773603" lon="7.3164229"><ele>1279.4285714285716</ele><time>2026-04-04T14:54:56.572Z</time></trkpt><trkpt lat="45.0773707" lon="7.3165116"><ele>1279.1428571428573</ele><time>2026-04-04T14:55:02.523Z</time></trkpt><trkpt lat="45.077377" lon="7.3166005"><ele>1278.857142857143</ele><time>2026-04-04T14:55:08.617Z</time></trkpt><trkpt lat="45.0774063" lon="7.3166827"><ele>1278.5714285714287</ele><time>2026-04-04T14:55:13.573Z</time></trkpt><trkpt lat="45.0774464" lon="7.3167516"><ele>1278.2857142857144</ele><time>2026-04-04T14:55:19.525Z</time></trkpt><trkpt lat="45.0774639" lon="7.3168489"><ele>1278.0</ele><time>2026-04-04T14:55:27.601Z</time></trkpt><trkpt lat="45.077495" lon="7.3169423"><ele>1276.4285714285716</ele><time>2026-04-04T14:55:33.552Z</time></trkpt><trkpt lat="45.0775125" lon="7.3170353"><ele>1274.857142857143</ele><time>2026-04-04T14:55:38.546Z</time></trkpt><trkpt lat="45.0775123" lon="7.3171337"><ele>1273.2857142857142</ele><time>2026-04-04T14:55:44.602Z</time></trkpt><trkpt lat="45.0775073" lon="7.3172282"><ele>1271.7142857142858</ele><time>2026-04-04T14:55:50.554Z</time></trkpt><trkpt lat="45.0774818" lon="7.3173131"><ele>1270.142857142857</ele><time>2026-04-04T14:55:57.567Z</time></trkpt><trkpt lat="45.0774822" lon="7.3174124"><ele>1268.5714285714287</ele><time>2026-04-04T14:56:04.437Z</time></trkpt><trkpt lat="45.0775052" lon="7.3175048"><ele>1267.0</ele><time>2026-04-04T14:56:09.537Z</time></trkpt><trkpt lat="45.077539" lon="7.3175874"><ele>1266.5714285714287</ele><time>2026-04-04T14:56:13.506Z</time></trkpt><trkpt lat="45.0775659" lon="7.3176807"><ele>1266.142857142857</ele><time>2026-04-04T14:56:18.503Z</time></trkpt><trkpt lat="45.0775831" lon="7.3177778"><ele>1265.7142857142858</ele><time>2026-04-04T14:56:24.557Z</time></trkpt><trkpt lat="45.0775925" lon="7.317867"><ele>1265.2857142857142</ele><time>2026-04-04T14:56:30.508Z</time></trkpt><trkpt lat="45.0775954" lon="7.3179706"><ele>1264.857142857143</ele><time>2026-04-04T14:56:38.583Z</time></trkpt><trkpt lat="45.0776026" lon="7.3180791"><ele>1264.4285714285716</ele><time>2026-04-04T14:56:43.578Z</time></trkpt><trkpt lat="45.0776247" lon="7.3181766"><ele>1264.0</ele><time>2026-04-04T14:56:48.516Z</time></trkpt><trkpt lat="45.0776676" lon="7.3182448"><ele>1263.0000000000002</ele><time>2026-04-04T14:56:54.522Z</time></trkpt><trkpt lat="45.0777239" lon="7.3182982"><ele>1262.0</ele><time>2026-04-04T14:57:00.58Z</time></trkpt><trkpt lat="45.0777813" lon="7.3183598"><ele>1261.0</ele><time>2026-04-04T14:57:06.531Z</time></trkpt><trkpt lat="45.0778415" lon="7.3184065"><ele>1260.0</ele><time>2026-04-04T14:57:12.588Z</time></trkpt><trkpt lat="45.0778958" lon="7.3184607"><ele>1259.0</ele><time>2026-04-04T14:57:18.538Z</time></trkpt><trkpt lat="45.0779579" lon="7.3185025"><ele>1258.0000000000002</ele><time>2026-04-04T14:57:24.594Z</time></trkpt><trkpt lat="45.0779729" lon="7.3186062"><ele>1257.0</ele><time>2026-04-04T14:57:34.194Z</time></trkpt><trkpt lat="45.0779468" lon="7.3186941"><ele>1257.0000000000002</ele><time>2026-04-04T14:57:42.554Z</time></trkpt><trkpt lat="45.0778943" lon="7.3187512"><ele>1257.0</ele><time>2026-04-04T14:57:50.523Z</time></trkpt><trkpt lat="45.0778346" lon="7.3188132"><ele>1257.0</ele><time>2026-04-04T14:57:57.577Z</time></trkpt><trkpt lat="45.0777963" lon="7.3188859"><ele>1257.0</ele><time>2026-04-04T14:58:04.551Z</time></trkpt><trkpt lat="45.0777307" lon="7.3188948"><ele>1257.0</ele><time>2026-04-04T14:58:21.553Z</time></trkpt><trkpt lat="45.0776703" lon="7.3188552"><ele>1257.0000000000002</ele><time>2026-04-04T14:58:31.542Z</time></trkpt><trkpt lat="45.0776023" lon="7.3188686"><ele>1257.0</ele><time>2026-04-04T14:58:38.555Z</time></trkpt><trkpt lat="45.0775504" lon="7.3189197"><ele>1256.0000000000002</ele><time>2026-04-04T14:58:43.55Z</time></trkpt><trkpt lat="45.0774928" lon="7.3189828"><ele>1255.0</ele><time>2026-04-04T14:58:50.563Z</time></trkpt><trkpt lat="45.0774396" lon="7.3190355"><ele>1254.0</ele><time>2026-04-04T14:58:55.573Z</time></trkpt><trkpt lat="45.0773885" lon="7.3190959"><ele>1253.0</ele><time>2026-04-04T14:59:02.571Z</time></trkpt><trkpt lat="45.0773296" lon="7.3191604"><ele>1252.0</ele><time>2026-04-04T14:59:10.614Z</time></trkpt><trkpt lat="45.0772775" lon="7.3192118"><ele>1251.0000000000002</ele><time>2026-04-04T14:59:16.614Z</time></trkpt><trkpt lat="45.0772188" lon="7.3192566"><ele>1250.0</ele><time>2026-04-04T14:59:24.567Z</time></trkpt><trkpt lat="45.0771664" lon="7.3193085"><ele>1247.1428571428573</ele><time>2026-04-04T14:59:32.537Z</time></trkpt><trkpt lat="45.0771046" lon="7.3193361"><ele>1244.2857142857142</ele><time>2026-04-04T14:59:38.593Z</time></trkpt><trkpt lat="45.0770397" lon="7.3193672"><ele>1241.4285714285716</ele><time>2026-04-04T14:59:46.564Z</time></trkpt><trkpt lat="45.0769814" lon="7.3194192"><ele>1238.5714285714287</ele><time>2026-04-04T14:59:52.514Z</time></trkpt><trkpt lat="45.0769471" lon="7.3195137"><ele>1235.7142857142858</ele><time>2026-04-04T14:59:58.571Z</time></trkpt><trkpt lat="45.0769424" lon="7.3196142"><ele>1232.857142857143</ele><time>2026-04-04T15:00:04.522Z</time></trkpt><trkpt lat="45.0769689" lon="7.3196998"><ele>1230.0</ele><time>2026-04-04T15:00:09.516Z</time></trkpt><trkpt lat="45.0770045" lon="7.3197875"><ele>1228.142857142857</ele><time>2026-04-04T15:00:14.51Z</time></trkpt><trkpt lat="45.0770608" lon="7.3198545"><ele>1226.2857142857144</ele><time>2026-04-04T15:00:19.504Z</time></trkpt><trkpt lat="45.0771228" lon="7.3199104"><ele>1224.4285714285716</ele><time>2026-04-04T15:00:25.389Z</time></trkpt><trkpt lat="45.0771749" lon="7.3199826"><ele>1222.5714285714284</ele><time>2026-04-04T15:00:34.59Z</time></trkpt><trkpt lat="45.0772286" lon="7.320031"><ele>1220.7142857142858</ele><time>2026-04-04T15:00:39.588Z</time></trkpt><trkpt lat="45.0772933" lon="7.320063"><ele>1218.857142857143</ele><time>2026-04-04T15:00:46.601Z</time></trkpt><trkpt lat="45.0773537" lon="7.3201024"><ele>1217.0</ele><time>2026-04-04T15:00:52.552Z</time></trkpt><trkpt lat="45.077406" lon="7.3201639"><ele>1217.0</ele><time>2026-04-04T15:01:00.521Z</time></trkpt><trkpt lat="45.0774508" lon="7.3202412"><ele>1217.0</ele><time>2026-04-04T15:01:09.554Z</time></trkpt><trkpt lat="45.0774527" lon="7.3203441"><ele>1217.0</ele><time>2026-04-04T15:01:16.567Z</time></trkpt><trkpt lat="45.0774187" lon="7.3204231"><ele>1217.0</ele><time>2026-04-04T15:02:01.515Z</time></trkpt><trkpt lat="45.0774471" lon="7.320503"><ele>1217.0</ele><time>2026-04-04T15:02:06.511Z</time></trkpt><trkpt lat="45.0774883" lon="7.3205756"><ele>1217.0</ele><time>2026-04-04T15:02:14.587Z</time></trkpt><trkpt lat="45.0775343" lon="7.3206555"><ele>1217.0</ele><time>2026-04-04T15:02:20.537Z</time></trkpt><trkpt lat="45.0775822" lon="7.3207232"><ele>1218.142857142857</ele><time>2026-04-04T15:02:25.532Z</time></trkpt><trkpt lat="45.0776343" lon="7.320778"><ele>1219.2857142857142</ele><time>2026-04-04T15:02:32.531Z</time></trkpt><trkpt lat="45.0776582" lon="7.3208621"><ele>1220.4285714285716</ele><time>2026-04-04T15:02:39.569Z</time></trkpt><trkpt lat="45.0776712" lon="7.3209494"><ele>1221.5714285714284</ele><time>2026-04-04T15:02:48.591Z</time></trkpt><trkpt lat="45.0776831" lon="7.3210754"><ele>1222.7142857142858</ele><time>2026-04-04T15:03:04.488Z</time></trkpt><trkpt lat="45.0776888" lon="7.3211999"><ele>1223.857142857143</ele><time>2026-04-04T15:03:08.569Z</time></trkpt><trkpt lat="45.0776642" lon="7.3212839"><ele>1225.0</ele><time>2026-04-04T15:03:12.501Z</time></trkpt><trkpt lat="45.0776391" lon="7.3213778"><ele>1223.5714285714287</ele><time>2026-04-04T15:03:18.557Z</time></trkpt><trkpt lat="45.0776202" lon="7.3214662"><ele>1222.142857142857</ele><time>2026-04-04T15:03:25.57Z</time></trkpt><trkpt lat="45.077591" lon="7.3215542"><ele>1220.7142857142858</ele><time>2026-04-04T15:03:31.75Z</time></trkpt><trkpt lat="45.0775755" lon="7.321648"><ele>1219.2857142857142</ele><time>2026-04-04T15:03:38.608Z</time></trkpt><trkpt lat="45.0775678" lon="7.3217401"><ele>1217.857142857143</ele><time>2026-04-04T15:03:46.504Z</time></trkpt><trkpt lat="45.077554" lon="7.3218274"><ele>1216.4285714285716</ele><time>2026-04-04T15:03:54.465Z</time></trkpt><trkpt lat="45.0775638" lon="7.3219223"><ele>1215.0</ele><time>2026-04-04T15:04:01.546Z</time></trkpt><trkpt lat="45.0775461" lon="7.3220244"><ele>1215.0000000000002</ele><time>2026-04-04T15:04:08.805Z</time></trkpt><trkpt lat="45.0775376" lon="7.3221243"><ele>1215.0</ele><time>2026-04-04T15:04:15.486Z</time></trkpt><trkpt lat="45.0775426" lon="7.3222241"><ele>1215.0</ele><time>2026-04-04T15:04:22.527Z</time></trkpt><trkpt lat="45.0775616" lon="7.3223182"><ele>1215.0</ele><time>2026-04-04T15:04:30.603Z</time></trkpt><trkpt lat="45.0775859" lon="7.3224178"><ele>1215.0</ele><time>2026-04-04T15:04:36.569Z</time></trkpt><trkpt lat="45.0775795" lon="7.3225205"><ele>1215.0000000000002</ele><time>2026-04-04T15:04:43.566Z</time></trkpt><trkpt lat="45.0775664" lon="7.3226125"><ele>1215.0</ele><time>2026-04-04T15:04:48.529Z</time></trkpt><trkpt lat="45.0775541" lon="7.3227086"><ele>1214.4285714285716</ele><time>2026-04-04T15:04:55.574Z</time></trkpt><trkpt lat="45.0775569" lon="7.3228059"><ele>1213.857142857143</ele><time>2026-04-04T15:05:02.608Z</time></trkpt><trkpt lat="45.0775354" lon="7.3229112"><ele>1213.2857142857142</ele><time>2026-04-04T15:05:07.582Z</time></trkpt><trkpt lat="45.0775405" lon="7.323013"><ele>1212.7142857142858</ele><time>2026-04-04T15:05:13.532Z</time></trkpt><trkpt lat="45.0775662" lon="7.3231047"><ele>1212.142857142857</ele><time>2026-04-04T15:05:20.509Z</time></trkpt><trkpt lat="45.0775816" lon="7.3231974"><ele>1211.5714285714287</ele><time>2026-04-04T15:05:28.516Z</time></trkpt><trkpt lat="45.0775859" lon="7.3232895"><ele>1211.0</ele><time>2026-04-04T15:05:34.573Z</time></trkpt><trkpt lat="45.0776109" lon="7.3233809"><ele>1210.0</ele><time>2026-04-04T15:05:40.523Z</time></trkpt><trkpt lat="45.0776336" lon="7.3234809"><ele>1209.0</ele><time>2026-04-04T15:05:48.502Z</time></trkpt><trkpt lat="45.0776512" lon="7.3235804"><ele>1208.0</ele><time>2026-04-04T15:05:54.55Z</time></trkpt><trkpt lat="45.0776378" lon="7.3236803"><ele>1207.0</ele><time>2026-04-04T15:06:00.448Z</time></trkpt><trkpt lat="45.0776316" lon="7.3237752"><ele>1206.0</ele><time>2026-04-04T15:06:07.514Z</time></trkpt><trkpt lat="45.0776418" lon="7.3238766"><ele>1205.0</ele><time>2026-04-04T15:06:15.511Z</time></trkpt><trkpt lat="45.0776785" lon="7.3239575"><ele>1204.0</ele><time>2026-04-04T15:06:21.541Z</time></trkpt><trkpt lat="45.0777215" lon="7.3240268"><ele>1202.142857142857</ele><time>2026-04-04T15:06:27.598Z</time></trkpt><trkpt lat="45.0777759" lon="7.3240862"><ele>1200.2857142857142</ele><time>2026-04-04T15:06:34.505Z</time></trkpt><trkpt lat="45.0778388" lon="7.3241083"><ele>1198.4285714285716</ele><time>2026-04-04T15:06:40.562Z</time></trkpt><trkpt lat="45.0778896" lon="7.324162"><ele>1196.5714285714284</ele><time>2026-04-04T15:06:46.619Z</time></trkpt><trkpt lat="45.0779306" lon="7.3242328"><ele>1194.7142857142858</ele><time>2026-04-04T15:06:52.585Z</time></trkpt><trkpt lat="45.0779839" lon="7.3242928"><ele>1192.857142857143</ele><time>2026-04-04T15:06:57.425Z</time></trkpt><trkpt lat="45.078023" lon="7.3243661"><ele>1191.0</ele><time>2026-04-04T15:07:03.514Z</time></trkpt><trkpt lat="45.0780677" lon="7.3244405"><ele>1191.0</ele><time>2026-04-04T15:07:11.589Z</time></trkpt><trkpt lat="45.0781113" lon="7.3245171"><ele>1191.0</ele><time>2026-04-04T15:07:19.56Z</time></trkpt><trkpt lat="45.0781454" lon="7.3246016"><ele>1191.0</ele><time>2026-04-04T15:07:25.526Z</time></trkpt><trkpt lat="45.0781943" lon="7.3246657"><ele>1191.0</ele><time>2026-04-04T15:07:33.585Z</time></trkpt><trkpt lat="45.0782565" lon="7.3247027"><ele>1191.0</ele><time>2026-04-04T15:07:40.598Z</time></trkpt><trkpt lat="45.0783195" lon="7.3247447"><ele>1191.0</ele><time>2026-04-04T15:07:48.407Z</time></trkpt><trkpt lat="45.0783745" lon="7.3248023"><ele>1191.0</ele><time>2026-04-04T15:07:56.538Z</time></trkpt><trkpt lat="45.0783851" lon="7.3248978"><ele>1190.857142857143</ele><time>2026-04-04T15:08:04.508Z</time></trkpt><trkpt lat="45.0784021" lon="7.3249882"><ele>1190.7142857142858</ele><time>2026-04-04T15:08:10.508Z</time></trkpt><trkpt lat="45.0784117" lon="7.3250768"><ele>1190.5714285714284</ele><time>2026-04-04T15:08:17.578Z</time></trkpt><trkpt lat="45.078444" lon="7.3251578"><ele>1190.4285714285716</ele><time>2026-04-04T15:08:24.591Z</time></trkpt><trkpt lat="45.078494" lon="7.3252332"><ele>1190.2857142857142</ele><time>2026-04-04T15:08:30.542Z</time></trkpt><trkpt lat="45.0785142" lon="7.3253348"><ele>1190.142857142857</ele><time>2026-04-04T15:08:56.466Z</time></trkpt><trkpt lat="45.0785456" lon="7.3254145"><ele>1190.0</ele><time>2026-04-04T15:08:59.551Z</time></trkpt><trkpt lat="45.0786071" lon="7.3254585"><ele>1190.0</ele><time>2026-04-04T15:09:03.589Z</time></trkpt><trkpt lat="45.0786513" lon="7.3255308"><ele>1190.0</ele><time>2026-04-04T15:09:10.503Z</time></trkpt><trkpt lat="45.0787076" lon="7.3255908"><ele>1190.0</ele><time>2026-04-04T15:09:17.508Z</time></trkpt><trkpt lat="45.0787421" lon="7.3256669"><ele>1190.0</ele><time>2026-04-04T15:09:25.585Z</time></trkpt><trkpt lat="45.0787776" lon="7.3257528"><ele>1190.0</ele><time>2026-04-04T15:09:34.51Z</time></trkpt><trkpt lat="45.078809" lon="7.3258357"><ele>1190.0</ele><time>2026-04-04T15:09:41.523Z</time></trkpt><trkpt lat="45.0788307" lon="7.325923"><ele>1190.0</ele><time>2026-04-04T15:09:47.587Z</time></trkpt><trkpt lat="45.0788394" lon="7.3260238"><ele>1189.2857142857142</ele><time>2026-04-04T15:09:55.549Z</time></trkpt><trkpt lat="45.0788678" lon="7.3261176"><ele>1188.5714285714284</ele><time>2026-04-04T15:10:02.562Z</time></trkpt><trkpt lat="45.078896" lon="7.3261974"><ele>1187.857142857143</ele><time>2026-04-04T15:10:11.595Z</time></trkpt><trkpt lat="45.0789205" lon="7.3262898"><ele>1187.142857142857</ele><time>2026-04-04T15:10:19.564Z</time></trkpt><trkpt lat="45.0789364" lon="7.3263875"><ele>1186.4285714285713</ele><time>2026-04-04T15:10:26.577Z</time></trkpt><trkpt lat="45.0789417" lon="7.3264808"><ele>1185.7142857142858</ele><time>2026-04-04T15:10:33.59Z</time></trkpt><trkpt lat="45.0789655" lon="7.326565"><ele>1185.0</ele><time>2026-04-04T15:10:38.606Z</time></trkpt><trkpt lat="45.0789981" lon="7.3266518"><ele>1184.2857142857142</ele><time>2026-04-04T15:10:44.609Z</time></trkpt><trkpt lat="45.0790163" lon="7.3267499"><ele>1183.5714285714284</ele><time>2026-04-04T15:10:51.548Z</time></trkpt><trkpt lat="45.0790052" lon="7.3268474"><ele>1182.857142857143</ele><time>2026-04-04T15:10:59.518Z</time></trkpt><trkpt lat="45.0789943" lon="7.3269397"><ele>1182.142857142857</ele><time>2026-04-04T15:11:06.531Z</time></trkpt><trkpt lat="45.0790061" lon="7.3270322"><ele>1181.4285714285716</ele><time>2026-04-04T15:11:13.544Z</time></trkpt><trkpt lat="45.0789936" lon="7.3271285"><ele>1180.7142857142858</ele><time>2026-04-04T15:11:20.557Z</time></trkpt><trkpt lat="45.0789687" lon="7.327222"><ele>1180.0</ele><time>2026-04-04T15:11:27.57Z</time></trkpt><trkpt lat="45.0789413" lon="7.3273123"><ele>1179.1428571428573</ele><time>2026-04-04T15:11:35.488Z</time></trkpt><trkpt lat="45.0789101" lon="7.3273911"><ele>1178.2857142857142</ele><time>2026-04-04T15:11:42.553Z</time></trkpt><trkpt lat="45.0788763" lon="7.3274744"><ele>1177.4285714285716</ele><time>2026-04-04T15:11:50.466Z</time></trkpt><trkpt lat="45.078828" lon="7.3275381"><ele>1176.5714285714287</ele><time>2026-04-04T15:11:57.536Z</time></trkpt><trkpt lat="45.0787871" lon="7.3276207"><ele>1175.7142857142858</ele><time>2026-04-04T15:12:04.549Z</time></trkpt><trkpt lat="45.0787652" lon="7.3277095"><ele>1174.857142857143</ele><time>2026-04-04T15:12:09.568Z</time></trkpt><trkpt lat="45.0787495" lon="7.3277966"><ele>1174.0</ele><time>2026-04-04T15:12:15.502Z</time></trkpt><trkpt lat="45.0787159" lon="7.3278801"><ele>1174.0</ele><time>2026-04-04T15:12:21.55Z</time></trkpt><trkpt lat="45.0786728" lon="7.3279498"><ele>1174.0</ele><time>2026-04-04T15:12:26.543Z</time></trkpt><trkpt lat="45.078617" lon="7.3280189"><ele>1174.0</ele><time>2026-04-04T15:12:31.539Z</time></trkpt><trkpt lat="45.0786386" lon="7.3281063"><ele>1174.0</ele><time>2026-04-04T15:12:37.568Z</time></trkpt><trkpt lat="45.0786481" lon="7.3281986"><ele>1174.0</ele><time>2026-04-04T15:12:43.546Z</time></trkpt><trkpt lat="45.0786533" lon="7.3283015"><ele>1174.0</ele><time>2026-04-04T15:12:49.503Z</time></trkpt><trkpt lat="45.0786695" lon="7.3283923"><ele>1174.0</ele><time>2026-04-04T15:12:56.51Z</time></trkpt><trkpt lat="45.0787116" lon="7.3284657"><ele>1172.2857142857142</ele><time>2026-04-04T15:13:05.605Z</time></trkpt><trkpt lat="45.0787691" lon="7.3285029"><ele>1170.5714285714287</ele><time>2026-04-04T15:13:10.248Z</time></trkpt><trkpt lat="45.0788491" lon="7.3285118"><ele>1168.857142857143</ele><time>2026-04-04T15:13:16.593Z</time></trkpt><trkpt lat="45.0789232" lon="7.3284906"><ele>1167.142857142857</ele><time>2026-04-04T15:13:22.607Z</time></trkpt><trkpt lat="45.0789845" lon="7.3284389"><ele>1165.4285714285716</ele><time>2026-04-04T15:13:28.6Z</time></trkpt><trkpt lat="45.0790284" lon="7.3283579"><ele>1163.7142857142858</ele><time>2026-04-04T15:13:34.551Z</time></trkpt><trkpt lat="45.0790762" lon="7.3282728"><ele>1162.0</ele><time>2026-04-04T15:13:40.584Z</time></trkpt><trkpt lat="45.079134" lon="7.3282154"><ele>1161.142857142857</ele><time>2026-04-04T15:13:45.504Z</time></trkpt><trkpt lat="45.0791731" lon="7.3281299"><ele>1160.2857142857142</ele><time>2026-04-04T15:13:51.551Z</time></trkpt><trkpt lat="45.0792292" lon="7.3280661"><ele>1159.4285714285716</ele><time>2026-04-04T15:13:58.607Z</time></trkpt><trkpt lat="45.0792766" lon="7.3279996"><ele>1158.5714285714284</ele><time>2026-04-04T15:14:05.588Z</time></trkpt><trkpt lat="45.0793215" lon="7.3279359"><ele>1157.7142857142858</ele><time>2026-04-04T15:14:14.606Z</time></trkpt><trkpt lat="45.0793728" lon="7.3278796"><ele>1156.857142857143</ele><time>2026-04-04T15:14:22.579Z</time></trkpt><trkpt lat="45.0794377" lon="7.3278241"><ele>1156.0</ele><time>2026-04-04T15:14:28.529Z</time></trkpt><trkpt lat="45.0794936" lon="7.3277612"><ele>1156.0</ele><time>2026-04-04T15:14:33.524Z</time></trkpt><trkpt lat="45.0795529" lon="7.3277129"><ele>1156.0</ele><time>2026-04-04T15:14:39.58Z</time></trkpt><trkpt lat="45.0796132" lon="7.3277425"><ele>1156.0</ele><time>2026-04-04T15:14:46.465Z</time></trkpt><trkpt lat="45.0796333" lon="7.3278406"><ele>1156.0</ele><time>2026-04-04T15:14:53.504Z</time></trkpt><trkpt lat="45.0795942" lon="7.3279206"><ele>1156.0</ele><time>2026-04-04T15:15:01.576Z</time></trkpt><trkpt lat="45.0795428" lon="7.3279827"><ele>1156.0</ele><time>2026-04-04T15:15:08.589Z</time></trkpt><trkpt lat="45.079517" lon="7.3280653"><ele>1156.0</ele><time>2026-04-04T15:15:14.539Z</time></trkpt><trkpt lat="45.0794688" lon="7.3281396"><ele>1156.0</ele><time>2026-04-04T15:15:21.505Z</time></trkpt><trkpt lat="45.0794356" lon="7.3282241"><ele>1156.0</ele><time>2026-04-04T15:15:28.566Z</time></trkpt><trkpt lat="45.079426" lon="7.3283123"><ele>1156.0</ele><time>2026-04-04T15:15:34.517Z</time></trkpt><trkpt lat="45.0794203" lon="7.3284151"><ele>1156.0</ele><time>2026-04-04T15:15:40.572Z</time></trkpt><trkpt lat="45.0794138" lon="7.3285086"><ele>1156.0</ele><time>2026-04-04T15:15:46.487Z</time></trkpt><trkpt lat="45.0793764" lon="7.3285914"><ele>1156.0</ele><time>2026-04-04T15:15:53.537Z</time></trkpt><trkpt lat="45.0793605" lon="7.328678"><ele>1156.0</ele><time>2026-04-04T15:15:59.587Z</time></trkpt><trkpt lat="45.0793549" lon="7.3287709"><ele>1156.0</ele><time>2026-04-04T15:16:05.229Z</time></trkpt><trkpt lat="45.0793382" lon="7.3288684"><ele>1156.0</ele><time>2026-04-04T15:16:10.525Z</time></trkpt><trkpt lat="45.0792846" lon="7.3289409"><ele>1156.0</ele><time>2026-04-04T15:16:18.508Z</time></trkpt><trkpt lat="45.079271" lon="7.3290337"><ele>1156.0</ele><time>2026-04-04T15:16:24.564Z</time></trkpt><trkpt lat="45.079287" lon="7.3291226"><ele>1156.0</ele><time>2026-04-04T15:16:30.515Z</time></trkpt><trkpt lat="45.0793461" lon="7.3291865"><ele>1156.0</ele><time>2026-04-04T15:16:35.509Z</time></trkpt><trkpt lat="45.0794096" lon="7.3291937"><ele>1156.0</ele><time>2026-04-04T15:16:39.547Z</time></trkpt><trkpt lat="45.0794758" lon="7.329176"><ele>1154.0</ele><time>2026-04-04T15:16:44.541Z</time></trkpt><trkpt lat="45.0795441" lon="7.3291454"><ele>1152.0</ele><time>2026-04-04T15:16:50.527Z</time></trkpt><trkpt lat="45.0796004" lon="7.3291042"><ele>1150.0</ele><time>2026-04-04T15:16:57.549Z</time></trkpt><trkpt lat="45.0796658" lon="7.3290812"><ele>1148.0</ele><time>2026-04-04T15:17:04.567Z</time></trkpt><trkpt lat="45.0797356" lon="7.3290519"><ele>1146.0</ele><time>2026-04-04T15:17:11.529Z</time></trkpt><trkpt lat="45.0798039" lon="7.3290677"><ele>1144.0</ele><time>2026-04-04T15:17:18.628Z</time></trkpt><trkpt lat="45.0798483" lon="7.329133"><ele>1142.0</ele><time>2026-04-04T15:17:26.513Z</time></trkpt><trkpt lat="45.079858" lon="7.329226"><ele>1142.0</ele><time>2026-04-04T15:17:34.72Z</time></trkpt><trkpt lat="45.0798768" lon="7.3293145"><ele>1142.0</ele><time>2026-04-04T15:17:42.553Z</time></trkpt><trkpt lat="45.079833" lon="7.3293851"><ele>1142.0</ele><time>2026-04-04T15:17:49.566Z</time></trkpt><trkpt lat="45.0798119" lon="7.3294801"><ele>1142.0</ele><time>2026-04-04T15:17:57.535Z</time></trkpt><trkpt lat="45.0798124" lon="7.3295701"><ele>1142.0</ele><time>2026-04-04T15:18:02.53Z</time></trkpt><trkpt lat="45.0798221" lon="7.329661"><ele>1142.0</ele><time>2026-04-04T15:18:08.585Z</time></trkpt><trkpt lat="45.0798446" lon="7.3297616"><ele>1142.0</ele><time>2026-04-04T15:18:15.559Z</time></trkpt><trkpt lat="45.0798198" lon="7.3298517"><ele>1139.5714285714287</ele><time>2026-04-04T15:18:22.506Z</time></trkpt><trkpt lat="45.0797753" lon="7.3299199"><ele>1137.142857142857</ele><time>2026-04-04T15:18:33.42Z</time></trkpt><trkpt lat="45.0797114" lon="7.329955"><ele>1134.7142857142858</ele><time>2026-04-04T15:18:41.505Z</time></trkpt><trkpt lat="45.0796437" lon="7.3299762"><ele>1132.2857142857142</ele><time>2026-04-04T15:18:46.576Z</time></trkpt><trkpt lat="45.0795787" lon="7.3299809"><ele>1129.857142857143</ele><time>2026-04-04T15:18:52.472Z</time></trkpt><trkpt lat="45.0795143" lon="7.3299812"><ele>1127.4285714285716</ele><time>2026-04-04T15:18:57.559Z</time></trkpt><trkpt lat="45.0794523" lon="7.3300277"><ele>1125.0</ele><time>2026-04-04T15:19:05.541Z</time></trkpt><trkpt lat="45.0794028" lon="7.3300932"><ele>1125.0</ele><time>2026-04-04T15:19:13.511Z</time></trkpt><trkpt lat="45.0793902" lon="7.3301983"><ele>1125.0</ele><time>2026-04-04T15:19:17.548Z</time></trkpt><trkpt lat="45.079409" lon="7.330284"><ele>1125.0</ele><time>2026-04-04T15:19:23.605Z</time></trkpt><trkpt lat="45.0794597" lon="7.3303651"><ele>1125.0</ele><time>2026-04-04T15:19:28.48Z</time></trkpt><trkpt lat="45.0795116" lon="7.3304182"><ele>1125.0</ele><time>2026-04-04T15:19:31.539Z</time></trkpt><trkpt lat="45.0795657" lon="7.3304929"><ele>1125.0</ele><time>2026-04-04T15:19:36.569Z</time></trkpt><trkpt lat="45.0795938" lon="7.3305846"><ele>1125.0</ele><time>2026-04-04T15:19:41.563Z</time></trkpt><trkpt lat="45.0796097" lon="7.3306729"><ele>1121.7142857142858</ele><time>2026-04-04T15:19:47.558Z</time></trkpt><trkpt lat="45.0796481" lon="7.3307478"><ele>1118.4285714285716</ele><time>2026-04-04T15:19:54.526Z</time></trkpt><trkpt lat="45.0796821" lon="7.3308264"><ele>1115.142857142857</ele><time>2026-04-04T15:20:01.327Z</time></trkpt><trkpt lat="45.0797394" lon="7.3308838"><ele>1111.857142857143</ele><time>2026-04-04T15:20:08.552Z</time></trkpt><trkpt lat="45.079804" lon="7.3309148"><ele>1108.5714285714284</ele><time>2026-04-04T15:20:13.537Z</time></trkpt><trkpt lat="45.0798654" lon="7.3309444"><ele>1105.2857142857142</ele><time>2026-04-04T15:20:18.54Z</time></trkpt><trkpt lat="45.0799285" lon="7.3309757"><ele>1102.0</ele><time>2026-04-04T15:20:25.553Z</time></trkpt><trkpt lat="45.0799564" lon="7.33106"><ele>1101.9999999999998</ele><time>2026-04-04T15:20:34.586Z</time></trkpt><trkpt lat="45.0799783" lon="7.3311462"><ele>1102.0</ele><time>2026-04-04T15:20:42.555Z</time></trkpt><trkpt lat="45.079929" lon="7.3310709"><ele>1102.0</ele><time>2026-04-04T15:21:23.571Z</time></trkpt><trkpt lat="45.0799852" lon="7.3311782"><ele>1102.0</ele><time>2026-04-04T15:21:43.548Z</time></trkpt><trkpt lat="45.0799841" lon="7.3312735"><ele>1102.0</ele><time>2026-04-04T15:21:48.542Z</time></trkpt><trkpt lat="45.079987" lon="7.3313671"><ele>1101.9999999999998</ele><time>2026-04-04T15:21:54.599Z</time></trkpt><trkpt lat="45.0800067" lon="7.3314573"><ele>1102.0</ele><time>2026-04-04T15:22:01.505Z</time></trkpt><trkpt lat="45.0800421" lon="7.3315375"><ele>1099.5714285714284</ele><time>2026-04-04T15:22:07.578Z</time></trkpt><trkpt lat="45.0800651" lon="7.3316227"><ele>1097.142857142857</ele><time>2026-04-04T15:22:13.512Z</time></trkpt><trkpt lat="45.080084" lon="7.3317141"><ele>1094.7142857142858</ele><time>2026-04-04T15:22:20.526Z</time></trkpt><trkpt lat="45.0801154" lon="7.3317978"><ele>1092.2857142857142</ele><time>2026-04-04T15:22:27.499Z</time></trkpt><trkpt lat="45.080171" lon="7.3318489"><ele>1089.857142857143</ele><time>2026-04-04T15:22:32.533Z</time></trkpt><trkpt lat="45.0802419" lon="7.3318703"><ele>1087.4285714285713</ele><time>2026-04-04T15:22:38.59Z</time></trkpt><trkpt lat="45.0803094" lon="7.3318271"><ele>1085.0</ele><time>2026-04-04T15:22:44.541Z</time></trkpt><trkpt lat="45.0803573" lon="7.3317505"><ele>1085.0</ele><time>2026-04-04T15:22:50.597Z</time></trkpt><trkpt lat="45.080406" lon="7.3316715"><ele>1085.0</ele><time>2026-04-04T15:22:57.858Z</time></trkpt><trkpt lat="45.0804589" lon="7.3316164"><ele>1085.0</ele><time>2026-04-04T15:23:04.517Z</time></trkpt><trkpt lat="45.0805122" lon="7.3315445"><ele>1085.0</ele><time>2026-04-04T15:23:11.53Z</time></trkpt><trkpt lat="45.0805714" lon="7.3315007"><ele>1085.0</ele><time>2026-04-04T15:23:18.579Z</time></trkpt><trkpt lat="45.0806337" lon="7.3314753"><ele>1085.0</ele><time>2026-04-04T15:23:24.599Z</time></trkpt><trkpt lat="45.0806966" lon="7.331426"><ele>1085.0</ele><time>2026-04-04T15:23:32.568Z</time></trkpt><trkpt lat="45.0807612" lon="7.331414"><ele>1085.0</ele><time>2026-04-04T15:23:39.583Z</time></trkpt><trkpt lat="45.080832" lon="7.3314073"><ele>1085.0</ele><time>2026-04-04T15:23:46.596Z</time></trkpt><trkpt lat="45.0809009" lon="7.3314118"><ele>1085.0</ele><time>2026-04-04T15:23:52.546Z</time></trkpt><trkpt lat="45.0808745" lon="7.3314983"><ele>1085.0</ele><time>2026-04-04T15:24:05.51Z</time></trkpt><trkpt lat="45.0808082" lon="7.3315185"><ele>1085.0</ele><time>2026-04-04T15:24:15.603Z</time></trkpt><trkpt lat="45.0807703" lon="7.3315987"><ele>1085.0</ele><time>2026-04-04T15:24:23.573Z</time></trkpt><trkpt lat="45.0807549" lon="7.3317021"><ele>1085.0</ele><time>2026-04-04T15:24:29.516Z</time></trkpt><trkpt lat="45.080754" lon="7.3318052"><ele>1085.0</ele><time>2026-04-04T15:24:35.437Z</time></trkpt><trkpt lat="45.0807461" lon="7.3318996"><ele>1085.0</ele><time>2026-04-04T15:24:47.479Z</time></trkpt><trkpt lat="45.0807327" lon="7.3319882"><ele>1085.0</ele><time>2026-04-04T15:24:53.601Z</time></trkpt><trkpt lat="45.0807354" lon="7.3320826"><ele>1085.0</ele><time>2026-04-04T15:25:00.551Z</time></trkpt><trkpt lat="45.0807397" lon="7.332174"><ele>1085.0</ele><time>2026-04-04T15:25:06.537Z</time></trkpt><trkpt lat="45.0807594" lon="7.3322642"><ele>1085.0</ele><time>2026-04-04T15:25:12.559Z</time></trkpt><trkpt lat="45.0807559" lon="7.33236"><ele>1085.0</ele><time>2026-04-04T15:25:20.539Z</time></trkpt><trkpt lat="45.0807532" lon="7.3324513"><ele>1081.7142857142858</ele><time>2026-04-04T15:25:28.507Z</time></trkpt><trkpt lat="45.0807756" lon="7.3325427"><ele>1078.4285714285716</ele><time>2026-04-04T15:25:34.553Z</time></trkpt><trkpt lat="45.0808162" lon="7.3326144"><ele>1075.142857142857</ele><time>2026-04-04T15:25:40.477Z</time></trkpt><trkpt lat="45.0808858" lon="7.3326809"><ele>1071.857142857143</ele><time>2026-04-04T15:25:57.507Z</time></trkpt><trkpt lat="45.0809457" lon="7.3326351"><ele>1068.5714285714287</ele><time>2026-04-04T15:26:01.543Z</time></trkpt><trkpt lat="45.0810153" lon="7.3325914"><ele>1065.2857142857142</ele><time>2026-04-04T15:26:08.462Z</time></trkpt><trkpt lat="45.0810757" lon="7.3325562"><ele>1062.0</ele><time>2026-04-04T15:26:13.898Z</time></trkpt><trkpt lat="45.0811008" lon="7.3324712"><ele>1062.0</ele><time>2026-04-04T15:26:24.523Z</time></trkpt><trkpt lat="45.0811661" lon="7.3324245"><ele>1062.0</ele><time>2026-04-04T15:26:31.583Z</time></trkpt><trkpt lat="45.0812217" lon="7.3323811"><ele>1062.0</ele><time>2026-04-04T15:26:38.562Z</time></trkpt><trkpt lat="45.0812622" lon="7.3323029"><ele>1062.0</ele><time>2026-04-04T15:26:46.518Z</time></trkpt><trkpt lat="45.0813015" lon="7.3322238"><ele>1062.0</ele><time>2026-04-04T15:26:52.601Z</time></trkpt><trkpt lat="45.0813545" lon="7.3321492"><ele>1062.0</ele><time>2026-04-04T15:26:59.085Z</time></trkpt><trkpt lat="45.0813999" lon="7.3320817"><ele>1062.0</ele><time>2026-04-04T15:27:04.583Z</time></trkpt><trkpt lat="45.081437" lon="7.332006"><ele>1060.857142857143</ele><time>2026-04-04T15:27:09.577Z</time></trkpt><trkpt lat="45.0814717" lon="7.3319222"><ele>1059.7142857142858</ele><time>2026-04-04T15:27:16.59Z</time></trkpt><trkpt lat="45.0815258" lon="7.3318659"><ele>1058.5714285714287</ele><time>2026-04-04T15:27:22.54Z</time></trkpt><trkpt lat="45.0815769" lon="7.3317877"><ele>1057.4285714285716</ele><time>2026-04-04T15:27:28.597Z</time></trkpt><trkpt lat="45.0816222" lon="7.3317242"><ele>1056.2857142857142</ele><time>2026-04-04T15:27:34.583Z</time></trkpt><trkpt lat="45.0816772" lon="7.3316623"><ele>1055.1428571428573</ele><time>2026-04-04T15:27:41.559Z</time></trkpt><trkpt lat="45.0817195" lon="7.3315795"><ele>1054.0</ele><time>2026-04-04T15:27:48.573Z</time></trkpt><trkpt lat="45.0817706" lon="7.3315173"><ele>1054.0000000000002</ele><time>2026-04-04T15:27:57.504Z</time></trkpt><trkpt lat="45.0818184" lon="7.3314445"><ele>1054.0</ele><time>2026-04-04T15:28:05.574Z</time></trkpt><trkpt lat="45.0818864" lon="7.3313953"><ele>1054.0</ele><time>2026-04-04T15:28:09.505Z</time></trkpt><trkpt lat="45.0819396" lon="7.331342"><ele>1054.0</ele><time>2026-04-04T15:28:14.607Z</time></trkpt><trkpt lat="45.0819727" lon="7.3314191"><ele>1054.0</ele><time>2026-04-04T15:28:33.483Z</time></trkpt><trkpt lat="45.0819438" lon="7.3314985"><ele>1054.0000000000002</ele><time>2026-04-04T15:28:40.533Z</time></trkpt><trkpt lat="45.0819189" lon="7.3315881"><ele>1054.0</ele><time>2026-04-04T15:28:48.523Z</time></trkpt><trkpt lat="45.0818872" lon="7.3316721"><ele>1054.0000000000002</ele><time>2026-04-04T15:28:56.419Z</time></trkpt><trkpt lat="45.0818488" lon="7.3317566"><ele>1054.0</ele><time>2026-04-04T15:29:04.54Z</time></trkpt><trkpt lat="45.0818203" lon="7.3318414"><ele>1054.0</ele><time>2026-04-04T15:29:12.516Z</time></trkpt><trkpt lat="45.0818033" lon="7.3319277"><ele>1054.0</ele><time>2026-04-04T15:29:18.573Z</time></trkpt><trkpt lat="45.0818047" lon="7.3320197"><ele>1054.0</ele><time>2026-04-04T15:29:24.522Z</time></trkpt><trkpt lat="45.0818017" lon="7.3321111"><ele>1054.0000000000002</ele><time>2026-04-04T15:29:30.58Z</time></trkpt><trkpt lat="45.081815" lon="7.3321988"><ele>1054.0</ele><time>2026-04-04T15:29:35.542Z</time></trkpt><trkpt lat="45.0818249" lon="7.3322907"><ele>1052.857142857143</ele><time>2026-04-04T15:29:42.462Z</time></trkpt><trkpt lat="45.0818572" lon="7.332372"><ele>1051.7142857142858</ele><time>2026-04-04T15:29:51.513Z</time></trkpt><trkpt lat="45.0819176" lon="7.3324131"><ele>1050.5714285714284</ele><time>2026-04-04T15:29:56.584Z</time></trkpt><trkpt lat="45.0819836" lon="7.3324064"><ele>1049.4285714285716</ele><time>2026-04-04T15:30:02.563Z</time></trkpt><trkpt lat="45.08205" lon="7.3324019"><ele>1048.2857142857142</ele><time>2026-04-04T15:30:12.551Z</time></trkpt><trkpt lat="45.0821144" lon="7.3324207"><ele>1047.142857142857</ele><time>2026-04-04T15:30:19.565Z</time></trkpt><trkpt lat="45.0821727" lon="7.3324671"><ele>1046.0</ele><time>2026-04-04T15:30:26.578Z</time></trkpt><trkpt lat="45.082204" lon="7.3325532"><ele>1045.9999999999998</ele><time>2026-04-04T15:30:35.505Z</time></trkpt><trkpt lat="45.0822053" lon="7.3326502"><ele>1046.0</ele><time>2026-04-04T15:30:46.561Z</time></trkpt><trkpt lat="45.0821873" lon="7.3327499"><ele>1046.0</ele><time>2026-04-04T15:30:53.602Z</time></trkpt><trkpt lat="45.082194" lon="7.3328456"><ele>1046.0</ele><time>2026-04-04T15:31:01.536Z</time></trkpt><trkpt lat="45.0821832" lon="7.3329462"><ele>1046.0</ele><time>2026-04-04T15:31:09.612Z</time></trkpt><trkpt lat="45.0821773" lon="7.3330491"><ele>1045.9999999999998</ele><time>2026-04-04T15:31:17.58Z</time></trkpt><trkpt lat="45.0821589" lon="7.3331367"><ele>1046.0</ele><time>2026-04-04T15:31:24.594Z</time></trkpt><trkpt lat="45.082114" lon="7.3332137"><ele>1044.142857142857</ele><time>2026-04-04T15:31:32.562Z</time></trkpt><trkpt lat="45.0820832" lon="7.3332937"><ele>1042.2857142857142</ele><time>2026-04-04T15:31:41.595Z</time></trkpt><trkpt lat="45.082048" lon="7.333368"><ele>1040.4285714285716</ele><time>2026-04-04T15:31:49.565Z</time></trkpt><trkpt lat="45.0820033" lon="7.3334431"><ele>1038.5714285714284</ele><time>2026-04-04T15:31:56.578Z</time></trkpt><trkpt lat="45.0819607" lon="7.3335089"><ele>1036.7142857142858</ele><time>2026-04-04T15:32:04.518Z</time></trkpt><trkpt lat="45.0819022" lon="7.3335516"><ele>1034.857142857143</ele><time>2026-04-04T15:32:10.505Z</time></trkpt><trkpt lat="45.0818386" lon="7.3335555"><ele>1033.0</ele><time>2026-04-04T15:32:17.56Z</time></trkpt><trkpt lat="45.0817744" lon="7.3335723"><ele>1033.0000000000002</ele><time>2026-04-04T15:32:25.586Z</time></trkpt><trkpt lat="45.0817178" lon="7.3336188"><ele>1033.0</ele><time>2026-04-04T15:32:32.442Z</time></trkpt><trkpt lat="45.0816618" lon="7.3336789"><ele>1033.0</ele><time>2026-04-04T15:32:38.549Z</time></trkpt><trkpt lat="45.0815978" lon="7.3337057"><ele>1033.0</ele><time>2026-04-04T15:32:44.606Z</time></trkpt><trkpt lat="45.0815466" lon="7.3337609"><ele>1033.0</ele><time>2026-04-04T15:32:50.556Z</time></trkpt><trkpt lat="45.0814914" lon="7.3338198"><ele>1033.0000000000002</ele><time>2026-04-04T15:32:57.561Z</time></trkpt><trkpt lat="45.0814286" lon="7.3338396"><ele>1033.0</ele><time>2026-04-04T15:33:06.601Z</time></trkpt><trkpt lat="45.0813681" lon="7.3338818"><ele>1048.0</ele><time>2026-04-04T15:33:14.422Z</time></trkpt><trkpt lat="45.0813703" lon="7.3339769"><ele>1017.0</ele><time>2026-04-04T15:33:19.564Z</time></trkpt><trkpt lat="45.0814121" lon="7.3340578"><ele>1017.0</ele><time>2026-04-04T15:33:23.578Z</time></trkpt><trkpt lat="45.0814651" lon="7.3341194"><ele>1017.0</ele><time>2026-04-04T15:33:28.489Z</time></trkpt></trkseg></trk></gpx>